<?xml version="1.0" encoding="UTF-8" standalone="no" ?>
<gpx xmlns="http://www.topografix.com/GPX/1/1" xmlns:xsi="http://www.w3.org/2001/XMLSchema-instance" xsi:schemaLocation="http://www.topografix.com/GPX/1/1 http://www.topografix.com/GPX/1/1/gpx.xsd" version="1.1" creator="VisuGPX - https://www.visugpx.com">
  <metadata>
    <name>Marche de la gym de Marsannay du jeudi 28 Mars 2019</name>
    <desc><![CDATA[Un tour derrière Fixey.]]></desc>
  </metadata>
  <trk>
    <name><![CDATA[Track]]></name>
    <trkseg>
      <trkpt lat="47.25006" lon="4.96873">
        <ele>318.56488037109</ele>
        <time>2019-03-28T08:56:23+0100</time>
      </trkpt>
      <trkpt lat="47.25006" lon="4.96873">
        <ele>319.52081298828</ele>
        <time>2019-03-28T08:56:27+0100</time>
      </trkpt>
      <trkpt lat="47.25005" lon="4.96874">
        <ele>319.95568847656</ele>
        <time>2019-03-28T08:56:30+0100</time>
      </trkpt>
      <trkpt lat="47.25004" lon="4.96875">
        <ele>320.31790161133</ele>
        <time>2019-03-28T08:56:33+0100</time>
      </trkpt>
      <trkpt lat="47.25003" lon="4.96875">
        <ele>320.88098144531</ele>
        <time>2019-03-28T08:56:36+0100</time>
      </trkpt>
      <trkpt lat="47.25003" lon="4.96875">
        <ele>320.72543334961</ele>
        <time>2019-03-28T08:56:39+0100</time>
      </trkpt>
      <trkpt lat="47.25003" lon="4.96875">
        <ele>320.06353759766</ele>
        <time>2019-03-28T08:56:42+0100</time>
      </trkpt>
      <trkpt lat="47.25003" lon="4.96875">
        <ele>320.45864868164</ele>
        <time>2019-03-28T08:56:45+0100</time>
      </trkpt>
      <trkpt lat="47.25003" lon="4.96875">
        <ele>321.22845458984</ele>
        <time>2019-03-28T08:56:48+0100</time>
      </trkpt>
      <trkpt lat="47.25003" lon="4.96875">
        <ele>321.81176757812</ele>
        <time>2019-03-28T08:56:51+0100</time>
      </trkpt>
      <trkpt lat="47.25003" lon="4.96875">
        <ele>322.01275634766</ele>
        <time>2019-03-28T08:56:54+0100</time>
      </trkpt>
      <trkpt lat="47.24999" lon="4.96883">
        <ele>322.00454711914</ele>
        <time>2019-03-28T08:56:57+0100</time>
      </trkpt>
      <trkpt lat="47.24998" lon="4.96885">
        <ele>322.00326538086</ele>
        <time>2019-03-28T08:57:00+0100</time>
      </trkpt>
      <trkpt lat="47.24997" lon="4.96885">
        <ele>322.03125</ele>
        <time>2019-03-28T08:57:03+0100</time>
      </trkpt>
      <trkpt lat="47.24997" lon="4.96887">
        <ele>322.13360595703</ele>
        <time>2019-03-28T08:57:06+0100</time>
      </trkpt>
      <trkpt lat="47.24997" lon="4.96886">
        <ele>322.33160400391</ele>
        <time>2019-03-28T08:57:09+0100</time>
      </trkpt>
      <trkpt lat="47.24998" lon="4.96887">
        <ele>322.39154052734</ele>
        <time>2019-03-28T08:57:12+0100</time>
      </trkpt>
      <trkpt lat="47.24997" lon="4.96885">
        <ele>322.52206420898</ele>
        <time>2019-03-28T08:57:15+0100</time>
      </trkpt>
      <trkpt lat="47.24997" lon="4.96883">
        <ele>322.59216308594</ele>
        <time>2019-03-28T08:57:18+0100</time>
      </trkpt>
      <trkpt lat="47.24997" lon="4.96882">
        <ele>322.61596679688</ele>
        <time>2019-03-28T08:57:21+0100</time>
      </trkpt>
      <trkpt lat="47.24997" lon="4.96882">
        <ele>322.65930175781</ele>
        <time>2019-03-28T08:57:24+0100</time>
      </trkpt>
      <trkpt lat="47.24996" lon="4.96883">
        <ele>322.65615844727</ele>
        <time>2019-03-28T08:57:27+0100</time>
      </trkpt>
      <trkpt lat="47.24997" lon="4.96884">
        <ele>322.69387817383</ele>
        <time>2019-03-28T08:57:30+0100</time>
      </trkpt>
      <trkpt lat="47.24997" lon="4.96885">
        <ele>322.70104980469</ele>
        <time>2019-03-28T08:57:33+0100</time>
      </trkpt>
      <trkpt lat="47.24996" lon="4.96885">
        <ele>322.70932006836</ele>
        <time>2019-03-28T08:57:36+0100</time>
      </trkpt>
      <trkpt lat="47.24996" lon="4.96887">
        <ele>322.72079467773</ele>
        <time>2019-03-28T08:57:39+0100</time>
      </trkpt>
      <trkpt lat="47.24996" lon="4.96887">
        <ele>322.73498535156</ele>
        <time>2019-03-28T08:57:42+0100</time>
      </trkpt>
      <trkpt lat="47.24996" lon="4.96886">
        <ele>322.75149536133</ele>
        <time>2019-03-28T08:57:45+0100</time>
      </trkpt>
      <trkpt lat="47.24995" lon="4.96885">
        <ele>322.77188110352</ele>
        <time>2019-03-28T08:57:48+0100</time>
      </trkpt>
      <trkpt lat="47.24995" lon="4.96885">
        <ele>322.86651611328</ele>
        <time>2019-03-28T08:57:51+0100</time>
      </trkpt>
      <trkpt lat="47.24995" lon="4.96884">
        <ele>322.89538574219</ele>
        <time>2019-03-28T08:57:54+0100</time>
      </trkpt>
      <trkpt lat="47.24995" lon="4.96884">
        <ele>323.19665527344</ele>
        <time>2019-03-28T08:57:57+0100</time>
      </trkpt>
      <trkpt lat="47.24995" lon="4.96884">
        <ele>323.22543334961</ele>
        <time>2019-03-28T08:58:00+0100</time>
      </trkpt>
      <trkpt lat="47.24995" lon="4.96883">
        <ele>323.25344848633</ele>
        <time>2019-03-28T08:58:03+0100</time>
      </trkpt>
      <trkpt lat="47.24994" lon="4.96883">
        <ele>323.2815246582</ele>
        <time>2019-03-28T08:58:06+0100</time>
      </trkpt>
      <trkpt lat="47.24994" lon="4.96882">
        <ele>323.40356445312</ele>
        <time>2019-03-28T08:58:09+0100</time>
      </trkpt>
      <trkpt lat="47.24994" lon="4.96883">
        <ele>323.70779418945</ele>
        <time>2019-03-28T08:58:12+0100</time>
      </trkpt>
      <trkpt lat="47.24994" lon="4.96885">
        <ele>323.98422241211</ele>
        <time>2019-03-28T08:58:15+0100</time>
      </trkpt>
      <trkpt lat="47.24995" lon="4.96886">
        <ele>324.18728637695</ele>
        <time>2019-03-28T08:58:18+0100</time>
      </trkpt>
      <trkpt lat="47.24995" lon="4.96887">
        <ele>324.30215454102</ele>
        <time>2019-03-28T08:58:21+0100</time>
      </trkpt>
      <trkpt lat="47.24996" lon="4.96888">
        <ele>324.56796264648</ele>
        <time>2019-03-28T08:58:24+0100</time>
      </trkpt>
      <trkpt lat="47.24996" lon="4.96888">
        <ele>324.59320068359</ele>
        <time>2019-03-28T08:58:27+0100</time>
      </trkpt>
      <trkpt lat="47.24996" lon="4.96889">
        <ele>324.61672973633</ele>
        <time>2019-03-28T08:58:30+0100</time>
      </trkpt>
      <trkpt lat="47.24997" lon="4.96889">
        <ele>324.63613891602</ele>
        <time>2019-03-28T08:58:33+0100</time>
      </trkpt>
      <trkpt lat="47.24997" lon="4.9689">
        <ele>324.65408325195</ele>
        <time>2019-03-28T08:58:36+0100</time>
      </trkpt>
      <trkpt lat="47.24997" lon="4.9689">
        <ele>324.67132568359</ele>
        <time>2019-03-28T08:58:39+0100</time>
      </trkpt>
      <trkpt lat="47.24996" lon="4.9689">
        <ele>324.73550415039</ele>
        <time>2019-03-28T08:58:42+0100</time>
      </trkpt>
      <trkpt lat="47.24998" lon="4.96891">
        <ele>324.84533691406</ele>
        <time>2019-03-28T08:58:45+0100</time>
      </trkpt>
      <trkpt lat="47.24998" lon="4.96891">
        <ele>324.85980224609</ele>
        <time>2019-03-28T08:58:48+0100</time>
      </trkpt>
      <trkpt lat="47.24998" lon="4.96891">
        <ele>324.91723632812</ele>
        <time>2019-03-28T08:58:51+0100</time>
      </trkpt>
      <trkpt lat="47.24998" lon="4.96891">
        <ele>324.97543334961</ele>
        <time>2019-03-28T08:58:54+0100</time>
      </trkpt>
      <trkpt lat="47.24999" lon="4.9689">
        <ele>324.98974609375</ele>
        <time>2019-03-28T08:58:57+0100</time>
      </trkpt>
      <trkpt lat="47.24999" lon="4.9689">
        <ele>325.00402832031</ele>
        <time>2019-03-28T08:59:00+0100</time>
      </trkpt>
      <trkpt lat="47.24999" lon="4.9689">
        <ele>325.0173034668</ele>
        <time>2019-03-28T08:59:03+0100</time>
      </trkpt>
      <trkpt lat="47.24999" lon="4.96889">
        <ele>325.02841186523</ele>
        <time>2019-03-28T08:59:06+0100</time>
      </trkpt>
      <trkpt lat="47.25" lon="4.96889">
        <ele>325.03848266602</ele>
        <time>2019-03-28T08:59:09+0100</time>
      </trkpt>
      <trkpt lat="47.25" lon="4.96888">
        <ele>325.04843139648</ele>
        <time>2019-03-28T08:59:12+0100</time>
      </trkpt>
      <trkpt lat="47.25" lon="4.96888">
        <ele>325.08590698242</ele>
        <time>2019-03-28T08:59:15+0100</time>
      </trkpt>
      <trkpt lat="47.25" lon="4.96888">
        <ele>325.09436035156</ele>
        <time>2019-03-28T08:59:18+0100</time>
      </trkpt>
      <trkpt lat="47.25" lon="4.96889">
        <ele>325.10336303711</ele>
        <time>2019-03-28T08:59:21+0100</time>
      </trkpt>
      <trkpt lat="47.25" lon="4.96889">
        <ele>325.11206054688</ele>
        <time>2019-03-28T08:59:24+0100</time>
      </trkpt>
      <trkpt lat="47.24999" lon="4.96888">
        <ele>325.11822509766</ele>
        <time>2019-03-28T08:59:27+0100</time>
      </trkpt>
      <trkpt lat="47.25" lon="4.96888">
        <ele>325.12274169922</ele>
        <time>2019-03-28T08:59:30+0100</time>
      </trkpt>
      <trkpt lat="47.24999" lon="4.96887">
        <ele>325.12680053711</ele>
        <time>2019-03-28T08:59:33+0100</time>
      </trkpt>
      <trkpt lat="47.24999" lon="4.96887">
        <ele>325.1305847168</ele>
        <time>2019-03-28T08:59:36+0100</time>
      </trkpt>
      <trkpt lat="47.24999" lon="4.96886">
        <ele>325.13226318359</ele>
        <time>2019-03-28T08:59:39+0100</time>
      </trkpt>
      <trkpt lat="47.24999" lon="4.96887">
        <ele>325.1330871582</ele>
        <time>2019-03-28T08:59:42+0100</time>
      </trkpt>
      <trkpt lat="47.24999" lon="4.96887">
        <ele>325.13903808594</ele>
        <time>2019-03-28T08:59:45+0100</time>
      </trkpt>
      <trkpt lat="47.24998" lon="4.96887">
        <ele>325.14166259766</ele>
        <time>2019-03-28T08:59:48+0100</time>
      </trkpt>
      <trkpt lat="47.24998" lon="4.96888">
        <ele>325.15707397461</ele>
        <time>2019-03-28T08:59:51+0100</time>
      </trkpt>
      <trkpt lat="47.24998" lon="4.96888">
        <ele>325.17825317383</ele>
        <time>2019-03-28T08:59:54+0100</time>
      </trkpt>
      <trkpt lat="47.24997" lon="4.96889">
        <ele>325.18374633789</ele>
        <time>2019-03-28T08:59:57+0100</time>
      </trkpt>
      <trkpt lat="47.24997" lon="4.96888">
        <ele>325.18716430664</ele>
        <time>2019-03-28T09:00:00+0100</time>
      </trkpt>
      <trkpt lat="47.24999" lon="4.9689">
        <ele>325.18521118164</ele>
        <time>2019-03-28T09:00:03+0100</time>
      </trkpt>
      <trkpt lat="47.24999" lon="4.9689">
        <ele>325.1770324707</ele>
        <time>2019-03-28T09:00:06+0100</time>
      </trkpt>
      <trkpt lat="47.24999" lon="4.9689">
        <ele>325.16723632812</ele>
        <time>2019-03-28T09:00:09+0100</time>
      </trkpt>
      <trkpt lat="47.24999" lon="4.9689">
        <ele>325.15655517578</ele>
        <time>2019-03-28T09:00:12+0100</time>
      </trkpt>
      <trkpt lat="47.24999" lon="4.9689">
        <ele>325.14520263672</ele>
        <time>2019-03-28T09:00:15+0100</time>
      </trkpt>
      <trkpt lat="47.24999" lon="4.9689">
        <ele>325.13272094727</ele>
        <time>2019-03-28T09:00:18+0100</time>
      </trkpt>
      <trkpt lat="47.24999" lon="4.9689">
        <ele>325.11871337891</ele>
        <time>2019-03-28T09:00:21+0100</time>
      </trkpt>
      <trkpt lat="47.24999" lon="4.9689">
        <ele>325.10394287109</ele>
        <time>2019-03-28T09:00:24+0100</time>
      </trkpt>
      <trkpt lat="47.24999" lon="4.9689">
        <ele>325.0888671875</ele>
        <time>2019-03-28T09:00:27+0100</time>
      </trkpt>
      <trkpt lat="47.24998" lon="4.9689">
        <ele>325.07534790039</ele>
        <time>2019-03-28T09:00:30+0100</time>
      </trkpt>
      <trkpt lat="47.24999" lon="4.96891">
        <ele>325.06372070312</ele>
        <time>2019-03-28T09:00:33+0100</time>
      </trkpt>
      <trkpt lat="47.24999" lon="4.96891">
        <ele>325.05364990234</ele>
        <time>2019-03-28T09:00:36+0100</time>
      </trkpt>
      <trkpt lat="47.24999" lon="4.96891">
        <ele>325.04504394531</ele>
        <time>2019-03-28T09:00:39+0100</time>
      </trkpt>
      <trkpt lat="47.24999" lon="4.96891">
        <ele>325.03695678711</ele>
        <time>2019-03-28T09:00:42+0100</time>
      </trkpt>
      <trkpt lat="47.24999" lon="4.96891">
        <ele>325.02920532227</ele>
        <time>2019-03-28T09:00:45+0100</time>
      </trkpt>
      <trkpt lat="47.24999" lon="4.96891">
        <ele>325.02185058594</ele>
        <time>2019-03-28T09:00:48+0100</time>
      </trkpt>
      <trkpt lat="47.24998" lon="4.96892">
        <ele>324.97589111328</ele>
        <time>2019-03-28T09:00:51+0100</time>
      </trkpt>
      <trkpt lat="47.24998" lon="4.96892">
        <ele>324.99133300781</ele>
        <time>2019-03-28T09:00:54+0100</time>
      </trkpt>
      <trkpt lat="47.24998" lon="4.96892">
        <ele>324.99447631836</ele>
        <time>2019-03-28T09:00:57+0100</time>
      </trkpt>
      <trkpt lat="47.24997" lon="4.96892">
        <ele>324.99826049805</ele>
        <time>2019-03-28T09:01:00+0100</time>
      </trkpt>
      <trkpt lat="47.24996" lon="4.96893">
        <ele>325.01571655273</ele>
        <time>2019-03-28T09:01:03+0100</time>
      </trkpt>
      <trkpt lat="47.24996" lon="4.96893">
        <ele>325.0436706543</ele>
        <time>2019-03-28T09:01:06+0100</time>
      </trkpt>
      <trkpt lat="47.24996" lon="4.96893">
        <ele>325.07183837891</ele>
        <time>2019-03-28T09:01:09+0100</time>
      </trkpt>
      <trkpt lat="47.24997" lon="4.96892">
        <ele>325.07803344727</ele>
        <time>2019-03-28T09:01:12+0100</time>
      </trkpt>
      <trkpt lat="47.24999" lon="4.96892">
        <ele>325.08303833008</ele>
        <time>2019-03-28T09:01:15+0100</time>
      </trkpt>
      <trkpt lat="47.24999" lon="4.96892">
        <ele>325.08825683594</ele>
        <time>2019-03-28T09:01:18+0100</time>
      </trkpt>
      <trkpt lat="47.25" lon="4.96892">
        <ele>325.09387207031</ele>
        <time>2019-03-28T09:01:21+0100</time>
      </trkpt>
      <trkpt lat="47.25" lon="4.96892">
        <ele>325.10064697266</ele>
        <time>2019-03-28T09:01:24+0100</time>
      </trkpt>
      <trkpt lat="47.25" lon="4.96893">
        <ele>325.10879516602</ele>
        <time>2019-03-28T09:01:27+0100</time>
      </trkpt>
      <trkpt lat="47.25" lon="4.96893">
        <ele>325.1184387207</ele>
        <time>2019-03-28T09:01:30+0100</time>
      </trkpt>
      <trkpt lat="47.25" lon="4.96893">
        <ele>325.12911987305</ele>
        <time>2019-03-28T09:01:33+0100</time>
      </trkpt>
      <trkpt lat="47.25" lon="4.96893">
        <ele>325.14080810547</ele>
        <time>2019-03-28T09:01:36+0100</time>
      </trkpt>
      <trkpt lat="47.25001" lon="4.96892">
        <ele>325.23062133789</ele>
        <time>2019-03-28T09:01:39+0100</time>
      </trkpt>
      <trkpt lat="47.25001" lon="4.96892">
        <ele>325.28457641602</ele>
        <time>2019-03-28T09:01:42+0100</time>
      </trkpt>
      <trkpt lat="47.25002" lon="4.96891">
        <ele>325.3450012207</ele>
        <time>2019-03-28T09:01:45+0100</time>
      </trkpt>
      <trkpt lat="47.25002" lon="4.96892">
        <ele>325.4098815918</ele>
        <time>2019-03-28T09:01:48+0100</time>
      </trkpt>
      <trkpt lat="47.25001" lon="4.96893">
        <ele>325.46780395508</ele>
        <time>2019-03-28T09:01:51+0100</time>
      </trkpt>
      <trkpt lat="47.25" lon="4.96893">
        <ele>325.48092651367</ele>
        <time>2019-03-28T09:01:54+0100</time>
      </trkpt>
      <trkpt lat="47.24999" lon="4.96893">
        <ele>325.53454589844</ele>
        <time>2019-03-28T09:01:57+0100</time>
      </trkpt>
      <trkpt lat="47.24998" lon="4.96893">
        <ele>325.57214355469</ele>
        <time>2019-03-28T09:02:00+0100</time>
      </trkpt>
      <trkpt lat="47.24998" lon="4.96893">
        <ele>325.58154296875</ele>
        <time>2019-03-28T09:02:03+0100</time>
      </trkpt>
      <trkpt lat="47.24998" lon="4.96893">
        <ele>325.58285522461</ele>
        <time>2019-03-28T09:02:06+0100</time>
      </trkpt>
      <trkpt lat="47.24997" lon="4.96893">
        <ele>325.58395385742</ele>
        <time>2019-03-28T09:02:09+0100</time>
      </trkpt>
      <trkpt lat="47.24997" lon="4.96893">
        <ele>325.5852355957</ele>
        <time>2019-03-28T09:02:12+0100</time>
      </trkpt>
      <trkpt lat="47.24997" lon="4.96893">
        <ele>325.58673095703</ele>
        <time>2019-03-28T09:02:15+0100</time>
      </trkpt>
      <trkpt lat="47.24998" lon="4.96893">
        <ele>325.58868408203</ele>
        <time>2019-03-28T09:02:18+0100</time>
      </trkpt>
      <trkpt lat="47.24999" lon="4.96892">
        <ele>325.59060668945</ele>
        <time>2019-03-28T09:02:21+0100</time>
      </trkpt>
      <trkpt lat="47.25" lon="4.96892">
        <ele>325.59298706055</ele>
        <time>2019-03-28T09:02:24+0100</time>
      </trkpt>
      <trkpt lat="47.25001" lon="4.96892">
        <ele>325.59637451172</ele>
        <time>2019-03-28T09:02:27+0100</time>
      </trkpt>
      <trkpt lat="47.25001" lon="4.96892">
        <ele>325.60153198242</ele>
        <time>2019-03-28T09:02:30+0100</time>
      </trkpt>
      <trkpt lat="47.25001" lon="4.96892">
        <ele>325.60928344727</ele>
        <time>2019-03-28T09:02:33+0100</time>
      </trkpt>
      <trkpt lat="47.25002" lon="4.96892">
        <ele>325.61972045898</ele>
        <time>2019-03-28T09:02:36+0100</time>
      </trkpt>
      <trkpt lat="47.25002" lon="4.96892">
        <ele>325.63290405273</ele>
        <time>2019-03-28T09:02:39+0100</time>
      </trkpt>
      <trkpt lat="47.25002" lon="4.96892">
        <ele>325.64965820312</ele>
        <time>2019-03-28T09:02:42+0100</time>
      </trkpt>
      <trkpt lat="47.25002" lon="4.96892">
        <ele>325.67004394531</ele>
        <time>2019-03-28T09:02:45+0100</time>
      </trkpt>
      <trkpt lat="47.25001" lon="4.96893">
        <ele>325.69375610352</ele>
        <time>2019-03-28T09:02:48+0100</time>
      </trkpt>
      <trkpt lat="47.25001" lon="4.96893">
        <ele>325.7190246582</ele>
        <time>2019-03-28T09:02:51+0100</time>
      </trkpt>
      <trkpt lat="47.25001" lon="4.96893">
        <ele>325.74398803711</ele>
        <time>2019-03-28T09:02:54+0100</time>
      </trkpt>
      <trkpt lat="47.25001" lon="4.96893">
        <ele>325.91156005859</ele>
        <time>2019-03-28T09:02:57+0100</time>
      </trkpt>
      <trkpt lat="47.25001" lon="4.96893">
        <ele>325.93600463867</ele>
        <time>2019-03-28T09:03:00+0100</time>
      </trkpt>
      <trkpt lat="47.25001" lon="4.96893">
        <ele>325.96292114258</ele>
        <time>2019-03-28T09:03:03+0100</time>
      </trkpt>
      <trkpt lat="47.25001" lon="4.96893">
        <ele>325.99096679688</ele>
        <time>2019-03-28T09:03:06+0100</time>
      </trkpt>
      <trkpt lat="47.25002" lon="4.96893">
        <ele>326.01657104492</ele>
        <time>2019-03-28T09:03:09+0100</time>
      </trkpt>
      <trkpt lat="47.25002" lon="4.96893">
        <ele>326.04025268555</ele>
        <time>2019-03-28T09:03:12+0100</time>
      </trkpt>
      <trkpt lat="47.25" lon="4.96893">
        <ele>326.06365966797</ele>
        <time>2019-03-28T09:03:15+0100</time>
      </trkpt>
      <trkpt lat="47.24999" lon="4.96893">
        <ele>326.08685302734</ele>
        <time>2019-03-28T09:03:18+0100</time>
      </trkpt>
      <trkpt lat="47.24999" lon="4.96894">
        <ele>326.10992431641</ele>
        <time>2019-03-28T09:03:21+0100</time>
      </trkpt>
      <trkpt lat="47.24999" lon="4.96894">
        <ele>326.13235473633</ele>
        <time>2019-03-28T09:03:24+0100</time>
      </trkpt>
      <trkpt lat="47.24999" lon="4.96893">
        <ele>326.32360839844</ele>
        <time>2019-03-28T09:03:27+0100</time>
      </trkpt>
      <trkpt lat="47.25001" lon="4.96891">
        <ele>326.50085449219</ele>
        <time>2019-03-28T09:03:30+0100</time>
      </trkpt>
      <trkpt lat="47.25002" lon="4.96888">
        <ele>326.69860839844</ele>
        <time>2019-03-28T09:03:33+0100</time>
      </trkpt>
      <trkpt lat="47.25" lon="4.96885">
        <ele>326.8796081543</ele>
        <time>2019-03-28T09:03:36+0100</time>
      </trkpt>
      <trkpt lat="47.25" lon="4.96883">
        <ele>326.99423217773</ele>
        <time>2019-03-28T09:03:39+0100</time>
      </trkpt>
      <trkpt lat="47.25001" lon="4.9688">
        <ele>327.08093261719</ele>
        <time>2019-03-28T09:03:42+0100</time>
      </trkpt>
      <trkpt lat="47.25001" lon="4.96877">
        <ele>327.17242431641</ele>
        <time>2019-03-28T09:03:45+0100</time>
      </trkpt>
      <trkpt lat="47.25001" lon="4.96876">
        <ele>327.26034545898</ele>
        <time>2019-03-28T09:03:48+0100</time>
      </trkpt>
      <trkpt lat="47.25002" lon="4.96873">
        <ele>327.34802246094</ele>
        <time>2019-03-28T09:03:51+0100</time>
      </trkpt>
      <trkpt lat="47.25003" lon="4.9687">
        <ele>327.45217895508</ele>
        <time>2019-03-28T09:03:54+0100</time>
      </trkpt>
      <trkpt lat="47.25003" lon="4.96867">
        <ele>327.60073852539</ele>
        <time>2019-03-28T09:03:57+0100</time>
      </trkpt>
      <trkpt lat="47.25004" lon="4.96865">
        <ele>327.77194213867</ele>
        <time>2019-03-28T09:04:00+0100</time>
      </trkpt>
      <trkpt lat="47.25004" lon="4.96862">
        <ele>327.94296264648</ele>
        <time>2019-03-28T09:04:03+0100</time>
      </trkpt>
      <trkpt lat="47.25005" lon="4.96859">
        <ele>328.12963867188</ele>
        <time>2019-03-28T09:04:06+0100</time>
      </trkpt>
      <trkpt lat="47.25006" lon="4.96857">
        <ele>328.32232666016</ele>
        <time>2019-03-28T09:04:09+0100</time>
      </trkpt>
      <trkpt lat="47.25005" lon="4.96854">
        <ele>328.5022277832</ele>
        <time>2019-03-28T09:04:12+0100</time>
      </trkpt>
      <trkpt lat="47.25005" lon="4.9685">
        <ele>328.66220092773</ele>
        <time>2019-03-28T09:04:15+0100</time>
      </trkpt>
      <trkpt lat="47.25005" lon="4.96847">
        <ele>328.80206298828</ele>
        <time>2019-03-28T09:04:18+0100</time>
      </trkpt>
      <trkpt lat="47.25005" lon="4.96844">
        <ele>328.93286132812</ele>
        <time>2019-03-28T09:04:21+0100</time>
      </trkpt>
      <trkpt lat="47.25006" lon="4.96841">
        <ele>329.04483032227</ele>
        <time>2019-03-28T09:04:24+0100</time>
      </trkpt>
      <trkpt lat="47.25006" lon="4.96837">
        <ele>329.16241455078</ele>
        <time>2019-03-28T09:04:27+0100</time>
      </trkpt>
      <trkpt lat="47.25006" lon="4.96834">
        <ele>329.30334472656</ele>
        <time>2019-03-28T09:04:30+0100</time>
      </trkpt>
      <trkpt lat="47.25006" lon="4.9683">
        <ele>329.43099975586</ele>
        <time>2019-03-28T09:04:33+0100</time>
      </trkpt>
      <trkpt lat="47.25006" lon="4.96827">
        <ele>329.58444213867</ele>
        <time>2019-03-28T09:04:36+0100</time>
      </trkpt>
      <trkpt lat="47.25006" lon="4.96825">
        <ele>329.74945068359</ele>
        <time>2019-03-28T09:04:39+0100</time>
      </trkpt>
      <trkpt lat="47.25007" lon="4.96822">
        <ele>329.91351318359</ele>
        <time>2019-03-28T09:04:42+0100</time>
      </trkpt>
      <trkpt lat="47.25007" lon="4.96819">
        <ele>330.12020874023</ele>
        <time>2019-03-28T09:04:45+0100</time>
      </trkpt>
      <trkpt lat="47.25007" lon="4.96817">
        <ele>330.34158325195</ele>
        <time>2019-03-28T09:04:48+0100</time>
      </trkpt>
      <trkpt lat="47.25008" lon="4.96813">
        <ele>330.5703125</ele>
        <time>2019-03-28T09:04:51+0100</time>
      </trkpt>
      <trkpt lat="47.25008" lon="4.9681">
        <ele>330.83737182617</ele>
        <time>2019-03-28T09:04:54+0100</time>
      </trkpt>
      <trkpt lat="47.25008" lon="4.96806">
        <ele>331.11297607422</ele>
        <time>2019-03-28T09:04:57+0100</time>
      </trkpt>
      <trkpt lat="47.25009" lon="4.96803">
        <ele>331.38958740234</ele>
        <time>2019-03-28T09:05:00+0100</time>
      </trkpt>
      <trkpt lat="47.25009" lon="4.968">
        <ele>331.64608764648</ele>
        <time>2019-03-28T09:05:03+0100</time>
      </trkpt>
      <trkpt lat="47.25009" lon="4.96796">
        <ele>331.88314819336</ele>
        <time>2019-03-28T09:05:05+0100</time>
      </trkpt>
      <trkpt lat="47.25011" lon="4.96792">
        <ele>332.0481262207</ele>
        <time>2019-03-28T09:05:08+0100</time>
      </trkpt>
      <trkpt lat="47.25012" lon="4.9679">
        <ele>332.1794128418</ele>
        <time>2019-03-28T09:05:11+0100</time>
      </trkpt>
      <trkpt lat="47.25014" lon="4.96787">
        <ele>332.3212890625</ele>
        <time>2019-03-28T09:05:14+0100</time>
      </trkpt>
      <trkpt lat="47.25016" lon="4.96785">
        <ele>332.48361206055</ele>
        <time>2019-03-28T09:05:17+0100</time>
      </trkpt>
      <trkpt lat="47.25017" lon="4.96783">
        <ele>332.64047241211</ele>
        <time>2019-03-28T09:05:20+0100</time>
      </trkpt>
      <trkpt lat="47.25018" lon="4.96781">
        <ele>332.77401733398</ele>
        <time>2019-03-28T09:05:23+0100</time>
      </trkpt>
      <trkpt lat="47.2502" lon="4.96779">
        <ele>332.89025878906</ele>
        <time>2019-03-28T09:05:26+0100</time>
      </trkpt>
      <trkpt lat="47.25021" lon="4.96778">
        <ele>333.04946899414</ele>
        <time>2019-03-28T09:05:29+0100</time>
      </trkpt>
      <trkpt lat="47.25023" lon="4.96776">
        <ele>333.24041748047</ele>
        <time>2019-03-28T09:05:32+0100</time>
      </trkpt>
      <trkpt lat="47.25026" lon="4.96775">
        <ele>333.43615722656</ele>
        <time>2019-03-28T09:05:35+0100</time>
      </trkpt>
      <trkpt lat="47.25028" lon="4.96772">
        <ele>333.63632202148</ele>
        <time>2019-03-28T09:05:38+0100</time>
      </trkpt>
      <trkpt lat="47.2503" lon="4.96771">
        <ele>333.87503051758</ele>
        <time>2019-03-28T09:05:41+0100</time>
      </trkpt>
      <trkpt lat="47.25033" lon="4.9677">
        <ele>334.13339233398</ele>
        <time>2019-03-28T09:05:44+0100</time>
      </trkpt>
      <trkpt lat="47.25034" lon="4.9677">
        <ele>334.41351318359</ele>
        <time>2019-03-28T09:05:47+0100</time>
      </trkpt>
      <trkpt lat="47.25037" lon="4.96768">
        <ele>334.77865600586</ele>
        <time>2019-03-28T09:05:50+0100</time>
      </trkpt>
      <trkpt lat="47.25038" lon="4.96767">
        <ele>335.11004638672</ele>
        <time>2019-03-28T09:05:53+0100</time>
      </trkpt>
      <trkpt lat="47.25039" lon="4.96768">
        <ele>335.24258422852</ele>
        <time>2019-03-28T09:05:56+0100</time>
      </trkpt>
      <trkpt lat="47.2504" lon="4.96767">
        <ele>335.45541381836</ele>
        <time>2019-03-28T09:05:59+0100</time>
      </trkpt>
      <trkpt lat="47.25042" lon="4.96767">
        <ele>335.77893066406</ele>
        <time>2019-03-28T09:06:02+0100</time>
      </trkpt>
      <trkpt lat="47.25044" lon="4.96767">
        <ele>336.00015258789</ele>
        <time>2019-03-28T09:06:05+0100</time>
      </trkpt>
      <trkpt lat="47.25045" lon="4.96767">
        <ele>336.14654541016</ele>
        <time>2019-03-28T09:06:08+0100</time>
      </trkpt>
      <trkpt lat="47.25046" lon="4.96767">
        <ele>336.22311401367</ele>
        <time>2019-03-28T09:06:11+0100</time>
      </trkpt>
      <trkpt lat="47.25048" lon="4.96765">
        <ele>336.27819824219</ele>
        <time>2019-03-28T09:06:14+0100</time>
      </trkpt>
      <trkpt lat="47.25051" lon="4.96761">
        <ele>336.42623901367</ele>
        <time>2019-03-28T09:06:17+0100</time>
      </trkpt>
      <trkpt lat="47.25053" lon="4.96759">
        <ele>336.66326904297</ele>
        <time>2019-03-28T09:06:20+0100</time>
      </trkpt>
      <trkpt lat="47.25053" lon="4.96759">
        <ele>336.87976074219</ele>
        <time>2019-03-28T09:06:23+0100</time>
      </trkpt>
      <trkpt lat="47.25054" lon="4.96759">
        <ele>336.93615722656</ele>
        <time>2019-03-28T09:06:26+0100</time>
      </trkpt>
      <trkpt lat="47.25057" lon="4.96758">
        <ele>337.3053894043</ele>
        <time>2019-03-28T09:06:29+0100</time>
      </trkpt>
      <trkpt lat="47.25059" lon="4.96758">
        <ele>337.77029418945</ele>
        <time>2019-03-28T09:06:32+0100</time>
      </trkpt>
      <trkpt lat="47.25062" lon="4.96756">
        <ele>338.27914428711</ele>
        <time>2019-03-28T09:06:35+0100</time>
      </trkpt>
      <trkpt lat="47.25064" lon="4.96755">
        <ele>338.91171264648</ele>
        <time>2019-03-28T09:06:38+0100</time>
      </trkpt>
      <trkpt lat="47.25066" lon="4.96754">
        <ele>339.70913696289</ele>
        <time>2019-03-28T09:06:41+0100</time>
      </trkpt>
      <trkpt lat="47.25068" lon="4.96751">
        <ele>340.58843994141</ele>
        <time>2019-03-28T09:06:44+0100</time>
      </trkpt>
      <trkpt lat="47.25071" lon="4.96749">
        <ele>341.50311279297</ele>
        <time>2019-03-28T09:06:47+0100</time>
      </trkpt>
      <trkpt lat="47.25074" lon="4.96746">
        <ele>342.27151489258</ele>
        <time>2019-03-28T09:06:50+0100</time>
      </trkpt>
      <trkpt lat="47.25076" lon="4.96742">
        <ele>342.99353027344</ele>
        <time>2019-03-28T09:06:53+0100</time>
      </trkpt>
      <trkpt lat="47.25078" lon="4.9674">
        <ele>343.75521850586</ele>
        <time>2019-03-28T09:06:56+0100</time>
      </trkpt>
      <trkpt lat="47.2508" lon="4.96738">
        <ele>344.50332641602</ele>
        <time>2019-03-28T09:06:59+0100</time>
      </trkpt>
      <trkpt lat="47.2508" lon="4.96737">
        <ele>345.38079833984</ele>
        <time>2019-03-28T09:07:02+0100</time>
      </trkpt>
      <trkpt lat="47.25082" lon="4.96738">
        <ele>346.36053466797</ele>
        <time>2019-03-28T09:07:05+0100</time>
      </trkpt>
      <trkpt lat="47.25083" lon="4.96738">
        <ele>347.46801757812</ele>
        <time>2019-03-28T09:07:08+0100</time>
      </trkpt>
      <trkpt lat="47.25086" lon="4.96741">
        <ele>348.43743896484</ele>
        <time>2019-03-28T09:07:11+0100</time>
      </trkpt>
      <trkpt lat="47.25087" lon="4.96742">
        <ele>349.99264526367</ele>
        <time>2019-03-28T09:07:14+0100</time>
      </trkpt>
      <trkpt lat="47.2509" lon="4.96743">
        <ele>350.98468017578</ele>
        <time>2019-03-28T09:07:17+0100</time>
      </trkpt>
      <trkpt lat="47.25091" lon="4.96743">
        <ele>351.80868530273</ele>
        <time>2019-03-28T09:07:20+0100</time>
      </trkpt>
      <trkpt lat="47.25092" lon="4.96743">
        <ele>352.10961914062</ele>
        <time>2019-03-28T09:07:23+0100</time>
      </trkpt>
      <trkpt lat="47.25094" lon="4.96744">
        <ele>352.68469238281</ele>
        <time>2019-03-28T09:07:26+0100</time>
      </trkpt>
      <trkpt lat="47.25095" lon="4.96746">
        <ele>353.3235168457</ele>
        <time>2019-03-28T09:07:29+0100</time>
      </trkpt>
      <trkpt lat="47.25097" lon="4.96747">
        <ele>354.22094726562</ele>
        <time>2019-03-28T09:07:32+0100</time>
      </trkpt>
      <trkpt lat="47.25099" lon="4.96748">
        <ele>355.32843017578</ele>
        <time>2019-03-28T09:07:35+0100</time>
      </trkpt>
      <trkpt lat="47.25101" lon="4.96749">
        <ele>356.18969726562</ele>
        <time>2019-03-28T09:07:38+0100</time>
      </trkpt>
      <trkpt lat="47.25104" lon="4.96749">
        <ele>357.38430786133</ele>
        <time>2019-03-28T09:07:41+0100</time>
      </trkpt>
      <trkpt lat="47.25105" lon="4.96748">
        <ele>358.15438842773</ele>
        <time>2019-03-28T09:07:44+0100</time>
      </trkpt>
      <trkpt lat="47.25107" lon="4.96747">
        <ele>359.22506713867</ele>
        <time>2019-03-28T09:07:47+0100</time>
      </trkpt>
      <trkpt lat="47.25107" lon="4.96749">
        <ele>359.99813842773</ele>
        <time>2019-03-28T09:07:50+0100</time>
      </trkpt>
      <trkpt lat="47.2511" lon="4.96748">
        <ele>360.51837158203</ele>
        <time>2019-03-28T09:07:53+0100</time>
      </trkpt>
      <trkpt lat="47.25113" lon="4.96746">
        <ele>360.76489257812</ele>
        <time>2019-03-28T09:07:56+0100</time>
      </trkpt>
      <trkpt lat="47.25116" lon="4.96743">
        <ele>360.87490844727</ele>
        <time>2019-03-28T09:07:59+0100</time>
      </trkpt>
      <trkpt lat="47.25117" lon="4.96743">
        <ele>360.85687255859</ele>
        <time>2019-03-28T09:08:02+0100</time>
      </trkpt>
      <trkpt lat="47.25117" lon="4.96744">
        <ele>360.71279907227</ele>
        <time>2019-03-28T09:08:05+0100</time>
      </trkpt>
      <trkpt lat="47.2512" lon="4.9674">
        <ele>360.57794189453</ele>
        <time>2019-03-28T09:08:08+0100</time>
      </trkpt>
      <trkpt lat="47.25126" lon="4.96732">
        <ele>360.53289794922</ele>
        <time>2019-03-28T09:08:11+0100</time>
      </trkpt>
      <trkpt lat="47.25126" lon="4.96731">
        <ele>360.32476806641</ele>
        <time>2019-03-28T09:08:14+0100</time>
      </trkpt>
      <trkpt lat="47.25126" lon="4.96731">
        <ele>360.2106628418</ele>
        <time>2019-03-28T09:08:17+0100</time>
      </trkpt>
      <trkpt lat="47.25123" lon="4.96734">
        <ele>359.97647094727</ele>
        <time>2019-03-28T09:08:20+0100</time>
      </trkpt>
      <trkpt lat="47.25121" lon="4.96737">
        <ele>359.73013305664</ele>
        <time>2019-03-28T09:08:23+0100</time>
      </trkpt>
      <trkpt lat="47.25121" lon="4.96738">
        <ele>359.67385864258</ele>
        <time>2019-03-28T09:08:26+0100</time>
      </trkpt>
      <trkpt lat="47.25122" lon="4.96739">
        <ele>359.6155090332</ele>
        <time>2019-03-28T09:08:29+0100</time>
      </trkpt>
      <trkpt lat="47.25125" lon="4.96741">
        <ele>359.37060546875</ele>
        <time>2019-03-28T09:08:32+0100</time>
      </trkpt>
      <trkpt lat="47.25125" lon="4.96742">
        <ele>359.16656494141</ele>
        <time>2019-03-28T09:08:35+0100</time>
      </trkpt>
      <trkpt lat="47.25125" lon="4.96745">
        <ele>358.69128417969</ele>
        <time>2019-03-28T09:08:38+0100</time>
      </trkpt>
      <trkpt lat="47.25125" lon="4.96746">
        <ele>358.43356323242</ele>
        <time>2019-03-28T09:08:41+0100</time>
      </trkpt>
      <trkpt lat="47.25125" lon="4.96747">
        <ele>358.3655090332</ele>
        <time>2019-03-28T09:08:44+0100</time>
      </trkpt>
      <trkpt lat="47.25126" lon="4.96751">
        <ele>358.34661865234</ele>
        <time>2019-03-28T09:08:47+0100</time>
      </trkpt>
      <trkpt lat="47.25126" lon="4.96753">
        <ele>358.2578125</ele>
        <time>2019-03-28T09:08:50+0100</time>
      </trkpt>
      <trkpt lat="47.25127" lon="4.96753">
        <ele>358.07489013672</ele>
        <time>2019-03-28T09:08:53+0100</time>
      </trkpt>
      <trkpt lat="47.25129" lon="4.96757">
        <ele>357.83541870117</ele>
        <time>2019-03-28T09:08:56+0100</time>
      </trkpt>
      <trkpt lat="47.2513" lon="4.96758">
        <ele>357.56332397461</ele>
        <time>2019-03-28T09:08:59+0100</time>
      </trkpt>
      <trkpt lat="47.25134" lon="4.96762">
        <ele>356.93008422852</ele>
        <time>2019-03-28T09:09:02+0100</time>
      </trkpt>
      <trkpt lat="47.25136" lon="4.96764">
        <ele>356.20175170898</ele>
        <time>2019-03-28T09:09:05+0100</time>
      </trkpt>
      <trkpt lat="47.25138" lon="4.96766">
        <ele>355.46597290039</ele>
        <time>2019-03-28T09:09:08+0100</time>
      </trkpt>
      <trkpt lat="47.2514" lon="4.9677">
        <ele>354.72143554688</ele>
        <time>2019-03-28T09:09:11+0100</time>
      </trkpt>
      <trkpt lat="47.25142" lon="4.96773">
        <ele>354.2119140625</ele>
        <time>2019-03-28T09:09:14+0100</time>
      </trkpt>
      <trkpt lat="47.25142" lon="4.96774">
        <ele>353.79409790039</ele>
        <time>2019-03-28T09:09:17+0100</time>
      </trkpt>
      <trkpt lat="47.25143" lon="4.96775">
        <ele>353.52459716797</ele>
        <time>2019-03-28T09:09:20+0100</time>
      </trkpt>
      <trkpt lat="47.25144" lon="4.96777">
        <ele>353.43237304688</ele>
        <time>2019-03-28T09:09:23+0100</time>
      </trkpt>
      <trkpt lat="47.25145" lon="4.96777">
        <ele>353.24606323242</ele>
        <time>2019-03-28T09:09:26+0100</time>
      </trkpt>
      <trkpt lat="47.25147" lon="4.96778">
        <ele>353.07012939453</ele>
        <time>2019-03-28T09:09:29+0100</time>
      </trkpt>
      <trkpt lat="47.25149" lon="4.96782">
        <ele>352.79086303711</ele>
        <time>2019-03-28T09:09:32+0100</time>
      </trkpt>
      <trkpt lat="47.25153" lon="4.9678">
        <ele>352.59616088867</ele>
        <time>2019-03-28T09:09:35+0100</time>
      </trkpt>
      <trkpt lat="47.25156" lon="4.9678">
        <ele>352.48745727539</ele>
        <time>2019-03-28T09:09:38+0100</time>
      </trkpt>
      <trkpt lat="47.25158" lon="4.96779">
        <ele>352.43307495117</ele>
        <time>2019-03-28T09:09:41+0100</time>
      </trkpt>
      <trkpt lat="47.25161" lon="4.96777">
        <ele>352.11581420898</ele>
        <time>2019-03-28T09:09:44+0100</time>
      </trkpt>
      <trkpt lat="47.25162" lon="4.96779">
        <ele>351.48477172852</ele>
        <time>2019-03-28T09:09:47+0100</time>
      </trkpt>
      <trkpt lat="47.25162" lon="4.96781">
        <ele>350.90808105469</ele>
        <time>2019-03-28T09:09:50+0100</time>
      </trkpt>
      <trkpt lat="47.25162" lon="4.96782">
        <ele>350.29779052734</ele>
        <time>2019-03-28T09:09:53+0100</time>
      </trkpt>
      <trkpt lat="47.25162" lon="4.96783">
        <ele>349.92907714844</ele>
        <time>2019-03-28T09:09:56+0100</time>
      </trkpt>
      <trkpt lat="47.25161" lon="4.96786">
        <ele>349.01699829102</ele>
        <time>2019-03-28T09:09:59+0100</time>
      </trkpt>
      <trkpt lat="47.25162" lon="4.96793">
        <ele>348.45672607422</ele>
        <time>2019-03-28T09:10:02+0100</time>
      </trkpt>
      <trkpt lat="47.25164" lon="4.96793">
        <ele>348.04284667969</ele>
        <time>2019-03-28T09:10:05+0100</time>
      </trkpt>
      <trkpt lat="47.25168" lon="4.96788">
        <ele>347.70611572266</ele>
        <time>2019-03-28T09:10:08+0100</time>
      </trkpt>
      <trkpt lat="47.25174" lon="4.96784">
        <ele>346.87832641602</ele>
        <time>2019-03-28T09:10:11+0100</time>
      </trkpt>
      <trkpt lat="47.25175" lon="4.96781">
        <ele>346.2194519043</ele>
        <time>2019-03-28T09:10:14+0100</time>
      </trkpt>
      <trkpt lat="47.25176" lon="4.96778">
        <ele>345.69540405273</ele>
        <time>2019-03-28T09:10:17+0100</time>
      </trkpt>
      <trkpt lat="47.25177" lon="4.96775">
        <ele>345.22805786133</ele>
        <time>2019-03-28T09:10:20+0100</time>
      </trkpt>
      <trkpt lat="47.25178" lon="4.96772">
        <ele>344.82803344727</ele>
        <time>2019-03-28T09:10:23+0100</time>
      </trkpt>
      <trkpt lat="47.2518" lon="4.96769">
        <ele>344.48025512695</ele>
        <time>2019-03-28T09:10:26+0100</time>
      </trkpt>
      <trkpt lat="47.25182" lon="4.96766">
        <ele>344.17718505859</ele>
        <time>2019-03-28T09:10:29+0100</time>
      </trkpt>
      <trkpt lat="47.25184" lon="4.96762">
        <ele>343.86587524414</ele>
        <time>2019-03-28T09:10:32+0100</time>
      </trkpt>
      <trkpt lat="47.25186" lon="4.96759">
        <ele>343.57180786133</ele>
        <time>2019-03-28T09:10:35+0100</time>
      </trkpt>
      <trkpt lat="47.25187" lon="4.96755">
        <ele>343.38305664062</ele>
        <time>2019-03-28T09:10:38+0100</time>
      </trkpt>
      <trkpt lat="47.25187" lon="4.9675">
        <ele>343.23806762695</ele>
        <time>2019-03-28T09:10:41+0100</time>
      </trkpt>
      <trkpt lat="47.25187" lon="4.96746">
        <ele>343.10061645508</ele>
        <time>2019-03-28T09:10:44+0100</time>
      </trkpt>
      <trkpt lat="47.25189" lon="4.96743">
        <ele>342.96481323242</ele>
        <time>2019-03-28T09:10:47+0100</time>
      </trkpt>
      <trkpt lat="47.2519" lon="4.96737">
        <ele>342.84341430664</ele>
        <time>2019-03-28T09:10:50+0100</time>
      </trkpt>
      <trkpt lat="47.25191" lon="4.96734">
        <ele>342.73681640625</ele>
        <time>2019-03-28T09:10:53+0100</time>
      </trkpt>
      <trkpt lat="47.25193" lon="4.9673">
        <ele>342.71890258789</ele>
        <time>2019-03-28T09:10:56+0100</time>
      </trkpt>
      <trkpt lat="47.25195" lon="4.96729">
        <ele>342.72610473633</ele>
        <time>2019-03-28T09:10:59+0100</time>
      </trkpt>
      <trkpt lat="47.25197" lon="4.96725">
        <ele>342.74710083008</ele>
        <time>2019-03-28T09:11:02+0100</time>
      </trkpt>
      <trkpt lat="47.25199" lon="4.96722">
        <ele>342.83578491211</ele>
        <time>2019-03-28T09:11:05+0100</time>
      </trkpt>
      <trkpt lat="47.252" lon="4.96718">
        <ele>343.00149536133</ele>
        <time>2019-03-28T09:11:08+0100</time>
      </trkpt>
      <trkpt lat="47.25201" lon="4.96713">
        <ele>343.2568359375</ele>
        <time>2019-03-28T09:11:11+0100</time>
      </trkpt>
      <trkpt lat="47.25202" lon="4.96709">
        <ele>343.53085327148</ele>
        <time>2019-03-28T09:11:14+0100</time>
      </trkpt>
      <trkpt lat="47.25203" lon="4.96706">
        <ele>343.72055053711</ele>
        <time>2019-03-28T09:11:17+0100</time>
      </trkpt>
      <trkpt lat="47.25206" lon="4.96704">
        <ele>343.84484863281</ele>
        <time>2019-03-28T09:11:20+0100</time>
      </trkpt>
      <trkpt lat="47.25208" lon="4.96703">
        <ele>343.97119140625</ele>
        <time>2019-03-28T09:11:23+0100</time>
      </trkpt>
      <trkpt lat="47.2521" lon="4.96699">
        <ele>344.17044067383</ele>
        <time>2019-03-28T09:11:26+0100</time>
      </trkpt>
      <trkpt lat="47.25211" lon="4.96697">
        <ele>344.50268554688</ele>
        <time>2019-03-28T09:11:29+0100</time>
      </trkpt>
      <trkpt lat="47.25212" lon="4.96694">
        <ele>345.00866699219</ele>
        <time>2019-03-28T09:11:32+0100</time>
      </trkpt>
      <trkpt lat="47.25213" lon="4.96692">
        <ele>345.68151855469</ele>
        <time>2019-03-28T09:11:35+0100</time>
      </trkpt>
      <trkpt lat="47.25215" lon="4.96688">
        <ele>346.46127319336</ele>
        <time>2019-03-28T09:11:38+0100</time>
      </trkpt>
      <trkpt lat="47.25216" lon="4.96685">
        <ele>347.2770690918</ele>
        <time>2019-03-28T09:11:41+0100</time>
      </trkpt>
      <trkpt lat="47.25217" lon="4.96683">
        <ele>348.00894165039</ele>
        <time>2019-03-28T09:11:44+0100</time>
      </trkpt>
      <trkpt lat="47.25219" lon="4.9668">
        <ele>348.67950439453</ele>
        <time>2019-03-28T09:11:47+0100</time>
      </trkpt>
      <trkpt lat="47.25221" lon="4.96677">
        <ele>349.06338500977</ele>
        <time>2019-03-28T09:11:50+0100</time>
      </trkpt>
      <trkpt lat="47.25222" lon="4.96674">
        <ele>349.36856079102</ele>
        <time>2019-03-28T09:11:53+0100</time>
      </trkpt>
      <trkpt lat="47.25225" lon="4.96666">
        <ele>349.21862792969</ele>
        <time>2019-03-28T09:11:56+0100</time>
      </trkpt>
      <trkpt lat="47.25227" lon="4.96662">
        <ele>348.77194213867</ele>
        <time>2019-03-28T09:11:59+0100</time>
      </trkpt>
      <trkpt lat="47.25228" lon="4.9666">
        <ele>348.2546081543</ele>
        <time>2019-03-28T09:12:02+0100</time>
      </trkpt>
      <trkpt lat="47.25229" lon="4.96659">
        <ele>347.81076049805</ele>
        <time>2019-03-28T09:12:05+0100</time>
      </trkpt>
      <trkpt lat="47.25231" lon="4.96656">
        <ele>347.470703125</ele>
        <time>2019-03-28T09:12:08+0100</time>
      </trkpt>
      <trkpt lat="47.25233" lon="4.96653">
        <ele>347.2594909668</ele>
        <time>2019-03-28T09:12:11+0100</time>
      </trkpt>
      <trkpt lat="47.25236" lon="4.96651">
        <ele>347.20028686523</ele>
        <time>2019-03-28T09:12:14+0100</time>
      </trkpt>
      <trkpt lat="47.25237" lon="4.96648">
        <ele>347.21496582031</ele>
        <time>2019-03-28T09:12:17+0100</time>
      </trkpt>
      <trkpt lat="47.25238" lon="4.96646">
        <ele>347.21185302734</ele>
        <time>2019-03-28T09:12:20+0100</time>
      </trkpt>
      <trkpt lat="47.25239" lon="4.96643">
        <ele>347.16311645508</ele>
        <time>2019-03-28T09:12:23+0100</time>
      </trkpt>
      <trkpt lat="47.2524" lon="4.96639">
        <ele>347.06060791016</ele>
        <time>2019-03-28T09:12:26+0100</time>
      </trkpt>
      <trkpt lat="47.25241" lon="4.96637">
        <ele>346.96090698242</ele>
        <time>2019-03-28T09:12:29+0100</time>
      </trkpt>
      <trkpt lat="47.25242" lon="4.96631">
        <ele>346.92889404297</ele>
        <time>2019-03-28T09:12:32+0100</time>
      </trkpt>
      <trkpt lat="47.25243" lon="4.96628">
        <ele>346.9645690918</ele>
        <time>2019-03-28T09:12:35+0100</time>
      </trkpt>
      <trkpt lat="47.25244" lon="4.96624">
        <ele>346.99743652344</ele>
        <time>2019-03-28T09:12:38+0100</time>
      </trkpt>
      <trkpt lat="47.25246" lon="4.9662">
        <ele>347.01715087891</ele>
        <time>2019-03-28T09:12:41+0100</time>
      </trkpt>
      <trkpt lat="47.25247" lon="4.96616">
        <ele>347.04083251953</ele>
        <time>2019-03-28T09:12:44+0100</time>
      </trkpt>
      <trkpt lat="47.25248" lon="4.96612">
        <ele>347.01727294922</ele>
        <time>2019-03-28T09:12:47+0100</time>
      </trkpt>
      <trkpt lat="47.25249" lon="4.96608">
        <ele>346.93859863281</ele>
        <time>2019-03-28T09:12:50+0100</time>
      </trkpt>
      <trkpt lat="47.2525" lon="4.96605">
        <ele>346.8356628418</ele>
        <time>2019-03-28T09:12:53+0100</time>
      </trkpt>
      <trkpt lat="47.25252" lon="4.96601">
        <ele>346.72695922852</ele>
        <time>2019-03-28T09:12:56+0100</time>
      </trkpt>
      <trkpt lat="47.25253" lon="4.96598">
        <ele>346.64251708984</ele>
        <time>2019-03-28T09:12:59+0100</time>
      </trkpt>
      <trkpt lat="47.25254" lon="4.96593">
        <ele>346.61483764648</ele>
        <time>2019-03-28T09:13:02+0100</time>
      </trkpt>
      <trkpt lat="47.25255" lon="4.96588">
        <ele>346.64511108398</ele>
        <time>2019-03-28T09:13:05+0100</time>
      </trkpt>
      <trkpt lat="47.25256" lon="4.96585">
        <ele>346.67486572266</ele>
        <time>2019-03-28T09:13:08+0100</time>
      </trkpt>
      <trkpt lat="47.25259" lon="4.96582">
        <ele>346.6953125</ele>
        <time>2019-03-28T09:13:11+0100</time>
      </trkpt>
      <trkpt lat="47.25262" lon="4.96579">
        <ele>346.67440795898</ele>
        <time>2019-03-28T09:13:14+0100</time>
      </trkpt>
      <trkpt lat="47.25263" lon="4.96576">
        <ele>346.64810180664</ele>
        <time>2019-03-28T09:13:17+0100</time>
      </trkpt>
      <trkpt lat="47.25264" lon="4.96573">
        <ele>346.65133666992</ele>
        <time>2019-03-28T09:13:20+0100</time>
      </trkpt>
      <trkpt lat="47.25265" lon="4.96569">
        <ele>346.68182373047</ele>
        <time>2019-03-28T09:13:23+0100</time>
      </trkpt>
      <trkpt lat="47.25266" lon="4.96566">
        <ele>346.80584716797</ele>
        <time>2019-03-28T09:13:26+0100</time>
      </trkpt>
      <trkpt lat="47.25266" lon="4.96563">
        <ele>347.01708984375</ele>
        <time>2019-03-28T09:13:29+0100</time>
      </trkpt>
      <trkpt lat="47.25268" lon="4.9656">
        <ele>347.21148681641</ele>
        <time>2019-03-28T09:13:32+0100</time>
      </trkpt>
      <trkpt lat="47.25269" lon="4.96557">
        <ele>347.34457397461</ele>
        <time>2019-03-28T09:13:35+0100</time>
      </trkpt>
      <trkpt lat="47.2527" lon="4.96555">
        <ele>347.49978637695</ele>
        <time>2019-03-28T09:13:38+0100</time>
      </trkpt>
      <trkpt lat="47.25271" lon="4.96551">
        <ele>347.66900634766</ele>
        <time>2019-03-28T09:13:41+0100</time>
      </trkpt>
      <trkpt lat="47.25273" lon="4.96547">
        <ele>347.90963745117</ele>
        <time>2019-03-28T09:13:44+0100</time>
      </trkpt>
      <trkpt lat="47.25275" lon="4.96545">
        <ele>348.21014404297</ele>
        <time>2019-03-28T09:13:47+0100</time>
      </trkpt>
      <trkpt lat="47.25276" lon="4.96542">
        <ele>348.58685302734</ele>
        <time>2019-03-28T09:13:50+0100</time>
      </trkpt>
      <trkpt lat="47.25278" lon="4.96539">
        <ele>349.13632202148</ele>
        <time>2019-03-28T09:13:53+0100</time>
      </trkpt>
      <trkpt lat="47.2528" lon="4.96535">
        <ele>349.76690673828</ele>
        <time>2019-03-28T09:13:56+0100</time>
      </trkpt>
      <trkpt lat="47.25281" lon="4.96533">
        <ele>350.400390625</ele>
        <time>2019-03-28T09:13:59+0100</time>
      </trkpt>
      <trkpt lat="47.25285" lon="4.96528">
        <ele>351.0166015625</ele>
        <time>2019-03-28T09:14:02+0100</time>
      </trkpt>
      <trkpt lat="47.25287" lon="4.96524">
        <ele>351.48358154297</ele>
        <time>2019-03-28T09:14:05+0100</time>
      </trkpt>
      <trkpt lat="47.2529" lon="4.96519">
        <ele>351.77294921875</ele>
        <time>2019-03-28T09:14:08+0100</time>
      </trkpt>
      <trkpt lat="47.2529" lon="4.96519">
        <ele>352.05639648438</ele>
        <time>2019-03-28T09:14:11+0100</time>
      </trkpt>
      <trkpt lat="47.25292" lon="4.96514">
        <ele>352.39569091797</ele>
        <time>2019-03-28T09:14:14+0100</time>
      </trkpt>
      <trkpt lat="47.25293" lon="4.96511">
        <ele>352.58700561523</ele>
        <time>2019-03-28T09:14:17+0100</time>
      </trkpt>
      <trkpt lat="47.25293" lon="4.9651">
        <ele>352.72833251953</ele>
        <time>2019-03-28T09:14:20+0100</time>
      </trkpt>
      <trkpt lat="47.25295" lon="4.96509">
        <ele>352.98886108398</ele>
        <time>2019-03-28T09:14:23+0100</time>
      </trkpt>
      <trkpt lat="47.25298" lon="4.96506">
        <ele>353.11679077148</ele>
        <time>2019-03-28T09:14:26+0100</time>
      </trkpt>
      <trkpt lat="47.25299" lon="4.96505">
        <ele>353.15188598633</ele>
        <time>2019-03-28T09:14:29+0100</time>
      </trkpt>
      <trkpt lat="47.253" lon="4.96503">
        <ele>353.12139892578</ele>
        <time>2019-03-28T09:14:32+0100</time>
      </trkpt>
      <trkpt lat="47.25302" lon="4.96501">
        <ele>352.96340942383</ele>
        <time>2019-03-28T09:14:35+0100</time>
      </trkpt>
      <trkpt lat="47.25304" lon="4.96498">
        <ele>352.65737915039</ele>
        <time>2019-03-28T09:14:38+0100</time>
      </trkpt>
      <trkpt lat="47.25306" lon="4.96499">
        <ele>352.49627685547</ele>
        <time>2019-03-28T09:14:41+0100</time>
      </trkpt>
      <trkpt lat="47.25309" lon="4.96499">
        <ele>352.34237670898</ele>
        <time>2019-03-28T09:14:44+0100</time>
      </trkpt>
      <trkpt lat="47.25312" lon="4.96498">
        <ele>352.26843261719</ele>
        <time>2019-03-28T09:14:47+0100</time>
      </trkpt>
      <trkpt lat="47.25312" lon="4.96497">
        <ele>352.19183349609</ele>
        <time>2019-03-28T09:14:50+0100</time>
      </trkpt>
      <trkpt lat="47.25313" lon="4.96497">
        <ele>352.1220703125</ele>
        <time>2019-03-28T09:14:53+0100</time>
      </trkpt>
      <trkpt lat="47.25315" lon="4.96496">
        <ele>352.10855102539</ele>
        <time>2019-03-28T09:14:56+0100</time>
      </trkpt>
      <trkpt lat="47.25318" lon="4.96497">
        <ele>352.04132080078</ele>
        <time>2019-03-28T09:14:59+0100</time>
      </trkpt>
      <trkpt lat="47.25321" lon="4.96496">
        <ele>351.80795288086</ele>
        <time>2019-03-28T09:15:02+0100</time>
      </trkpt>
      <trkpt lat="47.25325" lon="4.96496">
        <ele>351.50067138672</ele>
        <time>2019-03-28T09:15:05+0100</time>
      </trkpt>
      <trkpt lat="47.25327" lon="4.96496">
        <ele>351.11990356445</ele>
        <time>2019-03-28T09:15:08+0100</time>
      </trkpt>
      <trkpt lat="47.2533" lon="4.96494">
        <ele>350.76251220703</ele>
        <time>2019-03-28T09:15:11+0100</time>
      </trkpt>
      <trkpt lat="47.25333" lon="4.96489">
        <ele>350.23016357422</ele>
        <time>2019-03-28T09:15:14+0100</time>
      </trkpt>
      <trkpt lat="47.25335" lon="4.96487">
        <ele>349.49057006836</ele>
        <time>2019-03-28T09:15:17+0100</time>
      </trkpt>
      <trkpt lat="47.25336" lon="4.96486">
        <ele>348.77545166016</ele>
        <time>2019-03-28T09:15:20+0100</time>
      </trkpt>
      <trkpt lat="47.25338" lon="4.96482">
        <ele>348.04406738281</ele>
        <time>2019-03-28T09:15:23+0100</time>
      </trkpt>
      <trkpt lat="47.25339" lon="4.96479">
        <ele>347.5341796875</ele>
        <time>2019-03-28T09:15:26+0100</time>
      </trkpt>
      <trkpt lat="47.2534" lon="4.96477">
        <ele>346.75598144531</ele>
        <time>2019-03-28T09:15:29+0100</time>
      </trkpt>
      <trkpt lat="47.25341" lon="4.96474">
        <ele>345.99401855469</ele>
        <time>2019-03-28T09:15:32+0100</time>
      </trkpt>
      <trkpt lat="47.25343" lon="4.96472">
        <ele>345.29321289062</ele>
        <time>2019-03-28T09:15:35+0100</time>
      </trkpt>
      <trkpt lat="47.25344" lon="4.96468">
        <ele>344.69604492188</ele>
        <time>2019-03-28T09:15:38+0100</time>
      </trkpt>
      <trkpt lat="47.25345" lon="4.96466">
        <ele>344.23974609375</ele>
        <time>2019-03-28T09:15:41+0100</time>
      </trkpt>
      <trkpt lat="47.25346" lon="4.96463">
        <ele>343.86737060547</ele>
        <time>2019-03-28T09:15:44+0100</time>
      </trkpt>
      <trkpt lat="47.25346" lon="4.96461">
        <ele>343.568359375</ele>
        <time>2019-03-28T09:15:47+0100</time>
      </trkpt>
      <trkpt lat="47.25348" lon="4.96456">
        <ele>343.30883789062</ele>
        <time>2019-03-28T09:15:50+0100</time>
      </trkpt>
      <trkpt lat="47.2535" lon="4.9645">
        <ele>343.13259887695</ele>
        <time>2019-03-28T09:15:53+0100</time>
      </trkpt>
      <trkpt lat="47.25351" lon="4.96446">
        <ele>343.11401367188</ele>
        <time>2019-03-28T09:15:56+0100</time>
      </trkpt>
      <trkpt lat="47.25353" lon="4.96444">
        <ele>343.18688964844</ele>
        <time>2019-03-28T09:15:59+0100</time>
      </trkpt>
      <trkpt lat="47.25354" lon="4.96442">
        <ele>343.22982788086</ele>
        <time>2019-03-28T09:16:02+0100</time>
      </trkpt>
      <trkpt lat="47.25356" lon="4.9644">
        <ele>343.29483032227</ele>
        <time>2019-03-28T09:16:05+0100</time>
      </trkpt>
      <trkpt lat="47.25357" lon="4.96436">
        <ele>343.44476318359</ele>
        <time>2019-03-28T09:16:08+0100</time>
      </trkpt>
      <trkpt lat="47.25357" lon="4.96432">
        <ele>343.6178894043</ele>
        <time>2019-03-28T09:16:11+0100</time>
      </trkpt>
      <trkpt lat="47.25358" lon="4.96429">
        <ele>343.75872802734</ele>
        <time>2019-03-28T09:16:14+0100</time>
      </trkpt>
      <trkpt lat="47.25358" lon="4.96429">
        <ele>343.8454284668</ele>
        <time>2019-03-28T09:16:17+0100</time>
      </trkpt>
      <trkpt lat="47.25358" lon="4.96428">
        <ele>343.9528503418</ele>
        <time>2019-03-28T09:16:20+0100</time>
      </trkpt>
      <trkpt lat="47.25359" lon="4.96424">
        <ele>344.25946044922</ele>
        <time>2019-03-28T09:16:23+0100</time>
      </trkpt>
      <trkpt lat="47.25361" lon="4.96419">
        <ele>344.59680175781</ele>
        <time>2019-03-28T09:16:26+0100</time>
      </trkpt>
      <trkpt lat="47.25362" lon="4.96414">
        <ele>344.95916748047</ele>
        <time>2019-03-28T09:16:29+0100</time>
      </trkpt>
      <trkpt lat="47.25364" lon="4.96411">
        <ele>345.33843994141</ele>
        <time>2019-03-28T09:16:32+0100</time>
      </trkpt>
      <trkpt lat="47.25366" lon="4.96407">
        <ele>345.71948242188</ele>
        <time>2019-03-28T09:16:35+0100</time>
      </trkpt>
      <trkpt lat="47.25367" lon="4.96402">
        <ele>346.11618041992</ele>
        <time>2019-03-28T09:16:38+0100</time>
      </trkpt>
      <trkpt lat="47.25367" lon="4.96399">
        <ele>346.58374023438</ele>
        <time>2019-03-28T09:16:41+0100</time>
      </trkpt>
      <trkpt lat="47.25368" lon="4.96396">
        <ele>347.09191894531</ele>
        <time>2019-03-28T09:16:44+0100</time>
      </trkpt>
      <trkpt lat="47.25369" lon="4.96392">
        <ele>347.61346435547</ele>
        <time>2019-03-28T09:16:47+0100</time>
      </trkpt>
      <trkpt lat="47.25369" lon="4.96389">
        <ele>348.13400268555</ele>
        <time>2019-03-28T09:16:50+0100</time>
      </trkpt>
      <trkpt lat="47.2537" lon="4.96386">
        <ele>348.65911865234</ele>
        <time>2019-03-28T09:16:53+0100</time>
      </trkpt>
      <trkpt lat="47.2537" lon="4.96383">
        <ele>349.17318725586</ele>
        <time>2019-03-28T09:16:56+0100</time>
      </trkpt>
      <trkpt lat="47.2537" lon="4.9638">
        <ele>349.68252563477</ele>
        <time>2019-03-28T09:16:59+0100</time>
      </trkpt>
      <trkpt lat="47.25372" lon="4.96377">
        <ele>350.17337036133</ele>
        <time>2019-03-28T09:17:02+0100</time>
      </trkpt>
      <trkpt lat="47.25373" lon="4.96373">
        <ele>350.65667724609</ele>
        <time>2019-03-28T09:17:05+0100</time>
      </trkpt>
      <trkpt lat="47.25375" lon="4.96369">
        <ele>351.15628051758</ele>
        <time>2019-03-28T09:17:08+0100</time>
      </trkpt>
      <trkpt lat="47.25375" lon="4.96366">
        <ele>351.63739013672</ele>
        <time>2019-03-28T09:17:11+0100</time>
      </trkpt>
      <trkpt lat="47.25376" lon="4.96362">
        <ele>352.09649658203</ele>
        <time>2019-03-28T09:17:14+0100</time>
      </trkpt>
      <trkpt lat="47.25378" lon="4.96359">
        <ele>352.55950927734</ele>
        <time>2019-03-28T09:17:18+0100</time>
      </trkpt>
      <trkpt lat="47.25379" lon="4.96356">
        <ele>352.98858642578</ele>
        <time>2019-03-28T09:17:21+0100</time>
      </trkpt>
      <trkpt lat="47.25381" lon="4.96354">
        <ele>353.38681030273</ele>
        <time>2019-03-28T09:17:24+0100</time>
      </trkpt>
      <trkpt lat="47.25382" lon="4.96349">
        <ele>353.76141357422</ele>
        <time>2019-03-28T09:17:27+0100</time>
      </trkpt>
      <trkpt lat="47.25384" lon="4.96343">
        <ele>354.05853271484</ele>
        <time>2019-03-28T09:17:30+0100</time>
      </trkpt>
      <trkpt lat="47.25387" lon="4.96338">
        <ele>354.33605957031</ele>
        <time>2019-03-28T09:17:33+0100</time>
      </trkpt>
      <trkpt lat="47.25389" lon="4.96333">
        <ele>354.63513183594</ele>
        <time>2019-03-28T09:17:36+0100</time>
      </trkpt>
      <trkpt lat="47.2539" lon="4.96329">
        <ele>354.91082763672</ele>
        <time>2019-03-28T09:17:39+0100</time>
      </trkpt>
      <trkpt lat="47.25391" lon="4.96325">
        <ele>355.17834472656</ele>
        <time>2019-03-28T09:17:42+0100</time>
      </trkpt>
      <trkpt lat="47.25394" lon="4.96321">
        <ele>355.4921875</ele>
        <time>2019-03-28T09:17:45+0100</time>
      </trkpt>
      <trkpt lat="47.25395" lon="4.96317">
        <ele>355.81283569336</ele>
        <time>2019-03-28T09:17:48+0100</time>
      </trkpt>
      <trkpt lat="47.25397" lon="4.96313">
        <ele>356.09796142578</ele>
        <time>2019-03-28T09:17:51+0100</time>
      </trkpt>
      <trkpt lat="47.25399" lon="4.96311">
        <ele>356.30859375</ele>
        <time>2019-03-28T09:17:54+0100</time>
      </trkpt>
      <trkpt lat="47.254" lon="4.96308">
        <ele>356.45193481445</ele>
        <time>2019-03-28T09:17:57+0100</time>
      </trkpt>
      <trkpt lat="47.25401" lon="4.96305">
        <ele>356.55358886719</ele>
        <time>2019-03-28T09:18:00+0100</time>
      </trkpt>
      <trkpt lat="47.25403" lon="4.96302">
        <ele>356.60479736328</ele>
        <time>2019-03-28T09:18:03+0100</time>
      </trkpt>
      <trkpt lat="47.25404" lon="4.96299">
        <ele>356.63900756836</ele>
        <time>2019-03-28T09:18:06+0100</time>
      </trkpt>
      <trkpt lat="47.25405" lon="4.96297">
        <ele>356.67254638672</ele>
        <time>2019-03-28T09:18:09+0100</time>
      </trkpt>
      <trkpt lat="47.25405" lon="4.96294">
        <ele>356.72595214844</ele>
        <time>2019-03-28T09:18:12+0100</time>
      </trkpt>
      <trkpt lat="47.25406" lon="4.96291">
        <ele>356.80618286133</ele>
        <time>2019-03-28T09:18:15+0100</time>
      </trkpt>
      <trkpt lat="47.25407" lon="4.96288">
        <ele>356.89834594727</ele>
        <time>2019-03-28T09:18:18+0100</time>
      </trkpt>
      <trkpt lat="47.25408" lon="4.96286">
        <ele>356.97253417969</ele>
        <time>2019-03-28T09:18:21+0100</time>
      </trkpt>
      <trkpt lat="47.25408" lon="4.96284">
        <ele>357.00653076172</ele>
        <time>2019-03-28T09:18:24+0100</time>
      </trkpt>
      <trkpt lat="47.2541" lon="4.9628">
        <ele>357.02670288086</ele>
        <time>2019-03-28T09:18:27+0100</time>
      </trkpt>
      <trkpt lat="47.25411" lon="4.96277">
        <ele>357.06103515625</ele>
        <time>2019-03-28T09:18:30+0100</time>
      </trkpt>
      <trkpt lat="47.25412" lon="4.96275">
        <ele>357.11721801758</ele>
        <time>2019-03-28T09:18:33+0100</time>
      </trkpt>
      <trkpt lat="47.25413" lon="4.96272">
        <ele>357.18994140625</ele>
        <time>2019-03-28T09:18:36+0100</time>
      </trkpt>
      <trkpt lat="47.25414" lon="4.96269">
        <ele>357.28176879883</ele>
        <time>2019-03-28T09:18:39+0100</time>
      </trkpt>
      <trkpt lat="47.25415" lon="4.96265">
        <ele>357.39096069336</ele>
        <time>2019-03-28T09:18:42+0100</time>
      </trkpt>
      <trkpt lat="47.25416" lon="4.96263">
        <ele>357.54190063477</ele>
        <time>2019-03-28T09:18:45+0100</time>
      </trkpt>
      <trkpt lat="47.25417" lon="4.96261">
        <ele>357.68154907227</ele>
        <time>2019-03-28T09:18:48+0100</time>
      </trkpt>
      <trkpt lat="47.25418" lon="4.96258">
        <ele>357.81640625</ele>
        <time>2019-03-28T09:18:51+0100</time>
      </trkpt>
      <trkpt lat="47.25419" lon="4.96255">
        <ele>358</ele>
        <time>2019-03-28T09:18:54+0100</time>
      </trkpt>
      <trkpt lat="47.2542" lon="4.96254">
        <ele>358.23974609375</ele>
        <time>2019-03-28T09:18:57+0100</time>
      </trkpt>
      <trkpt lat="47.25421" lon="4.96251">
        <ele>358.54119873047</ele>
        <time>2019-03-28T09:19:00+0100</time>
      </trkpt>
      <trkpt lat="47.25422" lon="4.96248">
        <ele>358.88732910156</ele>
        <time>2019-03-28T09:19:03+0100</time>
      </trkpt>
      <trkpt lat="47.25424" lon="4.96244">
        <ele>359.2458190918</ele>
        <time>2019-03-28T09:19:06+0100</time>
      </trkpt>
      <trkpt lat="47.25425" lon="4.96241">
        <ele>359.62109375</ele>
        <time>2019-03-28T09:19:09+0100</time>
      </trkpt>
      <trkpt lat="47.25426" lon="4.96239">
        <ele>359.99853515625</ele>
        <time>2019-03-28T09:19:12+0100</time>
      </trkpt>
      <trkpt lat="47.25427" lon="4.96238">
        <ele>360.15338134766</ele>
        <time>2019-03-28T09:19:15+0100</time>
      </trkpt>
      <trkpt lat="47.25429" lon="4.96234">
        <ele>360.54293823242</ele>
        <time>2019-03-28T09:19:18+0100</time>
      </trkpt>
      <trkpt lat="47.25431" lon="4.9623">
        <ele>360.93783569336</ele>
        <time>2019-03-28T09:19:21+0100</time>
      </trkpt>
      <trkpt lat="47.25433" lon="4.96226">
        <ele>361.35293579102</ele>
        <time>2019-03-28T09:19:24+0100</time>
      </trkpt>
      <trkpt lat="47.25435" lon="4.96222">
        <ele>361.77011108398</ele>
        <time>2019-03-28T09:19:27+0100</time>
      </trkpt>
      <trkpt lat="47.25435" lon="4.96219">
        <ele>362.17449951172</ele>
        <time>2019-03-28T09:19:30+0100</time>
      </trkpt>
      <trkpt lat="47.25436" lon="4.96217">
        <ele>362.45880126953</ele>
        <time>2019-03-28T09:19:33+0100</time>
      </trkpt>
      <trkpt lat="47.25436" lon="4.96216">
        <ele>362.63348388672</ele>
        <time>2019-03-28T09:19:36+0100</time>
      </trkpt>
      <trkpt lat="47.25437" lon="4.96215">
        <ele>362.84271240234</ele>
        <time>2019-03-28T09:19:39+0100</time>
      </trkpt>
      <trkpt lat="47.25438" lon="4.96212">
        <ele>363.39828491211</ele>
        <time>2019-03-28T09:19:42+0100</time>
      </trkpt>
      <trkpt lat="47.25439" lon="4.96209">
        <ele>363.80609130859</ele>
        <time>2019-03-28T09:19:45+0100</time>
      </trkpt>
      <trkpt lat="47.25441" lon="4.96206">
        <ele>364.41101074219</ele>
        <time>2019-03-28T09:19:48+0100</time>
      </trkpt>
      <trkpt lat="47.25443" lon="4.96203">
        <ele>364.97912597656</ele>
        <time>2019-03-28T09:19:51+0100</time>
      </trkpt>
      <trkpt lat="47.25444" lon="4.96199">
        <ele>365.53402709961</ele>
        <time>2019-03-28T09:19:54+0100</time>
      </trkpt>
      <trkpt lat="47.25445" lon="4.96197">
        <ele>365.92254638672</ele>
        <time>2019-03-28T09:19:57+0100</time>
      </trkpt>
      <trkpt lat="47.25447" lon="4.96195">
        <ele>366.48190307617</ele>
        <time>2019-03-28T09:20:00+0100</time>
      </trkpt>
      <trkpt lat="47.25449" lon="4.9619">
        <ele>366.99215698242</ele>
        <time>2019-03-28T09:20:03+0100</time>
      </trkpt>
      <trkpt lat="47.2545" lon="4.96185">
        <ele>367.45404052734</ele>
        <time>2019-03-28T09:20:06+0100</time>
      </trkpt>
      <trkpt lat="47.25452" lon="4.96182">
        <ele>367.85711669922</ele>
        <time>2019-03-28T09:20:09+0100</time>
      </trkpt>
      <trkpt lat="47.25453" lon="4.96178">
        <ele>368.19284057617</ele>
        <time>2019-03-28T09:20:12+0100</time>
      </trkpt>
      <trkpt lat="47.25455" lon="4.96175">
        <ele>368.3796081543</ele>
        <time>2019-03-28T09:20:15+0100</time>
      </trkpt>
      <trkpt lat="47.25457" lon="4.96172">
        <ele>368.60061645508</ele>
        <time>2019-03-28T09:20:18+0100</time>
      </trkpt>
      <trkpt lat="47.25457" lon="4.96168">
        <ele>368.83261108398</ele>
        <time>2019-03-28T09:20:21+0100</time>
      </trkpt>
      <trkpt lat="47.25458" lon="4.96166">
        <ele>369.06170654297</ele>
        <time>2019-03-28T09:20:24+0100</time>
      </trkpt>
      <trkpt lat="47.25458" lon="4.96164">
        <ele>369.23202514648</ele>
        <time>2019-03-28T09:20:27+0100</time>
      </trkpt>
      <trkpt lat="47.2546" lon="4.9616">
        <ele>369.50741577148</ele>
        <time>2019-03-28T09:20:30+0100</time>
      </trkpt>
      <trkpt lat="47.2546" lon="4.96158">
        <ele>369.80529785156</ele>
        <time>2019-03-28T09:20:33+0100</time>
      </trkpt>
      <trkpt lat="47.25462" lon="4.96154">
        <ele>370.11822509766</ele>
        <time>2019-03-28T09:20:36+0100</time>
      </trkpt>
      <trkpt lat="47.25462" lon="4.96152">
        <ele>370.46334838867</ele>
        <time>2019-03-28T09:20:39+0100</time>
      </trkpt>
      <trkpt lat="47.25463" lon="4.96149">
        <ele>370.80191040039</ele>
        <time>2019-03-28T09:20:42+0100</time>
      </trkpt>
      <trkpt lat="47.25465" lon="4.96146">
        <ele>371.17907714844</ele>
        <time>2019-03-28T09:20:45+0100</time>
      </trkpt>
      <trkpt lat="47.25466" lon="4.96142">
        <ele>371.45404052734</ele>
        <time>2019-03-28T09:20:48+0100</time>
      </trkpt>
      <trkpt lat="47.25469" lon="4.96135">
        <ele>371.85897827148</ele>
        <time>2019-03-28T09:20:51+0100</time>
      </trkpt>
      <trkpt lat="47.25471" lon="4.9613">
        <ele>372.1745300293</ele>
        <time>2019-03-28T09:20:54+0100</time>
      </trkpt>
      <trkpt lat="47.25473" lon="4.96125">
        <ele>372.39630126953</ele>
        <time>2019-03-28T09:20:57+0100</time>
      </trkpt>
      <trkpt lat="47.25475" lon="4.96121">
        <ele>372.52877807617</ele>
        <time>2019-03-28T09:21:00+0100</time>
      </trkpt>
      <trkpt lat="47.25476" lon="4.96117">
        <ele>372.62292480469</ele>
        <time>2019-03-28T09:21:03+0100</time>
      </trkpt>
      <trkpt lat="47.25477" lon="4.96114">
        <ele>372.69515991211</ele>
        <time>2019-03-28T09:21:06+0100</time>
      </trkpt>
      <trkpt lat="47.25478" lon="4.96112">
        <ele>372.77899169922</ele>
        <time>2019-03-28T09:21:09+0100</time>
      </trkpt>
      <trkpt lat="47.25479" lon="4.9611">
        <ele>372.85272216797</ele>
        <time>2019-03-28T09:21:12+0100</time>
      </trkpt>
      <trkpt lat="47.2548" lon="4.96107">
        <ele>372.90390014648</ele>
        <time>2019-03-28T09:21:15+0100</time>
      </trkpt>
      <trkpt lat="47.25481" lon="4.96105">
        <ele>372.96246337891</ele>
        <time>2019-03-28T09:21:18+0100</time>
      </trkpt>
      <trkpt lat="47.25482" lon="4.96102">
        <ele>373.02233886719</ele>
        <time>2019-03-28T09:21:21+0100</time>
      </trkpt>
      <trkpt lat="47.25484" lon="4.96097">
        <ele>373.09225463867</ele>
        <time>2019-03-28T09:21:24+0100</time>
      </trkpt>
      <trkpt lat="47.25485" lon="4.96093">
        <ele>373.15536499023</ele>
        <time>2019-03-28T09:21:27+0100</time>
      </trkpt>
      <trkpt lat="47.25486" lon="4.9609">
        <ele>373.24206542969</ele>
        <time>2019-03-28T09:21:30+0100</time>
      </trkpt>
      <trkpt lat="47.25487" lon="4.96088">
        <ele>373.3805847168</ele>
        <time>2019-03-28T09:21:33+0100</time>
      </trkpt>
      <trkpt lat="47.25487" lon="4.96085">
        <ele>373.51748657227</ele>
        <time>2019-03-28T09:21:36+0100</time>
      </trkpt>
      <trkpt lat="47.25488" lon="4.96082">
        <ele>373.62814331055</ele>
        <time>2019-03-28T09:21:39+0100</time>
      </trkpt>
      <trkpt lat="47.25488" lon="4.96081">
        <ele>373.71731567383</ele>
        <time>2019-03-28T09:21:42+0100</time>
      </trkpt>
      <trkpt lat="47.25489" lon="4.96079">
        <ele>373.7409362793</ele>
        <time>2019-03-28T09:21:45+0100</time>
      </trkpt>
      <trkpt lat="47.25489" lon="4.96076">
        <ele>373.76626586914</ele>
        <time>2019-03-28T09:21:48+0100</time>
      </trkpt>
      <trkpt lat="47.25489" lon="4.96072">
        <ele>373.81219482422</ele>
        <time>2019-03-28T09:21:51+0100</time>
      </trkpt>
      <trkpt lat="47.25489" lon="4.96069">
        <ele>373.89111328125</ele>
        <time>2019-03-28T09:21:54+0100</time>
      </trkpt>
      <trkpt lat="47.25488" lon="4.96067">
        <ele>373.99551391602</ele>
        <time>2019-03-28T09:21:57+0100</time>
      </trkpt>
      <trkpt lat="47.25488" lon="4.96064">
        <ele>374.14358520508</ele>
        <time>2019-03-28T09:22:00+0100</time>
      </trkpt>
      <trkpt lat="47.25488" lon="4.96062">
        <ele>374.36553955078</ele>
        <time>2019-03-28T09:22:03+0100</time>
      </trkpt>
      <trkpt lat="47.25488" lon="4.96059">
        <ele>374.63821411133</ele>
        <time>2019-03-28T09:22:06+0100</time>
      </trkpt>
      <trkpt lat="47.25489" lon="4.96056">
        <ele>374.75378417969</ele>
        <time>2019-03-28T09:22:09+0100</time>
      </trkpt>
      <trkpt lat="47.25489" lon="4.96053">
        <ele>375.02340698242</ele>
        <time>2019-03-28T09:22:12+0100</time>
      </trkpt>
      <trkpt lat="47.25489" lon="4.96052">
        <ele>375.18338012695</ele>
        <time>2019-03-28T09:22:15+0100</time>
      </trkpt>
      <trkpt lat="47.2549" lon="4.96049">
        <ele>375.33200073242</ele>
        <time>2019-03-28T09:22:18+0100</time>
      </trkpt>
      <trkpt lat="47.2549" lon="4.96045">
        <ele>375.54284667969</ele>
        <time>2019-03-28T09:22:21+0100</time>
      </trkpt>
      <trkpt lat="47.25491" lon="4.9604">
        <ele>375.72573852539</ele>
        <time>2019-03-28T09:22:24+0100</time>
      </trkpt>
      <trkpt lat="47.25491" lon="4.96037">
        <ele>375.86990356445</ele>
        <time>2019-03-28T09:22:27+0100</time>
      </trkpt>
      <trkpt lat="47.25491" lon="4.96034">
        <ele>375.97735595703</ele>
        <time>2019-03-28T09:22:30+0100</time>
      </trkpt>
      <trkpt lat="47.25492" lon="4.9603">
        <ele>376.05993652344</ele>
        <time>2019-03-28T09:22:33+0100</time>
      </trkpt>
      <trkpt lat="47.25492" lon="4.96027">
        <ele>376.13375854492</ele>
        <time>2019-03-28T09:22:36+0100</time>
      </trkpt>
      <trkpt lat="47.25492" lon="4.96024">
        <ele>376.23397827148</ele>
        <time>2019-03-28T09:22:39+0100</time>
      </trkpt>
      <trkpt lat="47.25493" lon="4.9602">
        <ele>376.32748413086</ele>
        <time>2019-03-28T09:22:42+0100</time>
      </trkpt>
      <trkpt lat="47.25493" lon="4.96018">
        <ele>376.36758422852</ele>
        <time>2019-03-28T09:22:45+0100</time>
      </trkpt>
      <trkpt lat="47.25493" lon="4.96016">
        <ele>376.41827392578</ele>
        <time>2019-03-28T09:22:48+0100</time>
      </trkpt>
      <trkpt lat="47.25493" lon="4.96014">
        <ele>376.49694824219</ele>
        <time>2019-03-28T09:22:51+0100</time>
      </trkpt>
      <trkpt lat="47.25493" lon="4.96011">
        <ele>376.62704467773</ele>
        <time>2019-03-28T09:22:54+0100</time>
      </trkpt>
      <trkpt lat="47.25494" lon="4.96008">
        <ele>376.78735351562</ele>
        <time>2019-03-28T09:22:57+0100</time>
      </trkpt>
      <trkpt lat="47.25494" lon="4.96005">
        <ele>376.95742797852</ele>
        <time>2019-03-28T09:23:00+0100</time>
      </trkpt>
      <trkpt lat="47.25495" lon="4.96002">
        <ele>377.12182617188</ele>
        <time>2019-03-28T09:23:03+0100</time>
      </trkpt>
      <trkpt lat="47.25496" lon="4.95998">
        <ele>377.2912902832</ele>
        <time>2019-03-28T09:23:06+0100</time>
      </trkpt>
      <trkpt lat="47.25496" lon="4.95994">
        <ele>377.48284912109</ele>
        <time>2019-03-28T09:23:09+0100</time>
      </trkpt>
      <trkpt lat="47.25497" lon="4.95991">
        <ele>377.69131469727</ele>
        <time>2019-03-28T09:23:12+0100</time>
      </trkpt>
      <trkpt lat="47.25498" lon="4.95987">
        <ele>377.91146850586</ele>
        <time>2019-03-28T09:23:15+0100</time>
      </trkpt>
      <trkpt lat="47.255" lon="4.95983">
        <ele>378.1120300293</ele>
        <time>2019-03-28T09:23:18+0100</time>
      </trkpt>
      <trkpt lat="47.25501" lon="4.9598">
        <ele>378.32949829102</ele>
        <time>2019-03-28T09:23:21+0100</time>
      </trkpt>
      <trkpt lat="47.25502" lon="4.95977">
        <ele>378.56317138672</ele>
        <time>2019-03-28T09:23:24+0100</time>
      </trkpt>
      <trkpt lat="47.25502" lon="4.95974">
        <ele>378.81948852539</ele>
        <time>2019-03-28T09:23:27+0100</time>
      </trkpt>
      <trkpt lat="47.25504" lon="4.9597">
        <ele>379.08554077148</ele>
        <time>2019-03-28T09:23:30+0100</time>
      </trkpt>
      <trkpt lat="47.25505" lon="4.95968">
        <ele>379.36962890625</ele>
        <time>2019-03-28T09:23:33+0100</time>
      </trkpt>
      <trkpt lat="47.25506" lon="4.95965">
        <ele>379.64370727539</ele>
        <time>2019-03-28T09:23:36+0100</time>
      </trkpt>
      <trkpt lat="47.25506" lon="4.95962">
        <ele>379.90243530273</ele>
        <time>2019-03-28T09:23:39+0100</time>
      </trkpt>
      <trkpt lat="47.25507" lon="4.95959">
        <ele>380.16180419922</ele>
        <time>2019-03-28T09:23:42+0100</time>
      </trkpt>
      <trkpt lat="47.25507" lon="4.95956">
        <ele>380.4225769043</ele>
        <time>2019-03-28T09:23:45+0100</time>
      </trkpt>
      <trkpt lat="47.25508" lon="4.95952">
        <ele>380.69494628906</ele>
        <time>2019-03-28T09:23:48+0100</time>
      </trkpt>
      <trkpt lat="47.2551" lon="4.95949">
        <ele>380.974609375</ele>
        <time>2019-03-28T09:23:51+0100</time>
      </trkpt>
      <trkpt lat="47.25511" lon="4.95944">
        <ele>381.25018310547</ele>
        <time>2019-03-28T09:23:54+0100</time>
      </trkpt>
      <trkpt lat="47.25511" lon="4.9594">
        <ele>381.5393371582</ele>
        <time>2019-03-28T09:23:57+0100</time>
      </trkpt>
      <trkpt lat="47.25513" lon="4.95935">
        <ele>381.84951782227</ele>
        <time>2019-03-28T09:24:00+0100</time>
      </trkpt>
      <trkpt lat="47.25514" lon="4.9593">
        <ele>382.18142700195</ele>
        <time>2019-03-28T09:24:03+0100</time>
      </trkpt>
      <trkpt lat="47.25515" lon="4.95926">
        <ele>382.53103637695</ele>
        <time>2019-03-28T09:24:06+0100</time>
      </trkpt>
      <trkpt lat="47.25515" lon="4.95922">
        <ele>382.84854125977</ele>
        <time>2019-03-28T09:24:09+0100</time>
      </trkpt>
      <trkpt lat="47.25516" lon="4.95918">
        <ele>383.11056518555</ele>
        <time>2019-03-28T09:24:12+0100</time>
      </trkpt>
      <trkpt lat="47.25516" lon="4.95915">
        <ele>383.27658081055</ele>
        <time>2019-03-28T09:24:15+0100</time>
      </trkpt>
      <trkpt lat="47.25517" lon="4.95913">
        <ele>383.50918579102</ele>
        <time>2019-03-28T09:24:18+0100</time>
      </trkpt>
      <trkpt lat="47.25517" lon="4.95911">
        <ele>383.60650634766</ele>
        <time>2019-03-28T09:24:21+0100</time>
      </trkpt>
      <trkpt lat="47.25517" lon="4.95908">
        <ele>383.89666748047</ele>
        <time>2019-03-28T09:24:24+0100</time>
      </trkpt>
      <trkpt lat="47.25518" lon="4.95905">
        <ele>384.23352050781</ele>
        <time>2019-03-28T09:24:27+0100</time>
      </trkpt>
      <trkpt lat="47.25518" lon="4.95903">
        <ele>384.51950073242</ele>
        <time>2019-03-28T09:24:30+0100</time>
      </trkpt>
      <trkpt lat="47.25518" lon="4.95899">
        <ele>384.9612121582</ele>
        <time>2019-03-28T09:24:33+0100</time>
      </trkpt>
      <trkpt lat="47.25519" lon="4.95895">
        <ele>385.4567565918</ele>
        <time>2019-03-28T09:24:36+0100</time>
      </trkpt>
      <trkpt lat="47.25519" lon="4.95892">
        <ele>385.99301147461</ele>
        <time>2019-03-28T09:24:39+0100</time>
      </trkpt>
      <trkpt lat="47.2552" lon="4.95887">
        <ele>386.54647827148</ele>
        <time>2019-03-28T09:24:42+0100</time>
      </trkpt>
      <trkpt lat="47.2552" lon="4.95883">
        <ele>387.10214233398</ele>
        <time>2019-03-28T09:24:45+0100</time>
      </trkpt>
      <trkpt lat="47.2552" lon="4.9588">
        <ele>387.64834594727</ele>
        <time>2019-03-28T09:24:48+0100</time>
      </trkpt>
      <trkpt lat="47.25519" lon="4.95877">
        <ele>388.17007446289</ele>
        <time>2019-03-28T09:24:51+0100</time>
      </trkpt>
      <trkpt lat="47.2552" lon="4.95873">
        <ele>388.67462158203</ele>
        <time>2019-03-28T09:24:54+0100</time>
      </trkpt>
      <trkpt lat="47.25521" lon="4.95871">
        <ele>389.16207885742</ele>
        <time>2019-03-28T09:24:57+0100</time>
      </trkpt>
      <trkpt lat="47.25522" lon="4.95867">
        <ele>389.64331054688</ele>
        <time>2019-03-28T09:25:00+0100</time>
      </trkpt>
      <trkpt lat="47.25523" lon="4.95865">
        <ele>390.14739990234</ele>
        <time>2019-03-28T09:25:03+0100</time>
      </trkpt>
      <trkpt lat="47.25525" lon="4.95861">
        <ele>390.46047973633</ele>
        <time>2019-03-28T09:25:06+0100</time>
      </trkpt>
      <trkpt lat="47.25526" lon="4.95857">
        <ele>390.85333251953</ele>
        <time>2019-03-28T09:25:09+0100</time>
      </trkpt>
      <trkpt lat="47.25526" lon="4.95853">
        <ele>391.16784667969</ele>
        <time>2019-03-28T09:25:12+0100</time>
      </trkpt>
      <trkpt lat="47.25526" lon="4.9585">
        <ele>391.43737792969</ele>
        <time>2019-03-28T09:25:15+0100</time>
      </trkpt>
      <trkpt lat="47.25526" lon="4.95846">
        <ele>391.67462158203</ele>
        <time>2019-03-28T09:25:18+0100</time>
      </trkpt>
      <trkpt lat="47.25525" lon="4.95843">
        <ele>391.87869262695</ele>
        <time>2019-03-28T09:25:21+0100</time>
      </trkpt>
      <trkpt lat="47.25525" lon="4.95841">
        <ele>392.068359375</ele>
        <time>2019-03-28T09:25:24+0100</time>
      </trkpt>
      <trkpt lat="47.25524" lon="4.95838">
        <ele>392.24551391602</ele>
        <time>2019-03-28T09:25:27+0100</time>
      </trkpt>
      <trkpt lat="47.25524" lon="4.95835">
        <ele>392.40441894531</ele>
        <time>2019-03-28T09:25:30+0100</time>
      </trkpt>
      <trkpt lat="47.25524" lon="4.95832">
        <ele>392.53558349609</ele>
        <time>2019-03-28T09:25:33+0100</time>
      </trkpt>
      <trkpt lat="47.25525" lon="4.95828">
        <ele>392.65588378906</ele>
        <time>2019-03-28T09:25:36+0100</time>
      </trkpt>
      <trkpt lat="47.25526" lon="4.95824">
        <ele>392.77465820312</ele>
        <time>2019-03-28T09:25:39+0100</time>
      </trkpt>
      <trkpt lat="47.25526" lon="4.95821">
        <ele>392.89880371094</ele>
        <time>2019-03-28T09:25:42+0100</time>
      </trkpt>
      <trkpt lat="47.25527" lon="4.95819">
        <ele>392.99133300781</ele>
        <time>2019-03-28T09:25:45+0100</time>
      </trkpt>
      <trkpt lat="47.25527" lon="4.95819">
        <ele>393.00659179688</ele>
        <time>2019-03-28T09:25:48+0100</time>
      </trkpt>
      <trkpt lat="47.25528" lon="4.95815">
        <ele>393.23556518555</ele>
        <time>2019-03-28T09:25:51+0100</time>
      </trkpt>
      <trkpt lat="47.25529" lon="4.95811">
        <ele>393.52789306641</ele>
        <time>2019-03-28T09:25:54+0100</time>
      </trkpt>
      <trkpt lat="47.25529" lon="4.95807">
        <ele>393.75509643555</ele>
        <time>2019-03-28T09:25:57+0100</time>
      </trkpt>
      <trkpt lat="47.2553" lon="4.95804">
        <ele>394.10073852539</ele>
        <time>2019-03-28T09:26:00+0100</time>
      </trkpt>
      <trkpt lat="47.25531" lon="4.95801">
        <ele>394.47503662109</ele>
        <time>2019-03-28T09:26:03+0100</time>
      </trkpt>
      <trkpt lat="47.25531" lon="4.95799">
        <ele>394.70614624023</ele>
        <time>2019-03-28T09:26:06+0100</time>
      </trkpt>
      <trkpt lat="47.25532" lon="4.95798">
        <ele>394.72738647461</ele>
        <time>2019-03-28T09:26:09+0100</time>
      </trkpt>
      <trkpt lat="47.25532" lon="4.95798">
        <ele>394.73983764648</ele>
        <time>2019-03-28T09:26:12+0100</time>
      </trkpt>
      <trkpt lat="47.25532" lon="4.95798">
        <ele>394.74618530273</ele>
        <time>2019-03-28T09:26:15+0100</time>
      </trkpt>
      <trkpt lat="47.25532" lon="4.95797">
        <ele>394.74713134766</ele>
        <time>2019-03-28T09:26:18+0100</time>
      </trkpt>
      <trkpt lat="47.25532" lon="4.95796">
        <ele>394.74291992188</ele>
        <time>2019-03-28T09:26:21+0100</time>
      </trkpt>
      <trkpt lat="47.25533" lon="4.95792">
        <ele>394.70471191406</ele>
        <time>2019-03-28T09:26:24+0100</time>
      </trkpt>
      <trkpt lat="47.25535" lon="4.95786">
        <ele>394.66082763672</ele>
        <time>2019-03-28T09:26:27+0100</time>
      </trkpt>
      <trkpt lat="47.25535" lon="4.95786">
        <ele>394.62182617188</ele>
        <time>2019-03-28T09:26:30+0100</time>
      </trkpt>
      <trkpt lat="47.25536" lon="4.95782">
        <ele>394.57342529297</ele>
        <time>2019-03-28T09:26:33+0100</time>
      </trkpt>
      <trkpt lat="47.25537" lon="4.95779">
        <ele>394.52719116211</ele>
        <time>2019-03-28T09:26:36+0100</time>
      </trkpt>
      <trkpt lat="47.25538" lon="4.95776">
        <ele>394.47354125977</ele>
        <time>2019-03-28T09:26:39+0100</time>
      </trkpt>
      <trkpt lat="47.25539" lon="4.95774">
        <ele>394.43737792969</ele>
        <time>2019-03-28T09:26:42+0100</time>
      </trkpt>
      <trkpt lat="47.2554" lon="4.95771">
        <ele>394.44055175781</ele>
        <time>2019-03-28T09:26:45+0100</time>
      </trkpt>
      <trkpt lat="47.25542" lon="4.95768">
        <ele>394.49673461914</ele>
        <time>2019-03-28T09:26:48+0100</time>
      </trkpt>
      <trkpt lat="47.25543" lon="4.95764">
        <ele>394.59649658203</ele>
        <time>2019-03-28T09:26:51+0100</time>
      </trkpt>
      <trkpt lat="47.25544" lon="4.95763">
        <ele>394.75173950195</ele>
        <time>2019-03-28T09:26:54+0100</time>
      </trkpt>
      <trkpt lat="47.25543" lon="4.95763">
        <ele>394.89114379883</ele>
        <time>2019-03-28T09:26:57+0100</time>
      </trkpt>
      <trkpt lat="47.25544" lon="4.95761">
        <ele>395.11773681641</ele>
        <time>2019-03-28T09:27:00+0100</time>
      </trkpt>
      <trkpt lat="47.25545" lon="4.95758">
        <ele>395.34466552734</ele>
        <time>2019-03-28T09:27:03+0100</time>
      </trkpt>
      <trkpt lat="47.25547" lon="4.95755">
        <ele>395.54330444336</ele>
        <time>2019-03-28T09:27:06+0100</time>
      </trkpt>
      <trkpt lat="47.25547" lon="4.95753">
        <ele>395.67300415039</ele>
        <time>2019-03-28T09:27:09+0100</time>
      </trkpt>
      <trkpt lat="47.25548" lon="4.95751">
        <ele>395.85876464844</ele>
        <time>2019-03-28T09:27:12+0100</time>
      </trkpt>
      <trkpt lat="47.2555" lon="4.95748">
        <ele>396.02499389648</ele>
        <time>2019-03-28T09:27:15+0100</time>
      </trkpt>
      <trkpt lat="47.25551" lon="4.95747">
        <ele>396.09173583984</ele>
        <time>2019-03-28T09:27:18+0100</time>
      </trkpt>
      <trkpt lat="47.25552" lon="4.95746">
        <ele>396.29974365234</ele>
        <time>2019-03-28T09:27:21+0100</time>
      </trkpt>
      <trkpt lat="47.25551" lon="4.95747">
        <ele>396.56362915039</ele>
        <time>2019-03-28T09:27:24+0100</time>
      </trkpt>
      <trkpt lat="47.25553" lon="4.95745">
        <ele>396.90258789062</ele>
        <time>2019-03-28T09:27:27+0100</time>
      </trkpt>
      <trkpt lat="47.25556" lon="4.9574">
        <ele>397.34451293945</ele>
        <time>2019-03-28T09:27:30+0100</time>
      </trkpt>
      <trkpt lat="47.25557" lon="4.95739">
        <ele>397.63668823242</ele>
        <time>2019-03-28T09:27:33+0100</time>
      </trkpt>
      <trkpt lat="47.25558" lon="4.95738">
        <ele>398.04376220703</ele>
        <time>2019-03-28T09:27:36+0100</time>
      </trkpt>
      <trkpt lat="47.2556" lon="4.95736">
        <ele>398.49987792969</ele>
        <time>2019-03-28T09:27:39+0100</time>
      </trkpt>
      <trkpt lat="47.25562" lon="4.95734">
        <ele>398.80752563477</ele>
        <time>2019-03-28T09:27:42+0100</time>
      </trkpt>
      <trkpt lat="47.25564" lon="4.95732">
        <ele>399.28802490234</ele>
        <time>2019-03-28T09:27:45+0100</time>
      </trkpt>
      <trkpt lat="47.25566" lon="4.95731">
        <ele>399.62777709961</ele>
        <time>2019-03-28T09:27:48+0100</time>
      </trkpt>
      <trkpt lat="47.25567" lon="4.95731">
        <ele>399.83584594727</ele>
        <time>2019-03-28T09:27:51+0100</time>
      </trkpt>
      <trkpt lat="47.25571" lon="4.95729">
        <ele>400.36154174805</ele>
        <time>2019-03-28T09:27:54+0100</time>
      </trkpt>
      <trkpt lat="47.25575" lon="4.95727">
        <ele>400.85687255859</ele>
        <time>2019-03-28T09:27:57+0100</time>
      </trkpt>
      <trkpt lat="47.25576" lon="4.95726">
        <ele>401.05822753906</ele>
        <time>2019-03-28T09:28:00+0100</time>
      </trkpt>
      <trkpt lat="47.25579" lon="4.95723">
        <ele>401.52828979492</ele>
        <time>2019-03-28T09:28:03+0100</time>
      </trkpt>
      <trkpt lat="47.25583" lon="4.9572">
        <ele>401.94857788086</ele>
        <time>2019-03-28T09:28:06+0100</time>
      </trkpt>
      <trkpt lat="47.25585" lon="4.9572">
        <ele>402.24063110352</ele>
        <time>2019-03-28T09:28:09+0100</time>
      </trkpt>
      <trkpt lat="47.25587" lon="4.95719">
        <ele>402.35391235352</ele>
        <time>2019-03-28T09:28:12+0100</time>
      </trkpt>
      <trkpt lat="47.2559" lon="4.95718">
        <ele>402.45043945312</ele>
        <time>2019-03-28T09:28:15+0100</time>
      </trkpt>
      <trkpt lat="47.25593" lon="4.95717">
        <ele>402.5383605957</ele>
        <time>2019-03-28T09:28:18+0100</time>
      </trkpt>
      <trkpt lat="47.25597" lon="4.95716">
        <ele>402.63858032227</ele>
        <time>2019-03-28T09:28:21+0100</time>
      </trkpt>
      <trkpt lat="47.25598" lon="4.95715">
        <ele>402.71594238281</ele>
        <time>2019-03-28T09:28:24+0100</time>
      </trkpt>
      <trkpt lat="47.25603" lon="4.95712">
        <ele>402.83633422852</ele>
        <time>2019-03-28T09:28:27+0100</time>
      </trkpt>
      <trkpt lat="47.25606" lon="4.95709">
        <ele>402.90518188477</ele>
        <time>2019-03-28T09:28:30+0100</time>
      </trkpt>
      <trkpt lat="47.25609" lon="4.95707">
        <ele>402.9787902832</ele>
        <time>2019-03-28T09:28:33+0100</time>
      </trkpt>
      <trkpt lat="47.25611" lon="4.95706">
        <ele>403.07431030273</ele>
        <time>2019-03-28T09:28:36+0100</time>
      </trkpt>
      <trkpt lat="47.25613" lon="4.95705">
        <ele>403.18249511719</ele>
        <time>2019-03-28T09:28:39+0100</time>
      </trkpt>
      <trkpt lat="47.25616" lon="4.95704">
        <ele>403.4104309082</ele>
        <time>2019-03-28T09:28:42+0100</time>
      </trkpt>
      <trkpt lat="47.25616" lon="4.95704">
        <ele>403.59118652344</ele>
        <time>2019-03-28T09:28:45+0100</time>
      </trkpt>
      <trkpt lat="47.25618" lon="4.95704">
        <ele>403.86370849609</ele>
        <time>2019-03-28T09:28:48+0100</time>
      </trkpt>
      <trkpt lat="47.2562" lon="4.95704">
        <ele>403.96594238281</ele>
        <time>2019-03-28T09:28:51+0100</time>
      </trkpt>
      <trkpt lat="47.25621" lon="4.95703">
        <ele>403.99182128906</ele>
        <time>2019-03-28T09:28:54+0100</time>
      </trkpt>
      <trkpt lat="47.25625" lon="4.95701">
        <ele>404.20318603516</ele>
        <time>2019-03-28T09:28:57+0100</time>
      </trkpt>
      <trkpt lat="47.25627" lon="4.95699">
        <ele>404.38049316406</ele>
        <time>2019-03-28T09:29:00+0100</time>
      </trkpt>
      <trkpt lat="47.25631" lon="4.95698">
        <ele>404.50704956055</ele>
        <time>2019-03-28T09:29:03+0100</time>
      </trkpt>
      <trkpt lat="47.25633" lon="4.95697">
        <ele>404.5927734375</ele>
        <time>2019-03-28T09:29:06+0100</time>
      </trkpt>
      <trkpt lat="47.25634" lon="4.95696">
        <ele>404.64996337891</ele>
        <time>2019-03-28T09:29:09+0100</time>
      </trkpt>
      <trkpt lat="47.25636" lon="4.95695">
        <ele>404.76092529297</ele>
        <time>2019-03-28T09:29:12+0100</time>
      </trkpt>
      <trkpt lat="47.25639" lon="4.95695">
        <ele>404.89123535156</ele>
        <time>2019-03-28T09:29:15+0100</time>
      </trkpt>
      <trkpt lat="47.25641" lon="4.95695">
        <ele>404.95770263672</ele>
        <time>2019-03-28T09:29:18+0100</time>
      </trkpt>
      <trkpt lat="47.25642" lon="4.95696">
        <ele>405.04373168945</ele>
        <time>2019-03-28T09:29:21+0100</time>
      </trkpt>
      <trkpt lat="47.25644" lon="4.95695">
        <ele>405.17974853516</ele>
        <time>2019-03-28T09:29:24+0100</time>
      </trkpt>
      <trkpt lat="47.25647" lon="4.95696">
        <ele>405.35684204102</ele>
        <time>2019-03-28T09:29:26+0100</time>
      </trkpt>
      <trkpt lat="47.2565" lon="4.95696">
        <ele>405.57382202148</ele>
        <time>2019-03-28T09:29:29+0100</time>
      </trkpt>
      <trkpt lat="47.25652" lon="4.95696">
        <ele>405.84133911133</ele>
        <time>2019-03-28T09:29:32+0100</time>
      </trkpt>
      <trkpt lat="47.25654" lon="4.95696">
        <ele>406.19369506836</ele>
        <time>2019-03-28T09:29:35+0100</time>
      </trkpt>
      <trkpt lat="47.25656" lon="4.95696">
        <ele>406.55758666992</ele>
        <time>2019-03-28T09:29:38+0100</time>
      </trkpt>
      <trkpt lat="47.25659" lon="4.95695">
        <ele>406.86611938477</ele>
        <time>2019-03-28T09:29:41+0100</time>
      </trkpt>
      <trkpt lat="47.25663" lon="4.95694">
        <ele>407.02145385742</ele>
        <time>2019-03-28T09:29:44+0100</time>
      </trkpt>
      <trkpt lat="47.25666" lon="4.95692">
        <ele>407.22329711914</ele>
        <time>2019-03-28T09:29:47+0100</time>
      </trkpt>
      <trkpt lat="47.25669" lon="4.95691">
        <ele>407.40313720703</ele>
        <time>2019-03-28T09:29:50+0100</time>
      </trkpt>
      <trkpt lat="47.25671" lon="4.9569">
        <ele>407.53179931641</ele>
        <time>2019-03-28T09:29:53+0100</time>
      </trkpt>
      <trkpt lat="47.25672" lon="4.95689">
        <ele>407.59313964844</ele>
        <time>2019-03-28T09:29:56+0100</time>
      </trkpt>
      <trkpt lat="47.25675" lon="4.95688">
        <ele>407.68014526367</ele>
        <time>2019-03-28T09:29:59+0100</time>
      </trkpt>
      <trkpt lat="47.25678" lon="4.95685">
        <ele>407.80804443359</ele>
        <time>2019-03-28T09:30:02+0100</time>
      </trkpt>
      <trkpt lat="47.25681" lon="4.95683">
        <ele>407.97354125977</ele>
        <time>2019-03-28T09:30:05+0100</time>
      </trkpt>
      <trkpt lat="47.25682" lon="4.95683">
        <ele>408.16519165039</ele>
        <time>2019-03-28T09:30:08+0100</time>
      </trkpt>
      <trkpt lat="47.25684" lon="4.95682">
        <ele>408.28787231445</ele>
        <time>2019-03-28T09:30:11+0100</time>
      </trkpt>
      <trkpt lat="47.25685" lon="4.95681">
        <ele>408.48428344727</ele>
        <time>2019-03-28T09:30:14+0100</time>
      </trkpt>
      <trkpt lat="47.25687" lon="4.95681">
        <ele>408.63586425781</ele>
        <time>2019-03-28T09:30:17+0100</time>
      </trkpt>
      <trkpt lat="47.25689" lon="4.95681">
        <ele>408.82757568359</ele>
        <time>2019-03-28T09:30:20+0100</time>
      </trkpt>
      <trkpt lat="47.25693" lon="4.9568">
        <ele>408.97799682617</ele>
        <time>2019-03-28T09:30:23+0100</time>
      </trkpt>
      <trkpt lat="47.25695" lon="4.95679">
        <ele>409.09741210938</ele>
        <time>2019-03-28T09:30:26+0100</time>
      </trkpt>
      <trkpt lat="47.25697" lon="4.95677">
        <ele>409.17825317383</ele>
        <time>2019-03-28T09:30:29+0100</time>
      </trkpt>
      <trkpt lat="47.25697" lon="4.95677">
        <ele>409.21115112305</ele>
        <time>2019-03-28T09:30:32+0100</time>
      </trkpt>
      <trkpt lat="47.25697" lon="4.95677">
        <ele>409.25253295898</ele>
        <time>2019-03-28T09:30:35+0100</time>
      </trkpt>
      <trkpt lat="47.25697" lon="4.95677">
        <ele>409.29611206055</ele>
        <time>2019-03-28T09:30:38+0100</time>
      </trkpt>
      <trkpt lat="47.25697" lon="4.95677">
        <ele>409.34027099609</ele>
        <time>2019-03-28T09:30:41+0100</time>
      </trkpt>
      <trkpt lat="47.25698" lon="4.95677">
        <ele>409.38314819336</ele>
        <time>2019-03-28T09:30:44+0100</time>
      </trkpt>
      <trkpt lat="47.257" lon="4.95677">
        <ele>409.68081665039</ele>
        <time>2019-03-28T09:30:47+0100</time>
      </trkpt>
      <trkpt lat="47.25702" lon="4.95676">
        <ele>410.09307861328</ele>
        <time>2019-03-28T09:30:50+0100</time>
      </trkpt>
      <trkpt lat="47.25703" lon="4.95675">
        <ele>410.25833129883</ele>
        <time>2019-03-28T09:30:53+0100</time>
      </trkpt>
      <trkpt lat="47.25704" lon="4.95675">
        <ele>410.671875</ele>
        <time>2019-03-28T09:30:56+0100</time>
      </trkpt>
      <trkpt lat="47.25707" lon="4.95674">
        <ele>411.08587646484</ele>
        <time>2019-03-28T09:30:59+0100</time>
      </trkpt>
      <trkpt lat="47.25708" lon="4.95674">
        <ele>411.24066162109</ele>
        <time>2019-03-28T09:31:02+0100</time>
      </trkpt>
      <trkpt lat="47.2571" lon="4.95674">
        <ele>411.60290527344</ele>
        <time>2019-03-28T09:31:05+0100</time>
      </trkpt>
      <trkpt lat="47.25713" lon="4.95673">
        <ele>411.94641113281</ele>
        <time>2019-03-28T09:31:08+0100</time>
      </trkpt>
      <trkpt lat="47.25715" lon="4.95672">
        <ele>412.22424316406</ele>
        <time>2019-03-28T09:31:11+0100</time>
      </trkpt>
      <trkpt lat="47.25717" lon="4.95671">
        <ele>412.65960693359</ele>
        <time>2019-03-28T09:31:14+0100</time>
      </trkpt>
      <trkpt lat="47.25719" lon="4.95672">
        <ele>413.08932495117</ele>
        <time>2019-03-28T09:31:17+0100</time>
      </trkpt>
      <trkpt lat="47.25722" lon="4.95672">
        <ele>413.49136352539</ele>
        <time>2019-03-28T09:31:20+0100</time>
      </trkpt>
      <trkpt lat="47.25724" lon="4.95672">
        <ele>413.8669128418</ele>
        <time>2019-03-28T09:31:23+0100</time>
      </trkpt>
      <trkpt lat="47.25727" lon="4.95671">
        <ele>414.21343994141</ele>
        <time>2019-03-28T09:31:26+0100</time>
      </trkpt>
      <trkpt lat="47.25729" lon="4.95671">
        <ele>414.41021728516</ele>
        <time>2019-03-28T09:31:29+0100</time>
      </trkpt>
      <trkpt lat="47.2573" lon="4.95671">
        <ele>414.67379760742</ele>
        <time>2019-03-28T09:31:32+0100</time>
      </trkpt>
      <trkpt lat="47.25732" lon="4.9567">
        <ele>414.91748046875</ele>
        <time>2019-03-28T09:31:35+0100</time>
      </trkpt>
      <trkpt lat="47.25735" lon="4.9567">
        <ele>415.14114379883</ele>
        <time>2019-03-28T09:31:38+0100</time>
      </trkpt>
      <trkpt lat="47.25738" lon="4.9567">
        <ele>415.34628295898</ele>
        <time>2019-03-28T09:31:41+0100</time>
      </trkpt>
      <trkpt lat="47.25739" lon="4.9567">
        <ele>415.54736328125</ele>
        <time>2019-03-28T09:31:44+0100</time>
      </trkpt>
      <trkpt lat="47.25741" lon="4.95671">
        <ele>415.80615234375</ele>
        <time>2019-03-28T09:31:47+0100</time>
      </trkpt>
      <trkpt lat="47.25742" lon="4.95671">
        <ele>416.02719116211</ele>
        <time>2019-03-28T09:31:50+0100</time>
      </trkpt>
      <trkpt lat="47.25744" lon="4.9567">
        <ele>416.36840820312</ele>
        <time>2019-03-28T09:31:53+0100</time>
      </trkpt>
      <trkpt lat="47.25748" lon="4.9567">
        <ele>416.72174072266</ele>
        <time>2019-03-28T09:31:56+0100</time>
      </trkpt>
      <trkpt lat="47.25751" lon="4.9567">
        <ele>417.10482788086</ele>
        <time>2019-03-28T09:31:59+0100</time>
      </trkpt>
      <trkpt lat="47.25751" lon="4.9567">
        <ele>417.51623535156</ele>
        <time>2019-03-28T09:32:02+0100</time>
      </trkpt>
      <trkpt lat="47.25754" lon="4.95671">
        <ele>417.89443969727</ele>
        <time>2019-03-28T09:32:05+0100</time>
      </trkpt>
      <trkpt lat="47.25756" lon="4.95671">
        <ele>418.13870239258</ele>
        <time>2019-03-28T09:32:08+0100</time>
      </trkpt>
      <trkpt lat="47.25759" lon="4.95671">
        <ele>418.53875732422</ele>
        <time>2019-03-28T09:32:11+0100</time>
      </trkpt>
      <trkpt lat="47.25762" lon="4.95671">
        <ele>418.97317504883</ele>
        <time>2019-03-28T09:32:14+0100</time>
      </trkpt>
      <trkpt lat="47.25764" lon="4.95672">
        <ele>419.43322753906</ele>
        <time>2019-03-28T09:32:17+0100</time>
      </trkpt>
      <trkpt lat="47.25766" lon="4.95672">
        <ele>419.76599121094</ele>
        <time>2019-03-28T09:32:20+0100</time>
      </trkpt>
      <trkpt lat="47.25766" lon="4.95672">
        <ele>420.28555297852</ele>
        <time>2019-03-28T09:32:23+0100</time>
      </trkpt>
      <trkpt lat="47.25767" lon="4.95672">
        <ele>420.64300537109</ele>
        <time>2019-03-28T09:32:26+0100</time>
      </trkpt>
      <trkpt lat="47.2577" lon="4.95671">
        <ele>421.11163330078</ele>
        <time>2019-03-28T09:32:29+0100</time>
      </trkpt>
      <trkpt lat="47.25772" lon="4.9567">
        <ele>421.52313232422</ele>
        <time>2019-03-28T09:32:32+0100</time>
      </trkpt>
      <trkpt lat="47.25775" lon="4.95668">
        <ele>421.87536621094</ele>
        <time>2019-03-28T09:32:35+0100</time>
      </trkpt>
      <trkpt lat="47.25778" lon="4.95665">
        <ele>422.16073608398</ele>
        <time>2019-03-28T09:32:38+0100</time>
      </trkpt>
      <trkpt lat="47.25781" lon="4.95663">
        <ele>422.31732177734</ele>
        <time>2019-03-28T09:32:41+0100</time>
      </trkpt>
      <trkpt lat="47.25782" lon="4.95662">
        <ele>422.44985961914</ele>
        <time>2019-03-28T09:32:44+0100</time>
      </trkpt>
      <trkpt lat="47.25784" lon="4.9566">
        <ele>422.50186157227</ele>
        <time>2019-03-28T09:32:47+0100</time>
      </trkpt>
      <trkpt lat="47.25786" lon="4.95658">
        <ele>422.51062011719</ele>
        <time>2019-03-28T09:32:50+0100</time>
      </trkpt>
      <trkpt lat="47.25787" lon="4.95657">
        <ele>422.46792602539</ele>
        <time>2019-03-28T09:32:53+0100</time>
      </trkpt>
      <trkpt lat="47.25789" lon="4.95656">
        <ele>422.40243530273</ele>
        <time>2019-03-28T09:32:56+0100</time>
      </trkpt>
      <trkpt lat="47.25793" lon="4.95654">
        <ele>422.33822631836</ele>
        <time>2019-03-28T09:32:59+0100</time>
      </trkpt>
      <trkpt lat="47.25795" lon="4.95652">
        <ele>422.31695556641</ele>
        <time>2019-03-28T09:33:02+0100</time>
      </trkpt>
      <trkpt lat="47.25798" lon="4.95649">
        <ele>422.30288696289</ele>
        <time>2019-03-28T09:33:05+0100</time>
      </trkpt>
      <trkpt lat="47.25799" lon="4.95647">
        <ele>422.37139892578</ele>
        <time>2019-03-28T09:33:08+0100</time>
      </trkpt>
      <trkpt lat="47.258" lon="4.95646">
        <ele>422.45193481445</ele>
        <time>2019-03-28T09:33:11+0100</time>
      </trkpt>
      <trkpt lat="47.25801" lon="4.95644">
        <ele>422.54928588867</ele>
        <time>2019-03-28T09:33:14+0100</time>
      </trkpt>
      <trkpt lat="47.25802" lon="4.95643">
        <ele>422.60296630859</ele>
        <time>2019-03-28T09:33:17+0100</time>
      </trkpt>
      <trkpt lat="47.25802" lon="4.95643">
        <ele>422.615234375</ele>
        <time>2019-03-28T09:33:20+0100</time>
      </trkpt>
      <trkpt lat="47.25803" lon="4.95642">
        <ele>422.61965942383</ele>
        <time>2019-03-28T09:33:23+0100</time>
      </trkpt>
      <trkpt lat="47.25803" lon="4.9564">
        <ele>422.63333129883</ele>
        <time>2019-03-28T09:33:26+0100</time>
      </trkpt>
      <trkpt lat="47.25803" lon="4.9564">
        <ele>422.63540649414</ele>
        <time>2019-03-28T09:33:29+0100</time>
      </trkpt>
      <trkpt lat="47.25803" lon="4.95639">
        <ele>422.63171386719</ele>
        <time>2019-03-28T09:33:32+0100</time>
      </trkpt>
      <trkpt lat="47.25803" lon="4.95639">
        <ele>422.62268066406</ele>
        <time>2019-03-28T09:33:35+0100</time>
      </trkpt>
      <trkpt lat="47.25804" lon="4.95638">
        <ele>422.6037902832</ele>
        <time>2019-03-28T09:33:38+0100</time>
      </trkpt>
      <trkpt lat="47.25804" lon="4.95638">
        <ele>422.5774230957</ele>
        <time>2019-03-28T09:33:41+0100</time>
      </trkpt>
      <trkpt lat="47.25805" lon="4.95636">
        <ele>422.36260986328</ele>
        <time>2019-03-28T09:33:44+0100</time>
      </trkpt>
      <trkpt lat="47.25808" lon="4.95632">
        <ele>422.07339477539</ele>
        <time>2019-03-28T09:33:47+0100</time>
      </trkpt>
      <trkpt lat="47.25809" lon="4.95631">
        <ele>421.89730834961</ele>
        <time>2019-03-28T09:33:50+0100</time>
      </trkpt>
      <trkpt lat="47.25812" lon="4.95628">
        <ele>421.78356933594</ele>
        <time>2019-03-28T09:33:53+0100</time>
      </trkpt>
      <trkpt lat="47.25813" lon="4.95625">
        <ele>421.7255859375</ele>
        <time>2019-03-28T09:33:56+0100</time>
      </trkpt>
      <trkpt lat="47.25814" lon="4.95624">
        <ele>421.72717285156</ele>
        <time>2019-03-28T09:33:59+0100</time>
      </trkpt>
      <trkpt lat="47.25815" lon="4.95623">
        <ele>421.71383666992</ele>
        <time>2019-03-28T09:34:02+0100</time>
      </trkpt>
      <trkpt lat="47.25816" lon="4.95621">
        <ele>421.71966552734</ele>
        <time>2019-03-28T09:34:05+0100</time>
      </trkpt>
      <trkpt lat="47.25817" lon="4.95619">
        <ele>421.74847412109</ele>
        <time>2019-03-28T09:34:08+0100</time>
      </trkpt>
      <trkpt lat="47.2582" lon="4.95616">
        <ele>421.79675292969</ele>
        <time>2019-03-28T09:34:11+0100</time>
      </trkpt>
      <trkpt lat="47.25823" lon="4.95612">
        <ele>421.86547851562</ele>
        <time>2019-03-28T09:34:14+0100</time>
      </trkpt>
      <trkpt lat="47.25826" lon="4.95608">
        <ele>421.98257446289</ele>
        <time>2019-03-28T09:34:17+0100</time>
      </trkpt>
      <trkpt lat="47.25827" lon="4.95607">
        <ele>422.12973022461</ele>
        <time>2019-03-28T09:34:20+0100</time>
      </trkpt>
      <trkpt lat="47.25828" lon="4.95604">
        <ele>422.23907470703</ele>
        <time>2019-03-28T09:34:23+0100</time>
      </trkpt>
      <trkpt lat="47.25831" lon="4.95601">
        <ele>422.37997436523</ele>
        <time>2019-03-28T09:34:26+0100</time>
      </trkpt>
      <trkpt lat="47.25832" lon="4.95598">
        <ele>422.50527954102</ele>
        <time>2019-03-28T09:34:29+0100</time>
      </trkpt>
      <trkpt lat="47.25833" lon="4.95595">
        <ele>422.72338867188</ele>
        <time>2019-03-28T09:34:32+0100</time>
      </trkpt>
      <trkpt lat="47.25833" lon="4.95594">
        <ele>422.90490722656</ele>
        <time>2019-03-28T09:34:35+0100</time>
      </trkpt>
      <trkpt lat="47.25833" lon="4.95594">
        <ele>423.07827758789</ele>
        <time>2019-03-28T09:34:38+0100</time>
      </trkpt>
      <trkpt lat="47.25833" lon="4.95592">
        <ele>423.32290649414</ele>
        <time>2019-03-28T09:34:41+0100</time>
      </trkpt>
      <trkpt lat="47.25833" lon="4.95589">
        <ele>423.53634643555</ele>
        <time>2019-03-28T09:34:44+0100</time>
      </trkpt>
      <trkpt lat="47.25835" lon="4.95585">
        <ele>423.72760009766</ele>
        <time>2019-03-28T09:34:47+0100</time>
      </trkpt>
      <trkpt lat="47.25836" lon="4.95582">
        <ele>423.89767456055</ele>
        <time>2019-03-28T09:34:50+0100</time>
      </trkpt>
      <trkpt lat="47.25836" lon="4.95579">
        <ele>424.01416015625</ele>
        <time>2019-03-28T09:34:53+0100</time>
      </trkpt>
      <trkpt lat="47.25837" lon="4.95575">
        <ele>424.0729675293</ele>
        <time>2019-03-28T09:34:56+0100</time>
      </trkpt>
      <trkpt lat="47.25838" lon="4.95572">
        <ele>424.12789916992</ele>
        <time>2019-03-28T09:34:59+0100</time>
      </trkpt>
      <trkpt lat="47.25838" lon="4.9557">
        <ele>424.17721557617</ele>
        <time>2019-03-28T09:35:02+0100</time>
      </trkpt>
      <trkpt lat="47.25839" lon="4.95567">
        <ele>424.267578125</ele>
        <time>2019-03-28T09:35:05+0100</time>
      </trkpt>
      <trkpt lat="47.25839" lon="4.95564">
        <ele>424.34460449219</ele>
        <time>2019-03-28T09:35:08+0100</time>
      </trkpt>
      <trkpt lat="47.25841" lon="4.95558">
        <ele>424.4094543457</ele>
        <time>2019-03-28T09:35:11+0100</time>
      </trkpt>
      <trkpt lat="47.25843" lon="4.95551">
        <ele>424.55484008789</ele>
        <time>2019-03-28T09:35:14+0100</time>
      </trkpt>
      <trkpt lat="47.25845" lon="4.95546">
        <ele>424.7080078125</ele>
        <time>2019-03-28T09:35:17+0100</time>
      </trkpt>
      <trkpt lat="47.25847" lon="4.95541">
        <ele>424.83660888672</ele>
        <time>2019-03-28T09:35:20+0100</time>
      </trkpt>
      <trkpt lat="47.25848" lon="4.95537">
        <ele>424.92514038086</ele>
        <time>2019-03-28T09:35:23+0100</time>
      </trkpt>
      <trkpt lat="47.25849" lon="4.95534">
        <ele>424.95513916016</ele>
        <time>2019-03-28T09:35:26+0100</time>
      </trkpt>
      <trkpt lat="47.25851" lon="4.9553">
        <ele>424.97302246094</ele>
        <time>2019-03-28T09:35:29+0100</time>
      </trkpt>
      <trkpt lat="47.25851" lon="4.95528">
        <ele>424.97427368164</ele>
        <time>2019-03-28T09:35:32+0100</time>
      </trkpt>
      <trkpt lat="47.25852" lon="4.95525">
        <ele>425.00137329102</ele>
        <time>2019-03-28T09:35:35+0100</time>
      </trkpt>
      <trkpt lat="47.25853" lon="4.95522">
        <ele>424.99816894531</ele>
        <time>2019-03-28T09:35:38+0100</time>
      </trkpt>
      <trkpt lat="47.25853" lon="4.95521">
        <ele>424.97543334961</ele>
        <time>2019-03-28T09:35:41+0100</time>
      </trkpt>
      <trkpt lat="47.25854" lon="4.95517">
        <ele>424.98919677734</ele>
        <time>2019-03-28T09:35:44+0100</time>
      </trkpt>
      <trkpt lat="47.25855" lon="4.95514">
        <ele>425.03823852539</ele>
        <time>2019-03-28T09:35:47+0100</time>
      </trkpt>
      <trkpt lat="47.25856" lon="4.95511">
        <ele>425.06225585938</ele>
        <time>2019-03-28T09:35:50+0100</time>
      </trkpt>
      <trkpt lat="47.25856" lon="4.9551">
        <ele>425.13052368164</ele>
        <time>2019-03-28T09:35:53+0100</time>
      </trkpt>
      <trkpt lat="47.25857" lon="4.95508">
        <ele>425.22058105469</ele>
        <time>2019-03-28T09:35:56+0100</time>
      </trkpt>
      <trkpt lat="47.25857" lon="4.95505">
        <ele>425.33685302734</ele>
        <time>2019-03-28T09:35:59+0100</time>
      </trkpt>
      <trkpt lat="47.25858" lon="4.95503">
        <ele>425.54605102539</ele>
        <time>2019-03-28T09:36:02+0100</time>
      </trkpt>
      <trkpt lat="47.25858" lon="4.95503">
        <ele>425.62908935547</ele>
        <time>2019-03-28T09:36:05+0100</time>
      </trkpt>
      <trkpt lat="47.25859" lon="4.955">
        <ele>425.87954711914</ele>
        <time>2019-03-28T09:36:08+0100</time>
      </trkpt>
      <trkpt lat="47.2586" lon="4.95496">
        <ele>426.16470336914</ele>
        <time>2019-03-28T09:36:11+0100</time>
      </trkpt>
      <trkpt lat="47.25862" lon="4.95493">
        <ele>426.45248413086</ele>
        <time>2019-03-28T09:36:14+0100</time>
      </trkpt>
      <trkpt lat="47.25863" lon="4.9549">
        <ele>426.71392822266</ele>
        <time>2019-03-28T09:36:17+0100</time>
      </trkpt>
      <trkpt lat="47.25865" lon="4.95487">
        <ele>427.04580688477</ele>
        <time>2019-03-28T09:36:20+0100</time>
      </trkpt>
      <trkpt lat="47.25865" lon="4.95484">
        <ele>427.39669799805</ele>
        <time>2019-03-28T09:36:23+0100</time>
      </trkpt>
      <trkpt lat="47.25866" lon="4.95482">
        <ele>427.74291992188</ele>
        <time>2019-03-28T09:36:26+0100</time>
      </trkpt>
      <trkpt lat="47.25867" lon="4.95478">
        <ele>428.03894042969</ele>
        <time>2019-03-28T09:36:29+0100</time>
      </trkpt>
      <trkpt lat="47.25869" lon="4.95474">
        <ele>428.32495117188</ele>
        <time>2019-03-28T09:36:32+0100</time>
      </trkpt>
      <trkpt lat="47.2587" lon="4.9547">
        <ele>428.60049438477</ele>
        <time>2019-03-28T09:36:35+0100</time>
      </trkpt>
      <trkpt lat="47.25872" lon="4.95465">
        <ele>428.8450012207</ele>
        <time>2019-03-28T09:36:38+0100</time>
      </trkpt>
      <trkpt lat="47.25873" lon="4.95462">
        <ele>429.05410766602</ele>
        <time>2019-03-28T09:36:41+0100</time>
      </trkpt>
      <trkpt lat="47.25874" lon="4.9546">
        <ele>429.23934936523</ele>
        <time>2019-03-28T09:36:44+0100</time>
      </trkpt>
      <trkpt lat="47.25875" lon="4.95457">
        <ele>429.45071411133</ele>
        <time>2019-03-28T09:36:47+0100</time>
      </trkpt>
      <trkpt lat="47.25876" lon="4.95456">
        <ele>429.53875732422</ele>
        <time>2019-03-28T09:36:50+0100</time>
      </trkpt>
      <trkpt lat="47.25876" lon="4.95454">
        <ele>429.76870727539</ele>
        <time>2019-03-28T09:36:53+0100</time>
      </trkpt>
      <trkpt lat="47.25877" lon="4.9545">
        <ele>430.0029296875</ele>
        <time>2019-03-28T09:36:56+0100</time>
      </trkpt>
      <trkpt lat="47.25878" lon="4.95447">
        <ele>430.25579833984</ele>
        <time>2019-03-28T09:36:59+0100</time>
      </trkpt>
      <trkpt lat="47.25879" lon="4.95444">
        <ele>430.4928894043</ele>
        <time>2019-03-28T09:37:02+0100</time>
      </trkpt>
      <trkpt lat="47.25879" lon="4.95441">
        <ele>430.65905761719</ele>
        <time>2019-03-28T09:37:05+0100</time>
      </trkpt>
      <trkpt lat="47.2588" lon="4.95438">
        <ele>430.78588867188</ele>
        <time>2019-03-28T09:37:08+0100</time>
      </trkpt>
      <trkpt lat="47.25881" lon="4.95434">
        <ele>430.9482421875</ele>
        <time>2019-03-28T09:37:11+0100</time>
      </trkpt>
      <trkpt lat="47.25882" lon="4.9543">
        <ele>431.13836669922</ele>
        <time>2019-03-28T09:37:14+0100</time>
      </trkpt>
      <trkpt lat="47.25883" lon="4.95426">
        <ele>431.33172607422</ele>
        <time>2019-03-28T09:37:17+0100</time>
      </trkpt>
      <trkpt lat="47.25884" lon="4.95423">
        <ele>431.52484130859</ele>
        <time>2019-03-28T09:37:20+0100</time>
      </trkpt>
      <trkpt lat="47.25885" lon="4.9542">
        <ele>431.71926879883</ele>
        <time>2019-03-28T09:37:23+0100</time>
      </trkpt>
      <trkpt lat="47.25886" lon="4.95418">
        <ele>431.90594482422</ele>
        <time>2019-03-28T09:37:26+0100</time>
      </trkpt>
      <trkpt lat="47.25886" lon="4.95417">
        <ele>431.91705322266</ele>
        <time>2019-03-28T09:37:29+0100</time>
      </trkpt>
      <trkpt lat="47.25887" lon="4.95415">
        <ele>431.94775390625</ele>
        <time>2019-03-28T09:37:32+0100</time>
      </trkpt>
      <trkpt lat="47.25887" lon="4.95414">
        <ele>431.95565795898</ele>
        <time>2019-03-28T09:37:35+0100</time>
      </trkpt>
      <trkpt lat="47.25889" lon="4.9541">
        <ele>431.98440551758</ele>
        <time>2019-03-28T09:37:38+0100</time>
      </trkpt>
      <trkpt lat="47.25891" lon="4.95404">
        <ele>431.98593139648</ele>
        <time>2019-03-28T09:37:41+0100</time>
      </trkpt>
      <trkpt lat="47.25892" lon="4.954">
        <ele>431.9475402832</ele>
        <time>2019-03-28T09:37:44+0100</time>
      </trkpt>
      <trkpt lat="47.25894" lon="4.95397">
        <ele>431.89669799805</ele>
        <time>2019-03-28T09:37:47+0100</time>
      </trkpt>
      <trkpt lat="47.25894" lon="4.95395">
        <ele>431.86883544922</ele>
        <time>2019-03-28T09:37:50+0100</time>
      </trkpt>
      <trkpt lat="47.25894" lon="4.95394">
        <ele>431.845703125</ele>
        <time>2019-03-28T09:37:53+0100</time>
      </trkpt>
      <trkpt lat="47.25895" lon="4.95391">
        <ele>431.8134765625</ele>
        <time>2019-03-28T09:37:56+0100</time>
      </trkpt>
      <trkpt lat="47.25896" lon="4.95388">
        <ele>431.81643676758</ele>
        <time>2019-03-28T09:37:59+0100</time>
      </trkpt>
      <trkpt lat="47.25896" lon="4.95388">
        <ele>431.81872558594</ele>
        <time>2019-03-28T09:38:02+0100</time>
      </trkpt>
      <trkpt lat="47.25896" lon="4.95387">
        <ele>431.85516357422</ele>
        <time>2019-03-28T09:38:05+0100</time>
      </trkpt>
      <trkpt lat="47.25897" lon="4.95384">
        <ele>431.88507080078</ele>
        <time>2019-03-28T09:38:08+0100</time>
      </trkpt>
      <trkpt lat="47.25898" lon="4.95381">
        <ele>431.92654418945</ele>
        <time>2019-03-28T09:38:11+0100</time>
      </trkpt>
      <trkpt lat="47.25897" lon="4.95381">
        <ele>431.93487548828</ele>
        <time>2019-03-28T09:38:14+0100</time>
      </trkpt>
      <trkpt lat="47.25897" lon="4.95379">
        <ele>431.96670532227</ele>
        <time>2019-03-28T09:38:17+0100</time>
      </trkpt>
      <trkpt lat="47.25898" lon="4.95376">
        <ele>432.03668212891</ele>
        <time>2019-03-28T09:38:20+0100</time>
      </trkpt>
      <trkpt lat="47.25898" lon="4.95374">
        <ele>432.06759643555</ele>
        <time>2019-03-28T09:38:23+0100</time>
      </trkpt>
      <trkpt lat="47.25897" lon="4.95373">
        <ele>432.07373046875</ele>
        <time>2019-03-28T09:38:26+0100</time>
      </trkpt>
      <trkpt lat="47.25898" lon="4.95371">
        <ele>432.13134765625</ele>
        <time>2019-03-28T09:38:29+0100</time>
      </trkpt>
      <trkpt lat="47.25898" lon="4.95368">
        <ele>432.24203491211</ele>
        <time>2019-03-28T09:38:32+0100</time>
      </trkpt>
      <trkpt lat="47.25898" lon="4.95365">
        <ele>432.35140991211</ele>
        <time>2019-03-28T09:38:35+0100</time>
      </trkpt>
      <trkpt lat="47.25898" lon="4.95363">
        <ele>432.51971435547</ele>
        <time>2019-03-28T09:38:38+0100</time>
      </trkpt>
      <trkpt lat="47.25898" lon="4.95361">
        <ele>432.67126464844</ele>
        <time>2019-03-28T09:38:41+0100</time>
      </trkpt>
      <trkpt lat="47.25898" lon="4.95358">
        <ele>432.78784179688</ele>
        <time>2019-03-28T09:38:44+0100</time>
      </trkpt>
      <trkpt lat="47.25897" lon="4.95356">
        <ele>432.87899780273</ele>
        <time>2019-03-28T09:38:47+0100</time>
      </trkpt>
      <trkpt lat="47.25898" lon="4.95354">
        <ele>432.93530273438</ele>
        <time>2019-03-28T09:38:50+0100</time>
      </trkpt>
      <trkpt lat="47.25898" lon="4.95351">
        <ele>433.01312255859</ele>
        <time>2019-03-28T09:38:53+0100</time>
      </trkpt>
      <trkpt lat="47.25898" lon="4.95347">
        <ele>433.08526611328</ele>
        <time>2019-03-28T09:38:56+0100</time>
      </trkpt>
      <trkpt lat="47.25897" lon="4.95345">
        <ele>433.14337158203</ele>
        <time>2019-03-28T09:38:59+0100</time>
      </trkpt>
      <trkpt lat="47.25897" lon="4.95342">
        <ele>433.26992797852</ele>
        <time>2019-03-28T09:39:02+0100</time>
      </trkpt>
      <trkpt lat="47.25897" lon="4.9534">
        <ele>433.44161987305</ele>
        <time>2019-03-28T09:39:05+0100</time>
      </trkpt>
      <trkpt lat="47.25898" lon="4.95339">
        <ele>433.63693237305</ele>
        <time>2019-03-28T09:39:08+0100</time>
      </trkpt>
      <trkpt lat="47.25897" lon="4.95338">
        <ele>433.94711303711</ele>
        <time>2019-03-28T09:39:11+0100</time>
      </trkpt>
      <trkpt lat="47.25897" lon="4.95336">
        <ele>434.23834228516</ele>
        <time>2019-03-28T09:39:14+0100</time>
      </trkpt>
      <trkpt lat="47.25896" lon="4.95334">
        <ele>434.50631713867</ele>
        <time>2019-03-28T09:39:17+0100</time>
      </trkpt>
      <trkpt lat="47.25896" lon="4.95332">
        <ele>434.68786621094</ele>
        <time>2019-03-28T09:39:20+0100</time>
      </trkpt>
      <trkpt lat="47.25896" lon="4.9533">
        <ele>434.97128295898</ele>
        <time>2019-03-28T09:39:23+0100</time>
      </trkpt>
      <trkpt lat="47.25895" lon="4.95328">
        <ele>435.2614440918</ele>
        <time>2019-03-28T09:39:26+0100</time>
      </trkpt>
      <trkpt lat="47.25894" lon="4.95325">
        <ele>435.56167602539</ele>
        <time>2019-03-28T09:39:29+0100</time>
      </trkpt>
      <trkpt lat="47.25894" lon="4.95322">
        <ele>435.85772705078</ele>
        <time>2019-03-28T09:39:32+0100</time>
      </trkpt>
      <trkpt lat="47.25894" lon="4.95319">
        <ele>436.123046875</ele>
        <time>2019-03-28T09:39:35+0100</time>
      </trkpt>
      <trkpt lat="47.25893" lon="4.95317">
        <ele>436.33847045898</ele>
        <time>2019-03-28T09:39:38+0100</time>
      </trkpt>
      <trkpt lat="47.25893" lon="4.95315">
        <ele>436.42248535156</ele>
        <time>2019-03-28T09:39:41+0100</time>
      </trkpt>
      <trkpt lat="47.25892" lon="4.95315">
        <ele>436.43106079102</ele>
        <time>2019-03-28T09:39:44+0100</time>
      </trkpt>
      <trkpt lat="47.25892" lon="4.95314">
        <ele>436.45391845703</ele>
        <time>2019-03-28T09:39:47+0100</time>
      </trkpt>
      <trkpt lat="47.25892" lon="4.95311">
        <ele>436.49328613281</ele>
        <time>2019-03-28T09:39:50+0100</time>
      </trkpt>
      <trkpt lat="47.25892" lon="4.95309">
        <ele>436.58047485352</ele>
        <time>2019-03-28T09:39:53+0100</time>
      </trkpt>
      <trkpt lat="47.25893" lon="4.95308">
        <ele>436.59872436523</ele>
        <time>2019-03-28T09:39:56+0100</time>
      </trkpt>
      <trkpt lat="47.25893" lon="4.95305">
        <ele>436.88800048828</ele>
        <time>2019-03-28T09:39:59+0100</time>
      </trkpt>
      <trkpt lat="47.25893" lon="4.95301">
        <ele>437.25079345703</ele>
        <time>2019-03-28T09:40:02+0100</time>
      </trkpt>
      <trkpt lat="47.25893" lon="4.95298">
        <ele>437.64947509766</ele>
        <time>2019-03-28T09:40:05+0100</time>
      </trkpt>
      <trkpt lat="47.25893" lon="4.95295">
        <ele>438.05368041992</ele>
        <time>2019-03-28T09:40:08+0100</time>
      </trkpt>
      <trkpt lat="47.25893" lon="4.95293">
        <ele>438.35565185547</ele>
        <time>2019-03-28T09:40:11+0100</time>
      </trkpt>
      <trkpt lat="47.25894" lon="4.9529">
        <ele>438.68676757812</ele>
        <time>2019-03-28T09:40:14+0100</time>
      </trkpt>
      <trkpt lat="47.25894" lon="4.95287">
        <ele>439.21984863281</ele>
        <time>2019-03-28T09:40:17+0100</time>
      </trkpt>
      <trkpt lat="47.25895" lon="4.95287">
        <ele>439.77398681641</ele>
        <time>2019-03-28T09:40:20+0100</time>
      </trkpt>
      <trkpt lat="47.25895" lon="4.95285">
        <ele>440.34878540039</ele>
        <time>2019-03-28T09:40:23+0100</time>
      </trkpt>
      <trkpt lat="47.25895" lon="4.95282">
        <ele>440.92236328125</ele>
        <time>2019-03-28T09:40:26+0100</time>
      </trkpt>
      <trkpt lat="47.25896" lon="4.95279">
        <ele>441.49264526367</ele>
        <time>2019-03-28T09:40:29+0100</time>
      </trkpt>
      <trkpt lat="47.25898" lon="4.95276">
        <ele>442.06686401367</ele>
        <time>2019-03-28T09:40:32+0100</time>
      </trkpt>
      <trkpt lat="47.25899" lon="4.95273">
        <ele>442.47201538086</ele>
        <time>2019-03-28T09:40:35+0100</time>
      </trkpt>
      <trkpt lat="47.25899" lon="4.95269">
        <ele>443.03994750977</ele>
        <time>2019-03-28T09:40:38+0100</time>
      </trkpt>
      <trkpt lat="47.259" lon="4.95266">
        <ele>443.44592285156</ele>
        <time>2019-03-28T09:40:41+0100</time>
      </trkpt>
      <trkpt lat="47.259" lon="4.95264">
        <ele>444.02346801758</ele>
        <time>2019-03-28T09:40:44+0100</time>
      </trkpt>
      <trkpt lat="47.259" lon="4.95261">
        <ele>444.58502197266</ele>
        <time>2019-03-28T09:40:47+0100</time>
      </trkpt>
      <trkpt lat="47.25901" lon="4.95257">
        <ele>445.16049194336</ele>
        <time>2019-03-28T09:40:50+0100</time>
      </trkpt>
      <trkpt lat="47.25902" lon="4.95252">
        <ele>445.81304931641</ele>
        <time>2019-03-28T09:40:53+0100</time>
      </trkpt>
      <trkpt lat="47.25902" lon="4.95248">
        <ele>446.49703979492</ele>
        <time>2019-03-28T09:40:56+0100</time>
      </trkpt>
      <trkpt lat="47.25902" lon="4.95246">
        <ele>447.17153930664</ele>
        <time>2019-03-28T09:40:59+0100</time>
      </trkpt>
      <trkpt lat="47.25903" lon="4.95244">
        <ele>447.83297729492</ele>
        <time>2019-03-28T09:41:02+0100</time>
      </trkpt>
      <trkpt lat="47.25903" lon="4.9524">
        <ele>448.44982910156</ele>
        <time>2019-03-28T09:41:05+0100</time>
      </trkpt>
      <trkpt lat="47.25903" lon="4.95235">
        <ele>449.05944824219</ele>
        <time>2019-03-28T09:41:08+0100</time>
      </trkpt>
      <trkpt lat="47.25903" lon="4.95232">
        <ele>449.67144775391</ele>
        <time>2019-03-28T09:41:11+0100</time>
      </trkpt>
      <trkpt lat="47.25903" lon="4.95229">
        <ele>450.2751159668</ele>
        <time>2019-03-28T09:41:14+0100</time>
      </trkpt>
      <trkpt lat="47.25903" lon="4.95226">
        <ele>450.69848632812</ele>
        <time>2019-03-28T09:41:17+0100</time>
      </trkpt>
      <trkpt lat="47.25903" lon="4.95224">
        <ele>451.30435180664</ele>
        <time>2019-03-28T09:41:20+0100</time>
      </trkpt>
      <trkpt lat="47.25903" lon="4.95222">
        <ele>451.91711425781</ele>
        <time>2019-03-28T09:41:23+0100</time>
      </trkpt>
      <trkpt lat="47.25904" lon="4.95219">
        <ele>452.55438232422</ele>
        <time>2019-03-28T09:41:26+0100</time>
      </trkpt>
      <trkpt lat="47.25903" lon="4.95215">
        <ele>453.18008422852</ele>
        <time>2019-03-28T09:41:30+0100</time>
      </trkpt>
      <trkpt lat="47.25903" lon="4.95211">
        <ele>453.78750610352</ele>
        <time>2019-03-28T09:41:33+0100</time>
      </trkpt>
      <trkpt lat="47.25903" lon="4.95208">
        <ele>454.36972045898</ele>
        <time>2019-03-28T09:41:36+0100</time>
      </trkpt>
      <trkpt lat="47.25903" lon="4.95204">
        <ele>454.93496704102</ele>
        <time>2019-03-28T09:41:39+0100</time>
      </trkpt>
      <trkpt lat="47.25903" lon="4.952">
        <ele>455.51150512695</ele>
        <time>2019-03-28T09:41:42+0100</time>
      </trkpt>
      <trkpt lat="47.25903" lon="4.95197">
        <ele>456.08032226562</ele>
        <time>2019-03-28T09:41:45+0100</time>
      </trkpt>
      <trkpt lat="47.25903" lon="4.95194">
        <ele>456.64251708984</ele>
        <time>2019-03-28T09:41:48+0100</time>
      </trkpt>
      <trkpt lat="47.25903" lon="4.95191">
        <ele>457.18737792969</ele>
        <time>2019-03-28T09:41:51+0100</time>
      </trkpt>
      <trkpt lat="47.25903" lon="4.95187">
        <ele>457.73065185547</ele>
        <time>2019-03-28T09:41:54+0100</time>
      </trkpt>
      <trkpt lat="47.25903" lon="4.95183">
        <ele>458.24102783203</ele>
        <time>2019-03-28T09:41:57+0100</time>
      </trkpt>
      <trkpt lat="47.25903" lon="4.95178">
        <ele>458.74630737305</ele>
        <time>2019-03-28T09:42:00+0100</time>
      </trkpt>
      <trkpt lat="47.25904" lon="4.95175">
        <ele>459.22717285156</ele>
        <time>2019-03-28T09:42:03+0100</time>
      </trkpt>
      <trkpt lat="47.25904" lon="4.95168">
        <ele>459.72503662109</ele>
        <time>2019-03-28T09:42:06+0100</time>
      </trkpt>
      <trkpt lat="47.25904" lon="4.95163">
        <ele>460.11016845703</ele>
        <time>2019-03-28T09:42:09+0100</time>
      </trkpt>
      <trkpt lat="47.25903" lon="4.9516">
        <ele>460.48706054688</ele>
        <time>2019-03-28T09:42:12+0100</time>
      </trkpt>
      <trkpt lat="47.25904" lon="4.95158">
        <ele>461.01196289062</ele>
        <time>2019-03-28T09:42:15+0100</time>
      </trkpt>
      <trkpt lat="47.25904" lon="4.95156">
        <ele>461.06359863281</ele>
        <time>2019-03-28T09:42:18+0100</time>
      </trkpt>
      <trkpt lat="47.25904" lon="4.95153">
        <ele>461.57135009766</ele>
        <time>2019-03-28T09:42:21+0100</time>
      </trkpt>
      <trkpt lat="47.25905" lon="4.9515">
        <ele>462.07891845703</ele>
        <time>2019-03-28T09:42:24+0100</time>
      </trkpt>
      <trkpt lat="47.25906" lon="4.95146">
        <ele>462.53582763672</ele>
        <time>2019-03-28T09:42:27+0100</time>
      </trkpt>
      <trkpt lat="47.25906" lon="4.95143">
        <ele>462.78985595703</ele>
        <time>2019-03-28T09:42:30+0100</time>
      </trkpt>
      <trkpt lat="47.25906" lon="4.95139">
        <ele>463.09927368164</ele>
        <time>2019-03-28T09:42:33+0100</time>
      </trkpt>
      <trkpt lat="47.25906" lon="4.95134">
        <ele>463.36535644531</ele>
        <time>2019-03-28T09:42:36+0100</time>
      </trkpt>
      <trkpt lat="47.25907" lon="4.95129">
        <ele>463.62152099609</ele>
        <time>2019-03-28T09:42:39+0100</time>
      </trkpt>
      <trkpt lat="47.25908" lon="4.95125">
        <ele>463.87463378906</ele>
        <time>2019-03-28T09:42:42+0100</time>
      </trkpt>
      <trkpt lat="47.25908" lon="4.95122">
        <ele>464.12609863281</ele>
        <time>2019-03-28T09:42:45+0100</time>
      </trkpt>
      <trkpt lat="47.25909" lon="4.95117">
        <ele>464.35437011719</ele>
        <time>2019-03-28T09:42:48+0100</time>
      </trkpt>
      <trkpt lat="47.25909" lon="4.95113">
        <ele>464.56066894531</ele>
        <time>2019-03-28T09:42:51+0100</time>
      </trkpt>
      <trkpt lat="47.25909" lon="4.9511">
        <ele>464.6357421875</ele>
        <time>2019-03-28T09:42:54+0100</time>
      </trkpt>
      <trkpt lat="47.25909" lon="4.95109">
        <ele>464.70819091797</ele>
        <time>2019-03-28T09:42:57+0100</time>
      </trkpt>
      <trkpt lat="47.2591" lon="4.95109">
        <ele>464.814453125</ele>
        <time>2019-03-28T09:43:00+0100</time>
      </trkpt>
      <trkpt lat="47.2591" lon="4.95108">
        <ele>464.83459472656</ele>
        <time>2019-03-28T09:43:03+0100</time>
      </trkpt>
      <trkpt lat="47.2591" lon="4.95104">
        <ele>464.82824707031</ele>
        <time>2019-03-28T09:43:06+0100</time>
      </trkpt>
      <trkpt lat="47.25911" lon="4.951">
        <ele>464.77764892578</ele>
        <time>2019-03-28T09:43:09+0100</time>
      </trkpt>
      <trkpt lat="47.25911" lon="4.95095">
        <ele>464.685546875</ele>
        <time>2019-03-28T09:43:12+0100</time>
      </trkpt>
      <trkpt lat="47.25912" lon="4.9509">
        <ele>464.58282470703</ele>
        <time>2019-03-28T09:43:15+0100</time>
      </trkpt>
      <trkpt lat="47.25912" lon="4.95085">
        <ele>464.4853515625</ele>
        <time>2019-03-28T09:43:18+0100</time>
      </trkpt>
      <trkpt lat="47.25912" lon="4.95081">
        <ele>464.36932373047</ele>
        <time>2019-03-28T09:43:21+0100</time>
      </trkpt>
      <trkpt lat="47.25913" lon="4.95076">
        <ele>464.26879882812</ele>
        <time>2019-03-28T09:43:24+0100</time>
      </trkpt>
      <trkpt lat="47.25912" lon="4.95072">
        <ele>464.20050048828</ele>
        <time>2019-03-28T09:43:27+0100</time>
      </trkpt>
      <trkpt lat="47.25911" lon="4.95068">
        <ele>464.14904785156</ele>
        <time>2019-03-28T09:43:30+0100</time>
      </trkpt>
      <trkpt lat="47.25911" lon="4.95064">
        <ele>464.1240234375</ele>
        <time>2019-03-28T09:43:33+0100</time>
      </trkpt>
      <trkpt lat="47.25912" lon="4.9506">
        <ele>464.11932373047</ele>
        <time>2019-03-28T09:43:36+0100</time>
      </trkpt>
      <trkpt lat="47.25911" lon="4.95058">
        <ele>464.10601806641</ele>
        <time>2019-03-28T09:43:39+0100</time>
      </trkpt>
      <trkpt lat="47.25912" lon="4.95055">
        <ele>464.08978271484</ele>
        <time>2019-03-28T09:43:42+0100</time>
      </trkpt>
      <trkpt lat="47.25912" lon="4.95055">
        <ele>464.08770751953</ele>
        <time>2019-03-28T09:43:45+0100</time>
      </trkpt>
      <trkpt lat="47.25913" lon="4.95053">
        <ele>464.10223388672</ele>
        <time>2019-03-28T09:43:48+0100</time>
      </trkpt>
      <trkpt lat="47.25913" lon="4.95051">
        <ele>464.12426757812</ele>
        <time>2019-03-28T09:43:51+0100</time>
      </trkpt>
      <trkpt lat="47.25914" lon="4.95046">
        <ele>464.16387939453</ele>
        <time>2019-03-28T09:43:54+0100</time>
      </trkpt>
      <trkpt lat="47.25914" lon="4.95042">
        <ele>464.19995117188</ele>
        <time>2019-03-28T09:43:57+0100</time>
      </trkpt>
      <trkpt lat="47.25914" lon="4.95038">
        <ele>464.22412109375</ele>
        <time>2019-03-28T09:44:00+0100</time>
      </trkpt>
      <trkpt lat="47.25915" lon="4.95035">
        <ele>464.26452636719</ele>
        <time>2019-03-28T09:44:03+0100</time>
      </trkpt>
      <trkpt lat="47.25915" lon="4.95032">
        <ele>464.34747314453</ele>
        <time>2019-03-28T09:44:06+0100</time>
      </trkpt>
      <trkpt lat="47.25915" lon="4.95029">
        <ele>464.42181396484</ele>
        <time>2019-03-28T09:44:09+0100</time>
      </trkpt>
      <trkpt lat="47.25915" lon="4.95025">
        <ele>464.52014160156</ele>
        <time>2019-03-28T09:44:12+0100</time>
      </trkpt>
      <trkpt lat="47.25916" lon="4.95022">
        <ele>464.59649658203</ele>
        <time>2019-03-28T09:44:15+0100</time>
      </trkpt>
      <trkpt lat="47.25917" lon="4.95019">
        <ele>464.62481689453</ele>
        <time>2019-03-28T09:44:18+0100</time>
      </trkpt>
      <trkpt lat="47.25917" lon="4.95014">
        <ele>464.66729736328</ele>
        <time>2019-03-28T09:44:21+0100</time>
      </trkpt>
      <trkpt lat="47.25918" lon="4.95012">
        <ele>464.71728515625</ele>
        <time>2019-03-28T09:44:24+0100</time>
      </trkpt>
      <trkpt lat="47.25918" lon="4.95007">
        <ele>464.76922607422</ele>
        <time>2019-03-28T09:44:27+0100</time>
      </trkpt>
      <trkpt lat="47.25919" lon="4.95004">
        <ele>464.85626220703</ele>
        <time>2019-03-28T09:44:30+0100</time>
      </trkpt>
      <trkpt lat="47.25921" lon="4.95">
        <ele>464.95660400391</ele>
        <time>2019-03-28T09:44:33+0100</time>
      </trkpt>
      <trkpt lat="47.25922" lon="4.94997">
        <ele>465.02954101562</ele>
        <time>2019-03-28T09:44:36+0100</time>
      </trkpt>
      <trkpt lat="47.25923" lon="4.94995">
        <ele>465.10943603516</ele>
        <time>2019-03-28T09:44:39+0100</time>
      </trkpt>
      <trkpt lat="47.25924" lon="4.94993">
        <ele>465.24182128906</ele>
        <time>2019-03-28T09:44:42+0100</time>
      </trkpt>
      <trkpt lat="47.25925" lon="4.94988">
        <ele>465.43090820312</ele>
        <time>2019-03-28T09:44:45+0100</time>
      </trkpt>
      <trkpt lat="47.25926" lon="4.94984">
        <ele>465.58679199219</ele>
        <time>2019-03-28T09:44:48+0100</time>
      </trkpt>
      <trkpt lat="47.25927" lon="4.94982">
        <ele>465.71868896484</ele>
        <time>2019-03-28T09:44:51+0100</time>
      </trkpt>
      <trkpt lat="47.25927" lon="4.94979">
        <ele>465.82788085938</ele>
        <time>2019-03-28T09:44:54+0100</time>
      </trkpt>
      <trkpt lat="47.25927" lon="4.94978">
        <ele>465.83935546875</ele>
        <time>2019-03-28T09:44:57+0100</time>
      </trkpt>
      <trkpt lat="47.25927" lon="4.94978">
        <ele>465.85876464844</ele>
        <time>2019-03-28T09:45:00+0100</time>
      </trkpt>
      <trkpt lat="47.25927" lon="4.94978">
        <ele>465.87908935547</ele>
        <time>2019-03-28T09:45:03+0100</time>
      </trkpt>
      <trkpt lat="47.25929" lon="4.94977">
        <ele>465.90777587891</ele>
        <time>2019-03-28T09:45:06+0100</time>
      </trkpt>
      <trkpt lat="47.25929" lon="4.94977">
        <ele>465.94165039062</ele>
        <time>2019-03-28T09:45:09+0100</time>
      </trkpt>
      <trkpt lat="47.25929" lon="4.94977">
        <ele>465.9755859375</ele>
        <time>2019-03-28T09:45:12+0100</time>
      </trkpt>
      <trkpt lat="47.2593" lon="4.94976">
        <ele>466.11163330078</ele>
        <time>2019-03-28T09:45:15+0100</time>
      </trkpt>
      <trkpt lat="47.25932" lon="4.94971">
        <ele>466.43536376953</ele>
        <time>2019-03-28T09:45:18+0100</time>
      </trkpt>
      <trkpt lat="47.25933" lon="4.94965">
        <ele>466.7392578125</ele>
        <time>2019-03-28T09:45:21+0100</time>
      </trkpt>
      <trkpt lat="47.25935" lon="4.94961">
        <ele>467.00836181641</ele>
        <time>2019-03-28T09:45:24+0100</time>
      </trkpt>
      <trkpt lat="47.25936" lon="4.94958">
        <ele>467.23345947266</ele>
        <time>2019-03-28T09:45:27+0100</time>
      </trkpt>
      <trkpt lat="47.25937" lon="4.94955">
        <ele>467.37365722656</ele>
        <time>2019-03-28T09:45:30+0100</time>
      </trkpt>
      <trkpt lat="47.25937" lon="4.94954">
        <ele>467.39276123047</ele>
        <time>2019-03-28T09:45:33+0100</time>
      </trkpt>
      <trkpt lat="47.25938" lon="4.94951">
        <ele>467.50885009766</ele>
        <time>2019-03-28T09:45:36+0100</time>
      </trkpt>
      <trkpt lat="47.25938" lon="4.94947">
        <ele>467.64715576172</ele>
        <time>2019-03-28T09:45:39+0100</time>
      </trkpt>
      <trkpt lat="47.25938" lon="4.94943">
        <ele>467.76361083984</ele>
        <time>2019-03-28T09:45:42+0100</time>
      </trkpt>
      <trkpt lat="47.25938" lon="4.9494">
        <ele>467.85144042969</ele>
        <time>2019-03-28T09:45:45+0100</time>
      </trkpt>
      <trkpt lat="47.25937" lon="4.94937">
        <ele>467.88201904297</ele>
        <time>2019-03-28T09:45:48+0100</time>
      </trkpt>
      <trkpt lat="47.25937" lon="4.94934">
        <ele>467.88012695312</ele>
        <time>2019-03-28T09:45:51+0100</time>
      </trkpt>
      <trkpt lat="47.25936" lon="4.94931">
        <ele>467.87567138672</ele>
        <time>2019-03-28T09:45:54+0100</time>
      </trkpt>
      <trkpt lat="47.25935" lon="4.94929">
        <ele>467.84240722656</ele>
        <time>2019-03-28T09:45:57+0100</time>
      </trkpt>
      <trkpt lat="47.25935" lon="4.94927">
        <ele>467.80072021484</ele>
        <time>2019-03-28T09:46:00+0100</time>
      </trkpt>
      <trkpt lat="47.25935" lon="4.94926">
        <ele>467.77239990234</ele>
        <time>2019-03-28T09:46:03+0100</time>
      </trkpt>
      <trkpt lat="47.25934" lon="4.94923">
        <ele>467.73193359375</ele>
        <time>2019-03-28T09:46:06+0100</time>
      </trkpt>
      <trkpt lat="47.25934" lon="4.94921">
        <ele>467.70251464844</ele>
        <time>2019-03-28T09:46:09+0100</time>
      </trkpt>
      <trkpt lat="47.25933" lon="4.94917">
        <ele>467.67608642578</ele>
        <time>2019-03-28T09:46:12+0100</time>
      </trkpt>
      <trkpt lat="47.25933" lon="4.94915">
        <ele>467.67352294922</ele>
        <time>2019-03-28T09:46:15+0100</time>
      </trkpt>
      <trkpt lat="47.25932" lon="4.94914">
        <ele>467.67828369141</ele>
        <time>2019-03-28T09:46:18+0100</time>
      </trkpt>
      <trkpt lat="47.25932" lon="4.94911">
        <ele>467.69226074219</ele>
        <time>2019-03-28T09:46:21+0100</time>
      </trkpt>
      <trkpt lat="47.25931" lon="4.94907">
        <ele>467.68896484375</ele>
        <time>2019-03-28T09:46:24+0100</time>
      </trkpt>
      <trkpt lat="47.2593" lon="4.94905">
        <ele>467.61279296875</ele>
        <time>2019-03-28T09:46:27+0100</time>
      </trkpt>
      <trkpt lat="47.2593" lon="4.94902">
        <ele>467.53430175781</ele>
        <time>2019-03-28T09:46:30+0100</time>
      </trkpt>
      <trkpt lat="47.25929" lon="4.94899">
        <ele>467.51690673828</ele>
        <time>2019-03-28T09:46:33+0100</time>
      </trkpt>
      <trkpt lat="47.25929" lon="4.94897">
        <ele>467.51550292969</ele>
        <time>2019-03-28T09:46:36+0100</time>
      </trkpt>
      <trkpt lat="47.25928" lon="4.94894">
        <ele>467.53161621094</ele>
        <time>2019-03-28T09:46:39+0100</time>
      </trkpt>
      <trkpt lat="47.25927" lon="4.9489">
        <ele>467.52984619141</ele>
        <time>2019-03-28T09:46:42+0100</time>
      </trkpt>
      <trkpt lat="47.25927" lon="4.94888">
        <ele>467.54968261719</ele>
        <time>2019-03-28T09:46:45+0100</time>
      </trkpt>
      <trkpt lat="47.25926" lon="4.94884">
        <ele>467.58648681641</ele>
        <time>2019-03-28T09:46:48+0100</time>
      </trkpt>
      <trkpt lat="47.25925" lon="4.94877">
        <ele>467.64343261719</ele>
        <time>2019-03-28T09:46:51+0100</time>
      </trkpt>
      <trkpt lat="47.25924" lon="4.94875">
        <ele>467.67333984375</ele>
        <time>2019-03-28T09:46:54+0100</time>
      </trkpt>
      <trkpt lat="47.25924" lon="4.94872">
        <ele>467.73968505859</ele>
        <time>2019-03-28T09:46:57+0100</time>
      </trkpt>
      <trkpt lat="47.25923" lon="4.94872">
        <ele>467.79077148438</ele>
        <time>2019-03-28T09:47:00+0100</time>
      </trkpt>
      <trkpt lat="47.25923" lon="4.94871">
        <ele>467.81109619141</ele>
        <time>2019-03-28T09:47:03+0100</time>
      </trkpt>
      <trkpt lat="47.25922" lon="4.94869">
        <ele>467.82458496094</ele>
        <time>2019-03-28T09:47:06+0100</time>
      </trkpt>
      <trkpt lat="47.25921" lon="4.94868">
        <ele>467.82775878906</ele>
        <time>2019-03-28T09:47:09+0100</time>
      </trkpt>
      <trkpt lat="47.2592" lon="4.94866">
        <ele>467.86169433594</ele>
        <time>2019-03-28T09:47:12+0100</time>
      </trkpt>
      <trkpt lat="47.2592" lon="4.94863">
        <ele>467.93756103516</ele>
        <time>2019-03-28T09:47:15+0100</time>
      </trkpt>
      <trkpt lat="47.25919" lon="4.94857">
        <ele>468.0703125</ele>
        <time>2019-03-28T09:47:18+0100</time>
      </trkpt>
      <trkpt lat="47.25919" lon="4.94853">
        <ele>468.25793457031</ele>
        <time>2019-03-28T09:47:21+0100</time>
      </trkpt>
      <trkpt lat="47.25918" lon="4.94849">
        <ele>468.47827148438</ele>
        <time>2019-03-28T09:47:24+0100</time>
      </trkpt>
      <trkpt lat="47.25917" lon="4.94846">
        <ele>468.70037841797</ele>
        <time>2019-03-28T09:47:27+0100</time>
      </trkpt>
      <trkpt lat="47.25917" lon="4.94844">
        <ele>468.92687988281</ele>
        <time>2019-03-28T09:47:30+0100</time>
      </trkpt>
      <trkpt lat="47.25916" lon="4.94842">
        <ele>469.06799316406</ele>
        <time>2019-03-28T09:47:33+0100</time>
      </trkpt>
      <trkpt lat="47.25916" lon="4.9484">
        <ele>469.26220703125</ele>
        <time>2019-03-28T09:47:36+0100</time>
      </trkpt>
      <trkpt lat="47.25915" lon="4.94836">
        <ele>469.45220947266</ele>
        <time>2019-03-28T09:47:39+0100</time>
      </trkpt>
      <trkpt lat="47.25915" lon="4.94834">
        <ele>469.63269042969</ele>
        <time>2019-03-28T09:47:42+0100</time>
      </trkpt>
      <trkpt lat="47.25914" lon="4.9483">
        <ele>469.79730224609</ele>
        <time>2019-03-28T09:47:45+0100</time>
      </trkpt>
      <trkpt lat="47.25914" lon="4.94826">
        <ele>469.98815917969</ele>
        <time>2019-03-28T09:47:48+0100</time>
      </trkpt>
      <trkpt lat="47.25913" lon="4.94821">
        <ele>470.22247314453</ele>
        <time>2019-03-28T09:47:51+0100</time>
      </trkpt>
      <trkpt lat="47.25913" lon="4.94819">
        <ele>470.42547607422</ele>
        <time>2019-03-28T09:47:54+0100</time>
      </trkpt>
      <trkpt lat="47.25911" lon="4.94815">
        <ele>470.73846435547</ele>
        <time>2019-03-28T09:47:57+0100</time>
      </trkpt>
      <trkpt lat="47.25911" lon="4.94814">
        <ele>471.03656005859</ele>
        <time>2019-03-28T09:48:00+0100</time>
      </trkpt>
      <trkpt lat="47.2591" lon="4.9481">
        <ele>471.31585693359</ele>
        <time>2019-03-28T09:48:03+0100</time>
      </trkpt>
      <trkpt lat="47.2591" lon="4.94806">
        <ele>471.58636474609</ele>
        <time>2019-03-28T09:48:06+0100</time>
      </trkpt>
      <trkpt lat="47.25909" lon="4.94804">
        <ele>471.85168457031</ele>
        <time>2019-03-28T09:48:09+0100</time>
      </trkpt>
      <trkpt lat="47.25908" lon="4.94801">
        <ele>472.0859375</ele>
        <time>2019-03-28T09:48:12+0100</time>
      </trkpt>
      <trkpt lat="47.25908" lon="4.94799">
        <ele>472.30926513672</ele>
        <time>2019-03-28T09:48:15+0100</time>
      </trkpt>
      <trkpt lat="47.25908" lon="4.94796">
        <ele>472.50836181641</ele>
        <time>2019-03-28T09:48:18+0100</time>
      </trkpt>
      <trkpt lat="47.25908" lon="4.94792">
        <ele>472.71130371094</ele>
        <time>2019-03-28T09:48:21+0100</time>
      </trkpt>
      <trkpt lat="47.25907" lon="4.94789">
        <ele>472.95916748047</ele>
        <time>2019-03-28T09:48:24+0100</time>
      </trkpt>
      <trkpt lat="47.25906" lon="4.94786">
        <ele>473.2197265625</ele>
        <time>2019-03-28T09:48:27+0100</time>
      </trkpt>
      <trkpt lat="47.25906" lon="4.94785">
        <ele>473.46441650391</ele>
        <time>2019-03-28T09:48:30+0100</time>
      </trkpt>
      <trkpt lat="47.25905" lon="4.94782">
        <ele>473.70831298828</ele>
        <time>2019-03-28T09:48:33+0100</time>
      </trkpt>
      <trkpt lat="47.25904" lon="4.94778">
        <ele>473.94104003906</ele>
        <time>2019-03-28T09:48:36+0100</time>
      </trkpt>
      <trkpt lat="47.25904" lon="4.94775">
        <ele>474.15869140625</ele>
        <time>2019-03-28T09:48:39+0100</time>
      </trkpt>
      <trkpt lat="47.25903" lon="4.94774">
        <ele>474.30065917969</ele>
        <time>2019-03-28T09:48:42+0100</time>
      </trkpt>
      <trkpt lat="47.25902" lon="4.94771">
        <ele>474.43542480469</ele>
        <time>2019-03-28T09:48:45+0100</time>
      </trkpt>
      <trkpt lat="47.259" lon="4.94766">
        <ele>474.57836914062</ele>
        <time>2019-03-28T09:48:48+0100</time>
      </trkpt>
      <trkpt lat="47.25899" lon="4.94762">
        <ele>474.71215820312</ele>
        <time>2019-03-28T09:48:51+0100</time>
      </trkpt>
      <trkpt lat="47.25898" lon="4.94758">
        <ele>474.88098144531</ele>
        <time>2019-03-28T09:48:54+0100</time>
      </trkpt>
      <trkpt lat="47.25897" lon="4.94756">
        <ele>475.02496337891</ele>
        <time>2019-03-28T09:48:57+0100</time>
      </trkpt>
      <trkpt lat="47.25896" lon="4.94754">
        <ele>475.12689208984</ele>
        <time>2019-03-28T09:49:00+0100</time>
      </trkpt>
      <trkpt lat="47.25895" lon="4.94752">
        <ele>475.21716308594</ele>
        <time>2019-03-28T09:49:03+0100</time>
      </trkpt>
      <trkpt lat="47.25894" lon="4.9475">
        <ele>475.33154296875</ele>
        <time>2019-03-28T09:49:06+0100</time>
      </trkpt>
      <trkpt lat="47.25893" lon="4.94748">
        <ele>475.40063476562</ele>
        <time>2019-03-28T09:49:09+0100</time>
      </trkpt>
      <trkpt lat="47.25892" lon="4.94742">
        <ele>475.61956787109</ele>
        <time>2019-03-28T09:49:12+0100</time>
      </trkpt>
      <trkpt lat="47.25891" lon="4.94738">
        <ele>475.87646484375</ele>
        <time>2019-03-28T09:49:15+0100</time>
      </trkpt>
      <trkpt lat="47.2589" lon="4.94734">
        <ele>476.15515136719</ele>
        <time>2019-03-28T09:49:18+0100</time>
      </trkpt>
      <trkpt lat="47.25888" lon="4.94729">
        <ele>476.47839355469</ele>
        <time>2019-03-28T09:49:21+0100</time>
      </trkpt>
      <trkpt lat="47.25887" lon="4.94726">
        <ele>476.81817626953</ele>
        <time>2019-03-28T09:49:24+0100</time>
      </trkpt>
      <trkpt lat="47.25886" lon="4.94723">
        <ele>477.13958740234</ele>
        <time>2019-03-28T09:49:27+0100</time>
      </trkpt>
      <trkpt lat="47.25886" lon="4.94722">
        <ele>477.27032470703</ele>
        <time>2019-03-28T09:49:30+0100</time>
      </trkpt>
      <trkpt lat="47.25885" lon="4.9472">
        <ele>477.58837890625</ele>
        <time>2019-03-28T09:49:33+0100</time>
      </trkpt>
      <trkpt lat="47.25884" lon="4.94717">
        <ele>477.88623046875</ele>
        <time>2019-03-28T09:49:36+0100</time>
      </trkpt>
      <trkpt lat="47.25883" lon="4.94714">
        <ele>478.17022705078</ele>
        <time>2019-03-28T09:49:39+0100</time>
      </trkpt>
      <trkpt lat="47.25882" lon="4.94712">
        <ele>478.42620849609</ele>
        <time>2019-03-28T09:49:42+0100</time>
      </trkpt>
      <trkpt lat="47.2588" lon="4.94707">
        <ele>478.63397216797</ele>
        <time>2019-03-28T09:49:45+0100</time>
      </trkpt>
      <trkpt lat="47.25879" lon="4.94704">
        <ele>478.77264404297</ele>
        <time>2019-03-28T09:49:48+0100</time>
      </trkpt>
      <trkpt lat="47.25878" lon="4.94702">
        <ele>478.89410400391</ele>
        <time>2019-03-28T09:49:51+0100</time>
      </trkpt>
      <trkpt lat="47.25879" lon="4.947">
        <ele>479.04528808594</ele>
        <time>2019-03-28T09:49:54+0100</time>
      </trkpt>
      <trkpt lat="47.25878" lon="4.94696">
        <ele>479.21203613281</ele>
        <time>2019-03-28T09:49:57+0100</time>
      </trkpt>
      <trkpt lat="47.25877" lon="4.94694">
        <ele>479.39300537109</ele>
        <time>2019-03-28T09:50:00+0100</time>
      </trkpt>
      <trkpt lat="47.25877" lon="4.94691">
        <ele>479.60162353516</ele>
        <time>2019-03-28T09:50:03+0100</time>
      </trkpt>
      <trkpt lat="47.25876" lon="4.94686">
        <ele>479.83703613281</ele>
        <time>2019-03-28T09:50:06+0100</time>
      </trkpt>
      <trkpt lat="47.25876" lon="4.94682">
        <ele>480.06652832031</ele>
        <time>2019-03-28T09:50:09+0100</time>
      </trkpt>
      <trkpt lat="47.25875" lon="4.94678">
        <ele>480.27227783203</ele>
        <time>2019-03-28T09:50:12+0100</time>
      </trkpt>
      <trkpt lat="47.25875" lon="4.94675">
        <ele>480.46636962891</ele>
        <time>2019-03-28T09:50:15+0100</time>
      </trkpt>
      <trkpt lat="47.25875" lon="4.94673">
        <ele>480.59075927734</ele>
        <time>2019-03-28T09:50:18+0100</time>
      </trkpt>
      <trkpt lat="47.25875" lon="4.94669">
        <ele>480.75183105469</ele>
        <time>2019-03-28T09:50:21+0100</time>
      </trkpt>
      <trkpt lat="47.25874" lon="4.94665">
        <ele>480.91619873047</ele>
        <time>2019-03-28T09:50:24+0100</time>
      </trkpt>
      <trkpt lat="47.25873" lon="4.94662">
        <ele>481.04608154297</ele>
        <time>2019-03-28T09:50:27+0100</time>
      </trkpt>
      <trkpt lat="47.25871" lon="4.94658">
        <ele>481.26361083984</ele>
        <time>2019-03-28T09:50:30+0100</time>
      </trkpt>
      <trkpt lat="47.25869" lon="4.94654">
        <ele>481.42144775391</ele>
        <time>2019-03-28T09:50:33+0100</time>
      </trkpt>
      <trkpt lat="47.25868" lon="4.9465">
        <ele>481.54498291016</ele>
        <time>2019-03-28T09:50:36+0100</time>
      </trkpt>
      <trkpt lat="47.25867" lon="4.94648">
        <ele>481.68170166016</ele>
        <time>2019-03-28T09:50:39+0100</time>
      </trkpt>
      <trkpt lat="47.25866" lon="4.94645">
        <ele>481.80871582031</ele>
        <time>2019-03-28T09:50:42+0100</time>
      </trkpt>
      <trkpt lat="47.25865" lon="4.94642">
        <ele>481.95361328125</ele>
        <time>2019-03-28T09:50:45+0100</time>
      </trkpt>
      <trkpt lat="47.25864" lon="4.94639">
        <ele>482.11444091797</ele>
        <time>2019-03-28T09:50:48+0100</time>
      </trkpt>
      <trkpt lat="47.25864" lon="4.94637">
        <ele>482.30310058594</ele>
        <time>2019-03-28T09:50:51+0100</time>
      </trkpt>
      <trkpt lat="47.25863" lon="4.94634">
        <ele>482.42401123047</ele>
        <time>2019-03-28T09:50:54+0100</time>
      </trkpt>
      <trkpt lat="47.25862" lon="4.94631">
        <ele>482.60040283203</ele>
        <time>2019-03-28T09:50:57+0100</time>
      </trkpt>
      <trkpt lat="47.25861" lon="4.94628">
        <ele>482.78656005859</ele>
        <time>2019-03-28T09:51:00+0100</time>
      </trkpt>
      <trkpt lat="47.25861" lon="4.94625">
        <ele>482.99407958984</ele>
        <time>2019-03-28T09:51:03+0100</time>
      </trkpt>
      <trkpt lat="47.2586" lon="4.94621">
        <ele>483.20812988281</ele>
        <time>2019-03-28T09:51:06+0100</time>
      </trkpt>
      <trkpt lat="47.25859" lon="4.94618">
        <ele>483.44970703125</ele>
        <time>2019-03-28T09:51:09+0100</time>
      </trkpt>
      <trkpt lat="47.25858" lon="4.94615">
        <ele>483.68493652344</ele>
        <time>2019-03-28T09:51:12+0100</time>
      </trkpt>
      <trkpt lat="47.25857" lon="4.94612">
        <ele>483.89422607422</ele>
        <time>2019-03-28T09:51:15+0100</time>
      </trkpt>
      <trkpt lat="47.25856" lon="4.94609">
        <ele>484.07092285156</ele>
        <time>2019-03-28T09:51:18+0100</time>
      </trkpt>
      <trkpt lat="47.25855" lon="4.94607">
        <ele>484.22369384766</ele>
        <time>2019-03-28T09:51:21+0100</time>
      </trkpt>
      <trkpt lat="47.25854" lon="4.94605">
        <ele>484.37188720703</ele>
        <time>2019-03-28T09:51:24+0100</time>
      </trkpt>
      <trkpt lat="47.25854" lon="4.94602">
        <ele>484.52557373047</ele>
        <time>2019-03-28T09:51:27+0100</time>
      </trkpt>
      <trkpt lat="47.25854" lon="4.94598">
        <ele>484.70416259766</ele>
        <time>2019-03-28T09:51:30+0100</time>
      </trkpt>
      <trkpt lat="47.25853" lon="4.94595">
        <ele>484.90594482422</ele>
        <time>2019-03-28T09:51:33+0100</time>
      </trkpt>
      <trkpt lat="47.25853" lon="4.94591">
        <ele>485.15594482422</ele>
        <time>2019-03-28T09:51:36+0100</time>
      </trkpt>
      <trkpt lat="47.25852" lon="4.94587">
        <ele>485.37188720703</ele>
        <time>2019-03-28T09:51:39+0100</time>
      </trkpt>
      <trkpt lat="47.25852" lon="4.94586">
        <ele>485.40863037109</ele>
        <time>2019-03-28T09:51:42+0100</time>
      </trkpt>
      <trkpt lat="47.25852" lon="4.94586">
        <ele>485.45007324219</ele>
        <time>2019-03-28T09:51:45+0100</time>
      </trkpt>
      <trkpt lat="47.25852" lon="4.94586">
        <ele>485.49768066406</ele>
        <time>2019-03-28T09:51:48+0100</time>
      </trkpt>
      <trkpt lat="47.25851" lon="4.94586">
        <ele>485.55096435547</ele>
        <time>2019-03-28T09:51:51+0100</time>
      </trkpt>
      <trkpt lat="47.25851" lon="4.94584">
        <ele>485.61053466797</ele>
        <time>2019-03-28T09:51:54+0100</time>
      </trkpt>
      <trkpt lat="47.25851" lon="4.94584">
        <ele>485.67651367188</ele>
        <time>2019-03-28T09:51:57+0100</time>
      </trkpt>
      <trkpt lat="47.25851" lon="4.94584">
        <ele>485.75</ele>
        <time>2019-03-28T09:52:00+0100</time>
      </trkpt>
      <trkpt lat="47.25851" lon="4.94584">
        <ele>486.07037353516</ele>
        <time>2019-03-28T09:52:03+0100</time>
      </trkpt>
      <trkpt lat="47.25851" lon="4.94581">
        <ele>486.86651611328</ele>
        <time>2019-03-28T09:52:06+0100</time>
      </trkpt>
      <trkpt lat="47.25851" lon="4.9458">
        <ele>487.66424560547</ele>
        <time>2019-03-28T09:52:09+0100</time>
      </trkpt>
      <trkpt lat="47.25849" lon="4.94579">
        <ele>488.20452880859</ele>
        <time>2019-03-28T09:52:12+0100</time>
      </trkpt>
      <trkpt lat="47.25847" lon="4.94577">
        <ele>488.70916748047</ele>
        <time>2019-03-28T09:52:15+0100</time>
      </trkpt>
      <trkpt lat="47.25846" lon="4.94576">
        <ele>489.18395996094</ele>
        <time>2019-03-28T09:52:18+0100</time>
      </trkpt>
      <trkpt lat="47.25846" lon="4.94576">
        <ele>489.44891357422</ele>
        <time>2019-03-28T09:52:21+0100</time>
      </trkpt>
      <trkpt lat="47.25845" lon="4.94574">
        <ele>490.05303955078</ele>
        <time>2019-03-28T09:52:24+0100</time>
      </trkpt>
      <trkpt lat="47.25843" lon="4.94574">
        <ele>490.43725585938</ele>
        <time>2019-03-28T09:52:27+0100</time>
      </trkpt>
      <trkpt lat="47.25842" lon="4.94575">
        <ele>490.82318115234</ele>
        <time>2019-03-28T09:52:30+0100</time>
      </trkpt>
      <trkpt lat="47.25841" lon="4.94575">
        <ele>491.34844970703</ele>
        <time>2019-03-28T09:52:33+0100</time>
      </trkpt>
      <trkpt lat="47.25839" lon="4.94574">
        <ele>491.84271240234</ele>
        <time>2019-03-28T09:52:36+0100</time>
      </trkpt>
      <trkpt lat="47.25837" lon="4.94573">
        <ele>491.88763427734</ele>
        <time>2019-03-28T09:52:39+0100</time>
      </trkpt>
      <trkpt lat="47.25835" lon="4.94572">
        <ele>492.18048095703</ele>
        <time>2019-03-28T09:52:42+0100</time>
      </trkpt>
      <trkpt lat="47.25832" lon="4.94571">
        <ele>492.51171875</ele>
        <time>2019-03-28T09:52:45+0100</time>
      </trkpt>
      <trkpt lat="47.25831" lon="4.94571">
        <ele>492.61700439453</ele>
        <time>2019-03-28T09:52:48+0100</time>
      </trkpt>
      <trkpt lat="47.25829" lon="4.94571">
        <ele>492.83660888672</ele>
        <time>2019-03-28T09:52:51+0100</time>
      </trkpt>
      <trkpt lat="47.25827" lon="4.9457">
        <ele>493.05572509766</ele>
        <time>2019-03-28T09:52:54+0100</time>
      </trkpt>
      <trkpt lat="47.25826" lon="4.9457">
        <ele>493.07775878906</ele>
        <time>2019-03-28T09:52:57+0100</time>
      </trkpt>
      <trkpt lat="47.25822" lon="4.94567">
        <ele>493.19366455078</ele>
        <time>2019-03-28T09:53:00+0100</time>
      </trkpt>
      <trkpt lat="47.2582" lon="4.94566">
        <ele>493.22637939453</ele>
        <time>2019-03-28T09:53:03+0100</time>
      </trkpt>
      <trkpt lat="47.25818" lon="4.94566">
        <ele>493.25903320312</ele>
        <time>2019-03-28T09:53:06+0100</time>
      </trkpt>
      <trkpt lat="47.25814" lon="4.94566">
        <ele>493.25921630859</ele>
        <time>2019-03-28T09:53:09+0100</time>
      </trkpt>
      <trkpt lat="47.25811" lon="4.94566">
        <ele>493.25823974609</ele>
        <time>2019-03-28T09:53:12+0100</time>
      </trkpt>
      <trkpt lat="47.25809" lon="4.94566">
        <ele>493.24584960938</ele>
        <time>2019-03-28T09:53:15+0100</time>
      </trkpt>
      <trkpt lat="47.25807" lon="4.94567">
        <ele>493.21374511719</ele>
        <time>2019-03-28T09:53:18+0100</time>
      </trkpt>
      <trkpt lat="47.25805" lon="4.94568">
        <ele>493.17175292969</ele>
        <time>2019-03-28T09:53:20+0100</time>
      </trkpt>
      <trkpt lat="47.25804" lon="4.94567">
        <ele>493.15289306641</ele>
        <time>2019-03-28T09:53:23+0100</time>
      </trkpt>
      <trkpt lat="47.25803" lon="4.94567">
        <ele>493.12707519531</ele>
        <time>2019-03-28T09:53:26+0100</time>
      </trkpt>
      <trkpt lat="47.25802" lon="4.94566">
        <ele>493.08972167969</ele>
        <time>2019-03-28T09:53:29+0100</time>
      </trkpt>
      <trkpt lat="47.25802" lon="4.94567">
        <ele>492.93792724609</ele>
        <time>2019-03-28T09:53:32+0100</time>
      </trkpt>
      <trkpt lat="47.258" lon="4.94567">
        <ele>492.67901611328</ele>
        <time>2019-03-28T09:53:35+0100</time>
      </trkpt>
      <trkpt lat="47.25799" lon="4.94567">
        <ele>492.63787841797</ele>
        <time>2019-03-28T09:53:38+0100</time>
      </trkpt>
      <trkpt lat="47.25799" lon="4.94567">
        <ele>492.59204101562</ele>
        <time>2019-03-28T09:53:41+0100</time>
      </trkpt>
      <trkpt lat="47.25798" lon="4.94567">
        <ele>492.41027832031</ele>
        <time>2019-03-28T09:53:44+0100</time>
      </trkpt>
      <trkpt lat="47.25796" lon="4.94567">
        <ele>491.97900390625</ele>
        <time>2019-03-28T09:53:47+0100</time>
      </trkpt>
      <trkpt lat="47.25795" lon="4.94567">
        <ele>491.94110107422</ele>
        <time>2019-03-28T09:53:50+0100</time>
      </trkpt>
      <trkpt lat="47.25795" lon="4.94567">
        <ele>491.90509033203</ele>
        <time>2019-03-28T09:53:53+0100</time>
      </trkpt>
      <trkpt lat="47.25795" lon="4.94566">
        <ele>491.87414550781</ele>
        <time>2019-03-28T09:53:56+0100</time>
      </trkpt>
      <trkpt lat="47.25795" lon="4.94566">
        <ele>491.85040283203</ele>
        <time>2019-03-28T09:53:59+0100</time>
      </trkpt>
      <trkpt lat="47.25795" lon="4.94566">
        <ele>491.83221435547</ele>
        <time>2019-03-28T09:54:02+0100</time>
      </trkpt>
      <trkpt lat="47.25795" lon="4.94566">
        <ele>491.82049560547</ele>
        <time>2019-03-28T09:54:05+0100</time>
      </trkpt>
      <trkpt lat="47.25795" lon="4.94566">
        <ele>491.81707763672</ele>
        <time>2019-03-28T09:54:08+0100</time>
      </trkpt>
      <trkpt lat="47.25794" lon="4.94567">
        <ele>491.82061767578</ele>
        <time>2019-03-28T09:54:11+0100</time>
      </trkpt>
      <trkpt lat="47.25794" lon="4.94567">
        <ele>491.82922363281</ele>
        <time>2019-03-28T09:54:14+0100</time>
      </trkpt>
      <trkpt lat="47.25794" lon="4.94567">
        <ele>491.84063720703</ele>
        <time>2019-03-28T09:54:17+0100</time>
      </trkpt>
      <trkpt lat="47.25794" lon="4.94568">
        <ele>491.85430908203</ele>
        <time>2019-03-28T09:54:20+0100</time>
      </trkpt>
      <trkpt lat="47.25794" lon="4.94568">
        <ele>491.86761474609</ele>
        <time>2019-03-28T09:54:23+0100</time>
      </trkpt>
      <trkpt lat="47.25793" lon="4.94568">
        <ele>491.88226318359</ele>
        <time>2019-03-28T09:54:26+0100</time>
      </trkpt>
      <trkpt lat="47.25793" lon="4.94568">
        <ele>491.89825439453</ele>
        <time>2019-03-28T09:54:29+0100</time>
      </trkpt>
      <trkpt lat="47.25793" lon="4.94568">
        <ele>491.91375732422</ele>
        <time>2019-03-28T09:54:32+0100</time>
      </trkpt>
      <trkpt lat="47.25793" lon="4.94568">
        <ele>491.93011474609</ele>
        <time>2019-03-28T09:54:35+0100</time>
      </trkpt>
      <trkpt lat="47.25792" lon="4.94568">
        <ele>491.94702148438</ele>
        <time>2019-03-28T09:54:38+0100</time>
      </trkpt>
      <trkpt lat="47.25792" lon="4.94568">
        <ele>491.9609375</ele>
        <time>2019-03-28T09:54:41+0100</time>
      </trkpt>
      <trkpt lat="47.25792" lon="4.94568">
        <ele>491.96661376953</ele>
        <time>2019-03-28T09:54:44+0100</time>
      </trkpt>
      <trkpt lat="47.25791" lon="4.94569">
        <ele>491.96813964844</ele>
        <time>2019-03-28T09:54:47+0100</time>
      </trkpt>
      <trkpt lat="47.2579" lon="4.94569">
        <ele>491.96618652344</ele>
        <time>2019-03-28T09:54:50+0100</time>
      </trkpt>
      <trkpt lat="47.2579" lon="4.94569">
        <ele>491.96075439453</ele>
        <time>2019-03-28T09:54:53+0100</time>
      </trkpt>
      <trkpt lat="47.2579" lon="4.94569">
        <ele>491.9541015625</ele>
        <time>2019-03-28T09:54:56+0100</time>
      </trkpt>
      <trkpt lat="47.25789" lon="4.94569">
        <ele>491.95166015625</ele>
        <time>2019-03-28T09:54:59+0100</time>
      </trkpt>
      <trkpt lat="47.25789" lon="4.94569">
        <ele>491.94885253906</ele>
        <time>2019-03-28T09:55:02+0100</time>
      </trkpt>
      <trkpt lat="47.25789" lon="4.94569">
        <ele>491.94256591797</ele>
        <time>2019-03-28T09:55:05+0100</time>
      </trkpt>
      <trkpt lat="47.25789" lon="4.94569">
        <ele>491.93218994141</ele>
        <time>2019-03-28T09:55:08+0100</time>
      </trkpt>
      <trkpt lat="47.25789" lon="4.94569">
        <ele>491.91943359375</ele>
        <time>2019-03-28T09:55:11+0100</time>
      </trkpt>
      <trkpt lat="47.25789" lon="4.94569">
        <ele>491.90637207031</ele>
        <time>2019-03-28T09:55:14+0100</time>
      </trkpt>
      <trkpt lat="47.25789" lon="4.94569">
        <ele>491.8935546875</ele>
        <time>2019-03-28T09:55:17+0100</time>
      </trkpt>
      <trkpt lat="47.25789" lon="4.9457">
        <ele>491.88134765625</ele>
        <time>2019-03-28T09:55:20+0100</time>
      </trkpt>
      <trkpt lat="47.25789" lon="4.9457">
        <ele>491.87091064453</ele>
        <time>2019-03-28T09:55:23+0100</time>
      </trkpt>
      <trkpt lat="47.25789" lon="4.9457">
        <ele>491.86199951172</ele>
        <time>2019-03-28T09:55:26+0100</time>
      </trkpt>
      <trkpt lat="47.25789" lon="4.9457">
        <ele>491.85369873047</ele>
        <time>2019-03-28T09:55:29+0100</time>
      </trkpt>
      <trkpt lat="47.25789" lon="4.9457">
        <ele>491.84545898438</ele>
        <time>2019-03-28T09:55:32+0100</time>
      </trkpt>
      <trkpt lat="47.25789" lon="4.9457">
        <ele>491.83709716797</ele>
        <time>2019-03-28T09:55:35+0100</time>
      </trkpt>
      <trkpt lat="47.25789" lon="4.9457">
        <ele>491.82849121094</ele>
        <time>2019-03-28T09:55:38+0100</time>
      </trkpt>
      <trkpt lat="47.25789" lon="4.94569">
        <ele>491.81829833984</ele>
        <time>2019-03-28T09:55:41+0100</time>
      </trkpt>
      <trkpt lat="47.25789" lon="4.94569">
        <ele>491.80902099609</ele>
        <time>2019-03-28T09:55:44+0100</time>
      </trkpt>
      <trkpt lat="47.25789" lon="4.94569">
        <ele>491.80065917969</ele>
        <time>2019-03-28T09:55:47+0100</time>
      </trkpt>
      <trkpt lat="47.25789" lon="4.94569">
        <ele>491.79626464844</ele>
        <time>2019-03-28T09:55:50+0100</time>
      </trkpt>
      <trkpt lat="47.25789" lon="4.94569">
        <ele>491.79406738281</ele>
        <time>2019-03-28T09:55:53+0100</time>
      </trkpt>
      <trkpt lat="47.25788" lon="4.94569">
        <ele>491.78967285156</ele>
        <time>2019-03-28T09:55:56+0100</time>
      </trkpt>
      <trkpt lat="47.25788" lon="4.94569">
        <ele>491.77972412109</ele>
        <time>2019-03-28T09:55:59+0100</time>
      </trkpt>
      <trkpt lat="47.25788" lon="4.94568">
        <ele>491.76745605469</ele>
        <time>2019-03-28T09:56:02+0100</time>
      </trkpt>
      <trkpt lat="47.25788" lon="4.94568">
        <ele>491.75408935547</ele>
        <time>2019-03-28T09:56:05+0100</time>
      </trkpt>
      <trkpt lat="47.25788" lon="4.94568">
        <ele>491.73754882812</ele>
        <time>2019-03-28T09:56:08+0100</time>
      </trkpt>
      <trkpt lat="47.25786" lon="4.94567">
        <ele>491.72064208984</ele>
        <time>2019-03-28T09:56:11+0100</time>
      </trkpt>
      <trkpt lat="47.25785" lon="4.94566">
        <ele>491.70434570312</ele>
        <time>2019-03-28T09:56:14+0100</time>
      </trkpt>
      <trkpt lat="47.25784" lon="4.94566">
        <ele>491.68811035156</ele>
        <time>2019-03-28T09:56:17+0100</time>
      </trkpt>
      <trkpt lat="47.25784" lon="4.94567">
        <ele>491.67309570312</ele>
        <time>2019-03-28T09:56:20+0100</time>
      </trkpt>
      <trkpt lat="47.25784" lon="4.94567">
        <ele>491.65222167969</ele>
        <time>2019-03-28T09:56:23+0100</time>
      </trkpt>
      <trkpt lat="47.25784" lon="4.94567">
        <ele>491.62622070312</ele>
        <time>2019-03-28T09:56:26+0100</time>
      </trkpt>
      <trkpt lat="47.25783" lon="4.94567">
        <ele>491.59149169922</ele>
        <time>2019-03-28T09:56:29+0100</time>
      </trkpt>
      <trkpt lat="47.25783" lon="4.94567">
        <ele>491.55181884766</ele>
        <time>2019-03-28T09:56:32+0100</time>
      </trkpt>
      <trkpt lat="47.25783" lon="4.94567">
        <ele>491.50903320312</ele>
        <time>2019-03-28T09:56:35+0100</time>
      </trkpt>
      <trkpt lat="47.25783" lon="4.94567">
        <ele>491.46453857422</ele>
        <time>2019-03-28T09:56:38+0100</time>
      </trkpt>
      <trkpt lat="47.25783" lon="4.94567">
        <ele>491.42645263672</ele>
        <time>2019-03-28T09:56:41+0100</time>
      </trkpt>
      <trkpt lat="47.25783" lon="4.94567">
        <ele>491.3984375</ele>
        <time>2019-03-28T09:56:44+0100</time>
      </trkpt>
      <trkpt lat="47.25783" lon="4.94568">
        <ele>491.38549804688</ele>
        <time>2019-03-28T09:56:47+0100</time>
      </trkpt>
      <trkpt lat="47.25783" lon="4.94568">
        <ele>491.38635253906</ele>
        <time>2019-03-28T09:56:50+0100</time>
      </trkpt>
      <trkpt lat="47.25783" lon="4.94568">
        <ele>491.39544677734</ele>
        <time>2019-03-28T09:56:53+0100</time>
      </trkpt>
      <trkpt lat="47.25783" lon="4.94568">
        <ele>491.41119384766</ele>
        <time>2019-03-28T09:56:56+0100</time>
      </trkpt>
      <trkpt lat="47.25783" lon="4.94568">
        <ele>491.43389892578</ele>
        <time>2019-03-28T09:56:59+0100</time>
      </trkpt>
      <trkpt lat="47.25783" lon="4.94568">
        <ele>491.47338867188</ele>
        <time>2019-03-28T09:57:02+0100</time>
      </trkpt>
      <trkpt lat="47.25783" lon="4.94569">
        <ele>491.525390625</ele>
        <time>2019-03-28T09:57:05+0100</time>
      </trkpt>
      <trkpt lat="47.25783" lon="4.94569">
        <ele>491.58050537109</ele>
        <time>2019-03-28T09:57:08+0100</time>
      </trkpt>
      <trkpt lat="47.25783" lon="4.94569">
        <ele>491.63287353516</ele>
        <time>2019-03-28T09:57:11+0100</time>
      </trkpt>
      <trkpt lat="47.25783" lon="4.94569">
        <ele>491.68035888672</ele>
        <time>2019-03-28T09:57:14+0100</time>
      </trkpt>
      <trkpt lat="47.25783" lon="4.9457">
        <ele>491.72546386719</ele>
        <time>2019-03-28T09:57:17+0100</time>
      </trkpt>
      <trkpt lat="47.25783" lon="4.94571">
        <ele>491.76910400391</ele>
        <time>2019-03-28T09:57:20+0100</time>
      </trkpt>
      <trkpt lat="47.25783" lon="4.94572">
        <ele>491.81011962891</ele>
        <time>2019-03-28T09:57:23+0100</time>
      </trkpt>
      <trkpt lat="47.25783" lon="4.94572">
        <ele>491.84820556641</ele>
        <time>2019-03-28T09:57:26+0100</time>
      </trkpt>
      <trkpt lat="47.25783" lon="4.94572">
        <ele>491.88305664062</ele>
        <time>2019-03-28T09:57:29+0100</time>
      </trkpt>
      <trkpt lat="47.25782" lon="4.94572">
        <ele>491.91339111328</ele>
        <time>2019-03-28T09:57:32+0100</time>
      </trkpt>
      <trkpt lat="47.25782" lon="4.94572">
        <ele>491.94116210938</ele>
        <time>2019-03-28T09:57:35+0100</time>
      </trkpt>
      <trkpt lat="47.25782" lon="4.94572">
        <ele>491.966796875</ele>
        <time>2019-03-28T09:57:38+0100</time>
      </trkpt>
      <trkpt lat="47.25782" lon="4.94572">
        <ele>491.9921875</ele>
        <time>2019-03-28T09:57:41+0100</time>
      </trkpt>
      <trkpt lat="47.25782" lon="4.94572">
        <ele>492.01751708984</ele>
        <time>2019-03-28T09:57:44+0100</time>
      </trkpt>
      <trkpt lat="47.25781" lon="4.94571">
        <ele>492.04461669922</ele>
        <time>2019-03-28T09:57:47+0100</time>
      </trkpt>
      <trkpt lat="47.25781" lon="4.94571">
        <ele>492.07135009766</ele>
        <time>2019-03-28T09:57:50+0100</time>
      </trkpt>
      <trkpt lat="47.2578" lon="4.9457">
        <ele>492.09576416016</ele>
        <time>2019-03-28T09:57:53+0100</time>
      </trkpt>
      <trkpt lat="47.25779" lon="4.9457">
        <ele>492.11798095703</ele>
        <time>2019-03-28T09:57:56+0100</time>
      </trkpt>
      <trkpt lat="47.25779" lon="4.9457">
        <ele>492.14215087891</ele>
        <time>2019-03-28T09:57:59+0100</time>
      </trkpt>
      <trkpt lat="47.25778" lon="4.94569">
        <ele>492.16394042969</ele>
        <time>2019-03-28T09:58:02+0100</time>
      </trkpt>
      <trkpt lat="47.25777" lon="4.94569">
        <ele>492.17718505859</ele>
        <time>2019-03-28T09:58:05+0100</time>
      </trkpt>
      <trkpt lat="47.25777" lon="4.94569">
        <ele>492.18426513672</ele>
        <time>2019-03-28T09:58:08+0100</time>
      </trkpt>
      <trkpt lat="47.25776" lon="4.94569">
        <ele>492.18524169922</ele>
        <time>2019-03-28T09:58:11+0100</time>
      </trkpt>
      <trkpt lat="47.25776" lon="4.9457">
        <ele>492.18701171875</ele>
        <time>2019-03-28T09:58:14+0100</time>
      </trkpt>
      <trkpt lat="47.25776" lon="4.9457">
        <ele>492.18927001953</ele>
        <time>2019-03-28T09:58:17+0100</time>
      </trkpt>
      <trkpt lat="47.25776" lon="4.9457">
        <ele>492.18829345703</ele>
        <time>2019-03-28T09:58:20+0100</time>
      </trkpt>
      <trkpt lat="47.25776" lon="4.94571">
        <ele>492.18469238281</ele>
        <time>2019-03-28T09:58:23+0100</time>
      </trkpt>
      <trkpt lat="47.25776" lon="4.94571">
        <ele>492.18170166016</ele>
        <time>2019-03-28T09:58:26+0100</time>
      </trkpt>
      <trkpt lat="47.25776" lon="4.94571">
        <ele>492.17999267578</ele>
        <time>2019-03-28T09:58:29+0100</time>
      </trkpt>
      <trkpt lat="47.25776" lon="4.94571">
        <ele>492.18060302734</ele>
        <time>2019-03-28T09:58:32+0100</time>
      </trkpt>
      <trkpt lat="47.25776" lon="4.94571">
        <ele>492.18377685547</ele>
        <time>2019-03-28T09:58:35+0100</time>
      </trkpt>
      <trkpt lat="47.25776" lon="4.94571">
        <ele>492.18975830078</ele>
        <time>2019-03-28T09:58:38+0100</time>
      </trkpt>
      <trkpt lat="47.25776" lon="4.94571">
        <ele>492.203125</ele>
        <time>2019-03-28T09:58:41+0100</time>
      </trkpt>
      <trkpt lat="47.25775" lon="4.94571">
        <ele>492.22314453125</ele>
        <time>2019-03-28T09:58:44+0100</time>
      </trkpt>
      <trkpt lat="47.25775" lon="4.94571">
        <ele>492.24877929688</ele>
        <time>2019-03-28T09:58:47+0100</time>
      </trkpt>
      <trkpt lat="47.25775" lon="4.94571">
        <ele>492.27954101562</ele>
        <time>2019-03-28T09:58:50+0100</time>
      </trkpt>
      <trkpt lat="47.25775" lon="4.94571">
        <ele>492.31195068359</ele>
        <time>2019-03-28T09:58:53+0100</time>
      </trkpt>
      <trkpt lat="47.25775" lon="4.9457">
        <ele>492.34588623047</ele>
        <time>2019-03-28T09:58:56+0100</time>
      </trkpt>
      <trkpt lat="47.25775" lon="4.9457">
        <ele>492.37915039062</ele>
        <time>2019-03-28T09:58:59+0100</time>
      </trkpt>
      <trkpt lat="47.25775" lon="4.9457">
        <ele>492.41510009766</ele>
        <time>2019-03-28T09:59:02+0100</time>
      </trkpt>
      <trkpt lat="47.25774" lon="4.9457">
        <ele>492.45031738281</ele>
        <time>2019-03-28T09:59:05+0100</time>
      </trkpt>
      <trkpt lat="47.25774" lon="4.9457">
        <ele>492.48419189453</ele>
        <time>2019-03-28T09:59:08+0100</time>
      </trkpt>
      <trkpt lat="47.25774" lon="4.9457">
        <ele>492.51702880859</ele>
        <time>2019-03-28T09:59:11+0100</time>
      </trkpt>
      <trkpt lat="47.25774" lon="4.9457">
        <ele>492.5498046875</ele>
        <time>2019-03-28T09:59:14+0100</time>
      </trkpt>
      <trkpt lat="47.25774" lon="4.9457">
        <ele>492.58361816406</ele>
        <time>2019-03-28T09:59:17+0100</time>
      </trkpt>
      <trkpt lat="47.25774" lon="4.9457">
        <ele>492.72631835938</ele>
        <time>2019-03-28T09:59:20+0100</time>
      </trkpt>
      <trkpt lat="47.25775" lon="4.94571">
        <ele>492.85571289062</ele>
        <time>2019-03-28T09:59:23+0100</time>
      </trkpt>
      <trkpt lat="47.25775" lon="4.94571">
        <ele>492.88879394531</ele>
        <time>2019-03-28T09:59:26+0100</time>
      </trkpt>
      <trkpt lat="47.25775" lon="4.94571">
        <ele>492.92132568359</ele>
        <time>2019-03-28T09:59:29+0100</time>
      </trkpt>
      <trkpt lat="47.25776" lon="4.94573">
        <ele>493.23919677734</ele>
        <time>2019-03-28T09:59:32+0100</time>
      </trkpt>
      <trkpt lat="47.25777" lon="4.94574">
        <ele>493.35974121094</ele>
        <time>2019-03-28T09:59:35+0100</time>
      </trkpt>
      <trkpt lat="47.25776" lon="4.94574">
        <ele>493.64312744141</ele>
        <time>2019-03-28T09:59:38+0100</time>
      </trkpt>
      <trkpt lat="47.25773" lon="4.94573">
        <ele>493.90246582031</ele>
        <time>2019-03-28T09:59:41+0100</time>
      </trkpt>
      <trkpt lat="47.25772" lon="4.94573">
        <ele>494.03918457031</ele>
        <time>2019-03-28T09:59:44+0100</time>
      </trkpt>
      <trkpt lat="47.2577" lon="4.94573">
        <ele>494.10931396484</ele>
        <time>2019-03-28T09:59:47+0100</time>
      </trkpt>
      <trkpt lat="47.25767" lon="4.94571">
        <ele>494.15582275391</ele>
        <time>2019-03-28T09:59:50+0100</time>
      </trkpt>
      <trkpt lat="47.25766" lon="4.94571">
        <ele>494.15740966797</ele>
        <time>2019-03-28T09:59:53+0100</time>
      </trkpt>
      <trkpt lat="47.25763" lon="4.94569">
        <ele>494.17370605469</ele>
        <time>2019-03-28T09:59:56+0100</time>
      </trkpt>
      <trkpt lat="47.2576" lon="4.94569">
        <ele>494.21038818359</ele>
        <time>2019-03-28T09:59:59+0100</time>
      </trkpt>
      <trkpt lat="47.25757" lon="4.94568">
        <ele>494.2236328125</ele>
        <time>2019-03-28T10:00:02+0100</time>
      </trkpt>
      <trkpt lat="47.25754" lon="4.94568">
        <ele>494.27752685547</ele>
        <time>2019-03-28T10:00:05+0100</time>
      </trkpt>
      <trkpt lat="47.25751" lon="4.94567">
        <ele>494.38647460938</ele>
        <time>2019-03-28T10:00:08+0100</time>
      </trkpt>
      <trkpt lat="47.25749" lon="4.94567">
        <ele>494.51922607422</ele>
        <time>2019-03-28T10:00:11+0100</time>
      </trkpt>
      <trkpt lat="47.25747" lon="4.94568">
        <ele>494.61297607422</ele>
        <time>2019-03-28T10:00:14+0100</time>
      </trkpt>
      <trkpt lat="47.25746" lon="4.94568">
        <ele>494.6259765625</ele>
        <time>2019-03-28T10:00:17+0100</time>
      </trkpt>
      <trkpt lat="47.25743" lon="4.94567">
        <ele>494.64202880859</ele>
        <time>2019-03-28T10:00:20+0100</time>
      </trkpt>
      <trkpt lat="47.2574" lon="4.94567">
        <ele>494.64923095703</ele>
        <time>2019-03-28T10:00:23+0100</time>
      </trkpt>
      <trkpt lat="47.25735" lon="4.94567">
        <ele>494.66088867188</ele>
        <time>2019-03-28T10:00:26+0100</time>
      </trkpt>
      <trkpt lat="47.25729" lon="4.94567">
        <ele>494.68298339844</ele>
        <time>2019-03-28T10:00:29+0100</time>
      </trkpt>
      <trkpt lat="47.25726" lon="4.94567">
        <ele>494.70178222656</ele>
        <time>2019-03-28T10:00:32+0100</time>
      </trkpt>
      <trkpt lat="47.25722" lon="4.94566">
        <ele>494.72912597656</ele>
        <time>2019-03-28T10:00:35+0100</time>
      </trkpt>
      <trkpt lat="47.25719" lon="4.94566">
        <ele>494.76519775391</ele>
        <time>2019-03-28T10:00:38+0100</time>
      </trkpt>
      <trkpt lat="47.25716" lon="4.94566">
        <ele>494.81408691406</ele>
        <time>2019-03-28T10:00:41+0100</time>
      </trkpt>
      <trkpt lat="47.25713" lon="4.94566">
        <ele>494.86999511719</ele>
        <time>2019-03-28T10:00:44+0100</time>
      </trkpt>
      <trkpt lat="47.2571" lon="4.94566">
        <ele>494.92388916016</ele>
        <time>2019-03-28T10:00:47+0100</time>
      </trkpt>
      <trkpt lat="47.25707" lon="4.94566">
        <ele>494.98504638672</ele>
        <time>2019-03-28T10:00:50+0100</time>
      </trkpt>
      <trkpt lat="47.25704" lon="4.94567">
        <ele>495.06420898438</ele>
        <time>2019-03-28T10:00:53+0100</time>
      </trkpt>
      <trkpt lat="47.25702" lon="4.94567">
        <ele>495.15106201172</ele>
        <time>2019-03-28T10:00:56+0100</time>
      </trkpt>
      <trkpt lat="47.25698" lon="4.94568">
        <ele>495.24334716797</ele>
        <time>2019-03-28T10:00:59+0100</time>
      </trkpt>
      <trkpt lat="47.25694" lon="4.94567">
        <ele>495.33898925781</ele>
        <time>2019-03-28T10:01:02+0100</time>
      </trkpt>
      <trkpt lat="47.25688" lon="4.94567">
        <ele>495.40454101562</ele>
        <time>2019-03-28T10:01:05+0100</time>
      </trkpt>
      <trkpt lat="47.25684" lon="4.94567">
        <ele>495.41589355469</ele>
        <time>2019-03-28T10:01:08+0100</time>
      </trkpt>
      <trkpt lat="47.25681" lon="4.94567">
        <ele>495.39575195312</ele>
        <time>2019-03-28T10:01:11+0100</time>
      </trkpt>
      <trkpt lat="47.25678" lon="4.94567">
        <ele>495.36474609375</ele>
        <time>2019-03-28T10:01:14+0100</time>
      </trkpt>
      <trkpt lat="47.25675" lon="4.94567">
        <ele>495.30822753906</ele>
        <time>2019-03-28T10:01:17+0100</time>
      </trkpt>
      <trkpt lat="47.25673" lon="4.94567">
        <ele>495.20989990234</ele>
        <time>2019-03-28T10:01:20+0100</time>
      </trkpt>
      <trkpt lat="47.2567" lon="4.94567">
        <ele>495.08630371094</ele>
        <time>2019-03-28T10:01:23+0100</time>
      </trkpt>
      <trkpt lat="47.25666" lon="4.94567">
        <ele>494.95257568359</ele>
        <time>2019-03-28T10:01:26+0100</time>
      </trkpt>
      <trkpt lat="47.25664" lon="4.94567">
        <ele>494.81585693359</ele>
        <time>2019-03-28T10:01:29+0100</time>
      </trkpt>
      <trkpt lat="47.25662" lon="4.94567">
        <ele>494.70098876953</ele>
        <time>2019-03-28T10:01:32+0100</time>
      </trkpt>
      <trkpt lat="47.25659" lon="4.94566">
        <ele>494.61682128906</ele>
        <time>2019-03-28T10:01:35+0100</time>
      </trkpt>
      <trkpt lat="47.25657" lon="4.94565">
        <ele>494.56237792969</ele>
        <time>2019-03-28T10:01:38+0100</time>
      </trkpt>
      <trkpt lat="47.25655" lon="4.94565">
        <ele>494.53961181641</ele>
        <time>2019-03-28T10:01:41+0100</time>
      </trkpt>
      <trkpt lat="47.25652" lon="4.94564">
        <ele>494.60021972656</ele>
        <time>2019-03-28T10:01:44+0100</time>
      </trkpt>
      <trkpt lat="47.25648" lon="4.94561">
        <ele>494.74267578125</ele>
        <time>2019-03-28T10:01:47+0100</time>
      </trkpt>
      <trkpt lat="47.25644" lon="4.94559">
        <ele>494.84124755859</ele>
        <time>2019-03-28T10:01:50+0100</time>
      </trkpt>
      <trkpt lat="47.25644" lon="4.94559">
        <ele>494.86334228516</ele>
        <time>2019-03-28T10:01:53+0100</time>
      </trkpt>
      <trkpt lat="47.25644" lon="4.94559">
        <ele>494.8681640625</ele>
        <time>2019-03-28T10:01:56+0100</time>
      </trkpt>
      <trkpt lat="47.25644" lon="4.94559">
        <ele>494.87176513672</ele>
        <time>2019-03-28T10:01:59+0100</time>
      </trkpt>
      <trkpt lat="47.25644" lon="4.94559">
        <ele>494.91198730469</ele>
        <time>2019-03-28T10:02:02+0100</time>
      </trkpt>
      <trkpt lat="47.25645" lon="4.94559">
        <ele>495.0029296875</ele>
        <time>2019-03-28T10:02:05+0100</time>
      </trkpt>
      <trkpt lat="47.25645" lon="4.94559">
        <ele>495.09692382812</ele>
        <time>2019-03-28T10:02:08+0100</time>
      </trkpt>
      <trkpt lat="47.25645" lon="4.94559">
        <ele>495.19287109375</ele>
        <time>2019-03-28T10:02:11+0100</time>
      </trkpt>
      <trkpt lat="47.25645" lon="4.94559">
        <ele>495.82727050781</ele>
        <time>2019-03-28T10:02:14+0100</time>
      </trkpt>
      <trkpt lat="47.25643" lon="4.94559">
        <ele>496.69396972656</ele>
        <time>2019-03-28T10:02:17+0100</time>
      </trkpt>
      <trkpt lat="47.25643" lon="4.94558">
        <ele>496.77484130859</ele>
        <time>2019-03-28T10:02:20+0100</time>
      </trkpt>
      <trkpt lat="47.25643" lon="4.94558">
        <ele>496.84820556641</ele>
        <time>2019-03-28T10:02:23+0100</time>
      </trkpt>
      <trkpt lat="47.25643" lon="4.94559">
        <ele>496.90374755859</ele>
        <time>2019-03-28T10:02:26+0100</time>
      </trkpt>
      <trkpt lat="47.25643" lon="4.94559">
        <ele>496.95367431641</ele>
        <time>2019-03-28T10:02:29+0100</time>
      </trkpt>
      <trkpt lat="47.25643" lon="4.94559">
        <ele>496.99627685547</ele>
        <time>2019-03-28T10:02:32+0100</time>
      </trkpt>
      <trkpt lat="47.25643" lon="4.94559">
        <ele>497.01782226562</ele>
        <time>2019-03-28T10:02:35+0100</time>
      </trkpt>
      <trkpt lat="47.25643" lon="4.94559">
        <ele>497.02880859375</ele>
        <time>2019-03-28T10:02:38+0100</time>
      </trkpt>
      <trkpt lat="47.25642" lon="4.94559">
        <ele>497.02288818359</ele>
        <time>2019-03-28T10:02:41+0100</time>
      </trkpt>
      <trkpt lat="47.25642" lon="4.94559">
        <ele>497.01831054688</ele>
        <time>2019-03-28T10:02:44+0100</time>
      </trkpt>
      <trkpt lat="47.25642" lon="4.94559">
        <ele>496.99505615234</ele>
        <time>2019-03-28T10:02:47+0100</time>
      </trkpt>
      <trkpt lat="47.25642" lon="4.94559">
        <ele>496.95874023438</ele>
        <time>2019-03-28T10:02:50+0100</time>
      </trkpt>
      <trkpt lat="47.25641" lon="4.94559">
        <ele>496.91931152344</ele>
        <time>2019-03-28T10:02:53+0100</time>
      </trkpt>
      <trkpt lat="47.25641" lon="4.94559">
        <ele>496.87084960938</ele>
        <time>2019-03-28T10:02:56+0100</time>
      </trkpt>
      <trkpt lat="47.25641" lon="4.94559">
        <ele>496.80853271484</ele>
        <time>2019-03-28T10:02:59+0100</time>
      </trkpt>
      <trkpt lat="47.25641" lon="4.94559">
        <ele>496.70697021484</ele>
        <time>2019-03-28T10:03:02+0100</time>
      </trkpt>
      <trkpt lat="47.2564" lon="4.94559">
        <ele>496.59460449219</ele>
        <time>2019-03-28T10:03:05+0100</time>
      </trkpt>
      <trkpt lat="47.2564" lon="4.94558">
        <ele>496.49194335938</ele>
        <time>2019-03-28T10:03:08+0100</time>
      </trkpt>
      <trkpt lat="47.25639" lon="4.94558">
        <ele>496.40301513672</ele>
        <time>2019-03-28T10:03:11+0100</time>
      </trkpt>
      <trkpt lat="47.25638" lon="4.94558">
        <ele>496.31494140625</ele>
        <time>2019-03-28T10:03:14+0100</time>
      </trkpt>
      <trkpt lat="47.25638" lon="4.94558">
        <ele>496.23022460938</ele>
        <time>2019-03-28T10:03:17+0100</time>
      </trkpt>
      <trkpt lat="47.25636" lon="4.94557">
        <ele>496.15582275391</ele>
        <time>2019-03-28T10:03:20+0100</time>
      </trkpt>
      <trkpt lat="47.25634" lon="4.94558">
        <ele>495.52325439453</ele>
        <time>2019-03-28T10:03:23+0100</time>
      </trkpt>
      <trkpt lat="47.25634" lon="4.94558">
        <ele>495.22570800781</ele>
        <time>2019-03-28T10:03:26+0100</time>
      </trkpt>
      <trkpt lat="47.25634" lon="4.94556">
        <ele>494.90557861328</ele>
        <time>2019-03-28T10:03:29+0100</time>
      </trkpt>
      <trkpt lat="47.25634" lon="4.94554">
        <ele>494.60211181641</ele>
        <time>2019-03-28T10:03:32+0100</time>
      </trkpt>
      <trkpt lat="47.25635" lon="4.94553">
        <ele>494.35906982422</ele>
        <time>2019-03-28T10:03:35+0100</time>
      </trkpt>
      <trkpt lat="47.25636" lon="4.94551">
        <ele>494.22741699219</ele>
        <time>2019-03-28T10:03:38+0100</time>
      </trkpt>
      <trkpt lat="47.25636" lon="4.94548">
        <ele>494.15808105469</ele>
        <time>2019-03-28T10:03:41+0100</time>
      </trkpt>
      <trkpt lat="47.25636" lon="4.94543">
        <ele>494.02838134766</ele>
        <time>2019-03-28T10:03:44+0100</time>
      </trkpt>
      <trkpt lat="47.25638" lon="4.94539">
        <ele>493.92510986328</ele>
        <time>2019-03-28T10:03:47+0100</time>
      </trkpt>
      <trkpt lat="47.2564" lon="4.94535">
        <ele>493.87432861328</ele>
        <time>2019-03-28T10:03:50+0100</time>
      </trkpt>
      <trkpt lat="47.25639" lon="4.94534">
        <ele>493.82293701172</ele>
        <time>2019-03-28T10:03:53+0100</time>
      </trkpt>
      <trkpt lat="47.25638" lon="4.9453">
        <ele>493.67108154297</ele>
        <time>2019-03-28T10:03:56+0100</time>
      </trkpt>
      <trkpt lat="47.25636" lon="4.94526">
        <ele>493.48010253906</ele>
        <time>2019-03-28T10:03:59+0100</time>
      </trkpt>
      <trkpt lat="47.25637" lon="4.94524">
        <ele>493.28436279297</ele>
        <time>2019-03-28T10:04:02+0100</time>
      </trkpt>
      <trkpt lat="47.25639" lon="4.94522">
        <ele>493.14154052734</ele>
        <time>2019-03-28T10:04:05+0100</time>
      </trkpt>
      <trkpt lat="47.25641" lon="4.94517">
        <ele>492.97601318359</ele>
        <time>2019-03-28T10:04:08+0100</time>
      </trkpt>
      <trkpt lat="47.25642" lon="4.94513">
        <ele>492.79815673828</ele>
        <time>2019-03-28T10:04:11+0100</time>
      </trkpt>
      <trkpt lat="47.25645" lon="4.94509">
        <ele>492.71722412109</ele>
        <time>2019-03-28T10:04:14+0100</time>
      </trkpt>
      <trkpt lat="47.25645" lon="4.94504">
        <ele>492.62152099609</ele>
        <time>2019-03-28T10:04:17+0100</time>
      </trkpt>
      <trkpt lat="47.25644" lon="4.94501">
        <ele>492.46588134766</ele>
        <time>2019-03-28T10:04:20+0100</time>
      </trkpt>
      <trkpt lat="47.25646" lon="4.94498">
        <ele>492.31811523438</ele>
        <time>2019-03-28T10:04:23+0100</time>
      </trkpt>
      <trkpt lat="47.25646" lon="4.94494">
        <ele>492.17474365234</ele>
        <time>2019-03-28T10:04:26+0100</time>
      </trkpt>
      <trkpt lat="47.25646" lon="4.94491">
        <ele>492.02178955078</ele>
        <time>2019-03-28T10:04:29+0100</time>
      </trkpt>
      <trkpt lat="47.25649" lon="4.94487">
        <ele>491.85247802734</ele>
        <time>2019-03-28T10:04:32+0100</time>
      </trkpt>
      <trkpt lat="47.25653" lon="4.94485">
        <ele>491.71441650391</ele>
        <time>2019-03-28T10:04:35+0100</time>
      </trkpt>
      <trkpt lat="47.25657" lon="4.94481">
        <ele>491.65515136719</ele>
        <time>2019-03-28T10:04:38+0100</time>
      </trkpt>
      <trkpt lat="47.25658" lon="4.94476">
        <ele>491.67822265625</ele>
        <time>2019-03-28T10:04:41+0100</time>
      </trkpt>
      <trkpt lat="47.25658" lon="4.94472">
        <ele>491.62481689453</ele>
        <time>2019-03-28T10:04:44+0100</time>
      </trkpt>
      <trkpt lat="47.25657" lon="4.94466">
        <ele>491.50347900391</ele>
        <time>2019-03-28T10:04:47+0100</time>
      </trkpt>
      <trkpt lat="47.25657" lon="4.94462">
        <ele>491.341796875</ele>
        <time>2019-03-28T10:04:50+0100</time>
      </trkpt>
      <trkpt lat="47.25658" lon="4.9446">
        <ele>491.29943847656</ele>
        <time>2019-03-28T10:04:53+0100</time>
      </trkpt>
      <trkpt lat="47.25658" lon="4.94457">
        <ele>491.24359130859</ele>
        <time>2019-03-28T10:04:56+0100</time>
      </trkpt>
      <trkpt lat="47.25658" lon="4.94452">
        <ele>491.12261962891</ele>
        <time>2019-03-28T10:04:59+0100</time>
      </trkpt>
      <trkpt lat="47.25659" lon="4.94449">
        <ele>490.98754882812</ele>
        <time>2019-03-28T10:05:02+0100</time>
      </trkpt>
      <trkpt lat="47.2566" lon="4.94446">
        <ele>490.88165283203</ele>
        <time>2019-03-28T10:05:05+0100</time>
      </trkpt>
      <trkpt lat="47.25661" lon="4.94444">
        <ele>490.82073974609</ele>
        <time>2019-03-28T10:05:08+0100</time>
      </trkpt>
      <trkpt lat="47.25664" lon="4.94438">
        <ele>490.83679199219</ele>
        <time>2019-03-28T10:05:11+0100</time>
      </trkpt>
      <trkpt lat="47.25666" lon="4.94433">
        <ele>490.91394042969</ele>
        <time>2019-03-28T10:05:14+0100</time>
      </trkpt>
      <trkpt lat="47.25666" lon="4.94427">
        <ele>490.97204589844</ele>
        <time>2019-03-28T10:05:18+0100</time>
      </trkpt>
      <trkpt lat="47.25666" lon="4.94424">
        <ele>490.99664306641</ele>
        <time>2019-03-28T10:05:21+0100</time>
      </trkpt>
      <trkpt lat="47.25666" lon="4.94419">
        <ele>490.91900634766</ele>
        <time>2019-03-28T10:05:24+0100</time>
      </trkpt>
      <trkpt lat="47.25667" lon="4.94417">
        <ele>490.75207519531</ele>
        <time>2019-03-28T10:05:27+0100</time>
      </trkpt>
      <trkpt lat="47.25667" lon="4.94414">
        <ele>490.58752441406</ele>
        <time>2019-03-28T10:05:30+0100</time>
      </trkpt>
      <trkpt lat="47.25669" lon="4.9441">
        <ele>490.48107910156</ele>
        <time>2019-03-28T10:05:33+0100</time>
      </trkpt>
      <trkpt lat="47.25669" lon="4.94406">
        <ele>490.39093017578</ele>
        <time>2019-03-28T10:05:36+0100</time>
      </trkpt>
      <trkpt lat="47.2567" lon="4.94403">
        <ele>490.30865478516</ele>
        <time>2019-03-28T10:05:39+0100</time>
      </trkpt>
      <trkpt lat="47.25672" lon="4.94398">
        <ele>490.25604248047</ele>
        <time>2019-03-28T10:05:42+0100</time>
      </trkpt>
      <trkpt lat="47.25672" lon="4.94394">
        <ele>490.20178222656</ele>
        <time>2019-03-28T10:05:45+0100</time>
      </trkpt>
      <trkpt lat="47.25673" lon="4.94391">
        <ele>490.15643310547</ele>
        <time>2019-03-28T10:05:48+0100</time>
      </trkpt>
      <trkpt lat="47.25675" lon="4.94387">
        <ele>490.04974365234</ele>
        <time>2019-03-28T10:05:51+0100</time>
      </trkpt>
      <trkpt lat="47.25677" lon="4.94383">
        <ele>489.92205810547</ele>
        <time>2019-03-28T10:05:54+0100</time>
      </trkpt>
      <trkpt lat="47.25683" lon="4.94379">
        <ele>489.93792724609</ele>
        <time>2019-03-28T10:05:57+0100</time>
      </trkpt>
      <trkpt lat="47.25686" lon="4.94374">
        <ele>490.06243896484</ele>
        <time>2019-03-28T10:06:00+0100</time>
      </trkpt>
      <trkpt lat="47.25686" lon="4.94369">
        <ele>490.21118164062</ele>
        <time>2019-03-28T10:06:03+0100</time>
      </trkpt>
      <trkpt lat="47.25687" lon="4.94363">
        <ele>490.27911376953</ele>
        <time>2019-03-28T10:06:06+0100</time>
      </trkpt>
      <trkpt lat="47.25688" lon="4.9436">
        <ele>490.28485107422</ele>
        <time>2019-03-28T10:06:09+0100</time>
      </trkpt>
      <trkpt lat="47.25688" lon="4.94358">
        <ele>490.26263427734</ele>
        <time>2019-03-28T10:06:12+0100</time>
      </trkpt>
      <trkpt lat="47.25689" lon="4.94354">
        <ele>490.30102539062</ele>
        <time>2019-03-28T10:06:15+0100</time>
      </trkpt>
      <trkpt lat="47.25691" lon="4.94351">
        <ele>490.35516357422</ele>
        <time>2019-03-28T10:06:18+0100</time>
      </trkpt>
      <trkpt lat="47.25692" lon="4.94348">
        <ele>490.42883300781</ele>
        <time>2019-03-28T10:06:21+0100</time>
      </trkpt>
      <trkpt lat="47.25692" lon="4.94345">
        <ele>490.45043945312</ele>
        <time>2019-03-28T10:06:24+0100</time>
      </trkpt>
      <trkpt lat="47.25696" lon="4.94343">
        <ele>490.53051757812</ele>
        <time>2019-03-28T10:06:27+0100</time>
      </trkpt>
      <trkpt lat="47.25696" lon="4.94339">
        <ele>490.63751220703</ele>
        <time>2019-03-28T10:06:30+0100</time>
      </trkpt>
      <trkpt lat="47.25698" lon="4.94334">
        <ele>490.65893554688</ele>
        <time>2019-03-28T10:06:33+0100</time>
      </trkpt>
      <trkpt lat="47.25699" lon="4.9433">
        <ele>490.66107177734</ele>
        <time>2019-03-28T10:06:36+0100</time>
      </trkpt>
      <trkpt lat="47.25702" lon="4.94325">
        <ele>490.63354492188</ele>
        <time>2019-03-28T10:06:39+0100</time>
      </trkpt>
      <trkpt lat="47.25704" lon="4.94322">
        <ele>490.61242675781</ele>
        <time>2019-03-28T10:06:42+0100</time>
      </trkpt>
      <trkpt lat="47.25706" lon="4.9432">
        <ele>490.62176513672</ele>
        <time>2019-03-28T10:06:45+0100</time>
      </trkpt>
      <trkpt lat="47.25707" lon="4.94318">
        <ele>490.62805175781</ele>
        <time>2019-03-28T10:06:48+0100</time>
      </trkpt>
      <trkpt lat="47.25709" lon="4.94315">
        <ele>490.6259765625</ele>
        <time>2019-03-28T10:06:51+0100</time>
      </trkpt>
      <trkpt lat="47.25714" lon="4.94312">
        <ele>490.67523193359</ele>
        <time>2019-03-28T10:06:54+0100</time>
      </trkpt>
      <trkpt lat="47.25716" lon="4.94308">
        <ele>490.67785644531</ele>
        <time>2019-03-28T10:06:57+0100</time>
      </trkpt>
      <trkpt lat="47.25717" lon="4.94306">
        <ele>490.68188476562</ele>
        <time>2019-03-28T10:07:00+0100</time>
      </trkpt>
      <trkpt lat="47.25717" lon="4.94303">
        <ele>490.65997314453</ele>
        <time>2019-03-28T10:07:03+0100</time>
      </trkpt>
      <trkpt lat="47.25717" lon="4.943">
        <ele>490.66711425781</ele>
        <time>2019-03-28T10:07:06+0100</time>
      </trkpt>
      <trkpt lat="47.25718" lon="4.94298">
        <ele>490.65301513672</ele>
        <time>2019-03-28T10:07:09+0100</time>
      </trkpt>
      <trkpt lat="47.25719" lon="4.94295">
        <ele>490.611328125</ele>
        <time>2019-03-28T10:07:12+0100</time>
      </trkpt>
      <trkpt lat="47.2572" lon="4.94292">
        <ele>490.57568359375</ele>
        <time>2019-03-28T10:07:15+0100</time>
      </trkpt>
      <trkpt lat="47.25722" lon="4.94289">
        <ele>490.54034423828</ele>
        <time>2019-03-28T10:07:18+0100</time>
      </trkpt>
      <trkpt lat="47.25724" lon="4.94284">
        <ele>490.54809570312</ele>
        <time>2019-03-28T10:07:21+0100</time>
      </trkpt>
      <trkpt lat="47.25726" lon="4.9428">
        <ele>490.67468261719</ele>
        <time>2019-03-28T10:07:24+0100</time>
      </trkpt>
      <trkpt lat="47.25728" lon="4.94277">
        <ele>490.78753662109</ele>
        <time>2019-03-28T10:07:27+0100</time>
      </trkpt>
      <trkpt lat="47.25729" lon="4.94274">
        <ele>490.91625976562</ele>
        <time>2019-03-28T10:07:30+0100</time>
      </trkpt>
      <trkpt lat="47.2573" lon="4.94272">
        <ele>490.98089599609</ele>
        <time>2019-03-28T10:07:33+0100</time>
      </trkpt>
      <trkpt lat="47.25731" lon="4.94267">
        <ele>490.97253417969</ele>
        <time>2019-03-28T10:07:36+0100</time>
      </trkpt>
      <trkpt lat="47.25732" lon="4.94263">
        <ele>490.88116455078</ele>
        <time>2019-03-28T10:07:39+0100</time>
      </trkpt>
      <trkpt lat="47.25733" lon="4.94259">
        <ele>490.74041748047</ele>
        <time>2019-03-28T10:07:42+0100</time>
      </trkpt>
      <trkpt lat="47.25735" lon="4.94256">
        <ele>490.58892822266</ele>
        <time>2019-03-28T10:07:45+0100</time>
      </trkpt>
      <trkpt lat="47.25735" lon="4.94253">
        <ele>490.45269775391</ele>
        <time>2019-03-28T10:07:48+0100</time>
      </trkpt>
      <trkpt lat="47.25736" lon="4.9425">
        <ele>490.32653808594</ele>
        <time>2019-03-28T10:07:51+0100</time>
      </trkpt>
      <trkpt lat="47.25736" lon="4.94247">
        <ele>490.28063964844</ele>
        <time>2019-03-28T10:07:54+0100</time>
      </trkpt>
      <trkpt lat="47.25738" lon="4.94246">
        <ele>490.39294433594</ele>
        <time>2019-03-28T10:07:57+0100</time>
      </trkpt>
      <trkpt lat="47.25739" lon="4.94244">
        <ele>490.62786865234</ele>
        <time>2019-03-28T10:08:00+0100</time>
      </trkpt>
      <trkpt lat="47.25743" lon="4.94243">
        <ele>490.96044921875</ele>
        <time>2019-03-28T10:08:03+0100</time>
      </trkpt>
      <trkpt lat="47.25745" lon="4.94239">
        <ele>491.25518798828</ele>
        <time>2019-03-28T10:08:06+0100</time>
      </trkpt>
      <trkpt lat="47.25745" lon="4.94238">
        <ele>491.36895751953</ele>
        <time>2019-03-28T10:08:09+0100</time>
      </trkpt>
      <trkpt lat="47.25745" lon="4.94235">
        <ele>491.49932861328</ele>
        <time>2019-03-28T10:08:12+0100</time>
      </trkpt>
      <trkpt lat="47.25746" lon="4.94232">
        <ele>491.58203125</ele>
        <time>2019-03-28T10:08:15+0100</time>
      </trkpt>
      <trkpt lat="47.25746" lon="4.94228">
        <ele>491.53918457031</ele>
        <time>2019-03-28T10:08:18+0100</time>
      </trkpt>
      <trkpt lat="47.25747" lon="4.94225">
        <ele>491.47930908203</ele>
        <time>2019-03-28T10:08:21+0100</time>
      </trkpt>
      <trkpt lat="47.25748" lon="4.94221">
        <ele>491.41052246094</ele>
        <time>2019-03-28T10:08:24+0100</time>
      </trkpt>
      <trkpt lat="47.25749" lon="4.94218">
        <ele>491.37890625</ele>
        <time>2019-03-28T10:08:27+0100</time>
      </trkpt>
      <trkpt lat="47.25752" lon="4.94215">
        <ele>491.34149169922</ele>
        <time>2019-03-28T10:08:30+0100</time>
      </trkpt>
      <trkpt lat="47.25754" lon="4.94211">
        <ele>491.25439453125</ele>
        <time>2019-03-28T10:08:33+0100</time>
      </trkpt>
      <trkpt lat="47.25755" lon="4.94207">
        <ele>491.16259765625</ele>
        <time>2019-03-28T10:08:36+0100</time>
      </trkpt>
      <trkpt lat="47.25759" lon="4.94204">
        <ele>491.08044433594</ele>
        <time>2019-03-28T10:08:39+0100</time>
      </trkpt>
      <trkpt lat="47.2576" lon="4.94202">
        <ele>490.97430419922</ele>
        <time>2019-03-28T10:08:42+0100</time>
      </trkpt>
      <trkpt lat="47.2576" lon="4.942">
        <ele>490.82263183594</ele>
        <time>2019-03-28T10:08:45+0100</time>
      </trkpt>
      <trkpt lat="47.25765" lon="4.94196">
        <ele>490.66467285156</ele>
        <time>2019-03-28T10:08:48+0100</time>
      </trkpt>
      <trkpt lat="47.25766" lon="4.94193">
        <ele>490.60003662109</ele>
        <time>2019-03-28T10:08:51+0100</time>
      </trkpt>
      <trkpt lat="47.25767" lon="4.9419">
        <ele>490.58361816406</ele>
        <time>2019-03-28T10:08:54+0100</time>
      </trkpt>
      <trkpt lat="47.25769" lon="4.94187">
        <ele>490.65649414062</ele>
        <time>2019-03-28T10:08:57+0100</time>
      </trkpt>
      <trkpt lat="47.25771" lon="4.94184">
        <ele>490.78833007812</ele>
        <time>2019-03-28T10:09:00+0100</time>
      </trkpt>
      <trkpt lat="47.25773" lon="4.94181">
        <ele>490.91619873047</ele>
        <time>2019-03-28T10:09:03+0100</time>
      </trkpt>
      <trkpt lat="47.25776" lon="4.94177">
        <ele>491.09039306641</ele>
        <time>2019-03-28T10:09:06+0100</time>
      </trkpt>
      <trkpt lat="47.25778" lon="4.94173">
        <ele>491.30377197266</ele>
        <time>2019-03-28T10:09:09+0100</time>
      </trkpt>
      <trkpt lat="47.25781" lon="4.9417">
        <ele>491.521484375</ele>
        <time>2019-03-28T10:09:12+0100</time>
      </trkpt>
      <trkpt lat="47.25782" lon="4.94166">
        <ele>491.68414306641</ele>
        <time>2019-03-28T10:09:15+0100</time>
      </trkpt>
      <trkpt lat="47.25784" lon="4.94157">
        <ele>492.01281738281</ele>
        <time>2019-03-28T10:09:18+0100</time>
      </trkpt>
      <trkpt lat="47.25786" lon="4.94156">
        <ele>492.32409667969</ele>
        <time>2019-03-28T10:09:21+0100</time>
      </trkpt>
      <trkpt lat="47.25787" lon="4.94152">
        <ele>492.85394287109</ele>
        <time>2019-03-28T10:09:24+0100</time>
      </trkpt>
      <trkpt lat="47.25789" lon="4.94149">
        <ele>493.40142822266</ele>
        <time>2019-03-28T10:09:27+0100</time>
      </trkpt>
      <trkpt lat="47.2579" lon="4.94146">
        <ele>493.89416503906</ele>
        <time>2019-03-28T10:09:30+0100</time>
      </trkpt>
      <trkpt lat="47.25792" lon="4.94142">
        <ele>494.34686279297</ele>
        <time>2019-03-28T10:09:33+0100</time>
      </trkpt>
      <trkpt lat="47.25793" lon="4.9414">
        <ele>494.7783203125</ele>
        <time>2019-03-28T10:09:36+0100</time>
      </trkpt>
      <trkpt lat="47.25794" lon="4.94138">
        <ele>495.12005615234</ele>
        <time>2019-03-28T10:09:39+0100</time>
      </trkpt>
      <trkpt lat="47.25795" lon="4.94134">
        <ele>495.39697265625</ele>
        <time>2019-03-28T10:09:42+0100</time>
      </trkpt>
      <trkpt lat="47.25797" lon="4.94131">
        <ele>495.60064697266</ele>
        <time>2019-03-28T10:09:45+0100</time>
      </trkpt>
      <trkpt lat="47.258" lon="4.94127">
        <ele>495.82861328125</ele>
        <time>2019-03-28T10:09:48+0100</time>
      </trkpt>
      <trkpt lat="47.25802" lon="4.94124">
        <ele>496.06188964844</ele>
        <time>2019-03-28T10:09:51+0100</time>
      </trkpt>
      <trkpt lat="47.25803" lon="4.94122">
        <ele>496.28686523438</ele>
        <time>2019-03-28T10:09:54+0100</time>
      </trkpt>
      <trkpt lat="47.25804" lon="4.94121">
        <ele>496.31439208984</ele>
        <time>2019-03-28T10:09:57+0100</time>
      </trkpt>
      <trkpt lat="47.25805" lon="4.94119">
        <ele>496.57476806641</ele>
        <time>2019-03-28T10:10:00+0100</time>
      </trkpt>
      <trkpt lat="47.25806" lon="4.94116">
        <ele>496.75122070312</ele>
        <time>2019-03-28T10:10:03+0100</time>
      </trkpt>
      <trkpt lat="47.25806" lon="4.94115">
        <ele>496.94476318359</ele>
        <time>2019-03-28T10:10:06+0100</time>
      </trkpt>
      <trkpt lat="47.25807" lon="4.94113">
        <ele>497.01361083984</ele>
        <time>2019-03-28T10:10:09+0100</time>
      </trkpt>
      <trkpt lat="47.25807" lon="4.94113">
        <ele>497.02496337891</ele>
        <time>2019-03-28T10:10:12+0100</time>
      </trkpt>
      <trkpt lat="47.25809" lon="4.94113">
        <ele>497.10687255859</ele>
        <time>2019-03-28T10:10:15+0100</time>
      </trkpt>
      <trkpt lat="47.25809" lon="4.94114">
        <ele>497.11218261719</ele>
        <time>2019-03-28T10:10:18+0100</time>
      </trkpt>
      <trkpt lat="47.25809" lon="4.94114">
        <ele>497.09918212891</ele>
        <time>2019-03-28T10:10:21+0100</time>
      </trkpt>
      <trkpt lat="47.25809" lon="4.94114">
        <ele>497.07427978516</ele>
        <time>2019-03-28T10:10:24+0100</time>
      </trkpt>
      <trkpt lat="47.25809" lon="4.94113">
        <ele>497.04168701172</ele>
        <time>2019-03-28T10:10:27+0100</time>
      </trkpt>
      <trkpt lat="47.25809" lon="4.94112">
        <ele>497.00885009766</ele>
        <time>2019-03-28T10:10:30+0100</time>
      </trkpt>
      <trkpt lat="47.25809" lon="4.94112">
        <ele>496.98065185547</ele>
        <time>2019-03-28T10:10:33+0100</time>
      </trkpt>
      <trkpt lat="47.25809" lon="4.94112">
        <ele>496.95727539062</ele>
        <time>2019-03-28T10:10:36+0100</time>
      </trkpt>
      <trkpt lat="47.25809" lon="4.94112">
        <ele>496.93823242188</ele>
        <time>2019-03-28T10:10:39+0100</time>
      </trkpt>
      <trkpt lat="47.25809" lon="4.94112">
        <ele>496.92254638672</ele>
        <time>2019-03-28T10:10:42+0100</time>
      </trkpt>
      <trkpt lat="47.25809" lon="4.94112">
        <ele>496.91107177734</ele>
        <time>2019-03-28T10:10:45+0100</time>
      </trkpt>
      <trkpt lat="47.25809" lon="4.94112">
        <ele>496.90466308594</ele>
        <time>2019-03-28T10:10:48+0100</time>
      </trkpt>
      <trkpt lat="47.25809" lon="4.94112">
        <ele>496.90423583984</ele>
        <time>2019-03-28T10:10:51+0100</time>
      </trkpt>
      <trkpt lat="47.25809" lon="4.94111">
        <ele>496.90905761719</ele>
        <time>2019-03-28T10:10:54+0100</time>
      </trkpt>
      <trkpt lat="47.2581" lon="4.94111">
        <ele>496.91931152344</ele>
        <time>2019-03-28T10:10:57+0100</time>
      </trkpt>
      <trkpt lat="47.2581" lon="4.94111">
        <ele>496.93438720703</ele>
        <time>2019-03-28T10:11:00+0100</time>
      </trkpt>
      <trkpt lat="47.2581" lon="4.94111">
        <ele>496.95550537109</ele>
        <time>2019-03-28T10:11:03+0100</time>
      </trkpt>
      <trkpt lat="47.2581" lon="4.94111">
        <ele>496.98181152344</ele>
        <time>2019-03-28T10:11:06+0100</time>
      </trkpt>
      <trkpt lat="47.25811" lon="4.94109">
        <ele>497.20581054688</ele>
        <time>2019-03-28T10:11:09+0100</time>
      </trkpt>
      <trkpt lat="47.25812" lon="4.94107">
        <ele>497.54272460938</ele>
        <time>2019-03-28T10:11:12+0100</time>
      </trkpt>
      <trkpt lat="47.25812" lon="4.94106">
        <ele>497.6826171875</ele>
        <time>2019-03-28T10:11:15+0100</time>
      </trkpt>
      <trkpt lat="47.25812" lon="4.94105">
        <ele>497.9453125</ele>
        <time>2019-03-28T10:11:18+0100</time>
      </trkpt>
      <trkpt lat="47.25812" lon="4.94105">
        <ele>498.09954833984</ele>
        <time>2019-03-28T10:11:21+0100</time>
      </trkpt>
      <trkpt lat="47.25811" lon="4.94105">
        <ele>498.34906005859</ele>
        <time>2019-03-28T10:11:24+0100</time>
      </trkpt>
      <trkpt lat="47.25809" lon="4.94107">
        <ele>498.48498535156</ele>
        <time>2019-03-28T10:11:27+0100</time>
      </trkpt>
      <trkpt lat="47.25809" lon="4.94108">
        <ele>498.72833251953</ele>
        <time>2019-03-28T10:11:30+0100</time>
      </trkpt>
      <trkpt lat="47.25809" lon="4.94108">
        <ele>498.99884033203</ele>
        <time>2019-03-28T10:11:33+0100</time>
      </trkpt>
      <trkpt lat="47.25809" lon="4.94109">
        <ele>499.16357421875</ele>
        <time>2019-03-28T10:11:36+0100</time>
      </trkpt>
      <trkpt lat="47.25809" lon="4.94108">
        <ele>499.47259521484</ele>
        <time>2019-03-28T10:11:39+0100</time>
      </trkpt>
      <trkpt lat="47.25809" lon="4.94107">
        <ele>499.51397705078</ele>
        <time>2019-03-28T10:11:42+0100</time>
      </trkpt>
      <trkpt lat="47.25809" lon="4.94105">
        <ele>499.55163574219</ele>
        <time>2019-03-28T10:11:45+0100</time>
      </trkpt>
      <trkpt lat="47.25809" lon="4.94105">
        <ele>499.57818603516</ele>
        <time>2019-03-28T10:11:48+0100</time>
      </trkpt>
      <trkpt lat="47.25809" lon="4.94104">
        <ele>499.59094238281</ele>
        <time>2019-03-28T10:11:51+0100</time>
      </trkpt>
      <trkpt lat="47.25809" lon="4.94104">
        <ele>499.59124755859</ele>
        <time>2019-03-28T10:11:54+0100</time>
      </trkpt>
      <trkpt lat="47.25809" lon="4.94104">
        <ele>499.57513427734</ele>
        <time>2019-03-28T10:11:57+0100</time>
      </trkpt>
      <trkpt lat="47.25809" lon="4.94104">
        <ele>499.53771972656</ele>
        <time>2019-03-28T10:12:00+0100</time>
      </trkpt>
      <trkpt lat="47.25809" lon="4.94104">
        <ele>499.47802734375</ele>
        <time>2019-03-28T10:12:03+0100</time>
      </trkpt>
      <trkpt lat="47.25809" lon="4.94104">
        <ele>499.40502929688</ele>
        <time>2019-03-28T10:12:06+0100</time>
      </trkpt>
      <trkpt lat="47.25809" lon="4.94104">
        <ele>499.32427978516</ele>
        <time>2019-03-28T10:12:09+0100</time>
      </trkpt>
      <trkpt lat="47.25809" lon="4.94104">
        <ele>499.23815917969</ele>
        <time>2019-03-28T10:12:12+0100</time>
      </trkpt>
      <trkpt lat="47.25809" lon="4.94104">
        <ele>499.15130615234</ele>
        <time>2019-03-28T10:12:15+0100</time>
      </trkpt>
      <trkpt lat="47.25809" lon="4.94105">
        <ele>499.06402587891</ele>
        <time>2019-03-28T10:12:18+0100</time>
      </trkpt>
      <trkpt lat="47.25809" lon="4.94105">
        <ele>498.974609375</ele>
        <time>2019-03-28T10:12:21+0100</time>
      </trkpt>
      <trkpt lat="47.25808" lon="4.94105">
        <ele>498.88537597656</ele>
        <time>2019-03-28T10:12:24+0100</time>
      </trkpt>
      <trkpt lat="47.25808" lon="4.94105">
        <ele>498.79943847656</ele>
        <time>2019-03-28T10:12:27+0100</time>
      </trkpt>
      <trkpt lat="47.25808" lon="4.94105">
        <ele>498.71527099609</ele>
        <time>2019-03-28T10:12:30+0100</time>
      </trkpt>
      <trkpt lat="47.25808" lon="4.94105">
        <ele>498.63702392578</ele>
        <time>2019-03-28T10:12:33+0100</time>
      </trkpt>
      <trkpt lat="47.25808" lon="4.94105">
        <ele>498.56469726562</ele>
        <time>2019-03-28T10:12:36+0100</time>
      </trkpt>
      <trkpt lat="47.25808" lon="4.94105">
        <ele>498.49981689453</ele>
        <time>2019-03-28T10:12:39+0100</time>
      </trkpt>
      <trkpt lat="47.25808" lon="4.94105">
        <ele>498.44116210938</ele>
        <time>2019-03-28T10:12:42+0100</time>
      </trkpt>
      <trkpt lat="47.25808" lon="4.94106">
        <ele>498.38781738281</ele>
        <time>2019-03-28T10:12:45+0100</time>
      </trkpt>
      <trkpt lat="47.25808" lon="4.94106">
        <ele>498.34118652344</ele>
        <time>2019-03-28T10:12:48+0100</time>
      </trkpt>
      <trkpt lat="47.25808" lon="4.94106">
        <ele>498.30120849609</ele>
        <time>2019-03-28T10:12:51+0100</time>
      </trkpt>
      <trkpt lat="47.25808" lon="4.94106">
        <ele>498.26794433594</ele>
        <time>2019-03-28T10:12:54+0100</time>
      </trkpt>
      <trkpt lat="47.25808" lon="4.94106">
        <ele>498.24066162109</ele>
        <time>2019-03-28T10:12:57+0100</time>
      </trkpt>
      <trkpt lat="47.25808" lon="4.94106">
        <ele>498.21844482422</ele>
        <time>2019-03-28T10:13:00+0100</time>
      </trkpt>
      <trkpt lat="47.25808" lon="4.94106">
        <ele>498.20013427734</ele>
        <time>2019-03-28T10:13:03+0100</time>
      </trkpt>
      <trkpt lat="47.25808" lon="4.94106">
        <ele>498.18444824219</ele>
        <time>2019-03-28T10:13:06+0100</time>
      </trkpt>
      <trkpt lat="47.25808" lon="4.94106">
        <ele>498.17041015625</ele>
        <time>2019-03-28T10:13:09+0100</time>
      </trkpt>
      <trkpt lat="47.25808" lon="4.94106">
        <ele>498.15740966797</ele>
        <time>2019-03-28T10:13:12+0100</time>
      </trkpt>
      <trkpt lat="47.25808" lon="4.94106">
        <ele>498.14526367188</ele>
        <time>2019-03-28T10:13:15+0100</time>
      </trkpt>
      <trkpt lat="47.25808" lon="4.94106">
        <ele>498.13427734375</ele>
        <time>2019-03-28T10:13:18+0100</time>
      </trkpt>
      <trkpt lat="47.25808" lon="4.94106">
        <ele>498.12481689453</ele>
        <time>2019-03-28T10:13:21+0100</time>
      </trkpt>
      <trkpt lat="47.25808" lon="4.94106">
        <ele>498.11895751953</ele>
        <time>2019-03-28T10:13:24+0100</time>
      </trkpt>
      <trkpt lat="47.25808" lon="4.94106">
        <ele>498.11492919922</ele>
        <time>2019-03-28T10:13:27+0100</time>
      </trkpt>
      <trkpt lat="47.25808" lon="4.94106">
        <ele>498.11376953125</ele>
        <time>2019-03-28T10:13:30+0100</time>
      </trkpt>
      <trkpt lat="47.25808" lon="4.94106">
        <ele>498.11694335938</ele>
        <time>2019-03-28T10:13:33+0100</time>
      </trkpt>
      <trkpt lat="47.25808" lon="4.94106">
        <ele>498.12347412109</ele>
        <time>2019-03-28T10:13:36+0100</time>
      </trkpt>
      <trkpt lat="47.25808" lon="4.94106">
        <ele>498.1328125</ele>
        <time>2019-03-28T10:13:39+0100</time>
      </trkpt>
      <trkpt lat="47.25808" lon="4.94106">
        <ele>498.14367675781</ele>
        <time>2019-03-28T10:13:42+0100</time>
      </trkpt>
      <trkpt lat="47.25808" lon="4.94106">
        <ele>498.15704345703</ele>
        <time>2019-03-28T10:13:45+0100</time>
      </trkpt>
      <trkpt lat="47.25808" lon="4.94106">
        <ele>498.17346191406</ele>
        <time>2019-03-28T10:13:48+0100</time>
      </trkpt>
      <trkpt lat="47.25808" lon="4.94106">
        <ele>498.19152832031</ele>
        <time>2019-03-28T10:13:51+0100</time>
      </trkpt>
      <trkpt lat="47.25808" lon="4.94106">
        <ele>498.20989990234</ele>
        <time>2019-03-28T10:13:54+0100</time>
      </trkpt>
      <trkpt lat="47.25808" lon="4.94106">
        <ele>498.22619628906</ele>
        <time>2019-03-28T10:13:57+0100</time>
      </trkpt>
      <trkpt lat="47.25808" lon="4.94106">
        <ele>498.23931884766</ele>
        <time>2019-03-28T10:14:00+0100</time>
      </trkpt>
      <trkpt lat="47.25808" lon="4.94106">
        <ele>498.25183105469</ele>
        <time>2019-03-28T10:14:03+0100</time>
      </trkpt>
      <trkpt lat="47.25808" lon="4.94106">
        <ele>498.26580810547</ele>
        <time>2019-03-28T10:14:06+0100</time>
      </trkpt>
      <trkpt lat="47.25808" lon="4.94106">
        <ele>498.28076171875</ele>
        <time>2019-03-28T10:14:09+0100</time>
      </trkpt>
      <trkpt lat="47.25808" lon="4.94106">
        <ele>498.29656982422</ele>
        <time>2019-03-28T10:14:12+0100</time>
      </trkpt>
      <trkpt lat="47.25808" lon="4.94106">
        <ele>498.31292724609</ele>
        <time>2019-03-28T10:14:15+0100</time>
      </trkpt>
      <trkpt lat="47.25808" lon="4.94106">
        <ele>498.33166503906</ele>
        <time>2019-03-28T10:14:18+0100</time>
      </trkpt>
      <trkpt lat="47.25808" lon="4.94106">
        <ele>498.35241699219</ele>
        <time>2019-03-28T10:14:21+0100</time>
      </trkpt>
      <trkpt lat="47.25808" lon="4.94106">
        <ele>498.37329101562</ele>
        <time>2019-03-28T10:14:24+0100</time>
      </trkpt>
      <trkpt lat="47.25808" lon="4.94106">
        <ele>498.39477539062</ele>
        <time>2019-03-28T10:14:27+0100</time>
      </trkpt>
      <trkpt lat="47.25808" lon="4.94106">
        <ele>498.41729736328</ele>
        <time>2019-03-28T10:14:30+0100</time>
      </trkpt>
      <trkpt lat="47.25808" lon="4.94106">
        <ele>498.44097900391</ele>
        <time>2019-03-28T10:14:33+0100</time>
      </trkpt>
      <trkpt lat="47.25808" lon="4.94106">
        <ele>498.46295166016</ele>
        <time>2019-03-28T10:14:36+0100</time>
      </trkpt>
      <trkpt lat="47.25808" lon="4.94106">
        <ele>498.48278808594</ele>
        <time>2019-03-28T10:14:39+0100</time>
      </trkpt>
      <trkpt lat="47.25808" lon="4.94106">
        <ele>498.50360107422</ele>
        <time>2019-03-28T10:14:42+0100</time>
      </trkpt>
      <trkpt lat="47.25809" lon="4.94106">
        <ele>498.52453613281</ele>
        <time>2019-03-28T10:14:45+0100</time>
      </trkpt>
      <trkpt lat="47.25809" lon="4.94106">
        <ele>498.54473876953</ele>
        <time>2019-03-28T10:14:48+0100</time>
      </trkpt>
      <trkpt lat="47.25809" lon="4.94106">
        <ele>498.56481933594</ele>
        <time>2019-03-28T10:14:51+0100</time>
      </trkpt>
      <trkpt lat="47.25809" lon="4.94106">
        <ele>498.58630371094</ele>
        <time>2019-03-28T10:14:54+0100</time>
      </trkpt>
      <trkpt lat="47.25809" lon="4.94106">
        <ele>498.60583496094</ele>
        <time>2019-03-28T10:14:57+0100</time>
      </trkpt>
      <trkpt lat="47.25809" lon="4.94106">
        <ele>498.62585449219</ele>
        <time>2019-03-28T10:15:00+0100</time>
      </trkpt>
      <trkpt lat="47.25809" lon="4.94106">
        <ele>498.65045166016</ele>
        <time>2019-03-28T10:15:03+0100</time>
      </trkpt>
      <trkpt lat="47.25809" lon="4.94106">
        <ele>498.67889404297</ele>
        <time>2019-03-28T10:15:06+0100</time>
      </trkpt>
      <trkpt lat="47.25809" lon="4.94106">
        <ele>498.71081542969</ele>
        <time>2019-03-28T10:15:09+0100</time>
      </trkpt>
      <trkpt lat="47.25809" lon="4.94106">
        <ele>498.74591064453</ele>
        <time>2019-03-28T10:15:12+0100</time>
      </trkpt>
      <trkpt lat="47.25809" lon="4.94106">
        <ele>498.77813720703</ele>
        <time>2019-03-28T10:15:15+0100</time>
      </trkpt>
      <trkpt lat="47.25809" lon="4.94106">
        <ele>498.81292724609</ele>
        <time>2019-03-28T10:15:18+0100</time>
      </trkpt>
      <trkpt lat="47.25809" lon="4.94106">
        <ele>498.85137939453</ele>
        <time>2019-03-28T10:15:21+0100</time>
      </trkpt>
      <trkpt lat="47.25809" lon="4.94106">
        <ele>498.88763427734</ele>
        <time>2019-03-28T10:15:24+0100</time>
      </trkpt>
      <trkpt lat="47.25809" lon="4.94106">
        <ele>498.92169189453</ele>
        <time>2019-03-28T10:15:27+0100</time>
      </trkpt>
      <trkpt lat="47.25809" lon="4.94106">
        <ele>498.95440673828</ele>
        <time>2019-03-28T10:15:30+0100</time>
      </trkpt>
      <trkpt lat="47.25809" lon="4.94106">
        <ele>498.98669433594</ele>
        <time>2019-03-28T10:15:33+0100</time>
      </trkpt>
      <trkpt lat="47.25809" lon="4.94106">
        <ele>499.01953125</ele>
        <time>2019-03-28T10:15:36+0100</time>
      </trkpt>
      <trkpt lat="47.25809" lon="4.94106">
        <ele>499.05407714844</ele>
        <time>2019-03-28T10:15:39+0100</time>
      </trkpt>
      <trkpt lat="47.25809" lon="4.94106">
        <ele>499.08990478516</ele>
        <time>2019-03-28T10:15:42+0100</time>
      </trkpt>
      <trkpt lat="47.25809" lon="4.94106">
        <ele>499.12609863281</ele>
        <time>2019-03-28T10:15:45+0100</time>
      </trkpt>
      <trkpt lat="47.2581" lon="4.94106">
        <ele>499.162109375</ele>
        <time>2019-03-28T10:15:48+0100</time>
      </trkpt>
      <trkpt lat="47.2581" lon="4.94106">
        <ele>499.1982421875</ele>
        <time>2019-03-28T10:15:51+0100</time>
      </trkpt>
      <trkpt lat="47.2581" lon="4.94106">
        <ele>499.23449707031</ele>
        <time>2019-03-28T10:15:54+0100</time>
      </trkpt>
      <trkpt lat="47.2581" lon="4.94106">
        <ele>499.27062988281</ele>
        <time>2019-03-28T10:15:57+0100</time>
      </trkpt>
      <trkpt lat="47.2581" lon="4.94106">
        <ele>499.30645751953</ele>
        <time>2019-03-28T10:16:00+0100</time>
      </trkpt>
      <trkpt lat="47.2581" lon="4.94106">
        <ele>499.34234619141</ele>
        <time>2019-03-28T10:16:03+0100</time>
      </trkpt>
      <trkpt lat="47.2581" lon="4.94106">
        <ele>499.37829589844</ele>
        <time>2019-03-28T10:16:06+0100</time>
      </trkpt>
      <trkpt lat="47.2581" lon="4.94106">
        <ele>499.41491699219</ele>
        <time>2019-03-28T10:16:09+0100</time>
      </trkpt>
      <trkpt lat="47.2581" lon="4.94106">
        <ele>499.45294189453</ele>
        <time>2019-03-28T10:16:12+0100</time>
      </trkpt>
      <trkpt lat="47.2581" lon="4.94106">
        <ele>499.49255371094</ele>
        <time>2019-03-28T10:16:15+0100</time>
      </trkpt>
      <trkpt lat="47.2581" lon="4.94106">
        <ele>499.53283691406</ele>
        <time>2019-03-28T10:16:18+0100</time>
      </trkpt>
      <trkpt lat="47.2581" lon="4.94106">
        <ele>499.57336425781</ele>
        <time>2019-03-28T10:16:21+0100</time>
      </trkpt>
      <trkpt lat="47.2581" lon="4.94106">
        <ele>499.61413574219</ele>
        <time>2019-03-28T10:16:24+0100</time>
      </trkpt>
      <trkpt lat="47.2581" lon="4.94106">
        <ele>499.65472412109</ele>
        <time>2019-03-28T10:16:27+0100</time>
      </trkpt>
      <trkpt lat="47.2581" lon="4.94106">
        <ele>499.69506835938</ele>
        <time>2019-03-28T10:16:30+0100</time>
      </trkpt>
      <trkpt lat="47.2581" lon="4.94106">
        <ele>499.73559570312</ele>
        <time>2019-03-28T10:16:33+0100</time>
      </trkpt>
      <trkpt lat="47.2581" lon="4.94106">
        <ele>499.77575683594</ele>
        <time>2019-03-28T10:16:36+0100</time>
      </trkpt>
      <trkpt lat="47.2581" lon="4.94106">
        <ele>499.81512451172</ele>
        <time>2019-03-28T10:16:39+0100</time>
      </trkpt>
      <trkpt lat="47.2581" lon="4.94106">
        <ele>499.85424804688</ele>
        <time>2019-03-28T10:16:42+0100</time>
      </trkpt>
      <trkpt lat="47.25811" lon="4.94106">
        <ele>499.89349365234</ele>
        <time>2019-03-28T10:16:45+0100</time>
      </trkpt>
      <trkpt lat="47.25811" lon="4.94106">
        <ele>499.93310546875</ele>
        <time>2019-03-28T10:16:48+0100</time>
      </trkpt>
      <trkpt lat="47.25811" lon="4.94106">
        <ele>499.97320556641</ele>
        <time>2019-03-28T10:16:51+0100</time>
      </trkpt>
      <trkpt lat="47.25811" lon="4.94106">
        <ele>500.01379394531</ele>
        <time>2019-03-28T10:16:54+0100</time>
      </trkpt>
      <trkpt lat="47.25811" lon="4.94106">
        <ele>500.05505371094</ele>
        <time>2019-03-28T10:16:57+0100</time>
      </trkpt>
      <trkpt lat="47.25811" lon="4.94106">
        <ele>500.09637451172</ele>
        <time>2019-03-28T10:17:00+0100</time>
      </trkpt>
      <trkpt lat="47.25811" lon="4.94106">
        <ele>500.13787841797</ele>
        <time>2019-03-28T10:17:03+0100</time>
      </trkpt>
      <trkpt lat="47.25811" lon="4.94106">
        <ele>500.17944335938</ele>
        <time>2019-03-28T10:17:06+0100</time>
      </trkpt>
      <trkpt lat="47.25811" lon="4.94106">
        <ele>500.22100830078</ele>
        <time>2019-03-28T10:17:09+0100</time>
      </trkpt>
      <trkpt lat="47.25811" lon="4.94106">
        <ele>500.26245117188</ele>
        <time>2019-03-28T10:17:12+0100</time>
      </trkpt>
      <trkpt lat="47.25811" lon="4.94106">
        <ele>500.30279541016</ele>
        <time>2019-03-28T10:17:15+0100</time>
      </trkpt>
      <trkpt lat="47.25811" lon="4.94106">
        <ele>500.34210205078</ele>
        <time>2019-03-28T10:17:17+0100</time>
      </trkpt>
      <trkpt lat="47.25811" lon="4.94106">
        <ele>500.38104248047</ele>
        <time>2019-03-28T10:17:20+0100</time>
      </trkpt>
      <trkpt lat="47.25811" lon="4.94106">
        <ele>500.42077636719</ele>
        <time>2019-03-28T10:17:23+0100</time>
      </trkpt>
      <trkpt lat="47.25811" lon="4.94106">
        <ele>500.46166992188</ele>
        <time>2019-03-28T10:17:26+0100</time>
      </trkpt>
      <trkpt lat="47.25811" lon="4.94106">
        <ele>500.50274658203</ele>
        <time>2019-03-28T10:17:29+0100</time>
      </trkpt>
      <trkpt lat="47.25811" lon="4.94106">
        <ele>500.54351806641</ele>
        <time>2019-03-28T10:17:32+0100</time>
      </trkpt>
      <trkpt lat="47.25811" lon="4.94106">
        <ele>500.58361816406</ele>
        <time>2019-03-28T10:17:35+0100</time>
      </trkpt>
      <trkpt lat="47.25811" lon="4.94107">
        <ele>500.62274169922</ele>
        <time>2019-03-28T10:17:38+0100</time>
      </trkpt>
      <trkpt lat="47.25811" lon="4.94106">
        <ele>500.66101074219</ele>
        <time>2019-03-28T10:17:41+0100</time>
      </trkpt>
      <trkpt lat="47.25811" lon="4.94106">
        <ele>500.69799804688</ele>
        <time>2019-03-28T10:17:44+0100</time>
      </trkpt>
      <trkpt lat="47.25811" lon="4.94106">
        <ele>500.73291015625</ele>
        <time>2019-03-28T10:17:47+0100</time>
      </trkpt>
      <trkpt lat="47.25811" lon="4.94106">
        <ele>500.76617431641</ele>
        <time>2019-03-28T10:17:50+0100</time>
      </trkpt>
      <trkpt lat="47.25812" lon="4.94106">
        <ele>500.79791259766</ele>
        <time>2019-03-28T10:17:53+0100</time>
      </trkpt>
      <trkpt lat="47.25812" lon="4.94106">
        <ele>500.82867431641</ele>
        <time>2019-03-28T10:17:56+0100</time>
      </trkpt>
      <trkpt lat="47.25812" lon="4.94106">
        <ele>500.85949707031</ele>
        <time>2019-03-28T10:17:59+0100</time>
      </trkpt>
      <trkpt lat="47.25812" lon="4.94106">
        <ele>500.89056396484</ele>
        <time>2019-03-28T10:18:02+0100</time>
      </trkpt>
      <trkpt lat="47.25812" lon="4.94106">
        <ele>500.92059326172</ele>
        <time>2019-03-28T10:18:05+0100</time>
      </trkpt>
      <trkpt lat="47.25812" lon="4.94106">
        <ele>500.93548583984</ele>
        <time>2019-03-28T10:18:08+0100</time>
      </trkpt>
      <trkpt lat="47.25812" lon="4.94106">
        <ele>500.93914794922</ele>
        <time>2019-03-28T10:18:11+0100</time>
      </trkpt>
      <trkpt lat="47.25812" lon="4.94106">
        <ele>500.94079589844</ele>
        <time>2019-03-28T10:18:14+0100</time>
      </trkpt>
      <trkpt lat="47.25812" lon="4.94106">
        <ele>500.94421386719</ele>
        <time>2019-03-28T10:18:17+0100</time>
      </trkpt>
      <trkpt lat="47.25812" lon="4.94105">
        <ele>500.93975830078</ele>
        <time>2019-03-28T10:18:20+0100</time>
      </trkpt>
      <trkpt lat="47.25812" lon="4.94105">
        <ele>500.93371582031</ele>
        <time>2019-03-28T10:18:23+0100</time>
      </trkpt>
      <trkpt lat="47.25812" lon="4.94105">
        <ele>500.93688964844</ele>
        <time>2019-03-28T10:18:26+0100</time>
      </trkpt>
      <trkpt lat="47.25812" lon="4.94105">
        <ele>500.94689941406</ele>
        <time>2019-03-28T10:18:29+0100</time>
      </trkpt>
      <trkpt lat="47.25812" lon="4.94105">
        <ele>500.96228027344</ele>
        <time>2019-03-28T10:18:32+0100</time>
      </trkpt>
      <trkpt lat="47.25812" lon="4.94106">
        <ele>500.98468017578</ele>
        <time>2019-03-28T10:18:35+0100</time>
      </trkpt>
      <trkpt lat="47.25812" lon="4.94106">
        <ele>501.01361083984</ele>
        <time>2019-03-28T10:18:38+0100</time>
      </trkpt>
      <trkpt lat="47.25812" lon="4.94106">
        <ele>501.04693603516</ele>
        <time>2019-03-28T10:18:41+0100</time>
      </trkpt>
      <trkpt lat="47.25812" lon="4.94106">
        <ele>501.08685302734</ele>
        <time>2019-03-28T10:18:44+0100</time>
      </trkpt>
      <trkpt lat="47.25812" lon="4.94107">
        <ele>501.13104248047</ele>
        <time>2019-03-28T10:18:47+0100</time>
      </trkpt>
      <trkpt lat="47.25812" lon="4.94107">
        <ele>501.17877197266</ele>
        <time>2019-03-28T10:18:50+0100</time>
      </trkpt>
      <trkpt lat="47.25812" lon="4.94107">
        <ele>501.22155761719</ele>
        <time>2019-03-28T10:18:53+0100</time>
      </trkpt>
      <trkpt lat="47.25813" lon="4.94108">
        <ele>501.26098632812</ele>
        <time>2019-03-28T10:18:56+0100</time>
      </trkpt>
      <trkpt lat="47.25813" lon="4.94108">
        <ele>501.29187011719</ele>
        <time>2019-03-28T10:18:59+0100</time>
      </trkpt>
      <trkpt lat="47.25813" lon="4.94108">
        <ele>501.32983398438</ele>
        <time>2019-03-28T10:19:02+0100</time>
      </trkpt>
      <trkpt lat="47.25813" lon="4.94108">
        <ele>501.36999511719</ele>
        <time>2019-03-28T10:19:05+0100</time>
      </trkpt>
      <trkpt lat="47.25813" lon="4.94108">
        <ele>501.40594482422</ele>
        <time>2019-03-28T10:19:08+0100</time>
      </trkpt>
      <trkpt lat="47.25813" lon="4.94108">
        <ele>501.44921875</ele>
        <time>2019-03-28T10:19:11+0100</time>
      </trkpt>
      <trkpt lat="47.25813" lon="4.94109">
        <ele>501.49108886719</ele>
        <time>2019-03-28T10:19:14+0100</time>
      </trkpt>
      <trkpt lat="47.25813" lon="4.94109">
        <ele>501.52587890625</ele>
        <time>2019-03-28T10:19:17+0100</time>
      </trkpt>
      <trkpt lat="47.25813" lon="4.94109">
        <ele>501.55651855469</ele>
        <time>2019-03-28T10:19:20+0100</time>
      </trkpt>
      <trkpt lat="47.25813" lon="4.94109">
        <ele>501.58520507812</ele>
        <time>2019-03-28T10:19:23+0100</time>
      </trkpt>
      <trkpt lat="47.25813" lon="4.94109">
        <ele>501.61334228516</ele>
        <time>2019-03-28T10:19:26+0100</time>
      </trkpt>
      <trkpt lat="47.25813" lon="4.94108">
        <ele>501.70355224609</ele>
        <time>2019-03-28T10:19:29+0100</time>
      </trkpt>
      <trkpt lat="47.25813" lon="4.94108">
        <ele>501.85375976562</ele>
        <time>2019-03-28T10:19:32+0100</time>
      </trkpt>
      <trkpt lat="47.25811" lon="4.94104">
        <ele>501.96423339844</ele>
        <time>2019-03-28T10:19:35+0100</time>
      </trkpt>
      <trkpt lat="47.25809" lon="4.94102">
        <ele>501.97283935547</ele>
        <time>2019-03-28T10:19:38+0100</time>
      </trkpt>
      <trkpt lat="47.25809" lon="4.94102">
        <ele>501.9833984375</ele>
        <time>2019-03-28T10:19:41+0100</time>
      </trkpt>
      <trkpt lat="47.25807" lon="4.94104">
        <ele>502.00183105469</ele>
        <time>2019-03-28T10:19:44+0100</time>
      </trkpt>
      <trkpt lat="47.25807" lon="4.94103">
        <ele>502.01531982422</ele>
        <time>2019-03-28T10:19:47+0100</time>
      </trkpt>
      <trkpt lat="47.25807" lon="4.94102">
        <ele>502.03234863281</ele>
        <time>2019-03-28T10:19:50+0100</time>
      </trkpt>
      <trkpt lat="47.25806" lon="4.94102">
        <ele>502.09326171875</ele>
        <time>2019-03-28T10:19:53+0100</time>
      </trkpt>
      <trkpt lat="47.25806" lon="4.94102">
        <ele>502.18896484375</ele>
        <time>2019-03-28T10:19:56+0100</time>
      </trkpt>
      <trkpt lat="47.25806" lon="4.94102">
        <ele>502.26873779297</ele>
        <time>2019-03-28T10:19:59+0100</time>
      </trkpt>
      <trkpt lat="47.25806" lon="4.94102">
        <ele>502.31494140625</ele>
        <time>2019-03-28T10:20:02+0100</time>
      </trkpt>
      <trkpt lat="47.25806" lon="4.94103">
        <ele>502.32073974609</ele>
        <time>2019-03-28T10:20:05+0100</time>
      </trkpt>
      <trkpt lat="47.25805" lon="4.94102">
        <ele>502.33154296875</ele>
        <time>2019-03-28T10:20:08+0100</time>
      </trkpt>
      <trkpt lat="47.25804" lon="4.94102">
        <ele>502.36029052734</ele>
        <time>2019-03-28T10:20:11+0100</time>
      </trkpt>
      <trkpt lat="47.25803" lon="4.94101">
        <ele>502.39764404297</ele>
        <time>2019-03-28T10:20:14+0100</time>
      </trkpt>
      <trkpt lat="47.25802" lon="4.941">
        <ele>502.43310546875</ele>
        <time>2019-03-28T10:20:17+0100</time>
      </trkpt>
      <trkpt lat="47.25802" lon="4.941">
        <ele>502.47204589844</ele>
        <time>2019-03-28T10:20:20+0100</time>
      </trkpt>
      <trkpt lat="47.25802" lon="4.94099">
        <ele>502.51745605469</ele>
        <time>2019-03-28T10:20:23+0100</time>
      </trkpt>
      <trkpt lat="47.25801" lon="4.94099">
        <ele>502.52069091797</ele>
        <time>2019-03-28T10:20:26+0100</time>
      </trkpt>
      <trkpt lat="47.25801" lon="4.94098">
        <ele>502.49481201172</ele>
        <time>2019-03-28T10:20:29+0100</time>
      </trkpt>
      <trkpt lat="47.258" lon="4.94097">
        <ele>502.44738769531</ele>
        <time>2019-03-28T10:20:32+0100</time>
      </trkpt>
      <trkpt lat="47.25799" lon="4.94096">
        <ele>502.39709472656</ele>
        <time>2019-03-28T10:20:35+0100</time>
      </trkpt>
      <trkpt lat="47.25799" lon="4.94096">
        <ele>502.35491943359</ele>
        <time>2019-03-28T10:20:38+0100</time>
      </trkpt>
      <trkpt lat="47.25799" lon="4.94096">
        <ele>502.32037353516</ele>
        <time>2019-03-28T10:20:41+0100</time>
      </trkpt>
      <trkpt lat="47.25799" lon="4.94096">
        <ele>502.29016113281</ele>
        <time>2019-03-28T10:20:44+0100</time>
      </trkpt>
      <trkpt lat="47.25799" lon="4.94096">
        <ele>502.26110839844</ele>
        <time>2019-03-28T10:20:47+0100</time>
      </trkpt>
      <trkpt lat="47.25799" lon="4.94096">
        <ele>502.23266601562</ele>
        <time>2019-03-28T10:20:50+0100</time>
      </trkpt>
      <trkpt lat="47.25799" lon="4.94096">
        <ele>502.20599365234</ele>
        <time>2019-03-28T10:20:53+0100</time>
      </trkpt>
      <trkpt lat="47.25798" lon="4.94096">
        <ele>502.18035888672</ele>
        <time>2019-03-28T10:20:56+0100</time>
      </trkpt>
      <trkpt lat="47.25798" lon="4.94096">
        <ele>502.15777587891</ele>
        <time>2019-03-28T10:20:59+0100</time>
      </trkpt>
      <trkpt lat="47.25798" lon="4.94096">
        <ele>502.13854980469</ele>
        <time>2019-03-28T10:21:02+0100</time>
      </trkpt>
      <trkpt lat="47.25798" lon="4.94096">
        <ele>502.11920166016</ele>
        <time>2019-03-28T10:21:05+0100</time>
      </trkpt>
      <trkpt lat="47.25798" lon="4.94098">
        <ele>502.10522460938</ele>
        <time>2019-03-28T10:21:08+0100</time>
      </trkpt>
      <trkpt lat="47.25798" lon="4.94099">
        <ele>502.09741210938</ele>
        <time>2019-03-28T10:21:11+0100</time>
      </trkpt>
      <trkpt lat="47.25798" lon="4.94099">
        <ele>502.09020996094</ele>
        <time>2019-03-28T10:21:14+0100</time>
      </trkpt>
      <trkpt lat="47.25798" lon="4.94098">
        <ele>502.08239746094</ele>
        <time>2019-03-28T10:21:17+0100</time>
      </trkpt>
      <trkpt lat="47.25798" lon="4.94096">
        <ele>502.16253662109</ele>
        <time>2019-03-28T10:21:20+0100</time>
      </trkpt>
      <trkpt lat="47.25798" lon="4.94095">
        <ele>502.17761230469</ele>
        <time>2019-03-28T10:21:23+0100</time>
      </trkpt>
      <trkpt lat="47.25798" lon="4.94095">
        <ele>502.18768310547</ele>
        <time>2019-03-28T10:21:26+0100</time>
      </trkpt>
      <trkpt lat="47.25798" lon="4.94096">
        <ele>502.18896484375</ele>
        <time>2019-03-28T10:21:29+0100</time>
      </trkpt>
      <trkpt lat="47.25798" lon="4.94096">
        <ele>502.18737792969</ele>
        <time>2019-03-28T10:21:32+0100</time>
      </trkpt>
      <trkpt lat="47.25798" lon="4.94096">
        <ele>502.18927001953</ele>
        <time>2019-03-28T10:21:35+0100</time>
      </trkpt>
      <trkpt lat="47.25798" lon="4.94096">
        <ele>502.19836425781</ele>
        <time>2019-03-28T10:21:38+0100</time>
      </trkpt>
      <trkpt lat="47.25798" lon="4.94096">
        <ele>502.21276855469</ele>
        <time>2019-03-28T10:21:41+0100</time>
      </trkpt>
      <trkpt lat="47.25798" lon="4.94096">
        <ele>502.22973632812</ele>
        <time>2019-03-28T10:21:44+0100</time>
      </trkpt>
      <trkpt lat="47.25798" lon="4.94096">
        <ele>502.24725341797</ele>
        <time>2019-03-28T10:21:47+0100</time>
      </trkpt>
      <trkpt lat="47.25798" lon="4.94096">
        <ele>502.26507568359</ele>
        <time>2019-03-28T10:21:50+0100</time>
      </trkpt>
      <trkpt lat="47.25798" lon="4.94095">
        <ele>502.27801513672</ele>
        <time>2019-03-28T10:21:53+0100</time>
      </trkpt>
      <trkpt lat="47.25798" lon="4.94095">
        <ele>502.28399658203</ele>
        <time>2019-03-28T10:21:56+0100</time>
      </trkpt>
      <trkpt lat="47.25797" lon="4.94095">
        <ele>502.28607177734</ele>
        <time>2019-03-28T10:21:59+0100</time>
      </trkpt>
      <trkpt lat="47.25797" lon="4.94095">
        <ele>502.28399658203</ele>
        <time>2019-03-28T10:22:02+0100</time>
      </trkpt>
      <trkpt lat="47.25798" lon="4.94095">
        <ele>502.30065917969</ele>
        <time>2019-03-28T10:22:05+0100</time>
      </trkpt>
      <trkpt lat="47.25797" lon="4.94095">
        <ele>502.30718994141</ele>
        <time>2019-03-28T10:22:08+0100</time>
      </trkpt>
      <trkpt lat="47.25797" lon="4.94095">
        <ele>502.31768798828</ele>
        <time>2019-03-28T10:22:11+0100</time>
      </trkpt>
      <trkpt lat="47.25797" lon="4.94098">
        <ele>502.38989257812</ele>
        <time>2019-03-28T10:22:14+0100</time>
      </trkpt>
      <trkpt lat="47.25798" lon="4.94101">
        <ele>502.41320800781</ele>
        <time>2019-03-28T10:22:17+0100</time>
      </trkpt>
      <trkpt lat="47.25798" lon="4.94102">
        <ele>502.65997314453</ele>
        <time>2019-03-28T10:22:20+0100</time>
      </trkpt>
      <trkpt lat="47.25798" lon="4.941">
        <ele>503.02191162109</ele>
        <time>2019-03-28T10:22:23+0100</time>
      </trkpt>
      <trkpt lat="47.25799" lon="4.941">
        <ele>503.36022949219</ele>
        <time>2019-03-28T10:22:26+0100</time>
      </trkpt>
      <trkpt lat="47.25799" lon="4.94099">
        <ele>503.69128417969</ele>
        <time>2019-03-28T10:22:29+0100</time>
      </trkpt>
      <trkpt lat="47.25799" lon="4.94097">
        <ele>503.97351074219</ele>
        <time>2019-03-28T10:22:32+0100</time>
      </trkpt>
      <trkpt lat="47.25799" lon="4.94096">
        <ele>504.23413085938</ele>
        <time>2019-03-28T10:22:35+0100</time>
      </trkpt>
      <trkpt lat="47.25799" lon="4.94094">
        <ele>504.47137451172</ele>
        <time>2019-03-28T10:22:38+0100</time>
      </trkpt>
      <trkpt lat="47.25799" lon="4.94092">
        <ele>504.67700195312</ele>
        <time>2019-03-28T10:22:41+0100</time>
      </trkpt>
      <trkpt lat="47.25799" lon="4.9409">
        <ele>504.87469482422</ele>
        <time>2019-03-28T10:22:44+0100</time>
      </trkpt>
      <trkpt lat="47.25798" lon="4.94088">
        <ele>505.07849121094</ele>
        <time>2019-03-28T10:22:47+0100</time>
      </trkpt>
      <trkpt lat="47.25798" lon="4.94087">
        <ele>505.17346191406</ele>
        <time>2019-03-28T10:22:50+0100</time>
      </trkpt>
      <trkpt lat="47.25798" lon="4.94086">
        <ele>505.34722900391</ele>
        <time>2019-03-28T10:22:53+0100</time>
      </trkpt>
      <trkpt lat="47.25797" lon="4.94082">
        <ele>505.50964355469</ele>
        <time>2019-03-28T10:22:56+0100</time>
      </trkpt>
      <trkpt lat="47.25796" lon="4.94079">
        <ele>505.74334716797</ele>
        <time>2019-03-28T10:22:59+0100</time>
      </trkpt>
      <trkpt lat="47.25795" lon="4.94076">
        <ele>506.00402832031</ele>
        <time>2019-03-28T10:23:02+0100</time>
      </trkpt>
      <trkpt lat="47.25794" lon="4.94073">
        <ele>506.19287109375</ele>
        <time>2019-03-28T10:23:05+0100</time>
      </trkpt>
      <trkpt lat="47.25794" lon="4.94072">
        <ele>506.22094726562</ele>
        <time>2019-03-28T10:23:08+0100</time>
      </trkpt>
      <trkpt lat="47.25793" lon="4.94071">
        <ele>506.24932861328</ele>
        <time>2019-03-28T10:23:11+0100</time>
      </trkpt>
      <trkpt lat="47.25793" lon="4.94069">
        <ele>506.37585449219</ele>
        <time>2019-03-28T10:23:14+0100</time>
      </trkpt>
      <trkpt lat="47.25791" lon="4.94065">
        <ele>506.73620605469</ele>
        <time>2019-03-28T10:23:17+0100</time>
      </trkpt>
      <trkpt lat="47.25789" lon="4.94061">
        <ele>507.11791992188</ele>
        <time>2019-03-28T10:23:20+0100</time>
      </trkpt>
      <trkpt lat="47.25787" lon="4.94057">
        <ele>507.45983886719</ele>
        <time>2019-03-28T10:23:23+0100</time>
      </trkpt>
      <trkpt lat="47.25785" lon="4.94054">
        <ele>507.79632568359</ele>
        <time>2019-03-28T10:23:26+0100</time>
      </trkpt>
      <trkpt lat="47.25784" lon="4.94052">
        <ele>508.04327392578</ele>
        <time>2019-03-28T10:23:29+0100</time>
      </trkpt>
      <trkpt lat="47.25782" lon="4.9405">
        <ele>508.19464111328</ele>
        <time>2019-03-28T10:23:32+0100</time>
      </trkpt>
      <trkpt lat="47.25781" lon="4.94048">
        <ele>508.455078125</ele>
        <time>2019-03-28T10:23:35+0100</time>
      </trkpt>
      <trkpt lat="47.25779" lon="4.94046">
        <ele>508.81903076172</ele>
        <time>2019-03-28T10:23:38+0100</time>
      </trkpt>
      <trkpt lat="47.25777" lon="4.94044">
        <ele>509.08050537109</ele>
        <time>2019-03-28T10:23:41+0100</time>
      </trkpt>
      <trkpt lat="47.25776" lon="4.94042">
        <ele>509.36602783203</ele>
        <time>2019-03-28T10:23:44+0100</time>
      </trkpt>
      <trkpt lat="47.25773" lon="4.94038">
        <ele>509.80352783203</ele>
        <time>2019-03-28T10:23:47+0100</time>
      </trkpt>
      <trkpt lat="47.25771" lon="4.94034">
        <ele>510.24353027344</ele>
        <time>2019-03-28T10:23:50+0100</time>
      </trkpt>
      <trkpt lat="47.25768" lon="4.94029">
        <ele>510.53649902344</ele>
        <time>2019-03-28T10:23:53+0100</time>
      </trkpt>
      <trkpt lat="47.25765" lon="4.94025">
        <ele>510.88751220703</ele>
        <time>2019-03-28T10:23:56+0100</time>
      </trkpt>
      <trkpt lat="47.25763" lon="4.94025">
        <ele>511.21795654297</ele>
        <time>2019-03-28T10:23:59+0100</time>
      </trkpt>
      <trkpt lat="47.25761" lon="4.94023">
        <ele>511.47412109375</ele>
        <time>2019-03-28T10:24:02+0100</time>
      </trkpt>
      <trkpt lat="47.25759" lon="4.94021">
        <ele>511.57879638672</ele>
        <time>2019-03-28T10:24:05+0100</time>
      </trkpt>
      <trkpt lat="47.25758" lon="4.94021">
        <ele>511.60382080078</ele>
        <time>2019-03-28T10:24:08+0100</time>
      </trkpt>
      <trkpt lat="47.25755" lon="4.94018">
        <ele>511.85711669922</ele>
        <time>2019-03-28T10:24:11+0100</time>
      </trkpt>
      <trkpt lat="47.25752" lon="4.94016">
        <ele>512.13488769531</ele>
        <time>2019-03-28T10:24:14+0100</time>
      </trkpt>
      <trkpt lat="47.25749" lon="4.94014">
        <ele>512.43176269531</ele>
        <time>2019-03-28T10:24:17+0100</time>
      </trkpt>
      <trkpt lat="47.25746" lon="4.94012">
        <ele>512.75506591797</ele>
        <time>2019-03-28T10:24:20+0100</time>
      </trkpt>
      <trkpt lat="47.25745" lon="4.9401">
        <ele>512.89166259766</ele>
        <time>2019-03-28T10:24:23+0100</time>
      </trkpt>
      <trkpt lat="47.25741" lon="4.94006">
        <ele>513.13232421875</ele>
        <time>2019-03-28T10:24:26+0100</time>
      </trkpt>
      <trkpt lat="47.25738" lon="4.94006">
        <ele>513.27264404297</ele>
        <time>2019-03-28T10:24:29+0100</time>
      </trkpt>
      <trkpt lat="47.25736" lon="4.94005">
        <ele>513.54040527344</ele>
        <time>2019-03-28T10:24:32+0100</time>
      </trkpt>
      <trkpt lat="47.25733" lon="4.94004">
        <ele>513.89593505859</ele>
        <time>2019-03-28T10:24:35+0100</time>
      </trkpt>
      <trkpt lat="47.25731" lon="4.94002">
        <ele>514.14385986328</ele>
        <time>2019-03-28T10:24:38+0100</time>
      </trkpt>
      <trkpt lat="47.25726" lon="4.93999">
        <ele>514.47235107422</ele>
        <time>2019-03-28T10:24:41+0100</time>
      </trkpt>
      <trkpt lat="47.25723" lon="4.93997">
        <ele>514.77502441406</ele>
        <time>2019-03-28T10:24:44+0100</time>
      </trkpt>
      <trkpt lat="47.25722" lon="4.93996">
        <ele>514.88146972656</ele>
        <time>2019-03-28T10:24:47+0100</time>
      </trkpt>
      <trkpt lat="47.25717" lon="4.93991">
        <ele>515.08264160156</ele>
        <time>2019-03-28T10:24:50+0100</time>
      </trkpt>
      <trkpt lat="47.25713" lon="4.93989">
        <ele>515.22222900391</ele>
        <time>2019-03-28T10:24:53+0100</time>
      </trkpt>
      <trkpt lat="47.25709" lon="4.93988">
        <ele>515.32147216797</ele>
        <time>2019-03-28T10:24:56+0100</time>
      </trkpt>
      <trkpt lat="47.25707" lon="4.93988">
        <ele>515.34680175781</ele>
        <time>2019-03-28T10:24:59+0100</time>
      </trkpt>
      <trkpt lat="47.25705" lon="4.93986">
        <ele>515.34265136719</ele>
        <time>2019-03-28T10:25:02+0100</time>
      </trkpt>
      <trkpt lat="47.25703" lon="4.93985">
        <ele>515.36517333984</ele>
        <time>2019-03-28T10:25:05+0100</time>
      </trkpt>
      <trkpt lat="47.25701" lon="4.93983">
        <ele>515.43377685547</ele>
        <time>2019-03-28T10:25:08+0100</time>
      </trkpt>
      <trkpt lat="47.25698" lon="4.93981">
        <ele>515.56140136719</ele>
        <time>2019-03-28T10:25:11+0100</time>
      </trkpt>
      <trkpt lat="47.25695" lon="4.93979">
        <ele>515.73675537109</ele>
        <time>2019-03-28T10:25:14+0100</time>
      </trkpt>
      <trkpt lat="47.25693" lon="4.93977">
        <ele>515.90002441406</ele>
        <time>2019-03-28T10:25:17+0100</time>
      </trkpt>
      <trkpt lat="47.25688" lon="4.93972">
        <ele>516.150390625</ele>
        <time>2019-03-28T10:25:20+0100</time>
      </trkpt>
      <trkpt lat="47.25684" lon="4.93966">
        <ele>516.34387207031</ele>
        <time>2019-03-28T10:25:23+0100</time>
      </trkpt>
      <trkpt lat="47.25681" lon="4.93962">
        <ele>516.46728515625</ele>
        <time>2019-03-28T10:25:26+0100</time>
      </trkpt>
      <trkpt lat="47.25678" lon="4.9396">
        <ele>516.55413818359</ele>
        <time>2019-03-28T10:25:29+0100</time>
      </trkpt>
      <trkpt lat="47.25675" lon="4.93956">
        <ele>516.59143066406</ele>
        <time>2019-03-28T10:25:32+0100</time>
      </trkpt>
      <trkpt lat="47.25671" lon="4.93952">
        <ele>516.55712890625</ele>
        <time>2019-03-28T10:25:35+0100</time>
      </trkpt>
      <trkpt lat="47.25669" lon="4.9395">
        <ele>516.47113037109</ele>
        <time>2019-03-28T10:25:38+0100</time>
      </trkpt>
      <trkpt lat="47.25667" lon="4.93948">
        <ele>516.36224365234</ele>
        <time>2019-03-28T10:25:41+0100</time>
      </trkpt>
      <trkpt lat="47.25665" lon="4.93946">
        <ele>516.25915527344</ele>
        <time>2019-03-28T10:25:44+0100</time>
      </trkpt>
      <trkpt lat="47.25663" lon="4.93944">
        <ele>516.1748046875</ele>
        <time>2019-03-28T10:25:47+0100</time>
      </trkpt>
      <trkpt lat="47.25662" lon="4.93943">
        <ele>516.1171875</ele>
        <time>2019-03-28T10:25:50+0100</time>
      </trkpt>
      <trkpt lat="47.25661" lon="4.93942">
        <ele>516.07562255859</ele>
        <time>2019-03-28T10:25:53+0100</time>
      </trkpt>
      <trkpt lat="47.2566" lon="4.93941">
        <ele>516.08111572266</ele>
        <time>2019-03-28T10:25:56+0100</time>
      </trkpt>
      <trkpt lat="47.25658" lon="4.93938">
        <ele>516.23840332031</ele>
        <time>2019-03-28T10:25:59+0100</time>
      </trkpt>
      <trkpt lat="47.25656" lon="4.93933">
        <ele>516.26904296875</ele>
        <time>2019-03-28T10:26:02+0100</time>
      </trkpt>
      <trkpt lat="47.25654" lon="4.93931">
        <ele>516.22387695312</ele>
        <time>2019-03-28T10:26:05+0100</time>
      </trkpt>
      <trkpt lat="47.25652" lon="4.93928">
        <ele>516.13568115234</ele>
        <time>2019-03-28T10:26:08+0100</time>
      </trkpt>
      <trkpt lat="47.25651" lon="4.93926">
        <ele>515.94964599609</ele>
        <time>2019-03-28T10:26:11+0100</time>
      </trkpt>
      <trkpt lat="47.25648" lon="4.93922">
        <ele>515.75067138672</ele>
        <time>2019-03-28T10:26:14+0100</time>
      </trkpt>
      <trkpt lat="47.25648" lon="4.9392">
        <ele>515.56341552734</ele>
        <time>2019-03-28T10:26:17+0100</time>
      </trkpt>
      <trkpt lat="47.25646" lon="4.93918">
        <ele>515.46734619141</ele>
        <time>2019-03-28T10:26:20+0100</time>
      </trkpt>
      <trkpt lat="47.25643" lon="4.93917">
        <ele>515.52166748047</ele>
        <time>2019-03-28T10:26:23+0100</time>
      </trkpt>
      <trkpt lat="47.2564" lon="4.93916">
        <ele>515.65441894531</ele>
        <time>2019-03-28T10:26:26+0100</time>
      </trkpt>
      <trkpt lat="47.25639" lon="4.9391">
        <ele>515.73834228516</ele>
        <time>2019-03-28T10:26:29+0100</time>
      </trkpt>
      <trkpt lat="47.2564" lon="4.9391">
        <ele>515.94396972656</ele>
        <time>2019-03-28T10:26:32+0100</time>
      </trkpt>
      <trkpt lat="47.25638" lon="4.93906">
        <ele>516.24719238281</ele>
        <time>2019-03-28T10:26:35+0100</time>
      </trkpt>
      <trkpt lat="47.25634" lon="4.93901">
        <ele>516.43035888672</ele>
        <time>2019-03-28T10:26:38+0100</time>
      </trkpt>
      <trkpt lat="47.2563" lon="4.93899">
        <ele>516.46453857422</ele>
        <time>2019-03-28T10:26:41+0100</time>
      </trkpt>
      <trkpt lat="47.25627" lon="4.93894">
        <ele>516.44763183594</ele>
        <time>2019-03-28T10:26:44+0100</time>
      </trkpt>
      <trkpt lat="47.25626" lon="4.93894">
        <ele>516.48126220703</ele>
        <time>2019-03-28T10:26:47+0100</time>
      </trkpt>
      <trkpt lat="47.25622" lon="4.93893">
        <ele>516.65399169922</ele>
        <time>2019-03-28T10:26:50+0100</time>
      </trkpt>
      <trkpt lat="47.25614" lon="4.93891">
        <ele>516.72058105469</ele>
        <time>2019-03-28T10:26:53+0100</time>
      </trkpt>
      <trkpt lat="47.25613" lon="4.9389">
        <ele>516.78619384766</ele>
        <time>2019-03-28T10:26:56+0100</time>
      </trkpt>
      <trkpt lat="47.25615" lon="4.93887">
        <ele>517.04766845703</ele>
        <time>2019-03-28T10:26:59+0100</time>
      </trkpt>
      <trkpt lat="47.25615" lon="4.93885">
        <ele>517.19470214844</ele>
        <time>2019-03-28T10:27:02+0100</time>
      </trkpt>
      <trkpt lat="47.25613" lon="4.93881">
        <ele>517.46984863281</ele>
        <time>2019-03-28T10:27:05+0100</time>
      </trkpt>
      <trkpt lat="47.2561" lon="4.93875">
        <ele>517.83172607422</ele>
        <time>2019-03-28T10:27:08+0100</time>
      </trkpt>
      <trkpt lat="47.25608" lon="4.93871">
        <ele>518.20220947266</ele>
        <time>2019-03-28T10:27:11+0100</time>
      </trkpt>
      <trkpt lat="47.25605" lon="4.93869">
        <ele>518.49926757812</ele>
        <time>2019-03-28T10:27:14+0100</time>
      </trkpt>
      <trkpt lat="47.25602" lon="4.93867">
        <ele>518.76623535156</ele>
        <time>2019-03-28T10:27:17+0100</time>
      </trkpt>
      <trkpt lat="47.25601" lon="4.93865">
        <ele>518.92175292969</ele>
        <time>2019-03-28T10:27:20+0100</time>
      </trkpt>
      <trkpt lat="47.256" lon="4.93863">
        <ele>519.13482666016</ele>
        <time>2019-03-28T10:27:23+0100</time>
      </trkpt>
      <trkpt lat="47.25598" lon="4.93857">
        <ele>519.15875244141</ele>
        <time>2019-03-28T10:27:26+0100</time>
      </trkpt>
      <trkpt lat="47.25596" lon="4.93855">
        <ele>519.07006835938</ele>
        <time>2019-03-28T10:27:29+0100</time>
      </trkpt>
      <trkpt lat="47.25594" lon="4.93856">
        <ele>519.12548828125</ele>
        <time>2019-03-28T10:27:32+0100</time>
      </trkpt>
      <trkpt lat="47.2559" lon="4.93853">
        <ele>519.14416503906</ele>
        <time>2019-03-28T10:27:35+0100</time>
      </trkpt>
      <trkpt lat="47.25585" lon="4.93849">
        <ele>519.04364013672</ele>
        <time>2019-03-28T10:27:38+0100</time>
      </trkpt>
      <trkpt lat="47.25584" lon="4.93847">
        <ele>518.93963623047</ele>
        <time>2019-03-28T10:27:41+0100</time>
      </trkpt>
      <trkpt lat="47.25581" lon="4.93846">
        <ele>518.80578613281</ele>
        <time>2019-03-28T10:27:44+0100</time>
      </trkpt>
      <trkpt lat="47.25578" lon="4.93843">
        <ele>518.64349365234</ele>
        <time>2019-03-28T10:27:47+0100</time>
      </trkpt>
      <trkpt lat="47.25576" lon="4.93841">
        <ele>518.47290039062</ele>
        <time>2019-03-28T10:27:50+0100</time>
      </trkpt>
      <trkpt lat="47.25574" lon="4.93839">
        <ele>518.29180908203</ele>
        <time>2019-03-28T10:27:53+0100</time>
      </trkpt>
      <trkpt lat="47.25571" lon="4.93836">
        <ele>518.14819335938</ele>
        <time>2019-03-28T10:27:56+0100</time>
      </trkpt>
      <trkpt lat="47.25568" lon="4.93835">
        <ele>517.99932861328</ele>
        <time>2019-03-28T10:27:59+0100</time>
      </trkpt>
      <trkpt lat="47.25566" lon="4.93833">
        <ele>517.82019042969</ele>
        <time>2019-03-28T10:28:02+0100</time>
      </trkpt>
      <trkpt lat="47.25564" lon="4.93831">
        <ele>517.61791992188</ele>
        <time>2019-03-28T10:28:05+0100</time>
      </trkpt>
      <trkpt lat="47.25563" lon="4.93828">
        <ele>517.57183837891</ele>
        <time>2019-03-28T10:28:08+0100</time>
      </trkpt>
      <trkpt lat="47.25562" lon="4.93825">
        <ele>517.72143554688</ele>
        <time>2019-03-28T10:28:11+0100</time>
      </trkpt>
      <trkpt lat="47.25561" lon="4.93819">
        <ele>518.12811279297</ele>
        <time>2019-03-28T10:28:14+0100</time>
      </trkpt>
      <trkpt lat="47.25561" lon="4.93816">
        <ele>518.61175537109</ele>
        <time>2019-03-28T10:28:17+0100</time>
      </trkpt>
      <trkpt lat="47.25559" lon="4.9381">
        <ele>519.10028076172</ele>
        <time>2019-03-28T10:28:20+0100</time>
      </trkpt>
      <trkpt lat="47.25558" lon="4.93809">
        <ele>519.57458496094</ele>
        <time>2019-03-28T10:28:23+0100</time>
      </trkpt>
      <trkpt lat="47.25556" lon="4.93805">
        <ele>520.16809082031</ele>
        <time>2019-03-28T10:28:26+0100</time>
      </trkpt>
      <trkpt lat="47.25554" lon="4.93804">
        <ele>520.572265625</ele>
        <time>2019-03-28T10:28:29+0100</time>
      </trkpt>
      <trkpt lat="47.25548" lon="4.93801">
        <ele>520.7373046875</ele>
        <time>2019-03-28T10:28:32+0100</time>
      </trkpt>
      <trkpt lat="47.25544" lon="4.93799">
        <ele>520.69921875</ele>
        <time>2019-03-28T10:28:35+0100</time>
      </trkpt>
      <trkpt lat="47.25537" lon="4.93797">
        <ele>520.48834228516</ele>
        <time>2019-03-28T10:28:38+0100</time>
      </trkpt>
      <trkpt lat="47.25535" lon="4.93794">
        <ele>520.18792724609</ele>
        <time>2019-03-28T10:28:41+0100</time>
      </trkpt>
      <trkpt lat="47.25533" lon="4.93792">
        <ele>519.63714599609</ele>
        <time>2019-03-28T10:28:44+0100</time>
      </trkpt>
      <trkpt lat="47.25533" lon="4.9379">
        <ele>519.28887939453</ele>
        <time>2019-03-28T10:28:47+0100</time>
      </trkpt>
      <trkpt lat="47.25532" lon="4.93789">
        <ele>518.88238525391</ele>
        <time>2019-03-28T10:28:50+0100</time>
      </trkpt>
      <trkpt lat="47.25531" lon="4.93788">
        <ele>518.75720214844</ele>
        <time>2019-03-28T10:28:53+0100</time>
      </trkpt>
      <trkpt lat="47.25531" lon="4.93787">
        <ele>518.71704101562</ele>
        <time>2019-03-28T10:28:56+0100</time>
      </trkpt>
      <trkpt lat="47.2553" lon="4.93787">
        <ele>518.65264892578</ele>
        <time>2019-03-28T10:28:59+0100</time>
      </trkpt>
      <trkpt lat="47.25528" lon="4.93783">
        <ele>518.26763916016</ele>
        <time>2019-03-28T10:29:02+0100</time>
      </trkpt>
      <trkpt lat="47.25525" lon="4.9378">
        <ele>517.87426757812</ele>
        <time>2019-03-28T10:29:05+0100</time>
      </trkpt>
      <trkpt lat="47.25525" lon="4.9378">
        <ele>517.76831054688</ele>
        <time>2019-03-28T10:29:08+0100</time>
      </trkpt>
      <trkpt lat="47.25525" lon="4.9378">
        <ele>517.66656494141</ele>
        <time>2019-03-28T10:29:11+0100</time>
      </trkpt>
      <trkpt lat="47.25525" lon="4.9378">
        <ele>517.57458496094</ele>
        <time>2019-03-28T10:29:14+0100</time>
      </trkpt>
      <trkpt lat="47.25525" lon="4.9378">
        <ele>517.48852539062</ele>
        <time>2019-03-28T10:29:17+0100</time>
      </trkpt>
      <trkpt lat="47.25525" lon="4.9378">
        <ele>517.40338134766</ele>
        <time>2019-03-28T10:29:20+0100</time>
      </trkpt>
      <trkpt lat="47.25525" lon="4.9378">
        <ele>517.31506347656</ele>
        <time>2019-03-28T10:29:23+0100</time>
      </trkpt>
      <trkpt lat="47.25525" lon="4.9378">
        <ele>517.22387695312</ele>
        <time>2019-03-28T10:29:26+0100</time>
      </trkpt>
      <trkpt lat="47.25525" lon="4.9378">
        <ele>517.13153076172</ele>
        <time>2019-03-28T10:29:29+0100</time>
      </trkpt>
      <trkpt lat="47.25525" lon="4.9378">
        <ele>517.03839111328</ele>
        <time>2019-03-28T10:29:32+0100</time>
      </trkpt>
      <trkpt lat="47.25525" lon="4.9378">
        <ele>516.94702148438</ele>
        <time>2019-03-28T10:29:35+0100</time>
      </trkpt>
      <trkpt lat="47.25524" lon="4.93779">
        <ele>516.8564453125</ele>
        <time>2019-03-28T10:29:38+0100</time>
      </trkpt>
      <trkpt lat="47.25524" lon="4.93779">
        <ele>516.76794433594</ele>
        <time>2019-03-28T10:29:41+0100</time>
      </trkpt>
      <trkpt lat="47.25524" lon="4.93779">
        <ele>516.68206787109</ele>
        <time>2019-03-28T10:29:44+0100</time>
      </trkpt>
      <trkpt lat="47.25524" lon="4.93779">
        <ele>516.59295654297</ele>
        <time>2019-03-28T10:29:47+0100</time>
      </trkpt>
      <trkpt lat="47.25524" lon="4.93778">
        <ele>516.50189208984</ele>
        <time>2019-03-28T10:29:50+0100</time>
      </trkpt>
      <trkpt lat="47.25525" lon="4.93778">
        <ele>516.40502929688</ele>
        <time>2019-03-28T10:29:54+0100</time>
      </trkpt>
      <trkpt lat="47.25525" lon="4.93778">
        <ele>516.31042480469</ele>
        <time>2019-03-28T10:29:57+0100</time>
      </trkpt>
      <trkpt lat="47.25525" lon="4.93778">
        <ele>516.21398925781</ele>
        <time>2019-03-28T10:30:00+0100</time>
      </trkpt>
      <trkpt lat="47.25525" lon="4.93778">
        <ele>516.11743164062</ele>
        <time>2019-03-28T10:30:03+0100</time>
      </trkpt>
      <trkpt lat="47.25525" lon="4.93778">
        <ele>516.02368164062</ele>
        <time>2019-03-28T10:30:06+0100</time>
      </trkpt>
      <trkpt lat="47.25525" lon="4.93778">
        <ele>515.9228515625</ele>
        <time>2019-03-28T10:30:09+0100</time>
      </trkpt>
      <trkpt lat="47.25525" lon="4.93778">
        <ele>515.82104492188</ele>
        <time>2019-03-28T10:30:12+0100</time>
      </trkpt>
      <trkpt lat="47.25525" lon="4.93778">
        <ele>515.72802734375</ele>
        <time>2019-03-28T10:30:15+0100</time>
      </trkpt>
      <trkpt lat="47.25524" lon="4.93778">
        <ele>515.64154052734</ele>
        <time>2019-03-28T10:30:18+0100</time>
      </trkpt>
      <trkpt lat="47.25524" lon="4.93778">
        <ele>515.55590820312</ele>
        <time>2019-03-28T10:30:21+0100</time>
      </trkpt>
      <trkpt lat="47.25524" lon="4.93778">
        <ele>515.47094726562</ele>
        <time>2019-03-28T10:30:24+0100</time>
      </trkpt>
      <trkpt lat="47.25524" lon="4.93777">
        <ele>515.38690185547</ele>
        <time>2019-03-28T10:30:27+0100</time>
      </trkpt>
      <trkpt lat="47.25522" lon="4.93775">
        <ele>514.80670166016</ele>
        <time>2019-03-28T10:30:30+0100</time>
      </trkpt>
      <trkpt lat="47.2552" lon="4.93773">
        <ele>514.48602294922</ele>
        <time>2019-03-28T10:30:33+0100</time>
      </trkpt>
      <trkpt lat="47.25518" lon="4.93772">
        <ele>514.41064453125</ele>
        <time>2019-03-28T10:30:36+0100</time>
      </trkpt>
      <trkpt lat="47.25517" lon="4.93774">
        <ele>514.34149169922</ele>
        <time>2019-03-28T10:30:39+0100</time>
      </trkpt>
      <trkpt lat="47.25517" lon="4.93777">
        <ele>513.90301513672</ele>
        <time>2019-03-28T10:30:42+0100</time>
      </trkpt>
      <trkpt lat="47.25517" lon="4.93779">
        <ele>513.66375732422</ele>
        <time>2019-03-28T10:30:45+0100</time>
      </trkpt>
      <trkpt lat="47.25515" lon="4.9378">
        <ele>513.15209960938</ele>
        <time>2019-03-28T10:30:48+0100</time>
      </trkpt>
      <trkpt lat="47.25512" lon="4.93783">
        <ele>512.88189697266</ele>
        <time>2019-03-28T10:30:51+0100</time>
      </trkpt>
      <trkpt lat="47.25511" lon="4.93787">
        <ele>512.68353271484</ele>
        <time>2019-03-28T10:30:54+0100</time>
      </trkpt>
      <trkpt lat="47.25506" lon="4.93791">
        <ele>512.51977539062</ele>
        <time>2019-03-28T10:30:57+0100</time>
      </trkpt>
      <trkpt lat="47.25501" lon="4.93795">
        <ele>512.33697509766</ele>
        <time>2019-03-28T10:31:00+0100</time>
      </trkpt>
      <trkpt lat="47.25497" lon="4.93799">
        <ele>512.19067382812</ele>
        <time>2019-03-28T10:31:03+0100</time>
      </trkpt>
      <trkpt lat="47.25495" lon="4.93804">
        <ele>512.08685302734</ele>
        <time>2019-03-28T10:31:06+0100</time>
      </trkpt>
      <trkpt lat="47.25495" lon="4.93806">
        <ele>512.06494140625</ele>
        <time>2019-03-28T10:31:09+0100</time>
      </trkpt>
      <trkpt lat="47.25493" lon="4.9381">
        <ele>512.10028076172</ele>
        <time>2019-03-28T10:31:12+0100</time>
      </trkpt>
      <trkpt lat="47.25491" lon="4.93816">
        <ele>512.18786621094</ele>
        <time>2019-03-28T10:31:15+0100</time>
      </trkpt>
      <trkpt lat="47.25487" lon="4.93822">
        <ele>512.36596679688</ele>
        <time>2019-03-28T10:31:18+0100</time>
      </trkpt>
      <trkpt lat="47.25485" lon="4.93827">
        <ele>512.56988525391</ele>
        <time>2019-03-28T10:31:21+0100</time>
      </trkpt>
      <trkpt lat="47.25482" lon="4.93832">
        <ele>512.75286865234</ele>
        <time>2019-03-28T10:31:24+0100</time>
      </trkpt>
      <trkpt lat="47.2548" lon="4.93837">
        <ele>512.88812255859</ele>
        <time>2019-03-28T10:31:27+0100</time>
      </trkpt>
      <trkpt lat="47.2548" lon="4.93839">
        <ele>512.9658203125</ele>
        <time>2019-03-28T10:31:30+0100</time>
      </trkpt>
      <trkpt lat="47.25477" lon="4.93843">
        <ele>513.05578613281</ele>
        <time>2019-03-28T10:31:33+0100</time>
      </trkpt>
      <trkpt lat="47.25476" lon="4.93847">
        <ele>513.11968994141</ele>
        <time>2019-03-28T10:31:36+0100</time>
      </trkpt>
      <trkpt lat="47.25475" lon="4.93849">
        <ele>513.15063476562</ele>
        <time>2019-03-28T10:31:39+0100</time>
      </trkpt>
      <trkpt lat="47.25475" lon="4.93853">
        <ele>513.21221923828</ele>
        <time>2019-03-28T10:31:42+0100</time>
      </trkpt>
      <trkpt lat="47.25475" lon="4.93857">
        <ele>513.32147216797</ele>
        <time>2019-03-28T10:31:45+0100</time>
      </trkpt>
      <trkpt lat="47.25475" lon="4.93861">
        <ele>513.45916748047</ele>
        <time>2019-03-28T10:31:48+0100</time>
      </trkpt>
      <trkpt lat="47.25475" lon="4.93865">
        <ele>513.59375</ele>
        <time>2019-03-28T10:31:51+0100</time>
      </trkpt>
      <trkpt lat="47.25474" lon="4.93868">
        <ele>513.72027587891</ele>
        <time>2019-03-28T10:31:54+0100</time>
      </trkpt>
      <trkpt lat="47.25472" lon="4.93873">
        <ele>513.83825683594</ele>
        <time>2019-03-28T10:31:57+0100</time>
      </trkpt>
      <trkpt lat="47.25471" lon="4.93877">
        <ele>513.92620849609</ele>
        <time>2019-03-28T10:32:00+0100</time>
      </trkpt>
      <trkpt lat="47.25471" lon="4.93879">
        <ele>514.00952148438</ele>
        <time>2019-03-28T10:32:03+0100</time>
      </trkpt>
      <trkpt lat="47.25469" lon="4.93883">
        <ele>514.02679443359</ele>
        <time>2019-03-28T10:32:06+0100</time>
      </trkpt>
      <trkpt lat="47.25467" lon="4.93887">
        <ele>513.90393066406</ele>
        <time>2019-03-28T10:32:09+0100</time>
      </trkpt>
      <trkpt lat="47.25466" lon="4.9389">
        <ele>513.69720458984</ele>
        <time>2019-03-28T10:32:12+0100</time>
      </trkpt>
      <trkpt lat="47.25465" lon="4.93892">
        <ele>513.533203125</ele>
        <time>2019-03-28T10:32:15+0100</time>
      </trkpt>
      <trkpt lat="47.25464" lon="4.93893">
        <ele>513.46185302734</ele>
        <time>2019-03-28T10:32:18+0100</time>
      </trkpt>
      <trkpt lat="47.25463" lon="4.93897">
        <ele>513.28259277344</ele>
        <time>2019-03-28T10:32:21+0100</time>
      </trkpt>
      <trkpt lat="47.25462" lon="4.939">
        <ele>513.12298583984</ele>
        <time>2019-03-28T10:32:24+0100</time>
      </trkpt>
      <trkpt lat="47.25459" lon="4.93905">
        <ele>512.95001220703</ele>
        <time>2019-03-28T10:32:27+0100</time>
      </trkpt>
      <trkpt lat="47.25456" lon="4.93911">
        <ele>512.70129394531</ele>
        <time>2019-03-28T10:32:30+0100</time>
      </trkpt>
      <trkpt lat="47.25454" lon="4.93916">
        <ele>512.38507080078</ele>
        <time>2019-03-28T10:32:33+0100</time>
      </trkpt>
      <trkpt lat="47.25452" lon="4.93919">
        <ele>512.0107421875</ele>
        <time>2019-03-28T10:32:36+0100</time>
      </trkpt>
      <trkpt lat="47.25451" lon="4.93922">
        <ele>511.63592529297</ele>
        <time>2019-03-28T10:32:39+0100</time>
      </trkpt>
      <trkpt lat="47.2545" lon="4.93925">
        <ele>511.38421630859</ele>
        <time>2019-03-28T10:32:42+0100</time>
      </trkpt>
      <trkpt lat="47.2545" lon="4.93925">
        <ele>511.35089111328</ele>
        <time>2019-03-28T10:32:45+0100</time>
      </trkpt>
      <trkpt lat="47.25448" lon="4.93929">
        <ele>511.06671142578</ele>
        <time>2019-03-28T10:32:48+0100</time>
      </trkpt>
      <trkpt lat="47.25446" lon="4.93934">
        <ele>510.85021972656</ele>
        <time>2019-03-28T10:32:51+0100</time>
      </trkpt>
      <trkpt lat="47.25444" lon="4.93938">
        <ele>510.70452880859</ele>
        <time>2019-03-28T10:32:54+0100</time>
      </trkpt>
      <trkpt lat="47.25444" lon="4.93942">
        <ele>510.640625</ele>
        <time>2019-03-28T10:32:57+0100</time>
      </trkpt>
      <trkpt lat="47.25443" lon="4.93947">
        <ele>510.63775634766</ele>
        <time>2019-03-28T10:33:00+0100</time>
      </trkpt>
      <trkpt lat="47.25442" lon="4.93951">
        <ele>510.68560791016</ele>
        <time>2019-03-28T10:33:03+0100</time>
      </trkpt>
      <trkpt lat="47.25442" lon="4.93954">
        <ele>510.76043701172</ele>
        <time>2019-03-28T10:33:06+0100</time>
      </trkpt>
      <trkpt lat="47.25442" lon="4.93957">
        <ele>510.82275390625</ele>
        <time>2019-03-28T10:33:09+0100</time>
      </trkpt>
      <trkpt lat="47.25442" lon="4.93962">
        <ele>510.89965820312</ele>
        <time>2019-03-28T10:33:12+0100</time>
      </trkpt>
      <trkpt lat="47.25441" lon="4.93967">
        <ele>510.97705078125</ele>
        <time>2019-03-28T10:33:15+0100</time>
      </trkpt>
      <trkpt lat="47.2544" lon="4.93972">
        <ele>511.05181884766</ele>
        <time>2019-03-28T10:33:18+0100</time>
      </trkpt>
      <trkpt lat="47.25438" lon="4.93977">
        <ele>511.06829833984</ele>
        <time>2019-03-28T10:33:21+0100</time>
      </trkpt>
      <trkpt lat="47.25436" lon="4.93982">
        <ele>511.0869140625</ele>
        <time>2019-03-28T10:33:24+0100</time>
      </trkpt>
      <trkpt lat="47.25435" lon="4.93987">
        <ele>511.13635253906</ele>
        <time>2019-03-28T10:33:27+0100</time>
      </trkpt>
      <trkpt lat="47.25435" lon="4.9399">
        <ele>511.2255859375</ele>
        <time>2019-03-28T10:33:30+0100</time>
      </trkpt>
      <trkpt lat="47.25435" lon="4.93994">
        <ele>511.32012939453</ele>
        <time>2019-03-28T10:33:33+0100</time>
      </trkpt>
      <trkpt lat="47.25433" lon="4.93999">
        <ele>511.40069580078</ele>
        <time>2019-03-28T10:33:36+0100</time>
      </trkpt>
      <trkpt lat="47.25432" lon="4.94003">
        <ele>511.48016357422</ele>
        <time>2019-03-28T10:33:39+0100</time>
      </trkpt>
      <trkpt lat="47.2543" lon="4.94009">
        <ele>511.55065917969</ele>
        <time>2019-03-28T10:33:42+0100</time>
      </trkpt>
      <trkpt lat="47.25429" lon="4.94014">
        <ele>511.62188720703</ele>
        <time>2019-03-28T10:33:45+0100</time>
      </trkpt>
      <trkpt lat="47.25426" lon="4.94022">
        <ele>511.63659667969</ele>
        <time>2019-03-28T10:33:48+0100</time>
      </trkpt>
      <trkpt lat="47.25424" lon="4.94027">
        <ele>511.61633300781</ele>
        <time>2019-03-28T10:33:51+0100</time>
      </trkpt>
      <trkpt lat="47.25424" lon="4.94032">
        <ele>511.57995605469</ele>
        <time>2019-03-28T10:33:54+0100</time>
      </trkpt>
      <trkpt lat="47.25424" lon="4.94036">
        <ele>511.529296875</ele>
        <time>2019-03-28T10:33:57+0100</time>
      </trkpt>
      <trkpt lat="47.25425" lon="4.94039">
        <ele>511.47546386719</ele>
        <time>2019-03-28T10:34:00+0100</time>
      </trkpt>
      <trkpt lat="47.25432" lon="4.94043">
        <ele>511.38128662109</ele>
        <time>2019-03-28T10:34:03+0100</time>
      </trkpt>
      <trkpt lat="47.25435" lon="4.94047">
        <ele>511.34381103516</ele>
        <time>2019-03-28T10:34:06+0100</time>
      </trkpt>
      <trkpt lat="47.25435" lon="4.94049">
        <ele>511.3720703125</ele>
        <time>2019-03-28T10:34:09+0100</time>
      </trkpt>
      <trkpt lat="47.25432" lon="4.94055">
        <ele>511.58013916016</ele>
        <time>2019-03-28T10:34:12+0100</time>
      </trkpt>
      <trkpt lat="47.25428" lon="4.94065">
        <ele>511.47918701172</ele>
        <time>2019-03-28T10:34:15+0100</time>
      </trkpt>
      <trkpt lat="47.25426" lon="4.9407">
        <ele>510.98065185547</ele>
        <time>2019-03-28T10:34:18+0100</time>
      </trkpt>
      <trkpt lat="47.25427" lon="4.94071">
        <ele>510.58404541016</ele>
        <time>2019-03-28T10:34:21+0100</time>
      </trkpt>
      <trkpt lat="47.25428" lon="4.94073">
        <ele>510.20751953125</ele>
        <time>2019-03-28T10:34:24+0100</time>
      </trkpt>
      <trkpt lat="47.25429" lon="4.94077">
        <ele>509.61706542969</ele>
        <time>2019-03-28T10:34:27+0100</time>
      </trkpt>
      <trkpt lat="47.25429" lon="4.94081">
        <ele>508.99548339844</ele>
        <time>2019-03-28T10:34:30+0100</time>
      </trkpt>
      <trkpt lat="47.2543" lon="4.94084">
        <ele>508.46673583984</ele>
        <time>2019-03-28T10:34:33+0100</time>
      </trkpt>
      <trkpt lat="47.25428" lon="4.94092">
        <ele>508.12915039062</ele>
        <time>2019-03-28T10:34:36+0100</time>
      </trkpt>
      <trkpt lat="47.2543" lon="4.94098">
        <ele>507.57489013672</ele>
        <time>2019-03-28T10:34:39+0100</time>
      </trkpt>
      <trkpt lat="47.25432" lon="4.94101">
        <ele>507.24847412109</ele>
        <time>2019-03-28T10:34:42+0100</time>
      </trkpt>
      <trkpt lat="47.25432" lon="4.94103">
        <ele>506.98205566406</ele>
        <time>2019-03-28T10:34:45+0100</time>
      </trkpt>
      <trkpt lat="47.25434" lon="4.94108">
        <ele>506.64312744141</ele>
        <time>2019-03-28T10:34:48+0100</time>
      </trkpt>
      <trkpt lat="47.25434" lon="4.94114">
        <ele>506.41522216797</ele>
        <time>2019-03-28T10:34:51+0100</time>
      </trkpt>
      <trkpt lat="47.25434" lon="4.94121">
        <ele>505.96319580078</ele>
        <time>2019-03-28T10:34:54+0100</time>
      </trkpt>
      <trkpt lat="47.25435" lon="4.94124">
        <ele>505.60150146484</ele>
        <time>2019-03-28T10:34:57+0100</time>
      </trkpt>
      <trkpt lat="47.25438" lon="4.94128">
        <ele>505.47650146484</ele>
        <time>2019-03-28T10:35:00+0100</time>
      </trkpt>
      <trkpt lat="47.25439" lon="4.94135">
        <ele>505.34539794922</ele>
        <time>2019-03-28T10:35:03+0100</time>
      </trkpt>
      <trkpt lat="47.25439" lon="4.94141">
        <ele>505.14196777344</ele>
        <time>2019-03-28T10:35:06+0100</time>
      </trkpt>
      <trkpt lat="47.25438" lon="4.94145">
        <ele>504.83483886719</ele>
        <time>2019-03-28T10:35:09+0100</time>
      </trkpt>
      <trkpt lat="47.25438" lon="4.94149">
        <ele>504.36798095703</ele>
        <time>2019-03-28T10:35:12+0100</time>
      </trkpt>
      <trkpt lat="47.25439" lon="4.94152">
        <ele>503.82739257812</ele>
        <time>2019-03-28T10:35:15+0100</time>
      </trkpt>
      <trkpt lat="47.25438" lon="4.94157">
        <ele>503.28509521484</ele>
        <time>2019-03-28T10:35:18+0100</time>
      </trkpt>
      <trkpt lat="47.25436" lon="4.9416">
        <ele>502.6650390625</ele>
        <time>2019-03-28T10:35:21+0100</time>
      </trkpt>
      <trkpt lat="47.25436" lon="4.94161">
        <ele>502.0458984375</ele>
        <time>2019-03-28T10:35:24+0100</time>
      </trkpt>
      <trkpt lat="47.25436" lon="4.94163">
        <ele>501.65447998047</ele>
        <time>2019-03-28T10:35:27+0100</time>
      </trkpt>
      <trkpt lat="47.25436" lon="4.94164">
        <ele>501.59338378906</ele>
        <time>2019-03-28T10:35:30+0100</time>
      </trkpt>
      <trkpt lat="47.25437" lon="4.94169">
        <ele>501.47375488281</ele>
        <time>2019-03-28T10:35:33+0100</time>
      </trkpt>
      <trkpt lat="47.25437" lon="4.94176">
        <ele>501.26831054688</ele>
        <time>2019-03-28T10:35:36+0100</time>
      </trkpt>
      <trkpt lat="47.25438" lon="4.94177">
        <ele>501.22149658203</ele>
        <time>2019-03-28T10:35:39+0100</time>
      </trkpt>
      <trkpt lat="47.25438" lon="4.94177">
        <ele>501.02478027344</ele>
        <time>2019-03-28T10:35:42+0100</time>
      </trkpt>
      <trkpt lat="47.25438" lon="4.94179">
        <ele>500.97277832031</ele>
        <time>2019-03-28T10:35:45+0100</time>
      </trkpt>
      <trkpt lat="47.25439" lon="4.94182">
        <ele>500.91693115234</ele>
        <time>2019-03-28T10:35:48+0100</time>
      </trkpt>
      <trkpt lat="47.25438" lon="4.94192">
        <ele>500.66534423828</ele>
        <time>2019-03-28T10:35:51+0100</time>
      </trkpt>
      <trkpt lat="47.25438" lon="4.94193">
        <ele>500.39733886719</ele>
        <time>2019-03-28T10:35:54+0100</time>
      </trkpt>
      <trkpt lat="47.25441" lon="4.94193">
        <ele>499.96032714844</ele>
        <time>2019-03-28T10:35:57+0100</time>
      </trkpt>
      <trkpt lat="47.25442" lon="4.94194">
        <ele>499.76086425781</ele>
        <time>2019-03-28T10:36:00+0100</time>
      </trkpt>
      <trkpt lat="47.25444" lon="4.94194">
        <ele>499.65814208984</ele>
        <time>2019-03-28T10:36:03+0100</time>
      </trkpt>
      <trkpt lat="47.25444" lon="4.94195">
        <ele>499.52435302734</ele>
        <time>2019-03-28T10:36:06+0100</time>
      </trkpt>
      <trkpt lat="47.25443" lon="4.94194">
        <ele>499.51062011719</ele>
        <time>2019-03-28T10:36:09+0100</time>
      </trkpt>
      <trkpt lat="47.25443" lon="4.94193">
        <ele>499.48095703125</ele>
        <time>2019-03-28T10:36:12+0100</time>
      </trkpt>
      <trkpt lat="47.25442" lon="4.94193">
        <ele>499.47711181641</ele>
        <time>2019-03-28T10:36:15+0100</time>
      </trkpt>
      <trkpt lat="47.2544" lon="4.9419">
        <ele>499.42602539062</ele>
        <time>2019-03-28T10:36:18+0100</time>
      </trkpt>
      <trkpt lat="47.25438" lon="4.94188">
        <ele>499.41613769531</ele>
        <time>2019-03-28T10:36:21+0100</time>
      </trkpt>
      <trkpt lat="47.25426" lon="4.94189">
        <ele>499.29583740234</ele>
        <time>2019-03-28T10:36:24+0100</time>
      </trkpt>
      <trkpt lat="47.25424" lon="4.94187">
        <ele>499.14996337891</ele>
        <time>2019-03-28T10:36:27+0100</time>
      </trkpt>
      <trkpt lat="47.25423" lon="4.94186">
        <ele>498.83776855469</ele>
        <time>2019-03-28T10:36:30+0100</time>
      </trkpt>
      <trkpt lat="47.25422" lon="4.94186">
        <ele>498.67425537109</ele>
        <time>2019-03-28T10:36:33+0100</time>
      </trkpt>
      <trkpt lat="47.25422" lon="4.94187">
        <ele>498.64074707031</ele>
        <time>2019-03-28T10:36:36+0100</time>
      </trkpt>
      <trkpt lat="47.2542" lon="4.94187">
        <ele>498.5009765625</ele>
        <time>2019-03-28T10:36:39+0100</time>
      </trkpt>
      <trkpt lat="47.25416" lon="4.94187">
        <ele>498.27185058594</ele>
        <time>2019-03-28T10:36:42+0100</time>
      </trkpt>
      <trkpt lat="47.25413" lon="4.94186">
        <ele>497.96844482422</ele>
        <time>2019-03-28T10:36:45+0100</time>
      </trkpt>
      <trkpt lat="47.25412" lon="4.94185">
        <ele>497.72180175781</ele>
        <time>2019-03-28T10:36:48+0100</time>
      </trkpt>
      <trkpt lat="47.25412" lon="4.94185">
        <ele>497.56274414062</ele>
        <time>2019-03-28T10:36:51+0100</time>
      </trkpt>
      <trkpt lat="47.25411" lon="4.94184">
        <ele>497.25256347656</ele>
        <time>2019-03-28T10:36:54+0100</time>
      </trkpt>
      <trkpt lat="47.25408" lon="4.94184">
        <ele>496.86749267578</ele>
        <time>2019-03-28T10:36:57+0100</time>
      </trkpt>
      <trkpt lat="47.25402" lon="4.94184">
        <ele>496.28326416016</ele>
        <time>2019-03-28T10:37:00+0100</time>
      </trkpt>
      <trkpt lat="47.25399" lon="4.94185">
        <ele>495.67565917969</ele>
        <time>2019-03-28T10:37:03+0100</time>
      </trkpt>
      <trkpt lat="47.25398" lon="4.94185">
        <ele>495.201171875</ele>
        <time>2019-03-28T10:37:06+0100</time>
      </trkpt>
      <trkpt lat="47.25398" lon="4.94184">
        <ele>494.89862060547</ele>
        <time>2019-03-28T10:37:09+0100</time>
      </trkpt>
      <trkpt lat="47.25397" lon="4.94182">
        <ele>494.32147216797</ele>
        <time>2019-03-28T10:37:12+0100</time>
      </trkpt>
      <trkpt lat="47.25394" lon="4.94179">
        <ele>493.40533447266</ele>
        <time>2019-03-28T10:37:15+0100</time>
      </trkpt>
      <trkpt lat="47.25394" lon="4.94179">
        <ele>493.01342773438</ele>
        <time>2019-03-28T10:37:18+0100</time>
      </trkpt>
      <trkpt lat="47.25394" lon="4.94177">
        <ele>492.61920166016</ele>
        <time>2019-03-28T10:37:21+0100</time>
      </trkpt>
      <trkpt lat="47.25394" lon="4.94177">
        <ele>492.5185546875</ele>
        <time>2019-03-28T10:37:24+0100</time>
      </trkpt>
      <trkpt lat="47.25394" lon="4.94176">
        <ele>492.42144775391</ele>
        <time>2019-03-28T10:37:27+0100</time>
      </trkpt>
      <trkpt lat="47.25394" lon="4.94175">
        <ele>491.44641113281</ele>
        <time>2019-03-28T10:37:30+0100</time>
      </trkpt>
      <trkpt lat="47.25394" lon="4.94175">
        <ele>491.35717773438</ele>
        <time>2019-03-28T10:37:33+0100</time>
      </trkpt>
      <trkpt lat="47.25395" lon="4.94175">
        <ele>491.25952148438</ele>
        <time>2019-03-28T10:37:36+0100</time>
      </trkpt>
      <trkpt lat="47.25393" lon="4.94174">
        <ele>490.83581542969</ele>
        <time>2019-03-28T10:37:39+0100</time>
      </trkpt>
      <trkpt lat="47.25391" lon="4.94173">
        <ele>490.13134765625</ele>
        <time>2019-03-28T10:37:42+0100</time>
      </trkpt>
      <trkpt lat="47.25386" lon="4.94173">
        <ele>489.33404541016</ele>
        <time>2019-03-28T10:37:45+0100</time>
      </trkpt>
      <trkpt lat="47.25384" lon="4.94171">
        <ele>488.61590576172</ele>
        <time>2019-03-28T10:37:48+0100</time>
      </trkpt>
      <trkpt lat="47.25383" lon="4.94167">
        <ele>488.10980224609</ele>
        <time>2019-03-28T10:37:51+0100</time>
      </trkpt>
      <trkpt lat="47.25383" lon="4.94167">
        <ele>488.00494384766</ele>
        <time>2019-03-28T10:37:54+0100</time>
      </trkpt>
      <trkpt lat="47.25382" lon="4.9417">
        <ele>487.99310302734</ele>
        <time>2019-03-28T10:37:57+0100</time>
      </trkpt>
      <trkpt lat="47.25382" lon="4.94172">
        <ele>488.06018066406</ele>
        <time>2019-03-28T10:38:00+0100</time>
      </trkpt>
      <trkpt lat="47.25381" lon="4.94173">
        <ele>488.20776367188</ele>
        <time>2019-03-28T10:38:03+0100</time>
      </trkpt>
      <trkpt lat="47.25381" lon="4.94177">
        <ele>488.42163085938</ele>
        <time>2019-03-28T10:38:06+0100</time>
      </trkpt>
      <trkpt lat="47.25382" lon="4.9418">
        <ele>488.80987548828</ele>
        <time>2019-03-28T10:38:09+0100</time>
      </trkpt>
      <trkpt lat="47.25382" lon="4.94184">
        <ele>489.23046875</ele>
        <time>2019-03-28T10:38:12+0100</time>
      </trkpt>
      <trkpt lat="47.25379" lon="4.94188">
        <ele>489.62280273438</ele>
        <time>2019-03-28T10:38:15+0100</time>
      </trkpt>
      <trkpt lat="47.2538" lon="4.9419">
        <ele>489.8955078125</ele>
        <time>2019-03-28T10:38:18+0100</time>
      </trkpt>
      <trkpt lat="47.25379" lon="4.94194">
        <ele>490.28210449219</ele>
        <time>2019-03-28T10:38:21+0100</time>
      </trkpt>
      <trkpt lat="47.2538" lon="4.94197">
        <ele>490.44616699219</ele>
        <time>2019-03-28T10:38:24+0100</time>
      </trkpt>
      <trkpt lat="47.25379" lon="4.94201">
        <ele>490.93768310547</ele>
        <time>2019-03-28T10:38:27+0100</time>
      </trkpt>
      <trkpt lat="47.25378" lon="4.94203">
        <ele>491.31555175781</ele>
        <time>2019-03-28T10:38:30+0100</time>
      </trkpt>
      <trkpt lat="47.25379" lon="4.94207">
        <ele>491.67938232422</ele>
        <time>2019-03-28T10:38:33+0100</time>
      </trkpt>
      <trkpt lat="47.2538" lon="4.94209">
        <ele>491.83959960938</ele>
        <time>2019-03-28T10:38:36+0100</time>
      </trkpt>
      <trkpt lat="47.25386" lon="4.94216">
        <ele>492.22076416016</ele>
        <time>2019-03-28T10:38:39+0100</time>
      </trkpt>
      <trkpt lat="47.25389" lon="4.94221">
        <ele>492.70556640625</ele>
        <time>2019-03-28T10:38:42+0100</time>
      </trkpt>
      <trkpt lat="47.25387" lon="4.94222">
        <ele>493.09222412109</ele>
        <time>2019-03-28T10:38:45+0100</time>
      </trkpt>
      <trkpt lat="47.25385" lon="4.94228">
        <ele>493.26458740234</ele>
        <time>2019-03-28T10:38:48+0100</time>
      </trkpt>
      <trkpt lat="47.25386" lon="4.94236">
        <ele>493.50402832031</ele>
        <time>2019-03-28T10:38:51+0100</time>
      </trkpt>
      <trkpt lat="47.25385" lon="4.94239">
        <ele>493.60137939453</ele>
        <time>2019-03-28T10:38:54+0100</time>
      </trkpt>
      <trkpt lat="47.25382" lon="4.94242">
        <ele>493.80102539062</ele>
        <time>2019-03-28T10:38:57+0100</time>
      </trkpt>
      <trkpt lat="47.2538" lon="4.94245">
        <ele>493.92028808594</ele>
        <time>2019-03-28T10:39:00+0100</time>
      </trkpt>
      <trkpt lat="47.25378" lon="4.94247">
        <ele>493.99774169922</ele>
        <time>2019-03-28T10:39:03+0100</time>
      </trkpt>
      <trkpt lat="47.25376" lon="4.9425">
        <ele>494.32958984375</ele>
        <time>2019-03-28T10:39:06+0100</time>
      </trkpt>
      <trkpt lat="47.25374" lon="4.94254">
        <ele>494.70965576172</ele>
        <time>2019-03-28T10:39:09+0100</time>
      </trkpt>
      <trkpt lat="47.2537" lon="4.94257">
        <ele>495.06750488281</ele>
        <time>2019-03-28T10:39:12+0100</time>
      </trkpt>
      <trkpt lat="47.25367" lon="4.94267">
        <ele>495.00469970703</ele>
        <time>2019-03-28T10:39:15+0100</time>
      </trkpt>
      <trkpt lat="47.25368" lon="4.94272">
        <ele>494.70501708984</ele>
        <time>2019-03-28T10:39:18+0100</time>
      </trkpt>
      <trkpt lat="47.25369" lon="4.94276">
        <ele>494.02386474609</ele>
        <time>2019-03-28T10:39:21+0100</time>
      </trkpt>
      <trkpt lat="47.25371" lon="4.94281">
        <ele>493.4326171875</ele>
        <time>2019-03-28T10:39:24+0100</time>
      </trkpt>
      <trkpt lat="47.25367" lon="4.94288">
        <ele>493.18774414062</ele>
        <time>2019-03-28T10:39:27+0100</time>
      </trkpt>
      <trkpt lat="47.25363" lon="4.94292">
        <ele>492.79559326172</ele>
        <time>2019-03-28T10:39:30+0100</time>
      </trkpt>
      <trkpt lat="47.25363" lon="4.94296">
        <ele>492.23254394531</ele>
        <time>2019-03-28T10:39:33+0100</time>
      </trkpt>
      <trkpt lat="47.2536" lon="4.94301">
        <ele>491.74987792969</ele>
        <time>2019-03-28T10:39:36+0100</time>
      </trkpt>
      <trkpt lat="47.2536" lon="4.94303">
        <ele>491.38739013672</ele>
        <time>2019-03-28T10:39:39+0100</time>
      </trkpt>
      <trkpt lat="47.25363" lon="4.94307">
        <ele>491.09844970703</ele>
        <time>2019-03-28T10:39:42+0100</time>
      </trkpt>
      <trkpt lat="47.25363" lon="4.9431">
        <ele>490.81561279297</ele>
        <time>2019-03-28T10:39:45+0100</time>
      </trkpt>
      <trkpt lat="47.25362" lon="4.94315">
        <ele>490.5703125</ele>
        <time>2019-03-28T10:39:48+0100</time>
      </trkpt>
      <trkpt lat="47.25363" lon="4.94318">
        <ele>490.35485839844</ele>
        <time>2019-03-28T10:39:51+0100</time>
      </trkpt>
      <trkpt lat="47.25365" lon="4.94322">
        <ele>490.26330566406</ele>
        <time>2019-03-28T10:39:54+0100</time>
      </trkpt>
      <trkpt lat="47.25366" lon="4.94325">
        <ele>490.17181396484</ele>
        <time>2019-03-28T10:39:57+0100</time>
      </trkpt>
      <trkpt lat="47.25366" lon="4.94329">
        <ele>490.11157226562</ele>
        <time>2019-03-28T10:40:00+0100</time>
      </trkpt>
      <trkpt lat="47.25365" lon="4.94334">
        <ele>490.03540039062</ele>
        <time>2019-03-28T10:40:03+0100</time>
      </trkpt>
      <trkpt lat="47.25365" lon="4.94337">
        <ele>490.01690673828</ele>
        <time>2019-03-28T10:40:06+0100</time>
      </trkpt>
      <trkpt lat="47.25365" lon="4.94338">
        <ele>490.04516601562</ele>
        <time>2019-03-28T10:40:09+0100</time>
      </trkpt>
      <trkpt lat="47.25359" lon="4.94343">
        <ele>490.08862304688</ele>
        <time>2019-03-28T10:40:12+0100</time>
      </trkpt>
      <trkpt lat="47.25355" lon="4.94345">
        <ele>489.96002197266</ele>
        <time>2019-03-28T10:40:15+0100</time>
      </trkpt>
      <trkpt lat="47.25353" lon="4.94348">
        <ele>489.25421142578</ele>
        <time>2019-03-28T10:40:18+0100</time>
      </trkpt>
      <trkpt lat="47.25354" lon="4.94351">
        <ele>488.53857421875</ele>
        <time>2019-03-28T10:40:21+0100</time>
      </trkpt>
      <trkpt lat="47.25353" lon="4.94353">
        <ele>487.88830566406</ele>
        <time>2019-03-28T10:40:24+0100</time>
      </trkpt>
      <trkpt lat="47.25351" lon="4.94358">
        <ele>487.19360351562</ele>
        <time>2019-03-28T10:40:27+0100</time>
      </trkpt>
      <trkpt lat="47.2535" lon="4.94362">
        <ele>486.52081298828</ele>
        <time>2019-03-28T10:40:30+0100</time>
      </trkpt>
      <trkpt lat="47.2535" lon="4.94363">
        <ele>486.11474609375</ele>
        <time>2019-03-28T10:40:33+0100</time>
      </trkpt>
      <trkpt lat="47.25352" lon="4.94367">
        <ele>485.47552490234</ele>
        <time>2019-03-28T10:40:36+0100</time>
      </trkpt>
      <trkpt lat="47.25355" lon="4.94374">
        <ele>484.67950439453</ele>
        <time>2019-03-28T10:40:39+0100</time>
      </trkpt>
      <trkpt lat="47.25356" lon="4.94377">
        <ele>484.06872558594</ele>
        <time>2019-03-28T10:40:42+0100</time>
      </trkpt>
      <trkpt lat="47.25356" lon="4.94383">
        <ele>483.76306152344</ele>
        <time>2019-03-28T10:40:45+0100</time>
      </trkpt>
      <trkpt lat="47.25352" lon="4.94389">
        <ele>483.49481201172</ele>
        <time>2019-03-28T10:40:48+0100</time>
      </trkpt>
      <trkpt lat="47.25352" lon="4.94391">
        <ele>483.27062988281</ele>
        <time>2019-03-28T10:40:51+0100</time>
      </trkpt>
      <trkpt lat="47.25351" lon="4.94395">
        <ele>483.08984375</ele>
        <time>2019-03-28T10:40:54+0100</time>
      </trkpt>
      <trkpt lat="47.25352" lon="4.94399">
        <ele>482.88354492188</ele>
        <time>2019-03-28T10:40:57+0100</time>
      </trkpt>
      <trkpt lat="47.25355" lon="4.94402">
        <ele>482.79150390625</ele>
        <time>2019-03-28T10:41:00+0100</time>
      </trkpt>
      <trkpt lat="47.25353" lon="4.94409">
        <ele>482.74639892578</ele>
        <time>2019-03-28T10:41:03+0100</time>
      </trkpt>
      <trkpt lat="47.2535" lon="4.94416">
        <ele>482.44842529297</ele>
        <time>2019-03-28T10:41:06+0100</time>
      </trkpt>
      <trkpt lat="47.25349" lon="4.94419">
        <ele>481.95935058594</ele>
        <time>2019-03-28T10:41:09+0100</time>
      </trkpt>
      <trkpt lat="47.2535" lon="4.9442">
        <ele>481.61462402344</ele>
        <time>2019-03-28T10:41:12+0100</time>
      </trkpt>
      <trkpt lat="47.25351" lon="4.94424">
        <ele>481.16192626953</ele>
        <time>2019-03-28T10:41:15+0100</time>
      </trkpt>
      <trkpt lat="47.25349" lon="4.94429">
        <ele>480.62335205078</ele>
        <time>2019-03-28T10:41:18+0100</time>
      </trkpt>
      <trkpt lat="47.25345" lon="4.94436">
        <ele>479.70239257812</ele>
        <time>2019-03-28T10:41:21+0100</time>
      </trkpt>
      <trkpt lat="47.25346" lon="4.94439">
        <ele>478.85125732422</ele>
        <time>2019-03-28T10:41:24+0100</time>
      </trkpt>
      <trkpt lat="47.25348" lon="4.94442">
        <ele>478.34930419922</ele>
        <time>2019-03-28T10:41:27+0100</time>
      </trkpt>
      <trkpt lat="47.25346" lon="4.94445">
        <ele>478.22503662109</ele>
        <time>2019-03-28T10:41:30+0100</time>
      </trkpt>
      <trkpt lat="47.25343" lon="4.94447">
        <ele>478.16180419922</ele>
        <time>2019-03-28T10:41:33+0100</time>
      </trkpt>
      <trkpt lat="47.2534" lon="4.94451">
        <ele>477.91650390625</ele>
        <time>2019-03-28T10:41:36+0100</time>
      </trkpt>
      <trkpt lat="47.25341" lon="4.94453">
        <ele>477.74182128906</ele>
        <time>2019-03-28T10:41:39+0100</time>
      </trkpt>
      <trkpt lat="47.25344" lon="4.94458">
        <ele>477.63128662109</ele>
        <time>2019-03-28T10:41:42+0100</time>
      </trkpt>
      <trkpt lat="47.25343" lon="4.94463">
        <ele>477.62292480469</ele>
        <time>2019-03-28T10:41:45+0100</time>
      </trkpt>
      <trkpt lat="47.25345" lon="4.94467">
        <ele>477.79797363281</ele>
        <time>2019-03-28T10:41:48+0100</time>
      </trkpt>
      <trkpt lat="47.25346" lon="4.9447">
        <ele>478.1396484375</ele>
        <time>2019-03-28T10:41:51+0100</time>
      </trkpt>
      <trkpt lat="47.25346" lon="4.94472">
        <ele>478.41363525391</ele>
        <time>2019-03-28T10:41:54+0100</time>
      </trkpt>
      <trkpt lat="47.25348" lon="4.94476">
        <ele>478.81988525391</ele>
        <time>2019-03-28T10:41:57+0100</time>
      </trkpt>
      <trkpt lat="47.25347" lon="4.94481">
        <ele>479.09423828125</ele>
        <time>2019-03-28T10:42:00+0100</time>
      </trkpt>
      <trkpt lat="47.25345" lon="4.94488">
        <ele>479.20062255859</ele>
        <time>2019-03-28T10:42:03+0100</time>
      </trkpt>
      <trkpt lat="47.25341" lon="4.94495">
        <ele>478.982421875</ele>
        <time>2019-03-28T10:42:06+0100</time>
      </trkpt>
      <trkpt lat="47.25342" lon="4.94497">
        <ele>478.67132568359</ele>
        <time>2019-03-28T10:42:09+0100</time>
      </trkpt>
      <trkpt lat="47.25339" lon="4.945">
        <ele>478.2939453125</ele>
        <time>2019-03-28T10:42:12+0100</time>
      </trkpt>
      <trkpt lat="47.25337" lon="4.94503">
        <ele>477.97540283203</ele>
        <time>2019-03-28T10:42:15+0100</time>
      </trkpt>
      <trkpt lat="47.25336" lon="4.94506">
        <ele>477.59625244141</ele>
        <time>2019-03-28T10:42:18+0100</time>
      </trkpt>
      <trkpt lat="47.25336" lon="4.9451">
        <ele>477.12182617188</ele>
        <time>2019-03-28T10:42:21+0100</time>
      </trkpt>
      <trkpt lat="47.25333" lon="4.94516">
        <ele>476.88732910156</ele>
        <time>2019-03-28T10:42:24+0100</time>
      </trkpt>
      <trkpt lat="47.25335" lon="4.94517">
        <ele>476.46124267578</ele>
        <time>2019-03-28T10:42:27+0100</time>
      </trkpt>
      <trkpt lat="47.25336" lon="4.94519">
        <ele>476.24859619141</ele>
        <time>2019-03-28T10:42:29+0100</time>
      </trkpt>
      <trkpt lat="47.25336" lon="4.94521">
        <ele>476.11694335938</ele>
        <time>2019-03-28T10:42:32+0100</time>
      </trkpt>
      <trkpt lat="47.25336" lon="4.94532">
        <ele>475.75390625</ele>
        <time>2019-03-28T10:42:35+0100</time>
      </trkpt>
      <trkpt lat="47.25336" lon="4.94535">
        <ele>475.46307373047</ele>
        <time>2019-03-28T10:42:38+0100</time>
      </trkpt>
      <trkpt lat="47.25333" lon="4.94539">
        <ele>475.01721191406</ele>
        <time>2019-03-28T10:42:41+0100</time>
      </trkpt>
      <trkpt lat="47.25331" lon="4.94543">
        <ele>474.65020751953</ele>
        <time>2019-03-28T10:42:44+0100</time>
      </trkpt>
      <trkpt lat="47.25331" lon="4.94545">
        <ele>474.45989990234</ele>
        <time>2019-03-28T10:42:47+0100</time>
      </trkpt>
      <trkpt lat="47.2533" lon="4.94549">
        <ele>474.47131347656</ele>
        <time>2019-03-28T10:42:50+0100</time>
      </trkpt>
      <trkpt lat="47.25334" lon="4.94554">
        <ele>474.59197998047</ele>
        <time>2019-03-28T10:42:53+0100</time>
      </trkpt>
      <trkpt lat="47.25334" lon="4.94558">
        <ele>474.99658203125</ele>
        <time>2019-03-28T10:42:56+0100</time>
      </trkpt>
      <trkpt lat="47.25332" lon="4.94563">
        <ele>475.21990966797</ele>
        <time>2019-03-28T10:42:59+0100</time>
      </trkpt>
      <trkpt lat="47.25328" lon="4.94569">
        <ele>475.19305419922</ele>
        <time>2019-03-28T10:43:02+0100</time>
      </trkpt>
      <trkpt lat="47.25322" lon="4.94578">
        <ele>474.90179443359</ele>
        <time>2019-03-28T10:43:05+0100</time>
      </trkpt>
      <trkpt lat="47.25323" lon="4.9458">
        <ele>474.45623779297</ele>
        <time>2019-03-28T10:43:08+0100</time>
      </trkpt>
      <trkpt lat="47.25323" lon="4.94581">
        <ele>474.04571533203</ele>
        <time>2019-03-28T10:43:11+0100</time>
      </trkpt>
      <trkpt lat="47.25323" lon="4.94582">
        <ele>473.67700195312</ele>
        <time>2019-03-28T10:43:14+0100</time>
      </trkpt>
      <trkpt lat="47.25322" lon="4.94586">
        <ele>473.35516357422</ele>
        <time>2019-03-28T10:43:17+0100</time>
      </trkpt>
      <trkpt lat="47.25318" lon="4.94592">
        <ele>472.77655029297</ele>
        <time>2019-03-28T10:43:20+0100</time>
      </trkpt>
      <trkpt lat="47.25316" lon="4.94595">
        <ele>472.04144287109</ele>
        <time>2019-03-28T10:43:23+0100</time>
      </trkpt>
      <trkpt lat="47.25318" lon="4.94596">
        <ele>471.40484619141</ele>
        <time>2019-03-28T10:43:26+0100</time>
      </trkpt>
      <trkpt lat="47.25316" lon="4.94601">
        <ele>471.22698974609</ele>
        <time>2019-03-28T10:43:29+0100</time>
      </trkpt>
      <trkpt lat="47.25319" lon="4.94603">
        <ele>471.04443359375</ele>
        <time>2019-03-28T10:43:32+0100</time>
      </trkpt>
      <trkpt lat="47.25324" lon="4.94607">
        <ele>470.65026855469</ele>
        <time>2019-03-28T10:43:35+0100</time>
      </trkpt>
      <trkpt lat="47.25328" lon="4.94614">
        <ele>470.65673828125</ele>
        <time>2019-03-28T10:43:38+0100</time>
      </trkpt>
      <trkpt lat="47.25327" lon="4.94617">
        <ele>470.75817871094</ele>
        <time>2019-03-28T10:43:41+0100</time>
      </trkpt>
      <trkpt lat="47.25328" lon="4.94615">
        <ele>470.92547607422</ele>
        <time>2019-03-28T10:43:44+0100</time>
      </trkpt>
      <trkpt lat="47.25328" lon="4.94614">
        <ele>471.0888671875</ele>
        <time>2019-03-28T10:43:47+0100</time>
      </trkpt>
      <trkpt lat="47.25328" lon="4.94612">
        <ele>471.36804199219</ele>
        <time>2019-03-28T10:43:50+0100</time>
      </trkpt>
      <trkpt lat="47.25325" lon="4.9461">
        <ele>471.71716308594</ele>
        <time>2019-03-28T10:43:53+0100</time>
      </trkpt>
      <trkpt lat="47.25321" lon="4.94608">
        <ele>472.00653076172</ele>
        <time>2019-03-28T10:43:56+0100</time>
      </trkpt>
      <trkpt lat="47.25316" lon="4.94603">
        <ele>472.18811035156</ele>
        <time>2019-03-28T10:43:59+0100</time>
      </trkpt>
      <trkpt lat="47.25314" lon="4.94602">
        <ele>472.34307861328</ele>
        <time>2019-03-28T10:44:02+0100</time>
      </trkpt>
      <trkpt lat="47.25313" lon="4.94602">
        <ele>472.67346191406</ele>
        <time>2019-03-28T10:44:05+0100</time>
      </trkpt>
      <trkpt lat="47.25308" lon="4.94605">
        <ele>472.89770507812</ele>
        <time>2019-03-28T10:44:08+0100</time>
      </trkpt>
      <trkpt lat="47.25305" lon="4.94607">
        <ele>472.94848632812</ele>
        <time>2019-03-28T10:44:11+0100</time>
      </trkpt>
      <trkpt lat="47.25302" lon="4.9461">
        <ele>473.0654296875</ele>
        <time>2019-03-28T10:44:14+0100</time>
      </trkpt>
      <trkpt lat="47.253" lon="4.94612">
        <ele>473.14019775391</ele>
        <time>2019-03-28T10:44:17+0100</time>
      </trkpt>
      <trkpt lat="47.25295" lon="4.94616">
        <ele>473.18786621094</ele>
        <time>2019-03-28T10:44:20+0100</time>
      </trkpt>
      <trkpt lat="47.25296" lon="4.94618">
        <ele>473.26995849609</ele>
        <time>2019-03-28T10:44:23+0100</time>
      </trkpt>
      <trkpt lat="47.25293" lon="4.94623">
        <ele>473.40856933594</ele>
        <time>2019-03-28T10:44:26+0100</time>
      </trkpt>
      <trkpt lat="47.2529" lon="4.94628">
        <ele>473.60406494141</ele>
        <time>2019-03-28T10:44:29+0100</time>
      </trkpt>
      <trkpt lat="47.2529" lon="4.94629">
        <ele>473.79895019531</ele>
        <time>2019-03-28T10:44:32+0100</time>
      </trkpt>
      <trkpt lat="47.25289" lon="4.94632">
        <ele>473.85504150391</ele>
        <time>2019-03-28T10:44:35+0100</time>
      </trkpt>
      <trkpt lat="47.25289" lon="4.94634">
        <ele>473.83239746094</ele>
        <time>2019-03-28T10:44:38+0100</time>
      </trkpt>
      <trkpt lat="47.25288" lon="4.94636">
        <ele>473.82659912109</ele>
        <time>2019-03-28T10:44:41+0100</time>
      </trkpt>
      <trkpt lat="47.25287" lon="4.94639">
        <ele>473.83947753906</ele>
        <time>2019-03-28T10:44:44+0100</time>
      </trkpt>
      <trkpt lat="47.25286" lon="4.94645">
        <ele>473.88818359375</ele>
        <time>2019-03-28T10:44:47+0100</time>
      </trkpt>
      <trkpt lat="47.25286" lon="4.94654">
        <ele>473.83483886719</ele>
        <time>2019-03-28T10:44:50+0100</time>
      </trkpt>
      <trkpt lat="47.25286" lon="4.94657">
        <ele>473.8447265625</ele>
        <time>2019-03-28T10:44:53+0100</time>
      </trkpt>
      <trkpt lat="47.25284" lon="4.94661">
        <ele>473.85754394531</ele>
        <time>2019-03-28T10:44:56+0100</time>
      </trkpt>
      <trkpt lat="47.25281" lon="4.94664">
        <ele>473.88568115234</ele>
        <time>2019-03-28T10:44:59+0100</time>
      </trkpt>
      <trkpt lat="47.25277" lon="4.9467">
        <ele>473.84741210938</ele>
        <time>2019-03-28T10:45:02+0100</time>
      </trkpt>
      <trkpt lat="47.25276" lon="4.94671">
        <ele>473.80279541016</ele>
        <time>2019-03-28T10:45:05+0100</time>
      </trkpt>
      <trkpt lat="47.25277" lon="4.94673">
        <ele>473.87225341797</ele>
        <time>2019-03-28T10:45:08+0100</time>
      </trkpt>
      <trkpt lat="47.25277" lon="4.94676">
        <ele>474.10583496094</ele>
        <time>2019-03-28T10:45:11+0100</time>
      </trkpt>
      <trkpt lat="47.25276" lon="4.9468">
        <ele>474.25531005859</ele>
        <time>2019-03-28T10:45:14+0100</time>
      </trkpt>
      <trkpt lat="47.25271" lon="4.94682">
        <ele>474.37799072266</ele>
        <time>2019-03-28T10:45:17+0100</time>
      </trkpt>
      <trkpt lat="47.25269" lon="4.94684">
        <ele>474.38861083984</ele>
        <time>2019-03-28T10:45:20+0100</time>
      </trkpt>
      <trkpt lat="47.25268" lon="4.94686">
        <ele>474.45343017578</ele>
        <time>2019-03-28T10:45:23+0100</time>
      </trkpt>
      <trkpt lat="47.25267" lon="4.94689">
        <ele>474.35424804688</ele>
        <time>2019-03-28T10:45:26+0100</time>
      </trkpt>
      <trkpt lat="47.25265" lon="4.94692">
        <ele>474.17517089844</ele>
        <time>2019-03-28T10:45:29+0100</time>
      </trkpt>
      <trkpt lat="47.25264" lon="4.94697">
        <ele>474.03240966797</ele>
        <time>2019-03-28T10:45:32+0100</time>
      </trkpt>
      <trkpt lat="47.25263" lon="4.94699">
        <ele>473.88189697266</ele>
        <time>2019-03-28T10:45:35+0100</time>
      </trkpt>
      <trkpt lat="47.25263" lon="4.94701">
        <ele>473.71166992188</ele>
        <time>2019-03-28T10:45:38+0100</time>
      </trkpt>
      <trkpt lat="47.25259" lon="4.94705">
        <ele>473.3984375</ele>
        <time>2019-03-28T10:45:41+0100</time>
      </trkpt>
      <trkpt lat="47.25255" lon="4.94707">
        <ele>473.25805664062</ele>
        <time>2019-03-28T10:45:44+0100</time>
      </trkpt>
      <trkpt lat="47.2525" lon="4.94709">
        <ele>473.03460693359</ele>
        <time>2019-03-28T10:45:47+0100</time>
      </trkpt>
      <trkpt lat="47.25248" lon="4.94712">
        <ele>472.98663330078</ele>
        <time>2019-03-28T10:45:50+0100</time>
      </trkpt>
      <trkpt lat="47.25246" lon="4.94715">
        <ele>473.00427246094</ele>
        <time>2019-03-28T10:45:53+0100</time>
      </trkpt>
      <trkpt lat="47.25242" lon="4.9472">
        <ele>472.95239257812</ele>
        <time>2019-03-28T10:45:56+0100</time>
      </trkpt>
      <trkpt lat="47.25243" lon="4.94725">
        <ele>472.70263671875</ele>
        <time>2019-03-28T10:45:59+0100</time>
      </trkpt>
      <trkpt lat="47.25242" lon="4.94727">
        <ele>472.37322998047</ele>
        <time>2019-03-28T10:46:02+0100</time>
      </trkpt>
      <trkpt lat="47.2524" lon="4.94727">
        <ele>472.23327636719</ele>
        <time>2019-03-28T10:46:05+0100</time>
      </trkpt>
      <trkpt lat="47.25239" lon="4.94733">
        <ele>472.10119628906</ele>
        <time>2019-03-28T10:46:08+0100</time>
      </trkpt>
      <trkpt lat="47.25242" lon="4.94742">
        <ele>472.12591552734</ele>
        <time>2019-03-28T10:46:11+0100</time>
      </trkpt>
      <trkpt lat="47.2524" lon="4.94744">
        <ele>471.94635009766</ele>
        <time>2019-03-28T10:46:14+0100</time>
      </trkpt>
      <trkpt lat="47.25239" lon="4.9475">
        <ele>471.66741943359</ele>
        <time>2019-03-28T10:46:17+0100</time>
      </trkpt>
      <trkpt lat="47.25238" lon="4.94755">
        <ele>471.3349609375</ele>
        <time>2019-03-28T10:46:20+0100</time>
      </trkpt>
      <trkpt lat="47.25235" lon="4.94758">
        <ele>471.15478515625</ele>
        <time>2019-03-28T10:46:23+0100</time>
      </trkpt>
      <trkpt lat="47.25235" lon="4.94762">
        <ele>470.93328857422</ele>
        <time>2019-03-28T10:46:26+0100</time>
      </trkpt>
      <trkpt lat="47.25231" lon="4.9477">
        <ele>470.60711669922</ele>
        <time>2019-03-28T10:46:29+0100</time>
      </trkpt>
      <trkpt lat="47.25227" lon="4.94772">
        <ele>470.22802734375</ele>
        <time>2019-03-28T10:46:32+0100</time>
      </trkpt>
      <trkpt lat="47.25223" lon="4.94776">
        <ele>469.66375732422</ele>
        <time>2019-03-28T10:46:35+0100</time>
      </trkpt>
      <trkpt lat="47.2522" lon="4.94776">
        <ele>469.43859863281</ele>
        <time>2019-03-28T10:46:38+0100</time>
      </trkpt>
      <trkpt lat="47.25221" lon="4.94778">
        <ele>469.11462402344</ele>
        <time>2019-03-28T10:46:41+0100</time>
      </trkpt>
      <trkpt lat="47.2522" lon="4.94782">
        <ele>468.87683105469</ele>
        <time>2019-03-28T10:46:44+0100</time>
      </trkpt>
      <trkpt lat="47.2522" lon="4.94782">
        <ele>468.63415527344</ele>
        <time>2019-03-28T10:46:47+0100</time>
      </trkpt>
      <trkpt lat="47.25219" lon="4.94783">
        <ele>468.39312744141</ele>
        <time>2019-03-28T10:46:50+0100</time>
      </trkpt>
      <trkpt lat="47.25222" lon="4.94787">
        <ele>468.18151855469</ele>
        <time>2019-03-28T10:46:53+0100</time>
      </trkpt>
      <trkpt lat="47.25223" lon="4.94789">
        <ele>467.95947265625</ele>
        <time>2019-03-28T10:46:56+0100</time>
      </trkpt>
      <trkpt lat="47.25222" lon="4.94791">
        <ele>467.66088867188</ele>
        <time>2019-03-28T10:46:59+0100</time>
      </trkpt>
      <trkpt lat="47.2522" lon="4.94793">
        <ele>467.51708984375</ele>
        <time>2019-03-28T10:47:02+0100</time>
      </trkpt>
      <trkpt lat="47.25219" lon="4.94794">
        <ele>467.46545410156</ele>
        <time>2019-03-28T10:47:05+0100</time>
      </trkpt>
      <trkpt lat="47.25218" lon="4.94796">
        <ele>467.42260742188</ele>
        <time>2019-03-28T10:47:08+0100</time>
      </trkpt>
      <trkpt lat="47.25217" lon="4.94799">
        <ele>467.40057373047</ele>
        <time>2019-03-28T10:47:11+0100</time>
      </trkpt>
      <trkpt lat="47.25215" lon="4.94801">
        <ele>467.39849853516</ele>
        <time>2019-03-28T10:47:14+0100</time>
      </trkpt>
      <trkpt lat="47.25214" lon="4.94803">
        <ele>467.38287353516</ele>
        <time>2019-03-28T10:47:17+0100</time>
      </trkpt>
      <trkpt lat="47.2521" lon="4.94803">
        <ele>467.20794677734</ele>
        <time>2019-03-28T10:47:20+0100</time>
      </trkpt>
      <trkpt lat="47.2521" lon="4.94803">
        <ele>466.92333984375</ele>
        <time>2019-03-28T10:47:23+0100</time>
      </trkpt>
      <trkpt lat="47.25207" lon="4.94804">
        <ele>466.75408935547</ele>
        <time>2019-03-28T10:47:26+0100</time>
      </trkpt>
      <trkpt lat="47.25206" lon="4.94804">
        <ele>466.58044433594</ele>
        <time>2019-03-28T10:47:29+0100</time>
      </trkpt>
      <trkpt lat="47.25205" lon="4.94804">
        <ele>466.52307128906</ele>
        <time>2019-03-28T10:47:32+0100</time>
      </trkpt>
      <trkpt lat="47.25195" lon="4.94807">
        <ele>466.39813232422</ele>
        <time>2019-03-28T10:47:35+0100</time>
      </trkpt>
      <trkpt lat="47.25191" lon="4.94807">
        <ele>466.29718017578</ele>
        <time>2019-03-28T10:47:38+0100</time>
      </trkpt>
      <trkpt lat="47.25186" lon="4.9481">
        <ele>466.19885253906</ele>
        <time>2019-03-28T10:47:41+0100</time>
      </trkpt>
      <trkpt lat="47.25181" lon="4.94814">
        <ele>466.12573242188</ele>
        <time>2019-03-28T10:47:44+0100</time>
      </trkpt>
      <trkpt lat="47.25178" lon="4.94818">
        <ele>465.99279785156</ele>
        <time>2019-03-28T10:47:47+0100</time>
      </trkpt>
      <trkpt lat="47.25175" lon="4.9482">
        <ele>465.81823730469</ele>
        <time>2019-03-28T10:47:50+0100</time>
      </trkpt>
      <trkpt lat="47.25174" lon="4.94822">
        <ele>465.63677978516</ele>
        <time>2019-03-28T10:47:53+0100</time>
      </trkpt>
      <trkpt lat="47.25173" lon="4.94824">
        <ele>465.54760742188</ele>
        <time>2019-03-28T10:47:56+0100</time>
      </trkpt>
      <trkpt lat="47.2517" lon="4.94828">
        <ele>465.37158203125</ele>
        <time>2019-03-28T10:47:59+0100</time>
      </trkpt>
      <trkpt lat="47.25167" lon="4.94832">
        <ele>465.20141601562</ele>
        <time>2019-03-28T10:48:02+0100</time>
      </trkpt>
      <trkpt lat="47.25165" lon="4.94835">
        <ele>465.04656982422</ele>
        <time>2019-03-28T10:48:05+0100</time>
      </trkpt>
      <trkpt lat="47.25168" lon="4.9484">
        <ele>464.96374511719</ele>
        <time>2019-03-28T10:48:08+0100</time>
      </trkpt>
      <trkpt lat="47.2517" lon="4.94844">
        <ele>464.92749023438</ele>
        <time>2019-03-28T10:48:11+0100</time>
      </trkpt>
      <trkpt lat="47.25169" lon="4.94848">
        <ele>464.94299316406</ele>
        <time>2019-03-28T10:48:14+0100</time>
      </trkpt>
      <trkpt lat="47.25169" lon="4.94851">
        <ele>464.97845458984</ele>
        <time>2019-03-28T10:48:17+0100</time>
      </trkpt>
      <trkpt lat="47.25168" lon="4.94855">
        <ele>465.07641601562</ele>
        <time>2019-03-28T10:48:20+0100</time>
      </trkpt>
      <trkpt lat="47.25167" lon="4.94858">
        <ele>465.16613769531</ele>
        <time>2019-03-28T10:48:23+0100</time>
      </trkpt>
      <trkpt lat="47.25167" lon="4.9486">
        <ele>465.24182128906</ele>
        <time>2019-03-28T10:48:26+0100</time>
      </trkpt>
      <trkpt lat="47.25167" lon="4.94865">
        <ele>465.30285644531</ele>
        <time>2019-03-28T10:48:29+0100</time>
      </trkpt>
      <trkpt lat="47.25168" lon="4.94869">
        <ele>465.34649658203</ele>
        <time>2019-03-28T10:48:32+0100</time>
      </trkpt>
      <trkpt lat="47.25169" lon="4.94873">
        <ele>465.41241455078</ele>
        <time>2019-03-28T10:48:35+0100</time>
      </trkpt>
      <trkpt lat="47.25168" lon="4.94875">
        <ele>465.53765869141</ele>
        <time>2019-03-28T10:48:38+0100</time>
      </trkpt>
      <trkpt lat="47.25166" lon="4.94878">
        <ele>465.68249511719</ele>
        <time>2019-03-28T10:48:41+0100</time>
      </trkpt>
      <trkpt lat="47.25165" lon="4.94879">
        <ele>465.85095214844</ele>
        <time>2019-03-28T10:48:44+0100</time>
      </trkpt>
      <trkpt lat="47.25163" lon="4.94883">
        <ele>466.03649902344</ele>
        <time>2019-03-28T10:48:47+0100</time>
      </trkpt>
      <trkpt lat="47.2516" lon="4.94885">
        <ele>466.16607666016</ele>
        <time>2019-03-28T10:48:50+0100</time>
      </trkpt>
      <trkpt lat="47.25159" lon="4.9489">
        <ele>466.1962890625</ele>
        <time>2019-03-28T10:48:53+0100</time>
      </trkpt>
      <trkpt lat="47.25154" lon="4.94898">
        <ele>466.02740478516</ele>
        <time>2019-03-28T10:48:56+0100</time>
      </trkpt>
      <trkpt lat="47.25149" lon="4.94903">
        <ele>465.73187255859</ele>
        <time>2019-03-28T10:48:59+0100</time>
      </trkpt>
      <trkpt lat="47.25148" lon="4.94905">
        <ele>464.96759033203</ele>
        <time>2019-03-28T10:49:02+0100</time>
      </trkpt>
      <trkpt lat="47.25148" lon="4.94903">
        <ele>464.50158691406</ele>
        <time>2019-03-28T10:49:05+0100</time>
      </trkpt>
      <trkpt lat="47.25148" lon="4.94904">
        <ele>464.37615966797</ele>
        <time>2019-03-28T10:49:08+0100</time>
      </trkpt>
      <trkpt lat="47.25147" lon="4.94904">
        <ele>464.25836181641</ele>
        <time>2019-03-28T10:49:11+0100</time>
      </trkpt>
      <trkpt lat="47.25147" lon="4.94904">
        <ele>464.16119384766</ele>
        <time>2019-03-28T10:49:14+0100</time>
      </trkpt>
      <trkpt lat="47.25147" lon="4.94904">
        <ele>464.04827880859</ele>
        <time>2019-03-28T10:49:17+0100</time>
      </trkpt>
      <trkpt lat="47.25147" lon="4.94904">
        <ele>463.90728759766</ele>
        <time>2019-03-28T10:49:20+0100</time>
      </trkpt>
      <trkpt lat="47.25147" lon="4.94904">
        <ele>463.76315307617</ele>
        <time>2019-03-28T10:49:23+0100</time>
      </trkpt>
      <trkpt lat="47.25144" lon="4.94909">
        <ele>462.59564208984</ele>
        <time>2019-03-28T10:49:26+0100</time>
      </trkpt>
      <trkpt lat="47.25143" lon="4.9491">
        <ele>462.35043334961</ele>
        <time>2019-03-28T10:49:29+0100</time>
      </trkpt>
      <trkpt lat="47.25143" lon="4.9491">
        <ele>462.07446289062</ele>
        <time>2019-03-28T10:49:32+0100</time>
      </trkpt>
      <trkpt lat="47.25142" lon="4.94911">
        <ele>461.82080078125</ele>
        <time>2019-03-28T10:49:35+0100</time>
      </trkpt>
      <trkpt lat="47.25142" lon="4.94911">
        <ele>461.58834838867</ele>
        <time>2019-03-28T10:49:38+0100</time>
      </trkpt>
      <trkpt lat="47.25142" lon="4.94912">
        <ele>461.37414550781</ele>
        <time>2019-03-28T10:49:41+0100</time>
      </trkpt>
      <trkpt lat="47.25142" lon="4.94912">
        <ele>461.17315673828</ele>
        <time>2019-03-28T10:49:44+0100</time>
      </trkpt>
      <trkpt lat="47.25142" lon="4.94913">
        <ele>460.98065185547</ele>
        <time>2019-03-28T10:49:47+0100</time>
      </trkpt>
      <trkpt lat="47.25142" lon="4.94913">
        <ele>460.79473876953</ele>
        <time>2019-03-28T10:49:50+0100</time>
      </trkpt>
      <trkpt lat="47.25142" lon="4.94913">
        <ele>460.61236572266</ele>
        <time>2019-03-28T10:49:53+0100</time>
      </trkpt>
      <trkpt lat="47.25142" lon="4.94913">
        <ele>460.43002319336</ele>
        <time>2019-03-28T10:49:56+0100</time>
      </trkpt>
      <trkpt lat="47.25142" lon="4.94913">
        <ele>460.25192260742</ele>
        <time>2019-03-28T10:49:59+0100</time>
      </trkpt>
      <trkpt lat="47.25142" lon="4.94913">
        <ele>460.07507324219</ele>
        <time>2019-03-28T10:50:02+0100</time>
      </trkpt>
      <trkpt lat="47.25142" lon="4.94913">
        <ele>459.89825439453</ele>
        <time>2019-03-28T10:50:05+0100</time>
      </trkpt>
      <trkpt lat="47.25142" lon="4.94914">
        <ele>459.71676635742</ele>
        <time>2019-03-28T10:50:08+0100</time>
      </trkpt>
      <trkpt lat="47.25142" lon="4.94914">
        <ele>459.52783203125</ele>
        <time>2019-03-28T10:50:11+0100</time>
      </trkpt>
      <trkpt lat="47.25142" lon="4.94914">
        <ele>459.33630371094</ele>
        <time>2019-03-28T10:50:14+0100</time>
      </trkpt>
      <trkpt lat="47.25141" lon="4.94914">
        <ele>458.56985473633</ele>
        <time>2019-03-28T10:50:17+0100</time>
      </trkpt>
      <trkpt lat="47.2514" lon="4.94913">
        <ele>456.69784545898</ele>
        <time>2019-03-28T10:50:20+0100</time>
      </trkpt>
      <trkpt lat="47.25139" lon="4.94914">
        <ele>455.99188232422</ele>
        <time>2019-03-28T10:50:23+0100</time>
      </trkpt>
      <trkpt lat="47.25138" lon="4.94914">
        <ele>455.82022094727</ele>
        <time>2019-03-28T10:50:26+0100</time>
      </trkpt>
      <trkpt lat="47.25139" lon="4.94913">
        <ele>454.09683227539</ele>
        <time>2019-03-28T10:50:29+0100</time>
      </trkpt>
      <trkpt lat="47.25138" lon="4.94914">
        <ele>453.46588134766</ele>
        <time>2019-03-28T10:50:32+0100</time>
      </trkpt>
      <trkpt lat="47.25137" lon="4.94916">
        <ele>452.00317382812</ele>
        <time>2019-03-28T10:50:35+0100</time>
      </trkpt>
      <trkpt lat="47.25137" lon="4.94918">
        <ele>450.70156860352</ele>
        <time>2019-03-28T10:50:38+0100</time>
      </trkpt>
      <trkpt lat="47.25135" lon="4.9492">
        <ele>449.87203979492</ele>
        <time>2019-03-28T10:50:41+0100</time>
      </trkpt>
      <trkpt lat="47.25135" lon="4.94922">
        <ele>449.12454223633</ele>
        <time>2019-03-28T10:50:44+0100</time>
      </trkpt>
      <trkpt lat="47.25135" lon="4.94924">
        <ele>448.14193725586</ele>
        <time>2019-03-28T10:50:47+0100</time>
      </trkpt>
      <trkpt lat="47.25134" lon="4.94925">
        <ele>447.77401733398</ele>
        <time>2019-03-28T10:50:50+0100</time>
      </trkpt>
      <trkpt lat="47.25134" lon="4.94927">
        <ele>446.94458007812</ele>
        <time>2019-03-28T10:50:53+0100</time>
      </trkpt>
      <trkpt lat="47.25133" lon="4.9493">
        <ele>446.22210693359</ele>
        <time>2019-03-28T10:50:56+0100</time>
      </trkpt>
      <trkpt lat="47.25133" lon="4.94934">
        <ele>445.58026123047</ele>
        <time>2019-03-28T10:50:59+0100</time>
      </trkpt>
      <trkpt lat="47.25133" lon="4.94935">
        <ele>445.52249145508</ele>
        <time>2019-03-28T10:51:02+0100</time>
      </trkpt>
      <trkpt lat="47.25133" lon="4.94935">
        <ele>445.46557617188</ele>
        <time>2019-03-28T10:51:05+0100</time>
      </trkpt>
      <trkpt lat="47.25133" lon="4.94936">
        <ele>445.40505981445</ele>
        <time>2019-03-28T10:51:08+0100</time>
      </trkpt>
      <trkpt lat="47.25133" lon="4.94938">
        <ele>445.17700195312</ele>
        <time>2019-03-28T10:51:11+0100</time>
      </trkpt>
      <trkpt lat="47.25134" lon="4.94941">
        <ele>444.96710205078</ele>
        <time>2019-03-28T10:51:14+0100</time>
      </trkpt>
      <trkpt lat="47.25135" lon="4.94943">
        <ele>444.65396118164</ele>
        <time>2019-03-28T10:51:17+0100</time>
      </trkpt>
      <trkpt lat="47.25135" lon="4.94946">
        <ele>444.49270629883</ele>
        <time>2019-03-28T10:51:20+0100</time>
      </trkpt>
      <trkpt lat="47.25135" lon="4.9495">
        <ele>444.23510742188</ele>
        <time>2019-03-28T10:51:23+0100</time>
      </trkpt>
      <trkpt lat="47.25135" lon="4.94951">
        <ele>444.20245361328</ele>
        <time>2019-03-28T10:51:26+0100</time>
      </trkpt>
      <trkpt lat="47.25135" lon="4.94951">
        <ele>444.17102050781</ele>
        <time>2019-03-28T10:51:29+0100</time>
      </trkpt>
      <trkpt lat="47.25137" lon="4.94952">
        <ele>443.92221069336</ele>
        <time>2019-03-28T10:51:32+0100</time>
      </trkpt>
      <trkpt lat="47.25138" lon="4.94953">
        <ele>443.77557373047</ele>
        <time>2019-03-28T10:51:35+0100</time>
      </trkpt>
      <trkpt lat="47.25138" lon="4.94953">
        <ele>443.7380065918</ele>
        <time>2019-03-28T10:51:38+0100</time>
      </trkpt>
      <trkpt lat="47.25139" lon="4.94955">
        <ele>443.47244262695</ele>
        <time>2019-03-28T10:51:41+0100</time>
      </trkpt>
      <trkpt lat="47.2514" lon="4.94956">
        <ele>443.32763671875</ele>
        <time>2019-03-28T10:51:44+0100</time>
      </trkpt>
      <trkpt lat="47.25141" lon="4.94958">
        <ele>443.19134521484</ele>
        <time>2019-03-28T10:51:47+0100</time>
      </trkpt>
      <trkpt lat="47.25142" lon="4.9496">
        <ele>442.88330078125</ele>
        <time>2019-03-28T10:51:50+0100</time>
      </trkpt>
      <trkpt lat="47.25142" lon="4.94961">
        <ele>442.68447875977</ele>
        <time>2019-03-28T10:51:53+0100</time>
      </trkpt>
      <trkpt lat="47.25143" lon="4.94963">
        <ele>442.42391967773</ele>
        <time>2019-03-28T10:51:56+0100</time>
      </trkpt>
      <trkpt lat="47.25144" lon="4.94966">
        <ele>442.20797729492</ele>
        <time>2019-03-28T10:51:59+0100</time>
      </trkpt>
      <trkpt lat="47.25145" lon="4.94969">
        <ele>442.04904174805</ele>
        <time>2019-03-28T10:52:02+0100</time>
      </trkpt>
      <trkpt lat="47.25146" lon="4.94972">
        <ele>441.90237426758</ele>
        <time>2019-03-28T10:52:05+0100</time>
      </trkpt>
      <trkpt lat="47.25146" lon="4.94974">
        <ele>441.79339599609</ele>
        <time>2019-03-28T10:52:08+0100</time>
      </trkpt>
      <trkpt lat="47.25146" lon="4.94976">
        <ele>441.74768066406</ele>
        <time>2019-03-28T10:52:11+0100</time>
      </trkpt>
      <trkpt lat="47.25146" lon="4.94979">
        <ele>441.7951965332</ele>
        <time>2019-03-28T10:52:14+0100</time>
      </trkpt>
      <trkpt lat="47.25146" lon="4.94982">
        <ele>441.90463256836</ele>
        <time>2019-03-28T10:52:17+0100</time>
      </trkpt>
      <trkpt lat="47.25146" lon="4.94983">
        <ele>442.10012817383</ele>
        <time>2019-03-28T10:52:20+0100</time>
      </trkpt>
      <trkpt lat="47.25145" lon="4.94986">
        <ele>442.31628417969</ele>
        <time>2019-03-28T10:52:23+0100</time>
      </trkpt>
      <trkpt lat="47.25146" lon="4.94988">
        <ele>442.50659179688</ele>
        <time>2019-03-28T10:52:26+0100</time>
      </trkpt>
      <trkpt lat="47.25146" lon="4.94991">
        <ele>442.73181152344</ele>
        <time>2019-03-28T10:52:29+0100</time>
      </trkpt>
      <trkpt lat="47.25146" lon="4.94994">
        <ele>442.96801757812</ele>
        <time>2019-03-28T10:52:32+0100</time>
      </trkpt>
      <trkpt lat="47.25146" lon="4.94996">
        <ele>443.20687866211</ele>
        <time>2019-03-28T10:52:35+0100</time>
      </trkpt>
      <trkpt lat="47.25146" lon="4.95001">
        <ele>443.39517211914</ele>
        <time>2019-03-28T10:52:38+0100</time>
      </trkpt>
      <trkpt lat="47.25145" lon="4.95004">
        <ele>443.56390380859</ele>
        <time>2019-03-28T10:52:41+0100</time>
      </trkpt>
      <trkpt lat="47.25146" lon="4.95007">
        <ele>443.65481567383</ele>
        <time>2019-03-28T10:52:44+0100</time>
      </trkpt>
      <trkpt lat="47.25146" lon="4.95009">
        <ele>443.71142578125</ele>
        <time>2019-03-28T10:52:47+0100</time>
      </trkpt>
      <trkpt lat="47.25146" lon="4.9501">
        <ele>443.72543334961</ele>
        <time>2019-03-28T10:52:50+0100</time>
      </trkpt>
      <trkpt lat="47.25145" lon="4.95013">
        <ele>443.70986938477</ele>
        <time>2019-03-28T10:52:53+0100</time>
      </trkpt>
      <trkpt lat="47.25146" lon="4.95016">
        <ele>443.68762207031</ele>
        <time>2019-03-28T10:52:56+0100</time>
      </trkpt>
      <trkpt lat="47.25147" lon="4.95019">
        <ele>443.71105957031</ele>
        <time>2019-03-28T10:52:59+0100</time>
      </trkpt>
      <trkpt lat="47.25148" lon="4.95022">
        <ele>443.82736206055</ele>
        <time>2019-03-28T10:53:02+0100</time>
      </trkpt>
      <trkpt lat="47.25148" lon="4.95024">
        <ele>443.94482421875</ele>
        <time>2019-03-28T10:53:05+0100</time>
      </trkpt>
      <trkpt lat="47.25149" lon="4.95025">
        <ele>444.16439819336</ele>
        <time>2019-03-28T10:53:08+0100</time>
      </trkpt>
      <trkpt lat="47.25149" lon="4.95029">
        <ele>444.45709228516</ele>
        <time>2019-03-28T10:53:11+0100</time>
      </trkpt>
      <trkpt lat="47.25149" lon="4.95031">
        <ele>444.74194335938</ele>
        <time>2019-03-28T10:53:14+0100</time>
      </trkpt>
      <trkpt lat="47.25149" lon="4.95032">
        <ele>445.0153503418</ele>
        <time>2019-03-28T10:53:17+0100</time>
      </trkpt>
      <trkpt lat="47.25149" lon="4.95034">
        <ele>445.19653320312</ele>
        <time>2019-03-28T10:53:20+0100</time>
      </trkpt>
      <trkpt lat="47.25148" lon="4.95037">
        <ele>445.40301513672</ele>
        <time>2019-03-28T10:53:23+0100</time>
      </trkpt>
      <trkpt lat="47.25147" lon="4.9504">
        <ele>445.57312011719</ele>
        <time>2019-03-28T10:53:26+0100</time>
      </trkpt>
      <trkpt lat="47.25147" lon="4.95042">
        <ele>445.72680664062</ele>
        <time>2019-03-28T10:53:29+0100</time>
      </trkpt>
      <trkpt lat="47.25147" lon="4.95045">
        <ele>445.88824462891</ele>
        <time>2019-03-28T10:53:32+0100</time>
      </trkpt>
      <trkpt lat="47.25146" lon="4.95047">
        <ele>446.05895996094</ele>
        <time>2019-03-28T10:53:35+0100</time>
      </trkpt>
      <trkpt lat="47.25145" lon="4.95048">
        <ele>446.23834228516</ele>
        <time>2019-03-28T10:53:38+0100</time>
      </trkpt>
      <trkpt lat="47.25145" lon="4.9505">
        <ele>446.42977905273</ele>
        <time>2019-03-28T10:53:41+0100</time>
      </trkpt>
      <trkpt lat="47.25143" lon="4.95052">
        <ele>446.60778808594</ele>
        <time>2019-03-28T10:53:44+0100</time>
      </trkpt>
      <trkpt lat="47.25142" lon="4.95055">
        <ele>446.78286743164</ele>
        <time>2019-03-28T10:53:47+0100</time>
      </trkpt>
      <trkpt lat="47.2514" lon="4.95058">
        <ele>446.95138549805</ele>
        <time>2019-03-28T10:53:50+0100</time>
      </trkpt>
      <trkpt lat="47.25139" lon="4.95059">
        <ele>447.12652587891</ele>
        <time>2019-03-28T10:53:53+0100</time>
      </trkpt>
      <trkpt lat="47.25138" lon="4.95062">
        <ele>447.27883911133</ele>
        <time>2019-03-28T10:53:56+0100</time>
      </trkpt>
      <trkpt lat="47.25137" lon="4.95065">
        <ele>447.41748046875</ele>
        <time>2019-03-28T10:53:59+0100</time>
      </trkpt>
      <trkpt lat="47.25138" lon="4.95068">
        <ele>447.4729309082</ele>
        <time>2019-03-28T10:54:02+0100</time>
      </trkpt>
      <trkpt lat="47.25139" lon="4.95072">
        <ele>447.63714599609</ele>
        <time>2019-03-28T10:54:05+0100</time>
      </trkpt>
      <trkpt lat="47.2514" lon="4.95073">
        <ele>447.76406860352</ele>
        <time>2019-03-28T10:54:08+0100</time>
      </trkpt>
      <trkpt lat="47.2514" lon="4.95075">
        <ele>447.7878112793</ele>
        <time>2019-03-28T10:54:11+0100</time>
      </trkpt>
      <trkpt lat="47.2514" lon="4.95075">
        <ele>447.81149291992</ele>
        <time>2019-03-28T10:54:14+0100</time>
      </trkpt>
      <trkpt lat="47.2514" lon="4.95075">
        <ele>447.82650756836</ele>
        <time>2019-03-28T10:54:17+0100</time>
      </trkpt>
      <trkpt lat="47.2514" lon="4.95075">
        <ele>447.83813476562</ele>
        <time>2019-03-28T10:54:20+0100</time>
      </trkpt>
      <trkpt lat="47.2514" lon="4.95076">
        <ele>447.84851074219</ele>
        <time>2019-03-28T10:54:23+0100</time>
      </trkpt>
      <trkpt lat="47.25139" lon="4.9508">
        <ele>447.87673950195</ele>
        <time>2019-03-28T10:54:26+0100</time>
      </trkpt>
      <trkpt lat="47.25139" lon="4.95081">
        <ele>447.85787963867</ele>
        <time>2019-03-28T10:54:29+0100</time>
      </trkpt>
      <trkpt lat="47.25139" lon="4.95081">
        <ele>447.82696533203</ele>
        <time>2019-03-28T10:54:32+0100</time>
      </trkpt>
      <trkpt lat="47.25139" lon="4.95081">
        <ele>447.79040527344</ele>
        <time>2019-03-28T10:54:35+0100</time>
      </trkpt>
      <trkpt lat="47.25139" lon="4.95082">
        <ele>447.75451660156</ele>
        <time>2019-03-28T10:54:38+0100</time>
      </trkpt>
      <trkpt lat="47.25138" lon="4.95083">
        <ele>447.71075439453</ele>
        <time>2019-03-28T10:54:41+0100</time>
      </trkpt>
      <trkpt lat="47.25138" lon="4.95084">
        <ele>447.66290283203</ele>
        <time>2019-03-28T10:54:44+0100</time>
      </trkpt>
      <trkpt lat="47.25138" lon="4.95084">
        <ele>447.61410522461</ele>
        <time>2019-03-28T10:54:47+0100</time>
      </trkpt>
      <trkpt lat="47.25138" lon="4.95083">
        <ele>447.56533813477</ele>
        <time>2019-03-28T10:54:50+0100</time>
      </trkpt>
      <trkpt lat="47.25137" lon="4.95083">
        <ele>447.51708984375</ele>
        <time>2019-03-28T10:54:53+0100</time>
      </trkpt>
      <trkpt lat="47.25137" lon="4.95084">
        <ele>447.19912719727</ele>
        <time>2019-03-28T10:54:56+0100</time>
      </trkpt>
      <trkpt lat="47.25137" lon="4.95083">
        <ele>447.00357055664</ele>
        <time>2019-03-28T10:54:59+0100</time>
      </trkpt>
      <trkpt lat="47.25138" lon="4.95084">
        <ele>446.81759643555</ele>
        <time>2019-03-28T10:55:02+0100</time>
      </trkpt>
      <trkpt lat="47.25139" lon="4.95086">
        <ele>446.40725708008</ele>
        <time>2019-03-28T10:55:06+0100</time>
      </trkpt>
      <trkpt lat="47.25142" lon="4.95088">
        <ele>446.17211914062</ele>
        <time>2019-03-28T10:55:09+0100</time>
      </trkpt>
      <trkpt lat="47.25143" lon="4.95088">
        <ele>445.95697021484</ele>
        <time>2019-03-28T10:55:12+0100</time>
      </trkpt>
      <trkpt lat="47.25143" lon="4.95089">
        <ele>445.66213989258</ele>
        <time>2019-03-28T10:55:15+0100</time>
      </trkpt>
      <trkpt lat="47.25146" lon="4.95092">
        <ele>445.45669555664</ele>
        <time>2019-03-28T10:55:18+0100</time>
      </trkpt>
      <trkpt lat="47.25147" lon="4.95093">
        <ele>445.34274291992</ele>
        <time>2019-03-28T10:55:21+0100</time>
      </trkpt>
      <trkpt lat="47.25147" lon="4.95095">
        <ele>445.33377075195</ele>
        <time>2019-03-28T10:55:24+0100</time>
      </trkpt>
      <trkpt lat="47.25147" lon="4.95096">
        <ele>445.42092895508</ele>
        <time>2019-03-28T10:55:27+0100</time>
      </trkpt>
      <trkpt lat="47.25147" lon="4.95099">
        <ele>445.54306030273</ele>
        <time>2019-03-28T10:55:30+0100</time>
      </trkpt>
      <trkpt lat="47.25147" lon="4.95105">
        <ele>445.79043579102</ele>
        <time>2019-03-28T10:55:33+0100</time>
      </trkpt>
      <trkpt lat="47.25147" lon="4.9511">
        <ele>446.08978271484</ele>
        <time>2019-03-28T10:55:36+0100</time>
      </trkpt>
      <trkpt lat="47.25146" lon="4.95112">
        <ele>446.44183349609</ele>
        <time>2019-03-28T10:55:39+0100</time>
      </trkpt>
      <trkpt lat="47.25146" lon="4.95118">
        <ele>446.87615966797</ele>
        <time>2019-03-28T10:55:42+0100</time>
      </trkpt>
      <trkpt lat="47.25146" lon="4.95121">
        <ele>447.36871337891</ele>
        <time>2019-03-28T10:55:45+0100</time>
      </trkpt>
      <trkpt lat="47.25147" lon="4.95123">
        <ele>447.94583129883</ele>
        <time>2019-03-28T10:55:48+0100</time>
      </trkpt>
      <trkpt lat="47.25146" lon="4.95126">
        <ele>448.54043579102</ele>
        <time>2019-03-28T10:55:51+0100</time>
      </trkpt>
      <trkpt lat="47.25144" lon="4.9513">
        <ele>449.12759399414</ele>
        <time>2019-03-28T10:55:54+0100</time>
      </trkpt>
      <trkpt lat="47.25143" lon="4.95134">
        <ele>449.70684814453</ele>
        <time>2019-03-28T10:55:57+0100</time>
      </trkpt>
      <trkpt lat="47.25142" lon="4.95138">
        <ele>450.26239013672</ele>
        <time>2019-03-28T10:56:00+0100</time>
      </trkpt>
      <trkpt lat="47.2514" lon="4.95145">
        <ele>450.75384521484</ele>
        <time>2019-03-28T10:56:03+0100</time>
      </trkpt>
      <trkpt lat="47.2514" lon="4.95149">
        <ele>451.05285644531</ele>
        <time>2019-03-28T10:56:06+0100</time>
      </trkpt>
      <trkpt lat="47.25139" lon="4.95152">
        <ele>451.4775390625</ele>
        <time>2019-03-28T10:56:09+0100</time>
      </trkpt>
      <trkpt lat="47.25138" lon="4.95155">
        <ele>451.9084777832</ele>
        <time>2019-03-28T10:56:12+0100</time>
      </trkpt>
      <trkpt lat="47.25137" lon="4.95158">
        <ele>452.34805297852</ele>
        <time>2019-03-28T10:56:15+0100</time>
      </trkpt>
      <trkpt lat="47.25136" lon="4.95162">
        <ele>452.84301757812</ele>
        <time>2019-03-28T10:56:18+0100</time>
      </trkpt>
      <trkpt lat="47.25135" lon="4.95165">
        <ele>453.35263061523</ele>
        <time>2019-03-28T10:56:21+0100</time>
      </trkpt>
      <trkpt lat="47.25134" lon="4.95169">
        <ele>453.69778442383</ele>
        <time>2019-03-28T10:56:24+0100</time>
      </trkpt>
      <trkpt lat="47.25133" lon="4.95171">
        <ele>454.13305664062</ele>
        <time>2019-03-28T10:56:27+0100</time>
      </trkpt>
      <trkpt lat="47.25131" lon="4.95174">
        <ele>454.51116943359</ele>
        <time>2019-03-28T10:56:30+0100</time>
      </trkpt>
      <trkpt lat="47.2513" lon="4.95177">
        <ele>454.87026977539</ele>
        <time>2019-03-28T10:56:33+0100</time>
      </trkpt>
      <trkpt lat="47.25129" lon="4.95179">
        <ele>455.21670532227</ele>
        <time>2019-03-28T10:56:36+0100</time>
      </trkpt>
      <trkpt lat="47.25127" lon="4.95181">
        <ele>455.55667114258</ele>
        <time>2019-03-28T10:56:39+0100</time>
      </trkpt>
      <trkpt lat="47.25125" lon="4.95183">
        <ele>455.87265014648</ele>
        <time>2019-03-28T10:56:42+0100</time>
      </trkpt>
      <trkpt lat="47.25123" lon="4.95187">
        <ele>456.15264892578</ele>
        <time>2019-03-28T10:56:45+0100</time>
      </trkpt>
      <trkpt lat="47.25121" lon="4.95189">
        <ele>456.4055480957</ele>
        <time>2019-03-28T10:56:48+0100</time>
      </trkpt>
      <trkpt lat="47.25119" lon="4.95192">
        <ele>456.61291503906</ele>
        <time>2019-03-28T10:56:51+0100</time>
      </trkpt>
      <trkpt lat="47.25118" lon="4.95195">
        <ele>456.80258178711</ele>
        <time>2019-03-28T10:56:54+0100</time>
      </trkpt>
      <trkpt lat="47.25117" lon="4.952">
        <ele>456.95462036133</ele>
        <time>2019-03-28T10:56:57+0100</time>
      </trkpt>
      <trkpt lat="47.25117" lon="4.95204">
        <ele>457.06268310547</ele>
        <time>2019-03-28T10:57:00+0100</time>
      </trkpt>
      <trkpt lat="47.25116" lon="4.95208">
        <ele>457.15347290039</ele>
        <time>2019-03-28T10:57:03+0100</time>
      </trkpt>
      <trkpt lat="47.25115" lon="4.95211">
        <ele>457.21630859375</ele>
        <time>2019-03-28T10:57:06+0100</time>
      </trkpt>
      <trkpt lat="47.25115" lon="4.95215">
        <ele>457.25143432617</ele>
        <time>2019-03-28T10:57:09+0100</time>
      </trkpt>
      <trkpt lat="47.25115" lon="4.95218">
        <ele>457.29122924805</ele>
        <time>2019-03-28T10:57:12+0100</time>
      </trkpt>
      <trkpt lat="47.25115" lon="4.95222">
        <ele>457.34875488281</ele>
        <time>2019-03-28T10:57:15+0100</time>
      </trkpt>
      <trkpt lat="47.25114" lon="4.95225">
        <ele>457.41793823242</ele>
        <time>2019-03-28T10:57:18+0100</time>
      </trkpt>
      <trkpt lat="47.25113" lon="4.95228">
        <ele>457.50744628906</ele>
        <time>2019-03-28T10:57:21+0100</time>
      </trkpt>
      <trkpt lat="47.25113" lon="4.9523">
        <ele>457.62167358398</ele>
        <time>2019-03-28T10:57:24+0100</time>
      </trkpt>
      <trkpt lat="47.25114" lon="4.95234">
        <ele>457.74966430664</ele>
        <time>2019-03-28T10:57:27+0100</time>
      </trkpt>
      <trkpt lat="47.25115" lon="4.95237">
        <ele>457.82302856445</ele>
        <time>2019-03-28T10:57:30+0100</time>
      </trkpt>
      <trkpt lat="47.25115" lon="4.9524">
        <ele>457.85153198242</ele>
        <time>2019-03-28T10:57:33+0100</time>
      </trkpt>
      <trkpt lat="47.25116" lon="4.95244">
        <ele>457.86520385742</ele>
        <time>2019-03-28T10:57:36+0100</time>
      </trkpt>
      <trkpt lat="47.25117" lon="4.9525">
        <ele>457.85382080078</ele>
        <time>2019-03-28T10:57:39+0100</time>
      </trkpt>
      <trkpt lat="47.25118" lon="4.95253">
        <ele>457.84078979492</ele>
        <time>2019-03-28T10:57:42+0100</time>
      </trkpt>
      <trkpt lat="47.25119" lon="4.95255">
        <ele>457.8405456543</ele>
        <time>2019-03-28T10:57:45+0100</time>
      </trkpt>
      <trkpt lat="47.25119" lon="4.95258">
        <ele>457.83889770508</ele>
        <time>2019-03-28T10:57:48+0100</time>
      </trkpt>
      <trkpt lat="47.2512" lon="4.95262">
        <ele>457.87844848633</ele>
        <time>2019-03-28T10:57:51+0100</time>
      </trkpt>
      <trkpt lat="47.25119" lon="4.95266">
        <ele>457.96038818359</ele>
        <time>2019-03-28T10:57:54+0100</time>
      </trkpt>
      <trkpt lat="47.25119" lon="4.95268">
        <ele>458.10940551758</ele>
        <time>2019-03-28T10:57:57+0100</time>
      </trkpt>
      <trkpt lat="47.25118" lon="4.95272">
        <ele>458.25442504883</ele>
        <time>2019-03-28T10:58:00+0100</time>
      </trkpt>
      <trkpt lat="47.25117" lon="4.95276">
        <ele>458.48983764648</ele>
        <time>2019-03-28T10:58:03+0100</time>
      </trkpt>
      <trkpt lat="47.25118" lon="4.95279">
        <ele>458.72384643555</ele>
        <time>2019-03-28T10:58:06+0100</time>
      </trkpt>
      <trkpt lat="47.25118" lon="4.95282">
        <ele>458.74749755859</ele>
        <time>2019-03-28T10:58:09+0100</time>
      </trkpt>
      <trkpt lat="47.25118" lon="4.95282">
        <ele>458.77038574219</ele>
        <time>2019-03-28T10:58:12+0100</time>
      </trkpt>
      <trkpt lat="47.25117" lon="4.95286">
        <ele>458.97143554688</ele>
        <time>2019-03-28T10:58:15+0100</time>
      </trkpt>
      <trkpt lat="47.25116" lon="4.95289">
        <ele>459.12017822266</ele>
        <time>2019-03-28T10:58:18+0100</time>
      </trkpt>
      <trkpt lat="47.25114" lon="4.95292">
        <ele>459.23858642578</ele>
        <time>2019-03-28T10:58:21+0100</time>
      </trkpt>
      <trkpt lat="47.25113" lon="4.95295">
        <ele>459.34268188477</ele>
        <time>2019-03-28T10:58:24+0100</time>
      </trkpt>
      <trkpt lat="47.25112" lon="4.95298">
        <ele>459.44760131836</ele>
        <time>2019-03-28T10:58:27+0100</time>
      </trkpt>
      <trkpt lat="47.25111" lon="4.95302">
        <ele>459.55978393555</ele>
        <time>2019-03-28T10:58:30+0100</time>
      </trkpt>
      <trkpt lat="47.2511" lon="4.95306">
        <ele>459.6799621582</ele>
        <time>2019-03-28T10:58:33+0100</time>
      </trkpt>
      <trkpt lat="47.25109" lon="4.95311">
        <ele>459.80416870117</ele>
        <time>2019-03-28T10:58:36+0100</time>
      </trkpt>
      <trkpt lat="47.25108" lon="4.95315">
        <ele>459.93005371094</ele>
        <time>2019-03-28T10:58:39+0100</time>
      </trkpt>
      <trkpt lat="47.25107" lon="4.95319">
        <ele>460.07522583008</ele>
        <time>2019-03-28T10:58:42+0100</time>
      </trkpt>
      <trkpt lat="47.25106" lon="4.95323">
        <ele>460.23937988281</ele>
        <time>2019-03-28T10:58:45+0100</time>
      </trkpt>
      <trkpt lat="47.25105" lon="4.95326">
        <ele>460.40765380859</ele>
        <time>2019-03-28T10:58:48+0100</time>
      </trkpt>
      <trkpt lat="47.25104" lon="4.9533">
        <ele>460.56695556641</ele>
        <time>2019-03-28T10:58:51+0100</time>
      </trkpt>
      <trkpt lat="47.25103" lon="4.95333">
        <ele>460.70138549805</ele>
        <time>2019-03-28T10:58:54+0100</time>
      </trkpt>
      <trkpt lat="47.25102" lon="4.95337">
        <ele>460.82928466797</ele>
        <time>2019-03-28T10:58:57+0100</time>
      </trkpt>
      <trkpt lat="47.25101" lon="4.95341">
        <ele>460.95056152344</ele>
        <time>2019-03-28T10:59:00+0100</time>
      </trkpt>
      <trkpt lat="47.251" lon="4.95346">
        <ele>461.07244873047</ele>
        <time>2019-03-28T10:59:03+0100</time>
      </trkpt>
      <trkpt lat="47.25099" lon="4.95351">
        <ele>461.19616699219</ele>
        <time>2019-03-28T10:59:06+0100</time>
      </trkpt>
      <trkpt lat="47.25097" lon="4.95356">
        <ele>461.28656005859</ele>
        <time>2019-03-28T10:59:09+0100</time>
      </trkpt>
      <trkpt lat="47.25097" lon="4.95358">
        <ele>461.30828857422</ele>
        <time>2019-03-28T10:59:12+0100</time>
      </trkpt>
      <trkpt lat="47.25096" lon="4.95359">
        <ele>461.3024597168</ele>
        <time>2019-03-28T10:59:15+0100</time>
      </trkpt>
      <trkpt lat="47.25096" lon="4.95359">
        <ele>461.28890991211</ele>
        <time>2019-03-28T10:59:18+0100</time>
      </trkpt>
      <trkpt lat="47.25096" lon="4.95359">
        <ele>461.27261352539</ele>
        <time>2019-03-28T10:59:21+0100</time>
      </trkpt>
      <trkpt lat="47.25096" lon="4.95359">
        <ele>461.25631713867</ele>
        <time>2019-03-28T10:59:24+0100</time>
      </trkpt>
      <trkpt lat="47.25097" lon="4.9536">
        <ele>461.24606323242</ele>
        <time>2019-03-28T10:59:27+0100</time>
      </trkpt>
      <trkpt lat="47.25097" lon="4.9536">
        <ele>461.24069213867</ele>
        <time>2019-03-28T10:59:30+0100</time>
      </trkpt>
      <trkpt lat="47.25097" lon="4.9536">
        <ele>461.23199462891</ele>
        <time>2019-03-28T10:59:33+0100</time>
      </trkpt>
      <trkpt lat="47.25098" lon="4.95362">
        <ele>461.15603637695</ele>
        <time>2019-03-28T10:59:36+0100</time>
      </trkpt>
      <trkpt lat="47.25098" lon="4.95363">
        <ele>461.14254760742</ele>
        <time>2019-03-28T10:59:39+0100</time>
      </trkpt>
      <trkpt lat="47.25098" lon="4.95363">
        <ele>461.12619018555</ele>
        <time>2019-03-28T10:59:42+0100</time>
      </trkpt>
      <trkpt lat="47.25098" lon="4.95364">
        <ele>461.10272216797</ele>
        <time>2019-03-28T10:59:45+0100</time>
      </trkpt>
      <trkpt lat="47.25098" lon="4.95365">
        <ele>461.06793212891</ele>
        <time>2019-03-28T10:59:48+0100</time>
      </trkpt>
      <trkpt lat="47.25098" lon="4.95365">
        <ele>461.02795410156</ele>
        <time>2019-03-28T10:59:51+0100</time>
      </trkpt>
      <trkpt lat="47.25098" lon="4.95367">
        <ele>460.7248840332</ele>
        <time>2019-03-28T10:59:54+0100</time>
      </trkpt>
      <trkpt lat="47.25098" lon="4.9537">
        <ele>460.27380371094</ele>
        <time>2019-03-28T10:59:57+0100</time>
      </trkpt>
      <trkpt lat="47.25098" lon="4.95374">
        <ele>460.06854248047</ele>
        <time>2019-03-28T11:00:00+0100</time>
      </trkpt>
      <trkpt lat="47.25097" lon="4.95374">
        <ele>460.00430297852</ele>
        <time>2019-03-28T11:00:03+0100</time>
      </trkpt>
      <trkpt lat="47.25097" lon="4.95374">
        <ele>459.70422363281</ele>
        <time>2019-03-28T11:00:06+0100</time>
      </trkpt>
      <trkpt lat="47.25097" lon="4.95374">
        <ele>459.62713623047</ele>
        <time>2019-03-28T11:00:09+0100</time>
      </trkpt>
      <trkpt lat="47.25098" lon="4.95374">
        <ele>459.32940673828</ele>
        <time>2019-03-28T11:00:12+0100</time>
      </trkpt>
      <trkpt lat="47.25097" lon="4.95375">
        <ele>458.85241699219</ele>
        <time>2019-03-28T11:00:15+0100</time>
      </trkpt>
      <trkpt lat="47.25098" lon="4.95378">
        <ele>458.25729370117</ele>
        <time>2019-03-28T11:00:18+0100</time>
      </trkpt>
      <trkpt lat="47.25097" lon="4.95381">
        <ele>458.1848449707</ele>
        <time>2019-03-28T11:00:21+0100</time>
      </trkpt>
      <trkpt lat="47.25097" lon="4.95381">
        <ele>458.1071472168</ele>
        <time>2019-03-28T11:00:24+0100</time>
      </trkpt>
      <trkpt lat="47.25097" lon="4.9538">
        <ele>457.62295532227</ele>
        <time>2019-03-28T11:00:27+0100</time>
      </trkpt>
      <trkpt lat="47.25096" lon="4.9538">
        <ele>457.08322143555</ele>
        <time>2019-03-28T11:00:30+0100</time>
      </trkpt>
      <trkpt lat="47.25093" lon="4.9538">
        <ele>456.6457824707</ele>
        <time>2019-03-28T11:00:33+0100</time>
      </trkpt>
      <trkpt lat="47.25088" lon="4.95379">
        <ele>456.12908935547</ele>
        <time>2019-03-28T11:00:36+0100</time>
      </trkpt>
      <trkpt lat="47.25091" lon="4.95376">
        <ele>456.08349609375</ele>
        <time>2019-03-28T11:00:39+0100</time>
      </trkpt>
      <trkpt lat="47.25091" lon="4.95376">
        <ele>456.0329284668</ele>
        <time>2019-03-28T11:00:42+0100</time>
      </trkpt>
      <trkpt lat="47.25091" lon="4.95376">
        <ele>455.97470092773</ele>
        <time>2019-03-28T11:00:45+0100</time>
      </trkpt>
      <trkpt lat="47.25091" lon="4.95377">
        <ele>455.90856933594</ele>
        <time>2019-03-28T11:00:48+0100</time>
      </trkpt>
      <trkpt lat="47.2509" lon="4.95377">
        <ele>455.84786987305</ele>
        <time>2019-03-28T11:00:51+0100</time>
      </trkpt>
      <trkpt lat="47.2509" lon="4.95377">
        <ele>455.79244995117</ele>
        <time>2019-03-28T11:00:54+0100</time>
      </trkpt>
      <trkpt lat="47.2509" lon="4.95377">
        <ele>455.7458190918</ele>
        <time>2019-03-28T11:00:57+0100</time>
      </trkpt>
      <trkpt lat="47.2509" lon="4.95376">
        <ele>455.70745849609</ele>
        <time>2019-03-28T11:01:00+0100</time>
      </trkpt>
      <trkpt lat="47.2509" lon="4.95376">
        <ele>455.45407104492</ele>
        <time>2019-03-28T11:01:03+0100</time>
      </trkpt>
      <trkpt lat="47.25089" lon="4.95377">
        <ele>455.26705932617</ele>
        <time>2019-03-28T11:01:06+0100</time>
      </trkpt>
      <trkpt lat="47.25087" lon="4.95379">
        <ele>455.07479858398</ele>
        <time>2019-03-28T11:01:09+0100</time>
      </trkpt>
      <trkpt lat="47.25085" lon="4.95381">
        <ele>454.87356567383</ele>
        <time>2019-03-28T11:01:12+0100</time>
      </trkpt>
      <trkpt lat="47.25085" lon="4.95382">
        <ele>454.75381469727</ele>
        <time>2019-03-28T11:01:15+0100</time>
      </trkpt>
      <trkpt lat="47.25084" lon="4.95385">
        <ele>454.63442993164</ele>
        <time>2019-03-28T11:01:18+0100</time>
      </trkpt>
      <trkpt lat="47.25083" lon="4.95389">
        <ele>454.58642578125</ele>
        <time>2019-03-28T11:01:21+0100</time>
      </trkpt>
      <trkpt lat="47.25081" lon="4.95393">
        <ele>454.63177490234</ele>
        <time>2019-03-28T11:01:24+0100</time>
      </trkpt>
      <trkpt lat="47.25079" lon="4.95395">
        <ele>454.58047485352</ele>
        <time>2019-03-28T11:01:27+0100</time>
      </trkpt>
      <trkpt lat="47.25079" lon="4.95395">
        <ele>454.53140258789</ele>
        <time>2019-03-28T11:01:30+0100</time>
      </trkpt>
      <trkpt lat="47.25077" lon="4.95397">
        <ele>454.572265625</ele>
        <time>2019-03-28T11:01:33+0100</time>
      </trkpt>
      <trkpt lat="47.25074" lon="4.95401">
        <ele>454.5979309082</ele>
        <time>2019-03-28T11:01:36+0100</time>
      </trkpt>
      <trkpt lat="47.25074" lon="4.95402">
        <ele>454.61694335938</ele>
        <time>2019-03-28T11:01:39+0100</time>
      </trkpt>
      <trkpt lat="47.25071" lon="4.95407">
        <ele>454.65484619141</ele>
        <time>2019-03-28T11:01:42+0100</time>
      </trkpt>
      <trkpt lat="47.2507" lon="4.95409">
        <ele>454.60900878906</ele>
        <time>2019-03-28T11:01:45+0100</time>
      </trkpt>
      <trkpt lat="47.25068" lon="4.9541">
        <ele>454.52035522461</ele>
        <time>2019-03-28T11:01:48+0100</time>
      </trkpt>
      <trkpt lat="47.25069" lon="4.95414">
        <ele>454.36166381836</ele>
        <time>2019-03-28T11:01:51+0100</time>
      </trkpt>
      <trkpt lat="47.25071" lon="4.95413">
        <ele>454.3444519043</ele>
        <time>2019-03-28T11:01:54+0100</time>
      </trkpt>
      <trkpt lat="47.25071" lon="4.95413">
        <ele>454.33340454102</ele>
        <time>2019-03-28T11:01:57+0100</time>
      </trkpt>
      <trkpt lat="47.25071" lon="4.95414">
        <ele>454.32315063477</ele>
        <time>2019-03-28T11:02:00+0100</time>
      </trkpt>
      <trkpt lat="47.25071" lon="4.95414">
        <ele>454.31167602539</ele>
        <time>2019-03-28T11:02:03+0100</time>
      </trkpt>
      <trkpt lat="47.25071" lon="4.95414">
        <ele>454.30770874023</ele>
        <time>2019-03-28T11:02:06+0100</time>
      </trkpt>
      <trkpt lat="47.25071" lon="4.95415">
        <ele>454.28741455078</ele>
        <time>2019-03-28T11:02:09+0100</time>
      </trkpt>
      <trkpt lat="47.2507" lon="4.95418">
        <ele>454.27105712891</ele>
        <time>2019-03-28T11:02:12+0100</time>
      </trkpt>
      <trkpt lat="47.25067" lon="4.95419">
        <ele>454.31198120117</ele>
        <time>2019-03-28T11:02:15+0100</time>
      </trkpt>
      <trkpt lat="47.25065" lon="4.95423">
        <ele>454.28567504883</ele>
        <time>2019-03-28T11:02:18+0100</time>
      </trkpt>
      <trkpt lat="47.25064" lon="4.95426">
        <ele>454.05215454102</ele>
        <time>2019-03-28T11:02:21+0100</time>
      </trkpt>
      <trkpt lat="47.25064" lon="4.95427">
        <ele>453.76214599609</ele>
        <time>2019-03-28T11:02:24+0100</time>
      </trkpt>
      <trkpt lat="47.25064" lon="4.95431">
        <ele>453.55603027344</ele>
        <time>2019-03-28T11:02:27+0100</time>
      </trkpt>
      <trkpt lat="47.25066" lon="4.95436">
        <ele>453.44549560547</ele>
        <time>2019-03-28T11:02:30+0100</time>
      </trkpt>
      <trkpt lat="47.25067" lon="4.95438">
        <ele>453.27728271484</ele>
        <time>2019-03-28T11:02:33+0100</time>
      </trkpt>
      <trkpt lat="47.25068" lon="4.95437">
        <ele>453.07958984375</ele>
        <time>2019-03-28T11:02:36+0100</time>
      </trkpt>
      <trkpt lat="47.25067" lon="4.95438">
        <ele>452.87191772461</ele>
        <time>2019-03-28T11:02:39+0100</time>
      </trkpt>
      <trkpt lat="47.25066" lon="4.95441">
        <ele>452.48663330078</ele>
        <time>2019-03-28T11:02:42+0100</time>
      </trkpt>
      <trkpt lat="47.25065" lon="4.95442">
        <ele>452.18869018555</ele>
        <time>2019-03-28T11:02:45+0100</time>
      </trkpt>
      <trkpt lat="47.25066" lon="4.95444">
        <ele>451.77990722656</ele>
        <time>2019-03-28T11:02:48+0100</time>
      </trkpt>
      <trkpt lat="47.25068" lon="4.95447">
        <ele>451.60571289062</ele>
        <time>2019-03-28T11:02:51+0100</time>
      </trkpt>
      <trkpt lat="47.25068" lon="4.95446">
        <ele>451.23135375977</ele>
        <time>2019-03-28T11:02:54+0100</time>
      </trkpt>
      <trkpt lat="47.25068" lon="4.95447">
        <ele>451.02841186523</ele>
        <time>2019-03-28T11:02:57+0100</time>
      </trkpt>
      <trkpt lat="47.2507" lon="4.95453">
        <ele>450.81344604492</ele>
        <time>2019-03-28T11:03:00+0100</time>
      </trkpt>
      <trkpt lat="47.25071" lon="4.95456">
        <ele>450.56964111328</ele>
        <time>2019-03-28T11:03:03+0100</time>
      </trkpt>
      <trkpt lat="47.25073" lon="4.95458">
        <ele>450.33248901367</ele>
        <time>2019-03-28T11:03:06+0100</time>
      </trkpt>
      <trkpt lat="47.25075" lon="4.95464">
        <ele>450.22653198242</ele>
        <time>2019-03-28T11:03:09+0100</time>
      </trkpt>
      <trkpt lat="47.25075" lon="4.95464">
        <ele>449.94400024414</ele>
        <time>2019-03-28T11:03:12+0100</time>
      </trkpt>
      <trkpt lat="47.25075" lon="4.95464">
        <ele>449.53048706055</ele>
        <time>2019-03-28T11:03:15+0100</time>
      </trkpt>
      <trkpt lat="47.25077" lon="4.95465">
        <ele>449.16687011719</ele>
        <time>2019-03-28T11:03:18+0100</time>
      </trkpt>
      <trkpt lat="47.25079" lon="4.95467">
        <ele>448.94061279297</ele>
        <time>2019-03-28T11:03:21+0100</time>
      </trkpt>
      <trkpt lat="47.2508" lon="4.95467">
        <ele>448.82040405273</ele>
        <time>2019-03-28T11:03:24+0100</time>
      </trkpt>
      <trkpt lat="47.25081" lon="4.95467">
        <ele>448.81182861328</ele>
        <time>2019-03-28T11:03:27+0100</time>
      </trkpt>
      <trkpt lat="47.25081" lon="4.95467">
        <ele>448.81365966797</ele>
        <time>2019-03-28T11:03:30+0100</time>
      </trkpt>
      <trkpt lat="47.25081" lon="4.95467">
        <ele>448.81747436523</ele>
        <time>2019-03-28T11:03:33+0100</time>
      </trkpt>
      <trkpt lat="47.25082" lon="4.95471">
        <ele>448.75936889648</ele>
        <time>2019-03-28T11:03:36+0100</time>
      </trkpt>
      <trkpt lat="47.25083" lon="4.95475">
        <ele>448.6916809082</ele>
        <time>2019-03-28T11:03:39+0100</time>
      </trkpt>
      <trkpt lat="47.25085" lon="4.95481">
        <ele>448.55145263672</ele>
        <time>2019-03-28T11:03:42+0100</time>
      </trkpt>
      <trkpt lat="47.25084" lon="4.95484">
        <ele>448.37017822266</ele>
        <time>2019-03-28T11:03:45+0100</time>
      </trkpt>
      <trkpt lat="47.25083" lon="4.95488">
        <ele>448.23251342773</ele>
        <time>2019-03-28T11:03:48+0100</time>
      </trkpt>
      <trkpt lat="47.25082" lon="4.95491">
        <ele>448.12417602539</ele>
        <time>2019-03-28T11:03:51+0100</time>
      </trkpt>
      <trkpt lat="47.25081" lon="4.95493">
        <ele>448.07904052734</ele>
        <time>2019-03-28T11:03:54+0100</time>
      </trkpt>
      <trkpt lat="47.25081" lon="4.95497">
        <ele>448.10610961914</ele>
        <time>2019-03-28T11:03:57+0100</time>
      </trkpt>
      <trkpt lat="47.2508" lon="4.95499">
        <ele>448.15377807617</ele>
        <time>2019-03-28T11:04:00+0100</time>
      </trkpt>
      <trkpt lat="47.25079" lon="4.95502">
        <ele>448.25891113281</ele>
        <time>2019-03-28T11:04:03+0100</time>
      </trkpt>
      <trkpt lat="47.2508" lon="4.95504">
        <ele>448.37573242188</ele>
        <time>2019-03-28T11:04:06+0100</time>
      </trkpt>
      <trkpt lat="47.25083" lon="4.95512">
        <ele>448.45758056641</ele>
        <time>2019-03-28T11:04:09+0100</time>
      </trkpt>
      <trkpt lat="47.25084" lon="4.95518">
        <ele>448.3996887207</ele>
        <time>2019-03-28T11:04:12+0100</time>
      </trkpt>
      <trkpt lat="47.25084" lon="4.95523">
        <ele>448.28125</ele>
        <time>2019-03-28T11:04:15+0100</time>
      </trkpt>
      <trkpt lat="47.25083" lon="4.95525">
        <ele>448.21203613281</ele>
        <time>2019-03-28T11:04:18+0100</time>
      </trkpt>
      <trkpt lat="47.25083" lon="4.95527">
        <ele>448.22671508789</ele>
        <time>2019-03-28T11:04:21+0100</time>
      </trkpt>
      <trkpt lat="47.25084" lon="4.95531">
        <ele>448.2834777832</ele>
        <time>2019-03-28T11:04:24+0100</time>
      </trkpt>
      <trkpt lat="47.25084" lon="4.95535">
        <ele>448.35940551758</ele>
        <time>2019-03-28T11:04:27+0100</time>
      </trkpt>
      <trkpt lat="47.25085" lon="4.95538">
        <ele>448.48443603516</ele>
        <time>2019-03-28T11:04:30+0100</time>
      </trkpt>
      <trkpt lat="47.25086" lon="4.95541">
        <ele>448.61471557617</ele>
        <time>2019-03-28T11:04:33+0100</time>
      </trkpt>
      <trkpt lat="47.25086" lon="4.95546">
        <ele>448.72131347656</ele>
        <time>2019-03-28T11:04:36+0100</time>
      </trkpt>
      <trkpt lat="47.25087" lon="4.9555">
        <ele>448.85751342773</ele>
        <time>2019-03-28T11:04:39+0100</time>
      </trkpt>
      <trkpt lat="47.25088" lon="4.95555">
        <ele>448.97988891602</ele>
        <time>2019-03-28T11:04:42+0100</time>
      </trkpt>
      <trkpt lat="47.25088" lon="4.95559">
        <ele>449.08151245117</ele>
        <time>2019-03-28T11:04:45+0100</time>
      </trkpt>
      <trkpt lat="47.25088" lon="4.95563">
        <ele>449.18707275391</ele>
        <time>2019-03-28T11:04:48+0100</time>
      </trkpt>
      <trkpt lat="47.25089" lon="4.95569">
        <ele>449.28372192383</ele>
        <time>2019-03-28T11:04:51+0100</time>
      </trkpt>
      <trkpt lat="47.25089" lon="4.95573">
        <ele>449.31958007812</ele>
        <time>2019-03-28T11:04:54+0100</time>
      </trkpt>
      <trkpt lat="47.25088" lon="4.95575">
        <ele>449.36245727539</ele>
        <time>2019-03-28T11:04:57+0100</time>
      </trkpt>
      <trkpt lat="47.25088" lon="4.95578">
        <ele>449.44964599609</ele>
        <time>2019-03-28T11:05:00+0100</time>
      </trkpt>
      <trkpt lat="47.25088" lon="4.95583">
        <ele>449.48803710938</ele>
        <time>2019-03-28T11:05:03+0100</time>
      </trkpt>
      <trkpt lat="47.25088" lon="4.95587">
        <ele>449.47164916992</ele>
        <time>2019-03-28T11:05:06+0100</time>
      </trkpt>
      <trkpt lat="47.25088" lon="4.95588">
        <ele>449.44848632812</ele>
        <time>2019-03-28T11:05:09+0100</time>
      </trkpt>
      <trkpt lat="47.2509" lon="4.95595">
        <ele>449.40884399414</ele>
        <time>2019-03-28T11:05:12+0100</time>
      </trkpt>
      <trkpt lat="47.25091" lon="4.95598">
        <ele>449.27615356445</ele>
        <time>2019-03-28T11:05:15+0100</time>
      </trkpt>
      <trkpt lat="47.25092" lon="4.95599">
        <ele>449.12445068359</ele>
        <time>2019-03-28T11:05:18+0100</time>
      </trkpt>
      <trkpt lat="47.25094" lon="4.956">
        <ele>448.88238525391</ele>
        <time>2019-03-28T11:05:21+0100</time>
      </trkpt>
      <trkpt lat="47.25094" lon="4.956">
        <ele>448.84594726562</ele>
        <time>2019-03-28T11:05:24+0100</time>
      </trkpt>
      <trkpt lat="47.25094" lon="4.95601">
        <ele>448.80114746094</ele>
        <time>2019-03-28T11:05:27+0100</time>
      </trkpt>
      <trkpt lat="47.25094" lon="4.95601">
        <ele>448.75466918945</ele>
        <time>2019-03-28T11:05:30+0100</time>
      </trkpt>
      <trkpt lat="47.25094" lon="4.95601">
        <ele>448.70895385742</ele>
        <time>2019-03-28T11:05:33+0100</time>
      </trkpt>
      <trkpt lat="47.25095" lon="4.95601">
        <ele>448.66165161133</ele>
        <time>2019-03-28T11:05:36+0100</time>
      </trkpt>
      <trkpt lat="47.25095" lon="4.95601">
        <ele>448.60589599609</ele>
        <time>2019-03-28T11:05:39+0100</time>
      </trkpt>
      <trkpt lat="47.25095" lon="4.95601">
        <ele>448.39730834961</ele>
        <time>2019-03-28T11:05:42+0100</time>
      </trkpt>
      <trkpt lat="47.25096" lon="4.95601">
        <ele>448.20022583008</ele>
        <time>2019-03-28T11:05:45+0100</time>
      </trkpt>
      <trkpt lat="47.25096" lon="4.95601">
        <ele>448.16485595703</ele>
        <time>2019-03-28T11:05:48+0100</time>
      </trkpt>
      <trkpt lat="47.25095" lon="4.95601">
        <ele>448.02700805664</ele>
        <time>2019-03-28T11:05:51+0100</time>
      </trkpt>
      <trkpt lat="47.25094" lon="4.95605">
        <ele>447.99069213867</ele>
        <time>2019-03-28T11:05:54+0100</time>
      </trkpt>
      <trkpt lat="47.25093" lon="4.95607">
        <ele>447.97946166992</ele>
        <time>2019-03-28T11:05:57+0100</time>
      </trkpt>
      <trkpt lat="47.25092" lon="4.9561">
        <ele>447.98318481445</ele>
        <time>2019-03-28T11:06:00+0100</time>
      </trkpt>
      <trkpt lat="47.2509" lon="4.95613">
        <ele>448.0007019043</ele>
        <time>2019-03-28T11:06:03+0100</time>
      </trkpt>
      <trkpt lat="47.25088" lon="4.95618">
        <ele>447.99761962891</ele>
        <time>2019-03-28T11:06:06+0100</time>
      </trkpt>
      <trkpt lat="47.25086" lon="4.9562">
        <ele>448.01126098633</ele>
        <time>2019-03-28T11:06:09+0100</time>
      </trkpt>
      <trkpt lat="47.25084" lon="4.95622">
        <ele>448.068359375</ele>
        <time>2019-03-28T11:06:12+0100</time>
      </trkpt>
      <trkpt lat="47.25083" lon="4.95626">
        <ele>448.10256958008</ele>
        <time>2019-03-28T11:06:15+0100</time>
      </trkpt>
      <trkpt lat="47.25083" lon="4.9563">
        <ele>448.04885864258</ele>
        <time>2019-03-28T11:06:18+0100</time>
      </trkpt>
      <trkpt lat="47.25083" lon="4.95633">
        <ele>447.92413330078</ele>
        <time>2019-03-28T11:06:21+0100</time>
      </trkpt>
      <trkpt lat="47.25082" lon="4.95635">
        <ele>447.79092407227</ele>
        <time>2019-03-28T11:06:24+0100</time>
      </trkpt>
      <trkpt lat="47.25081" lon="4.95636">
        <ele>447.69366455078</ele>
        <time>2019-03-28T11:06:27+0100</time>
      </trkpt>
      <trkpt lat="47.25081" lon="4.9564">
        <ele>447.66876220703</ele>
        <time>2019-03-28T11:06:30+0100</time>
      </trkpt>
      <trkpt lat="47.2508" lon="4.95644">
        <ele>447.60778808594</ele>
        <time>2019-03-28T11:06:33+0100</time>
      </trkpt>
      <trkpt lat="47.25079" lon="4.95648">
        <ele>447.48141479492</ele>
        <time>2019-03-28T11:06:36+0100</time>
      </trkpt>
      <trkpt lat="47.25078" lon="4.95651">
        <ele>447.30783081055</ele>
        <time>2019-03-28T11:06:39+0100</time>
      </trkpt>
      <trkpt lat="47.25077" lon="4.95655">
        <ele>447.0810546875</ele>
        <time>2019-03-28T11:06:42+0100</time>
      </trkpt>
      <trkpt lat="47.25075" lon="4.95659">
        <ele>446.86273193359</ele>
        <time>2019-03-28T11:06:45+0100</time>
      </trkpt>
      <trkpt lat="47.25074" lon="4.95663">
        <ele>446.74542236328</ele>
        <time>2019-03-28T11:06:48+0100</time>
      </trkpt>
      <trkpt lat="47.25073" lon="4.95667">
        <ele>446.66000366211</ele>
        <time>2019-03-28T11:06:51+0100</time>
      </trkpt>
      <trkpt lat="47.25072" lon="4.95671">
        <ele>446.57302856445</ele>
        <time>2019-03-28T11:06:54+0100</time>
      </trkpt>
      <trkpt lat="47.25071" lon="4.95676">
        <ele>446.4826965332</ele>
        <time>2019-03-28T11:06:57+0100</time>
      </trkpt>
      <trkpt lat="47.2507" lon="4.95679">
        <ele>446.41094970703</ele>
        <time>2019-03-28T11:07:00+0100</time>
      </trkpt>
      <trkpt lat="47.25069" lon="4.95683">
        <ele>446.29235839844</ele>
        <time>2019-03-28T11:07:03+0100</time>
      </trkpt>
      <trkpt lat="47.25067" lon="4.95687">
        <ele>446.12322998047</ele>
        <time>2019-03-28T11:07:06+0100</time>
      </trkpt>
      <trkpt lat="47.25066" lon="4.95691">
        <ele>445.97595214844</ele>
        <time>2019-03-28T11:07:09+0100</time>
      </trkpt>
      <trkpt lat="47.25064" lon="4.95694">
        <ele>445.85440063477</ele>
        <time>2019-03-28T11:07:12+0100</time>
      </trkpt>
      <trkpt lat="47.25063" lon="4.95697">
        <ele>445.75576782227</ele>
        <time>2019-03-28T11:07:15+0100</time>
      </trkpt>
      <trkpt lat="47.25061" lon="4.95702">
        <ele>445.6975402832</ele>
        <time>2019-03-28T11:07:18+0100</time>
      </trkpt>
      <trkpt lat="47.2506" lon="4.95706">
        <ele>445.65582275391</ele>
        <time>2019-03-28T11:07:21+0100</time>
      </trkpt>
      <trkpt lat="47.25059" lon="4.9571">
        <ele>445.61972045898</ele>
        <time>2019-03-28T11:07:23+0100</time>
      </trkpt>
      <trkpt lat="47.25057" lon="4.95712">
        <ele>445.61953735352</ele>
        <time>2019-03-28T11:07:26+0100</time>
      </trkpt>
      <trkpt lat="47.25056" lon="4.95715">
        <ele>445.65966796875</ele>
        <time>2019-03-28T11:07:29+0100</time>
      </trkpt>
      <trkpt lat="47.25055" lon="4.95719">
        <ele>445.66171264648</ele>
        <time>2019-03-28T11:07:32+0100</time>
      </trkpt>
      <trkpt lat="47.25055" lon="4.95724">
        <ele>445.59878540039</ele>
        <time>2019-03-28T11:07:35+0100</time>
      </trkpt>
      <trkpt lat="47.25053" lon="4.95728">
        <ele>445.45443725586</ele>
        <time>2019-03-28T11:07:38+0100</time>
      </trkpt>
      <trkpt lat="47.25053" lon="4.95731">
        <ele>445.21810913086</ele>
        <time>2019-03-28T11:07:41+0100</time>
      </trkpt>
      <trkpt lat="47.25052" lon="4.95734">
        <ele>445.00253295898</ele>
        <time>2019-03-28T11:07:44+0100</time>
      </trkpt>
      <trkpt lat="47.25051" lon="4.95737">
        <ele>444.79147338867</ele>
        <time>2019-03-28T11:07:47+0100</time>
      </trkpt>
      <trkpt lat="47.25049" lon="4.9574">
        <ele>444.59487915039</ele>
        <time>2019-03-28T11:07:50+0100</time>
      </trkpt>
      <trkpt lat="47.25047" lon="4.95743">
        <ele>444.3955078125</ele>
        <time>2019-03-28T11:07:53+0100</time>
      </trkpt>
      <trkpt lat="47.25046" lon="4.95747">
        <ele>444.17654418945</ele>
        <time>2019-03-28T11:07:56+0100</time>
      </trkpt>
      <trkpt lat="47.25045" lon="4.9575">
        <ele>443.92907714844</ele>
        <time>2019-03-28T11:07:59+0100</time>
      </trkpt>
      <trkpt lat="47.25044" lon="4.95754">
        <ele>443.67736816406</ele>
        <time>2019-03-28T11:08:02+0100</time>
      </trkpt>
      <trkpt lat="47.25043" lon="4.95757">
        <ele>443.38934326172</ele>
        <time>2019-03-28T11:08:05+0100</time>
      </trkpt>
      <trkpt lat="47.25042" lon="4.95761">
        <ele>443.11773681641</ele>
        <time>2019-03-28T11:08:08+0100</time>
      </trkpt>
      <trkpt lat="47.25041" lon="4.95765">
        <ele>442.89733886719</ele>
        <time>2019-03-28T11:08:11+0100</time>
      </trkpt>
      <trkpt lat="47.2504" lon="4.95768">
        <ele>442.71936035156</ele>
        <time>2019-03-28T11:08:14+0100</time>
      </trkpt>
      <trkpt lat="47.25039" lon="4.95771">
        <ele>442.58020019531</ele>
        <time>2019-03-28T11:08:17+0100</time>
      </trkpt>
      <trkpt lat="47.25038" lon="4.95774">
        <ele>442.46948242188</ele>
        <time>2019-03-28T11:08:20+0100</time>
      </trkpt>
      <trkpt lat="47.25036" lon="4.95777">
        <ele>442.40237426758</ele>
        <time>2019-03-28T11:08:23+0100</time>
      </trkpt>
      <trkpt lat="47.25035" lon="4.9578">
        <ele>442.32192993164</ele>
        <time>2019-03-28T11:08:26+0100</time>
      </trkpt>
      <trkpt lat="47.25033" lon="4.95783">
        <ele>442.20309448242</ele>
        <time>2019-03-28T11:08:29+0100</time>
      </trkpt>
      <trkpt lat="47.25032" lon="4.95786">
        <ele>442.07257080078</ele>
        <time>2019-03-28T11:08:32+0100</time>
      </trkpt>
      <trkpt lat="47.25029" lon="4.95789">
        <ele>441.97814941406</ele>
        <time>2019-03-28T11:08:35+0100</time>
      </trkpt>
      <trkpt lat="47.25028" lon="4.95792">
        <ele>441.88479614258</ele>
        <time>2019-03-28T11:08:38+0100</time>
      </trkpt>
      <trkpt lat="47.25027" lon="4.95796">
        <ele>441.80303955078</ele>
        <time>2019-03-28T11:08:41+0100</time>
      </trkpt>
      <trkpt lat="47.25025" lon="4.95799">
        <ele>441.77105712891</ele>
        <time>2019-03-28T11:08:44+0100</time>
      </trkpt>
      <trkpt lat="47.25021" lon="4.95801">
        <ele>441.62005615234</ele>
        <time>2019-03-28T11:08:47+0100</time>
      </trkpt>
      <trkpt lat="47.25018" lon="4.95804">
        <ele>441.33862304688</ele>
        <time>2019-03-28T11:08:50+0100</time>
      </trkpt>
      <trkpt lat="47.25016" lon="4.95808">
        <ele>441.03875732422</ele>
        <time>2019-03-28T11:08:53+0100</time>
      </trkpt>
      <trkpt lat="47.25014" lon="4.95811">
        <ele>440.74383544922</ele>
        <time>2019-03-28T11:08:56+0100</time>
      </trkpt>
      <trkpt lat="47.25013" lon="4.95814">
        <ele>440.43911743164</ele>
        <time>2019-03-28T11:08:59+0100</time>
      </trkpt>
      <trkpt lat="47.25011" lon="4.95817">
        <ele>440.24514770508</ele>
        <time>2019-03-28T11:09:02+0100</time>
      </trkpt>
      <trkpt lat="47.25011" lon="4.9582">
        <ele>440.10479736328</ele>
        <time>2019-03-28T11:09:05+0100</time>
      </trkpt>
      <trkpt lat="47.2501" lon="4.95822">
        <ele>440.01867675781</ele>
        <time>2019-03-28T11:09:08+0100</time>
      </trkpt>
      <trkpt lat="47.25008" lon="4.95824">
        <ele>439.9592590332</ele>
        <time>2019-03-28T11:09:11+0100</time>
      </trkpt>
      <trkpt lat="47.25006" lon="4.95827">
        <ele>439.91683959961</ele>
        <time>2019-03-28T11:09:14+0100</time>
      </trkpt>
      <trkpt lat="47.25003" lon="4.95829">
        <ele>439.77850341797</ele>
        <time>2019-03-28T11:09:17+0100</time>
      </trkpt>
      <trkpt lat="47.25001" lon="4.9583">
        <ele>439.62661743164</ele>
        <time>2019-03-28T11:09:20+0100</time>
      </trkpt>
      <trkpt lat="47.24999" lon="4.9583">
        <ele>439.47387695312</ele>
        <time>2019-03-28T11:09:23+0100</time>
      </trkpt>
      <trkpt lat="47.24996" lon="4.95831">
        <ele>439.21127319336</ele>
        <time>2019-03-28T11:09:26+0100</time>
      </trkpt>
      <trkpt lat="47.24994" lon="4.95835">
        <ele>438.93753051758</ele>
        <time>2019-03-28T11:09:29+0100</time>
      </trkpt>
      <trkpt lat="47.24993" lon="4.95839">
        <ele>438.70559692383</ele>
        <time>2019-03-28T11:09:32+0100</time>
      </trkpt>
      <trkpt lat="47.24991" lon="4.9584">
        <ele>438.52020263672</ele>
        <time>2019-03-28T11:09:35+0100</time>
      </trkpt>
      <trkpt lat="47.24989" lon="4.95843">
        <ele>438.39010620117</ele>
        <time>2019-03-28T11:09:38+0100</time>
      </trkpt>
      <trkpt lat="47.24989" lon="4.95844">
        <ele>438.32684326172</ele>
        <time>2019-03-28T11:09:41+0100</time>
      </trkpt>
      <trkpt lat="47.24988" lon="4.95846">
        <ele>438.38363647461</ele>
        <time>2019-03-28T11:09:44+0100</time>
      </trkpt>
      <trkpt lat="47.24985" lon="4.95848">
        <ele>438.45864868164</ele>
        <time>2019-03-28T11:09:47+0100</time>
      </trkpt>
      <trkpt lat="47.24982" lon="4.95849">
        <ele>438.43594360352</ele>
        <time>2019-03-28T11:09:50+0100</time>
      </trkpt>
      <trkpt lat="47.24977" lon="4.95852">
        <ele>438.27703857422</ele>
        <time>2019-03-28T11:09:53+0100</time>
      </trkpt>
      <trkpt lat="47.24972" lon="4.95854">
        <ele>437.83422851562</ele>
        <time>2019-03-28T11:09:56+0100</time>
      </trkpt>
      <trkpt lat="47.24969" lon="4.95856">
        <ele>437.27691650391</ele>
        <time>2019-03-28T11:09:59+0100</time>
      </trkpt>
      <trkpt lat="47.24967" lon="4.95858">
        <ele>436.73559570312</ele>
        <time>2019-03-28T11:10:02+0100</time>
      </trkpt>
      <trkpt lat="47.24966" lon="4.95861">
        <ele>436.23699951172</ele>
        <time>2019-03-28T11:10:05+0100</time>
      </trkpt>
      <trkpt lat="47.24965" lon="4.95863">
        <ele>435.79898071289</ele>
        <time>2019-03-28T11:10:08+0100</time>
      </trkpt>
      <trkpt lat="47.24963" lon="4.95866">
        <ele>435.35534667969</ele>
        <time>2019-03-28T11:10:11+0100</time>
      </trkpt>
      <trkpt lat="47.2496" lon="4.95867">
        <ele>434.8889465332</ele>
        <time>2019-03-28T11:10:14+0100</time>
      </trkpt>
      <trkpt lat="47.24959" lon="4.95868">
        <ele>434.50622558594</ele>
        <time>2019-03-28T11:10:17+0100</time>
      </trkpt>
      <trkpt lat="47.24959" lon="4.95868">
        <ele>434.26400756836</ele>
        <time>2019-03-28T11:10:20+0100</time>
      </trkpt>
      <trkpt lat="47.24957" lon="4.95868">
        <ele>434.24307250977</ele>
        <time>2019-03-28T11:10:23+0100</time>
      </trkpt>
      <trkpt lat="47.24958" lon="4.95867">
        <ele>434.44464111328</ele>
        <time>2019-03-28T11:10:26+0100</time>
      </trkpt>
      <trkpt lat="47.24956" lon="4.95867">
        <ele>434.72613525391</ele>
        <time>2019-03-28T11:10:29+0100</time>
      </trkpt>
      <trkpt lat="47.24954" lon="4.9587">
        <ele>435.02725219727</ele>
        <time>2019-03-28T11:10:32+0100</time>
      </trkpt>
      <trkpt lat="47.24951" lon="4.95874">
        <ele>435.25918579102</ele>
        <time>2019-03-28T11:10:35+0100</time>
      </trkpt>
      <trkpt lat="47.2495" lon="4.95876">
        <ele>435.5244140625</ele>
        <time>2019-03-28T11:10:38+0100</time>
      </trkpt>
      <trkpt lat="47.24949" lon="4.95877">
        <ele>435.81930541992</ele>
        <time>2019-03-28T11:10:41+0100</time>
      </trkpt>
      <trkpt lat="47.24949" lon="4.95878">
        <ele>436.0471496582</ele>
        <time>2019-03-28T11:10:44+0100</time>
      </trkpt>
      <trkpt lat="47.24948" lon="4.95879">
        <ele>436.36749267578</ele>
        <time>2019-03-28T11:10:47+0100</time>
      </trkpt>
      <trkpt lat="47.24943" lon="4.95882">
        <ele>436.51651000977</ele>
        <time>2019-03-28T11:10:50+0100</time>
      </trkpt>
      <trkpt lat="47.24941" lon="4.95884">
        <ele>436.44000244141</ele>
        <time>2019-03-28T11:10:53+0100</time>
      </trkpt>
      <trkpt lat="47.24938" lon="4.95883">
        <ele>436.3766784668</ele>
        <time>2019-03-28T11:10:56+0100</time>
      </trkpt>
      <trkpt lat="47.24935" lon="4.95882">
        <ele>436.40451049805</ele>
        <time>2019-03-28T11:10:59+0100</time>
      </trkpt>
      <trkpt lat="47.24931" lon="4.95882">
        <ele>436.54989624023</ele>
        <time>2019-03-28T11:11:02+0100</time>
      </trkpt>
      <trkpt lat="47.24928" lon="4.95883">
        <ele>436.69085693359</ele>
        <time>2019-03-28T11:11:05+0100</time>
      </trkpt>
      <trkpt lat="47.24926" lon="4.95885">
        <ele>436.69259643555</ele>
        <time>2019-03-28T11:11:08+0100</time>
      </trkpt>
      <trkpt lat="47.24923" lon="4.95885">
        <ele>436.69033813477</ele>
        <time>2019-03-28T11:11:11+0100</time>
      </trkpt>
      <trkpt lat="47.24917" lon="4.95888">
        <ele>436.52865600586</ele>
        <time>2019-03-28T11:11:14+0100</time>
      </trkpt>
      <trkpt lat="47.24914" lon="4.95891">
        <ele>436.228515625</ele>
        <time>2019-03-28T11:11:17+0100</time>
      </trkpt>
      <trkpt lat="47.24911" lon="4.95895">
        <ele>435.81723022461</ele>
        <time>2019-03-28T11:11:20+0100</time>
      </trkpt>
      <trkpt lat="47.24907" lon="4.95898">
        <ele>435.31237792969</ele>
        <time>2019-03-28T11:11:23+0100</time>
      </trkpt>
      <trkpt lat="47.24906" lon="4.95902">
        <ele>434.76638793945</ele>
        <time>2019-03-28T11:11:26+0100</time>
      </trkpt>
      <trkpt lat="47.24906" lon="4.95905">
        <ele>434.20736694336</ele>
        <time>2019-03-28T11:11:29+0100</time>
      </trkpt>
      <trkpt lat="47.24908" lon="4.95907">
        <ele>433.70162963867</ele>
        <time>2019-03-28T11:11:32+0100</time>
      </trkpt>
      <trkpt lat="47.24908" lon="4.9591">
        <ele>433.2604675293</ele>
        <time>2019-03-28T11:11:35+0100</time>
      </trkpt>
      <trkpt lat="47.24906" lon="4.95912">
        <ele>432.86779785156</ele>
        <time>2019-03-28T11:11:38+0100</time>
      </trkpt>
      <trkpt lat="47.24906" lon="4.95916">
        <ele>432.51300048828</ele>
        <time>2019-03-28T11:11:41+0100</time>
      </trkpt>
      <trkpt lat="47.24906" lon="4.9592">
        <ele>432.16522216797</ele>
        <time>2019-03-28T11:11:44+0100</time>
      </trkpt>
      <trkpt lat="47.24905" lon="4.95924">
        <ele>431.86437988281</ele>
        <time>2019-03-28T11:11:47+0100</time>
      </trkpt>
      <trkpt lat="47.24904" lon="4.95926">
        <ele>431.62841796875</ele>
        <time>2019-03-28T11:11:50+0100</time>
      </trkpt>
      <trkpt lat="47.24902" lon="4.95929">
        <ele>431.35949707031</ele>
        <time>2019-03-28T11:11:53+0100</time>
      </trkpt>
      <trkpt lat="47.249" lon="4.95932">
        <ele>431.06610107422</ele>
        <time>2019-03-28T11:11:56+0100</time>
      </trkpt>
      <trkpt lat="47.24897" lon="4.95934">
        <ele>430.78579711914</ele>
        <time>2019-03-28T11:11:59+0100</time>
      </trkpt>
      <trkpt lat="47.24894" lon="4.95935">
        <ele>430.47348022461</ele>
        <time>2019-03-28T11:12:02+0100</time>
      </trkpt>
      <trkpt lat="47.24891" lon="4.95939">
        <ele>430.12319946289</ele>
        <time>2019-03-28T11:12:05+0100</time>
      </trkpt>
      <trkpt lat="47.24889" lon="4.9594">
        <ele>429.83969116211</ele>
        <time>2019-03-28T11:12:08+0100</time>
      </trkpt>
      <trkpt lat="47.24888" lon="4.95945">
        <ele>429.57025146484</ele>
        <time>2019-03-28T11:12:11+0100</time>
      </trkpt>
      <trkpt lat="47.24888" lon="4.95952">
        <ele>429.20031738281</ele>
        <time>2019-03-28T11:12:14+0100</time>
      </trkpt>
      <trkpt lat="47.24888" lon="4.95955">
        <ele>428.72924804688</ele>
        <time>2019-03-28T11:12:17+0100</time>
      </trkpt>
      <trkpt lat="47.24888" lon="4.95957">
        <ele>428.31088256836</ele>
        <time>2019-03-28T11:12:20+0100</time>
      </trkpt>
      <trkpt lat="47.24888" lon="4.95962">
        <ele>428.00582885742</ele>
        <time>2019-03-28T11:12:23+0100</time>
      </trkpt>
      <trkpt lat="47.24888" lon="4.95958">
        <ele>427.88412475586</ele>
        <time>2019-03-28T11:12:26+0100</time>
      </trkpt>
      <trkpt lat="47.24888" lon="4.95958">
        <ele>427.86605834961</ele>
        <time>2019-03-28T11:12:29+0100</time>
      </trkpt>
      <trkpt lat="47.24886" lon="4.95962">
        <ele>427.86032104492</ele>
        <time>2019-03-28T11:12:32+0100</time>
      </trkpt>
      <trkpt lat="47.24883" lon="4.95973">
        <ele>427.6838684082</ele>
        <time>2019-03-28T11:12:35+0100</time>
      </trkpt>
      <trkpt lat="47.24884" lon="4.95977">
        <ele>427.32275390625</ele>
        <time>2019-03-28T11:12:38+0100</time>
      </trkpt>
      <trkpt lat="47.24883" lon="4.95982">
        <ele>426.90084838867</ele>
        <time>2019-03-28T11:12:41+0100</time>
      </trkpt>
      <trkpt lat="47.24884" lon="4.95982">
        <ele>426.60903930664</ele>
        <time>2019-03-28T11:12:44+0100</time>
      </trkpt>
      <trkpt lat="47.24882" lon="4.95985">
        <ele>426.47180175781</ele>
        <time>2019-03-28T11:12:47+0100</time>
      </trkpt>
      <trkpt lat="47.24881" lon="4.95987">
        <ele>426.41656494141</ele>
        <time>2019-03-28T11:12:50+0100</time>
      </trkpt>
      <trkpt lat="47.2488" lon="4.95989">
        <ele>426.36239624023</ele>
        <time>2019-03-28T11:12:53+0100</time>
      </trkpt>
      <trkpt lat="47.24879" lon="4.95991">
        <ele>426.29058837891</ele>
        <time>2019-03-28T11:12:56+0100</time>
      </trkpt>
      <trkpt lat="47.24878" lon="4.95996">
        <ele>426.21911621094</ele>
        <time>2019-03-28T11:12:59+0100</time>
      </trkpt>
      <trkpt lat="47.24878" lon="4.96001">
        <ele>426.06719970703</ele>
        <time>2019-03-28T11:13:02+0100</time>
      </trkpt>
      <trkpt lat="47.24878" lon="4.96006">
        <ele>425.85214233398</ele>
        <time>2019-03-28T11:13:05+0100</time>
      </trkpt>
      <trkpt lat="47.24877" lon="4.9601">
        <ele>425.56527709961</ele>
        <time>2019-03-28T11:13:08+0100</time>
      </trkpt>
      <trkpt lat="47.24878" lon="4.9601">
        <ele>425.2575378418</ele>
        <time>2019-03-28T11:13:11+0100</time>
      </trkpt>
      <trkpt lat="47.24878" lon="4.96014">
        <ele>424.94436645508</ele>
        <time>2019-03-28T11:13:14+0100</time>
      </trkpt>
      <trkpt lat="47.24878" lon="4.96019">
        <ele>424.60546875</ele>
        <time>2019-03-28T11:13:17+0100</time>
      </trkpt>
      <trkpt lat="47.24878" lon="4.96024">
        <ele>424.28414916992</ele>
        <time>2019-03-28T11:13:20+0100</time>
      </trkpt>
      <trkpt lat="47.24877" lon="4.96025">
        <ele>423.76583862305</ele>
        <time>2019-03-28T11:13:23+0100</time>
      </trkpt>
      <trkpt lat="47.24877" lon="4.96028">
        <ele>423.31488037109</ele>
        <time>2019-03-28T11:13:26+0100</time>
      </trkpt>
      <trkpt lat="47.24874" lon="4.96027">
        <ele>422.96542358398</ele>
        <time>2019-03-28T11:13:29+0100</time>
      </trkpt>
      <trkpt lat="47.24873" lon="4.96032">
        <ele>422.67572021484</ele>
        <time>2019-03-28T11:13:32+0100</time>
      </trkpt>
      <trkpt lat="47.24875" lon="4.96033">
        <ele>422.44653320312</ele>
        <time>2019-03-28T11:13:35+0100</time>
      </trkpt>
      <trkpt lat="47.24876" lon="4.96033">
        <ele>422.39956665039</ele>
        <time>2019-03-28T11:13:38+0100</time>
      </trkpt>
      <trkpt lat="47.24876" lon="4.96033">
        <ele>422.35208129883</ele>
        <time>2019-03-28T11:13:41+0100</time>
      </trkpt>
      <trkpt lat="47.24876" lon="4.96034">
        <ele>422.31350708008</ele>
        <time>2019-03-28T11:13:44+0100</time>
      </trkpt>
      <trkpt lat="47.24876" lon="4.96034">
        <ele>422.26019287109</ele>
        <time>2019-03-28T11:13:47+0100</time>
      </trkpt>
      <trkpt lat="47.24876" lon="4.96035">
        <ele>422.20587158203</ele>
        <time>2019-03-28T11:13:50+0100</time>
      </trkpt>
      <trkpt lat="47.24876" lon="4.96035">
        <ele>422.12142944336</ele>
        <time>2019-03-28T11:13:53+0100</time>
      </trkpt>
      <trkpt lat="47.24875" lon="4.96035">
        <ele>422.04187011719</ele>
        <time>2019-03-28T11:13:56+0100</time>
      </trkpt>
      <trkpt lat="47.24876" lon="4.96035">
        <ele>421.96704101562</ele>
        <time>2019-03-28T11:13:59+0100</time>
      </trkpt>
      <trkpt lat="47.24876" lon="4.96035">
        <ele>421.8938293457</ele>
        <time>2019-03-28T11:14:02+0100</time>
      </trkpt>
      <trkpt lat="47.24876" lon="4.96035">
        <ele>421.83218383789</ele>
        <time>2019-03-28T11:14:05+0100</time>
      </trkpt>
      <trkpt lat="47.24876" lon="4.96035">
        <ele>421.75045776367</ele>
        <time>2019-03-28T11:14:08+0100</time>
      </trkpt>
      <trkpt lat="47.24876" lon="4.96035">
        <ele>421.66159057617</ele>
        <time>2019-03-28T11:14:11+0100</time>
      </trkpt>
      <trkpt lat="47.24876" lon="4.96036">
        <ele>421.57095336914</ele>
        <time>2019-03-28T11:14:14+0100</time>
      </trkpt>
      <trkpt lat="47.24875" lon="4.96036">
        <ele>421.48617553711</ele>
        <time>2019-03-28T11:14:17+0100</time>
      </trkpt>
      <trkpt lat="47.24875" lon="4.96036">
        <ele>421.16027832031</ele>
        <time>2019-03-28T11:14:20+0100</time>
      </trkpt>
      <trkpt lat="47.24874" lon="4.96039">
        <ele>421.02355957031</ele>
        <time>2019-03-28T11:14:23+0100</time>
      </trkpt>
      <trkpt lat="47.24873" lon="4.9604">
        <ele>421.00750732422</ele>
        <time>2019-03-28T11:14:26+0100</time>
      </trkpt>
      <trkpt lat="47.24873" lon="4.9604">
        <ele>420.98666381836</ele>
        <time>2019-03-28T11:14:29+0100</time>
      </trkpt>
      <trkpt lat="47.24873" lon="4.96041">
        <ele>420.96725463867</ele>
        <time>2019-03-28T11:14:32+0100</time>
      </trkpt>
      <trkpt lat="47.24873" lon="4.96041">
        <ele>420.93685913086</ele>
        <time>2019-03-28T11:14:35+0100</time>
      </trkpt>
      <trkpt lat="47.24873" lon="4.96041">
        <ele>420.90090942383</ele>
        <time>2019-03-28T11:14:38+0100</time>
      </trkpt>
      <trkpt lat="47.24873" lon="4.96042">
        <ele>420.85595703125</ele>
        <time>2019-03-28T11:14:41+0100</time>
      </trkpt>
      <trkpt lat="47.24873" lon="4.96042">
        <ele>420.80541992188</ele>
        <time>2019-03-28T11:14:44+0100</time>
      </trkpt>
      <trkpt lat="47.24873" lon="4.96042">
        <ele>420.74990844727</ele>
        <time>2019-03-28T11:14:47+0100</time>
      </trkpt>
      <trkpt lat="47.24873" lon="4.96042">
        <ele>420.68948364258</ele>
        <time>2019-03-28T11:14:50+0100</time>
      </trkpt>
      <trkpt lat="47.24873" lon="4.96042">
        <ele>420.62182617188</ele>
        <time>2019-03-28T11:14:53+0100</time>
      </trkpt>
      <trkpt lat="47.24873" lon="4.96042">
        <ele>420.17584228516</ele>
        <time>2019-03-28T11:14:56+0100</time>
      </trkpt>
      <trkpt lat="47.24875" lon="4.96042">
        <ele>419.90475463867</ele>
        <time>2019-03-28T11:14:59+0100</time>
      </trkpt>
      <trkpt lat="47.24875" lon="4.96042">
        <ele>419.84747314453</ele>
        <time>2019-03-28T11:15:02+0100</time>
      </trkpt>
      <trkpt lat="47.24875" lon="4.96042">
        <ele>419.64358520508</ele>
        <time>2019-03-28T11:15:05+0100</time>
      </trkpt>
      <trkpt lat="47.24875" lon="4.96043">
        <ele>419.60339355469</ele>
        <time>2019-03-28T11:15:08+0100</time>
      </trkpt>
      <trkpt lat="47.24874" lon="4.96044">
        <ele>419.57327270508</ele>
        <time>2019-03-28T11:15:11+0100</time>
      </trkpt>
      <trkpt lat="47.24873" lon="4.96045">
        <ele>419.48834228516</ele>
        <time>2019-03-28T11:15:14+0100</time>
      </trkpt>
      <trkpt lat="47.24873" lon="4.96045">
        <ele>419.45138549805</ele>
        <time>2019-03-28T11:15:17+0100</time>
      </trkpt>
      <trkpt lat="47.24873" lon="4.96045">
        <ele>419.40115356445</ele>
        <time>2019-03-28T11:15:20+0100</time>
      </trkpt>
      <trkpt lat="47.24874" lon="4.96046">
        <ele>419.14581298828</ele>
        <time>2019-03-28T11:15:23+0100</time>
      </trkpt>
      <trkpt lat="47.24874" lon="4.96048">
        <ele>418.68054199219</ele>
        <time>2019-03-28T11:15:26+0100</time>
      </trkpt>
      <trkpt lat="47.24874" lon="4.96051">
        <ele>417.98373413086</ele>
        <time>2019-03-28T11:15:29+0100</time>
      </trkpt>
      <trkpt lat="47.24874" lon="4.96054">
        <ele>417.56033325195</ele>
        <time>2019-03-28T11:15:32+0100</time>
      </trkpt>
      <trkpt lat="47.24874" lon="4.96059">
        <ele>416.95449829102</ele>
        <time>2019-03-28T11:15:35+0100</time>
      </trkpt>
      <trkpt lat="47.24874" lon="4.96063">
        <ele>416.36199951172</ele>
        <time>2019-03-28T11:15:38+0100</time>
      </trkpt>
      <trkpt lat="47.24875" lon="4.96067">
        <ele>415.83288574219</ele>
        <time>2019-03-28T11:15:41+0100</time>
      </trkpt>
      <trkpt lat="47.24874" lon="4.96069">
        <ele>415.40197753906</ele>
        <time>2019-03-28T11:15:44+0100</time>
      </trkpt>
      <trkpt lat="47.24874" lon="4.96071">
        <ele>415.14987182617</ele>
        <time>2019-03-28T11:15:47+0100</time>
      </trkpt>
      <trkpt lat="47.24874" lon="4.96072">
        <ele>414.90972900391</ele>
        <time>2019-03-28T11:15:50+0100</time>
      </trkpt>
      <trkpt lat="47.24874" lon="4.96075">
        <ele>414.73178100586</ele>
        <time>2019-03-28T11:15:53+0100</time>
      </trkpt>
      <trkpt lat="47.24874" lon="4.96077">
        <ele>414.4987487793</ele>
        <time>2019-03-28T11:15:56+0100</time>
      </trkpt>
      <trkpt lat="47.24874" lon="4.96084">
        <ele>414.23352050781</ele>
        <time>2019-03-28T11:15:59+0100</time>
      </trkpt>
      <trkpt lat="47.24874" lon="4.9609">
        <ele>414.00009155273</ele>
        <time>2019-03-28T11:16:02+0100</time>
      </trkpt>
      <trkpt lat="47.24874" lon="4.96095">
        <ele>413.77490234375</ele>
        <time>2019-03-28T11:16:05+0100</time>
      </trkpt>
      <trkpt lat="47.24874" lon="4.96097">
        <ele>413.62063598633</ele>
        <time>2019-03-28T11:16:08+0100</time>
      </trkpt>
      <trkpt lat="47.24874" lon="4.96101">
        <ele>413.48217773438</ele>
        <time>2019-03-28T11:16:11+0100</time>
      </trkpt>
      <trkpt lat="47.24873" lon="4.96103">
        <ele>413.43222045898</ele>
        <time>2019-03-28T11:16:14+0100</time>
      </trkpt>
      <trkpt lat="47.24873" lon="4.96105">
        <ele>413.44683837891</ele>
        <time>2019-03-28T11:16:17+0100</time>
      </trkpt>
      <trkpt lat="47.24872" lon="4.96107">
        <ele>413.52639770508</ele>
        <time>2019-03-28T11:16:20+0100</time>
      </trkpt>
      <trkpt lat="47.24872" lon="4.96107">
        <ele>413.65228271484</ele>
        <time>2019-03-28T11:16:23+0100</time>
      </trkpt>
      <trkpt lat="47.24871" lon="4.9611">
        <ele>414.02532958984</ele>
        <time>2019-03-28T11:16:26+0100</time>
      </trkpt>
      <trkpt lat="47.24871" lon="4.96113">
        <ele>414.30606079102</ele>
        <time>2019-03-28T11:16:29+0100</time>
      </trkpt>
      <trkpt lat="47.24871" lon="4.96114">
        <ele>414.42477416992</ele>
        <time>2019-03-28T11:16:32+0100</time>
      </trkpt>
      <trkpt lat="47.24871" lon="4.96115">
        <ele>414.52166748047</ele>
        <time>2019-03-28T11:16:35+0100</time>
      </trkpt>
      <trkpt lat="47.24871" lon="4.96118">
        <ele>414.5947265625</ele>
        <time>2019-03-28T11:16:38+0100</time>
      </trkpt>
      <trkpt lat="47.24873" lon="4.96122">
        <ele>414.78546142578</ele>
        <time>2019-03-28T11:16:41+0100</time>
      </trkpt>
      <trkpt lat="47.24869" lon="4.96129">
        <ele>415.03344726562</ele>
        <time>2019-03-28T11:16:44+0100</time>
      </trkpt>
      <trkpt lat="47.24868" lon="4.96133">
        <ele>415.22012329102</ele>
        <time>2019-03-28T11:16:47+0100</time>
      </trkpt>
      <trkpt lat="47.2487" lon="4.96134">
        <ele>415.21823120117</ele>
        <time>2019-03-28T11:16:50+0100</time>
      </trkpt>
      <trkpt lat="47.24872" lon="4.96137">
        <ele>415.03671264648</ele>
        <time>2019-03-28T11:16:53+0100</time>
      </trkpt>
      <trkpt lat="47.24873" lon="4.9614">
        <ele>414.890625</ele>
        <time>2019-03-28T11:16:56+0100</time>
      </trkpt>
      <trkpt lat="47.24872" lon="4.96144">
        <ele>414.82794189453</ele>
        <time>2019-03-28T11:16:59+0100</time>
      </trkpt>
      <trkpt lat="47.24873" lon="4.96155">
        <ele>414.76635742188</ele>
        <time>2019-03-28T11:17:02+0100</time>
      </trkpt>
      <trkpt lat="47.24873" lon="4.96165">
        <ele>414.68481445312</ele>
        <time>2019-03-28T11:17:05+0100</time>
      </trkpt>
      <trkpt lat="47.24874" lon="4.96168">
        <ele>414.64276123047</ele>
        <time>2019-03-28T11:17:08+0100</time>
      </trkpt>
      <trkpt lat="47.24875" lon="4.96171">
        <ele>414.47998046875</ele>
        <time>2019-03-28T11:17:11+0100</time>
      </trkpt>
      <trkpt lat="47.24876" lon="4.96175">
        <ele>414.34310913086</ele>
        <time>2019-03-28T11:17:14+0100</time>
      </trkpt>
      <trkpt lat="47.24877" lon="4.9618">
        <ele>414.02984619141</ele>
        <time>2019-03-28T11:17:17+0100</time>
      </trkpt>
      <trkpt lat="47.24882" lon="4.96194">
        <ele>413.76165771484</ele>
        <time>2019-03-28T11:17:20+0100</time>
      </trkpt>
      <trkpt lat="47.24881" lon="4.96199">
        <ele>413.52590942383</ele>
        <time>2019-03-28T11:17:23+0100</time>
      </trkpt>
      <trkpt lat="47.24882" lon="4.96202">
        <ele>413.50225830078</ele>
        <time>2019-03-28T11:17:26+0100</time>
      </trkpt>
      <trkpt lat="47.24883" lon="4.96206">
        <ele>413.33599853516</ele>
        <time>2019-03-28T11:17:29+0100</time>
      </trkpt>
      <trkpt lat="47.24883" lon="4.96211">
        <ele>413.05624389648</ele>
        <time>2019-03-28T11:17:32+0100</time>
      </trkpt>
      <trkpt lat="47.24883" lon="4.96217">
        <ele>412.79592895508</ele>
        <time>2019-03-28T11:17:35+0100</time>
      </trkpt>
      <trkpt lat="47.24884" lon="4.9622">
        <ele>412.05590820312</ele>
        <time>2019-03-28T11:17:38+0100</time>
      </trkpt>
      <trkpt lat="47.24885" lon="4.96222">
        <ele>411.78820800781</ele>
        <time>2019-03-28T11:17:41+0100</time>
      </trkpt>
      <trkpt lat="47.24885" lon="4.96223">
        <ele>411.72845458984</ele>
        <time>2019-03-28T11:17:44+0100</time>
      </trkpt>
      <trkpt lat="47.24887" lon="4.96227">
        <ele>411.53262329102</ele>
        <time>2019-03-28T11:17:47+0100</time>
      </trkpt>
      <trkpt lat="47.24889" lon="4.96232">
        <ele>411.35861206055</ele>
        <time>2019-03-28T11:17:50+0100</time>
      </trkpt>
      <trkpt lat="47.2489" lon="4.96235">
        <ele>411.1982421875</ele>
        <time>2019-03-28T11:17:53+0100</time>
      </trkpt>
      <trkpt lat="47.24891" lon="4.96237">
        <ele>411.08139038086</ele>
        <time>2019-03-28T11:17:56+0100</time>
      </trkpt>
      <trkpt lat="47.24897" lon="4.96241">
        <ele>410.97857666016</ele>
        <time>2019-03-28T11:17:59+0100</time>
      </trkpt>
      <trkpt lat="47.24901" lon="4.96247">
        <ele>410.94360351562</ele>
        <time>2019-03-28T11:18:02+0100</time>
      </trkpt>
      <trkpt lat="47.24903" lon="4.96254">
        <ele>410.50451660156</ele>
        <time>2019-03-28T11:18:05+0100</time>
      </trkpt>
      <trkpt lat="47.24905" lon="4.96265">
        <ele>410.27160644531</ele>
        <time>2019-03-28T11:18:08+0100</time>
      </trkpt>
      <trkpt lat="47.24905" lon="4.96268">
        <ele>410.13311767578</ele>
        <time>2019-03-28T11:18:11+0100</time>
      </trkpt>
      <trkpt lat="47.24906" lon="4.96274">
        <ele>410.02008056641</ele>
        <time>2019-03-28T11:18:14+0100</time>
      </trkpt>
      <trkpt lat="47.2491" lon="4.96286">
        <ele>409.80093383789</ele>
        <time>2019-03-28T11:18:17+0100</time>
      </trkpt>
      <trkpt lat="47.24912" lon="4.96293">
        <ele>409.26531982422</ele>
        <time>2019-03-28T11:18:20+0100</time>
      </trkpt>
      <trkpt lat="47.24912" lon="4.96293">
        <ele>409.03753662109</ele>
        <time>2019-03-28T11:18:23+0100</time>
      </trkpt>
      <trkpt lat="47.24914" lon="4.96293">
        <ele>408.41830444336</ele>
        <time>2019-03-28T11:18:26+0100</time>
      </trkpt>
      <trkpt lat="47.24915" lon="4.96295">
        <ele>407.89379882812</ele>
        <time>2019-03-28T11:18:29+0100</time>
      </trkpt>
      <trkpt lat="47.24915" lon="4.96298">
        <ele>407.38522338867</ele>
        <time>2019-03-28T11:18:32+0100</time>
      </trkpt>
      <trkpt lat="47.24916" lon="4.96301">
        <ele>406.880859375</ele>
        <time>2019-03-28T11:18:35+0100</time>
      </trkpt>
      <trkpt lat="47.24917" lon="4.96303">
        <ele>406.37579345703</ele>
        <time>2019-03-28T11:18:38+0100</time>
      </trkpt>
      <trkpt lat="47.24918" lon="4.96305">
        <ele>406.15878295898</ele>
        <time>2019-03-28T11:18:41+0100</time>
      </trkpt>
      <trkpt lat="47.24921" lon="4.96315">
        <ele>405.43826293945</ele>
        <time>2019-03-28T11:18:44+0100</time>
      </trkpt>
      <trkpt lat="47.24928" lon="4.96337">
        <ele>404.43185424805</ele>
        <time>2019-03-28T11:18:47+0100</time>
      </trkpt>
      <trkpt lat="47.24931" lon="4.96333">
        <ele>403.99124145508</ele>
        <time>2019-03-28T11:18:50+0100</time>
      </trkpt>
      <trkpt lat="47.24933" lon="4.96331">
        <ele>403.54125976562</ele>
        <time>2019-03-28T11:18:53+0100</time>
      </trkpt>
      <trkpt lat="47.24934" lon="4.96328">
        <ele>402.81976318359</ele>
        <time>2019-03-28T11:18:56+0100</time>
      </trkpt>
      <trkpt lat="47.24933" lon="4.96324">
        <ele>402.28930664062</ele>
        <time>2019-03-28T11:18:59+0100</time>
      </trkpt>
      <trkpt lat="47.24934" lon="4.96325">
        <ele>401.76171875</ele>
        <time>2019-03-28T11:19:02+0100</time>
      </trkpt>
      <trkpt lat="47.24936" lon="4.96327">
        <ele>401.56262207031</ele>
        <time>2019-03-28T11:19:05+0100</time>
      </trkpt>
      <trkpt lat="47.24936" lon="4.96331">
        <ele>401.20974731445</ele>
        <time>2019-03-28T11:19:08+0100</time>
      </trkpt>
      <trkpt lat="47.24937" lon="4.96334">
        <ele>400.72583007812</ele>
        <time>2019-03-28T11:19:11+0100</time>
      </trkpt>
      <trkpt lat="47.24939" lon="4.96339">
        <ele>400.28076171875</ele>
        <time>2019-03-28T11:19:14+0100</time>
      </trkpt>
      <trkpt lat="47.24942" lon="4.96343">
        <ele>399.76119995117</ele>
        <time>2019-03-28T11:19:17+0100</time>
      </trkpt>
      <trkpt lat="47.24941" lon="4.96344">
        <ele>399.21939086914</ele>
        <time>2019-03-28T11:19:20+0100</time>
      </trkpt>
      <trkpt lat="47.24941" lon="4.96348">
        <ele>398.80340576172</ele>
        <time>2019-03-28T11:19:23+0100</time>
      </trkpt>
      <trkpt lat="47.24941" lon="4.96348">
        <ele>398.54711914062</ele>
        <time>2019-03-28T11:19:26+0100</time>
      </trkpt>
      <trkpt lat="47.24941" lon="4.96349">
        <ele>398.5087890625</ele>
        <time>2019-03-28T11:19:29+0100</time>
      </trkpt>
      <trkpt lat="47.24941" lon="4.96349">
        <ele>398.46105957031</ele>
        <time>2019-03-28T11:19:32+0100</time>
      </trkpt>
      <trkpt lat="47.24941" lon="4.96347">
        <ele>398.04754638672</ele>
        <time>2019-03-28T11:19:36+0100</time>
      </trkpt>
      <trkpt lat="47.24941" lon="4.96345">
        <ele>398.02432250977</ele>
        <time>2019-03-28T11:19:39+0100</time>
      </trkpt>
      <trkpt lat="47.24941" lon="4.96346">
        <ele>398.00152587891</ele>
        <time>2019-03-28T11:19:42+0100</time>
      </trkpt>
      <trkpt lat="47.24941" lon="4.96347">
        <ele>397.96441650391</ele>
        <time>2019-03-28T11:19:45+0100</time>
      </trkpt>
      <trkpt lat="47.24941" lon="4.96348">
        <ele>397.91244506836</ele>
        <time>2019-03-28T11:19:48+0100</time>
      </trkpt>
      <trkpt lat="47.24942" lon="4.96349">
        <ele>397.640625</ele>
        <time>2019-03-28T11:19:51+0100</time>
      </trkpt>
      <trkpt lat="47.24949" lon="4.96351">
        <ele>397.45074462891</ele>
        <time>2019-03-28T11:19:54+0100</time>
      </trkpt>
      <trkpt lat="47.2495" lon="4.96351">
        <ele>397.41415405273</ele>
        <time>2019-03-28T11:19:57+0100</time>
      </trkpt>
      <trkpt lat="47.24953" lon="4.96353">
        <ele>397.30053710938</ele>
        <time>2019-03-28T11:20:00+0100</time>
      </trkpt>
      <trkpt lat="47.24956" lon="4.96354">
        <ele>397.55648803711</ele>
        <time>2019-03-28T11:20:03+0100</time>
      </trkpt>
      <trkpt lat="47.24957" lon="4.96355">
        <ele>397.61059570312</ele>
        <time>2019-03-28T11:20:06+0100</time>
      </trkpt>
      <trkpt lat="47.24955" lon="4.96358">
        <ele>398.24536132812</ele>
        <time>2019-03-28T11:20:09+0100</time>
      </trkpt>
      <trkpt lat="47.24955" lon="4.96361">
        <ele>399.00823974609</ele>
        <time>2019-03-28T11:20:12+0100</time>
      </trkpt>
      <trkpt lat="47.24954" lon="4.96362">
        <ele>399.24566650391</ele>
        <time>2019-03-28T11:20:15+0100</time>
      </trkpt>
      <trkpt lat="47.24951" lon="4.96363">
        <ele>399.56283569336</ele>
        <time>2019-03-28T11:20:18+0100</time>
      </trkpt>
      <trkpt lat="47.24949" lon="4.96364">
        <ele>399.63143920898</ele>
        <time>2019-03-28T11:20:21+0100</time>
      </trkpt>
      <trkpt lat="47.24938" lon="4.96366">
        <ele>399.56631469727</ele>
        <time>2019-03-28T11:20:24+0100</time>
      </trkpt>
      <trkpt lat="47.24931" lon="4.96363">
        <ele>398.97256469727</ele>
        <time>2019-03-28T11:20:27+0100</time>
      </trkpt>
      <trkpt lat="47.24928" lon="4.96364">
        <ele>398.43109130859</ele>
        <time>2019-03-28T11:20:30+0100</time>
      </trkpt>
      <trkpt lat="47.24927" lon="4.96364">
        <ele>398.19589233398</ele>
        <time>2019-03-28T11:20:33+0100</time>
      </trkpt>
      <trkpt lat="47.24926" lon="4.96364">
        <ele>397.93844604492</ele>
        <time>2019-03-28T11:20:36+0100</time>
      </trkpt>
      <trkpt lat="47.24922" lon="4.96364">
        <ele>397.57901000977</ele>
        <time>2019-03-28T11:20:39+0100</time>
      </trkpt>
      <trkpt lat="47.24919" lon="4.96363">
        <ele>397.28070068359</ele>
        <time>2019-03-28T11:20:42+0100</time>
      </trkpt>
      <trkpt lat="47.24917" lon="4.96361">
        <ele>397.06573486328</ele>
        <time>2019-03-28T11:20:45+0100</time>
      </trkpt>
      <trkpt lat="47.24911" lon="4.96359">
        <ele>397.10113525391</ele>
        <time>2019-03-28T11:20:48+0100</time>
      </trkpt>
      <trkpt lat="47.24909" lon="4.96359">
        <ele>397.03112792969</ele>
        <time>2019-03-28T11:20:51+0100</time>
      </trkpt>
      <trkpt lat="47.2489" lon="4.9635">
        <ele>396.81793212891</ele>
        <time>2019-03-28T11:20:54+0100</time>
      </trkpt>
      <trkpt lat="47.24883" lon="4.96349">
        <ele>396.43884277344</ele>
        <time>2019-03-28T11:20:57+0100</time>
      </trkpt>
      <trkpt lat="47.24879" lon="4.9635">
        <ele>396.17114257812</ele>
        <time>2019-03-28T11:21:00+0100</time>
      </trkpt>
      <trkpt lat="47.24876" lon="4.96358">
        <ele>395.90502929688</ele>
        <time>2019-03-28T11:21:03+0100</time>
      </trkpt>
      <trkpt lat="47.24873" lon="4.96362">
        <ele>395.66256713867</ele>
        <time>2019-03-28T11:21:06+0100</time>
      </trkpt>
      <trkpt lat="47.24872" lon="4.96366">
        <ele>395.3967590332</ele>
        <time>2019-03-28T11:21:09+0100</time>
      </trkpt>
      <trkpt lat="47.2487" lon="4.96368">
        <ele>395.28118896484</ele>
        <time>2019-03-28T11:21:12+0100</time>
      </trkpt>
      <trkpt lat="47.24871" lon="4.96371">
        <ele>395.12664794922</ele>
        <time>2019-03-28T11:21:15+0100</time>
      </trkpt>
      <trkpt lat="47.24869" lon="4.96374">
        <ele>394.92816162109</ele>
        <time>2019-03-28T11:21:18+0100</time>
      </trkpt>
      <trkpt lat="47.24868" lon="4.96374">
        <ele>394.85858154297</ele>
        <time>2019-03-28T11:21:21+0100</time>
      </trkpt>
      <trkpt lat="47.24869" lon="4.96376">
        <ele>394.74731445312</ele>
        <time>2019-03-28T11:21:24+0100</time>
      </trkpt>
      <trkpt lat="47.24866" lon="4.9638">
        <ele>394.61288452148</ele>
        <time>2019-03-28T11:21:27+0100</time>
      </trkpt>
      <trkpt lat="47.24864" lon="4.9638">
        <ele>394.61181640625</ele>
        <time>2019-03-28T11:21:30+0100</time>
      </trkpt>
      <trkpt lat="47.2486" lon="4.96384">
        <ele>394.70333862305</ele>
        <time>2019-03-28T11:21:33+0100</time>
      </trkpt>
      <trkpt lat="47.24858" lon="4.96388">
        <ele>394.66989135742</ele>
        <time>2019-03-28T11:21:36+0100</time>
      </trkpt>
      <trkpt lat="47.24859" lon="4.9639">
        <ele>394.48715209961</ele>
        <time>2019-03-28T11:21:39+0100</time>
      </trkpt>
      <trkpt lat="47.24858" lon="4.96394">
        <ele>394.10317993164</ele>
        <time>2019-03-28T11:21:42+0100</time>
      </trkpt>
      <trkpt lat="47.24856" lon="4.96398">
        <ele>393.79235839844</ele>
        <time>2019-03-28T11:21:45+0100</time>
      </trkpt>
      <trkpt lat="47.24856" lon="4.96399">
        <ele>393.45718383789</ele>
        <time>2019-03-28T11:21:48+0100</time>
      </trkpt>
      <trkpt lat="47.24857" lon="4.96402">
        <ele>393.40493774414</ele>
        <time>2019-03-28T11:21:51+0100</time>
      </trkpt>
      <trkpt lat="47.24858" lon="4.96407">
        <ele>392.89419555664</ele>
        <time>2019-03-28T11:21:54+0100</time>
      </trkpt>
      <trkpt lat="47.24859" lon="4.96416">
        <ele>392.32922363281</ele>
        <time>2019-03-28T11:21:57+0100</time>
      </trkpt>
      <trkpt lat="47.24858" lon="4.96418">
        <ele>391.93405151367</ele>
        <time>2019-03-28T11:22:00+0100</time>
      </trkpt>
      <trkpt lat="47.24854" lon="4.96431">
        <ele>391.34771728516</ele>
        <time>2019-03-28T11:22:03+0100</time>
      </trkpt>
      <trkpt lat="47.24853" lon="4.96439">
        <ele>391.13088989258</ele>
        <time>2019-03-28T11:22:06+0100</time>
      </trkpt>
      <trkpt lat="47.24853" lon="4.96442">
        <ele>390.82723999023</ele>
        <time>2019-03-28T11:22:09+0100</time>
      </trkpt>
      <trkpt lat="47.24852" lon="4.9645">
        <ele>390.51165771484</ele>
        <time>2019-03-28T11:22:12+0100</time>
      </trkpt>
      <trkpt lat="47.24853" lon="4.96452">
        <ele>390.24230957031</ele>
        <time>2019-03-28T11:22:15+0100</time>
      </trkpt>
      <trkpt lat="47.24854" lon="4.96455">
        <ele>389.52084350586</ele>
        <time>2019-03-28T11:22:18+0100</time>
      </trkpt>
      <trkpt lat="47.24855" lon="4.96463">
        <ele>388.84826660156</ele>
        <time>2019-03-28T11:22:21+0100</time>
      </trkpt>
      <trkpt lat="47.24856" lon="4.96467">
        <ele>388.60778808594</ele>
        <time>2019-03-28T11:22:24+0100</time>
      </trkpt>
      <trkpt lat="47.24858" lon="4.96469">
        <ele>388.22396850586</ele>
        <time>2019-03-28T11:22:27+0100</time>
      </trkpt>
      <trkpt lat="47.24858" lon="4.96471">
        <ele>387.72946166992</ele>
        <time>2019-03-28T11:22:30+0100</time>
      </trkpt>
      <trkpt lat="47.24859" lon="4.96473">
        <ele>387.41430664062</ele>
        <time>2019-03-28T11:22:33+0100</time>
      </trkpt>
      <trkpt lat="47.24859" lon="4.96474">
        <ele>387.21136474609</ele>
        <time>2019-03-28T11:22:36+0100</time>
      </trkpt>
      <trkpt lat="47.24858" lon="4.96479">
        <ele>387.00271606445</ele>
        <time>2019-03-28T11:22:39+0100</time>
      </trkpt>
      <trkpt lat="47.24855" lon="4.96486">
        <ele>386.66650390625</ele>
        <time>2019-03-28T11:22:42+0100</time>
      </trkpt>
      <trkpt lat="47.24859" lon="4.96495">
        <ele>386.06488037109</ele>
        <time>2019-03-28T11:22:45+0100</time>
      </trkpt>
      <trkpt lat="47.24862" lon="4.96495">
        <ele>385.67178344727</ele>
        <time>2019-03-28T11:22:48+0100</time>
      </trkpt>
      <trkpt lat="47.24862" lon="4.96496">
        <ele>385.38690185547</ele>
        <time>2019-03-28T11:22:51+0100</time>
      </trkpt>
      <trkpt lat="47.24863" lon="4.965">
        <ele>385.1516418457</ele>
        <time>2019-03-28T11:22:54+0100</time>
      </trkpt>
      <trkpt lat="47.24863" lon="4.96502">
        <ele>384.80786132812</ele>
        <time>2019-03-28T11:22:57+0100</time>
      </trkpt>
      <trkpt lat="47.24863" lon="4.96503">
        <ele>384.57553100586</ele>
        <time>2019-03-28T11:23:00+0100</time>
      </trkpt>
      <trkpt lat="47.24864" lon="4.9651">
        <ele>384.52127075195</ele>
        <time>2019-03-28T11:23:03+0100</time>
      </trkpt>
      <trkpt lat="47.24865" lon="4.96511">
        <ele>384.08624267578</ele>
        <time>2019-03-28T11:23:06+0100</time>
      </trkpt>
      <trkpt lat="47.24865" lon="4.96513">
        <ele>383.81286621094</ele>
        <time>2019-03-28T11:23:09+0100</time>
      </trkpt>
      <trkpt lat="47.24867" lon="4.96516">
        <ele>383.74450683594</ele>
        <time>2019-03-28T11:23:12+0100</time>
      </trkpt>
      <trkpt lat="47.24867" lon="4.96517">
        <ele>383.53289794922</ele>
        <time>2019-03-28T11:23:15+0100</time>
      </trkpt>
      <trkpt lat="47.24877" lon="4.9654">
        <ele>383.2209777832</ele>
        <time>2019-03-28T11:23:18+0100</time>
      </trkpt>
      <trkpt lat="47.24877" lon="4.9654">
        <ele>383.173828125</ele>
        <time>2019-03-28T11:23:21+0100</time>
      </trkpt>
      <trkpt lat="47.24878" lon="4.96537">
        <ele>382.93670654297</ele>
        <time>2019-03-28T11:23:24+0100</time>
      </trkpt>
      <trkpt lat="47.24878" lon="4.96539">
        <ele>382.80346679688</ele>
        <time>2019-03-28T11:23:27+0100</time>
      </trkpt>
      <trkpt lat="47.24879" lon="4.96542">
        <ele>382.36001586914</ele>
        <time>2019-03-28T11:23:30+0100</time>
      </trkpt>
      <trkpt lat="47.24879" lon="4.96543">
        <ele>382.30902099609</ele>
        <time>2019-03-28T11:23:33+0100</time>
      </trkpt>
      <trkpt lat="47.24883" lon="4.96546">
        <ele>381.81118774414</ele>
        <time>2019-03-28T11:23:36+0100</time>
      </trkpt>
      <trkpt lat="47.24887" lon="4.96546">
        <ele>381.25885009766</ele>
        <time>2019-03-28T11:23:39+0100</time>
      </trkpt>
      <trkpt lat="47.24888" lon="4.96549">
        <ele>380.94338989258</ele>
        <time>2019-03-28T11:23:42+0100</time>
      </trkpt>
      <trkpt lat="47.24888" lon="4.96549">
        <ele>380.87927246094</ele>
        <time>2019-03-28T11:23:45+0100</time>
      </trkpt>
      <trkpt lat="47.24888" lon="4.96551">
        <ele>380.38345336914</ele>
        <time>2019-03-28T11:23:48+0100</time>
      </trkpt>
      <trkpt lat="47.24891" lon="4.96558">
        <ele>379.75503540039</ele>
        <time>2019-03-28T11:23:51+0100</time>
      </trkpt>
      <trkpt lat="47.24893" lon="4.96563">
        <ele>379.17367553711</ele>
        <time>2019-03-28T11:23:54+0100</time>
      </trkpt>
      <trkpt lat="47.24895" lon="4.96566">
        <ele>378.5888671875</ele>
        <time>2019-03-28T11:23:57+0100</time>
      </trkpt>
      <trkpt lat="47.24894" lon="4.9657">
        <ele>378.18908691406</ele>
        <time>2019-03-28T11:24:00+0100</time>
      </trkpt>
      <trkpt lat="47.24894" lon="4.96575">
        <ele>378.00082397461</ele>
        <time>2019-03-28T11:24:03+0100</time>
      </trkpt>
      <trkpt lat="47.24894" lon="4.96577">
        <ele>377.90896606445</ele>
        <time>2019-03-28T11:24:06+0100</time>
      </trkpt>
      <trkpt lat="47.24894" lon="4.96584">
        <ele>377.82229614258</ele>
        <time>2019-03-28T11:24:09+0100</time>
      </trkpt>
      <trkpt lat="47.24895" lon="4.9659">
        <ele>377.80178833008</ele>
        <time>2019-03-28T11:24:12+0100</time>
      </trkpt>
      <trkpt lat="47.24896" lon="4.96591">
        <ele>377.78848266602</ele>
        <time>2019-03-28T11:24:15+0100</time>
      </trkpt>
      <trkpt lat="47.24898" lon="4.96592">
        <ele>377.77877807617</ele>
        <time>2019-03-28T11:24:18+0100</time>
      </trkpt>
      <trkpt lat="47.24901" lon="4.966">
        <ele>377.61642456055</ele>
        <time>2019-03-28T11:24:21+0100</time>
      </trkpt>
      <trkpt lat="47.24902" lon="4.96604">
        <ele>377.32052612305</ele>
        <time>2019-03-28T11:24:24+0100</time>
      </trkpt>
      <trkpt lat="47.24903" lon="4.9661">
        <ele>376.77914428711</ele>
        <time>2019-03-28T11:24:27+0100</time>
      </trkpt>
      <trkpt lat="47.2491" lon="4.96617">
        <ele>376.34240722656</ele>
        <time>2019-03-28T11:24:30+0100</time>
      </trkpt>
      <trkpt lat="47.24908" lon="4.96612">
        <ele>375.94354248047</ele>
        <time>2019-03-28T11:24:33+0100</time>
      </trkpt>
      <trkpt lat="47.24913" lon="4.96614">
        <ele>375.43283081055</ele>
        <time>2019-03-28T11:24:36+0100</time>
      </trkpt>
      <trkpt lat="47.24919" lon="4.96623">
        <ele>374.70416259766</ele>
        <time>2019-03-28T11:24:39+0100</time>
      </trkpt>
      <trkpt lat="47.24918" lon="4.96622">
        <ele>373.85943603516</ele>
        <time>2019-03-28T11:24:42+0100</time>
      </trkpt>
      <trkpt lat="47.24918" lon="4.96619">
        <ele>373.28625488281</ele>
        <time>2019-03-28T11:24:45+0100</time>
      </trkpt>
      <trkpt lat="47.2492" lon="4.96617">
        <ele>373.11233520508</ele>
        <time>2019-03-28T11:24:48+0100</time>
      </trkpt>
      <trkpt lat="47.2492" lon="4.96617">
        <ele>373.07666015625</ele>
        <time>2019-03-28T11:24:51+0100</time>
      </trkpt>
      <trkpt lat="47.24923" lon="4.96623">
        <ele>373.03182983398</ele>
        <time>2019-03-28T11:24:54+0100</time>
      </trkpt>
      <trkpt lat="47.24927" lon="4.96628">
        <ele>372.84341430664</ele>
        <time>2019-03-28T11:24:57+0100</time>
      </trkpt>
      <trkpt lat="47.24928" lon="4.9663">
        <ele>372.73635864258</ele>
        <time>2019-03-28T11:25:00+0100</time>
      </trkpt>
      <trkpt lat="47.24931" lon="4.9663">
        <ele>372.69372558594</ele>
        <time>2019-03-28T11:25:03+0100</time>
      </trkpt>
      <trkpt lat="47.24934" lon="4.96632">
        <ele>372.24591064453</ele>
        <time>2019-03-28T11:25:06+0100</time>
      </trkpt>
      <trkpt lat="47.24937" lon="4.96638">
        <ele>371.6171875</ele>
        <time>2019-03-28T11:25:09+0100</time>
      </trkpt>
      <trkpt lat="47.24937" lon="4.96642">
        <ele>371.02688598633</ele>
        <time>2019-03-28T11:25:12+0100</time>
      </trkpt>
      <trkpt lat="47.24938" lon="4.96647">
        <ele>370.96936035156</ele>
        <time>2019-03-28T11:25:15+0100</time>
      </trkpt>
      <trkpt lat="47.24938" lon="4.96647">
        <ele>370.7663269043</ele>
        <time>2019-03-28T11:25:18+0100</time>
      </trkpt>
      <trkpt lat="47.24938" lon="4.96649">
        <ele>370.7170715332</ele>
        <time>2019-03-28T11:25:21+0100</time>
      </trkpt>
      <trkpt lat="47.24939" lon="4.96655">
        <ele>370.46826171875</ele>
        <time>2019-03-28T11:25:24+0100</time>
      </trkpt>
      <trkpt lat="47.24938" lon="4.96662">
        <ele>369.86532592773</ele>
        <time>2019-03-28T11:25:27+0100</time>
      </trkpt>
      <trkpt lat="47.24939" lon="4.96665">
        <ele>369.41799926758</ele>
        <time>2019-03-28T11:25:30+0100</time>
      </trkpt>
      <trkpt lat="47.24939" lon="4.96669">
        <ele>369.18783569336</ele>
        <time>2019-03-28T11:25:33+0100</time>
      </trkpt>
      <trkpt lat="47.24938" lon="4.96676">
        <ele>368.85961914062</ele>
        <time>2019-03-28T11:25:36+0100</time>
      </trkpt>
      <trkpt lat="47.24938" lon="4.96679">
        <ele>368.42330932617</ele>
        <time>2019-03-28T11:25:39+0100</time>
      </trkpt>
      <trkpt lat="47.24939" lon="4.96681">
        <ele>368.13665771484</ele>
        <time>2019-03-28T11:25:42+0100</time>
      </trkpt>
      <trkpt lat="47.2494" lon="4.96684">
        <ele>367.78747558594</ele>
        <time>2019-03-28T11:25:45+0100</time>
      </trkpt>
      <trkpt lat="47.24941" lon="4.96685">
        <ele>367.6457824707</ele>
        <time>2019-03-28T11:25:48+0100</time>
      </trkpt>
      <trkpt lat="47.24943" lon="4.96691">
        <ele>367.49005126953</ele>
        <time>2019-03-28T11:25:51+0100</time>
      </trkpt>
      <trkpt lat="47.24944" lon="4.96693">
        <ele>367.12307739258</ele>
        <time>2019-03-28T11:25:54+0100</time>
      </trkpt>
      <trkpt lat="47.24947" lon="4.96698">
        <ele>366.89462280273</ele>
        <time>2019-03-28T11:25:57+0100</time>
      </trkpt>
      <trkpt lat="47.24948" lon="4.967">
        <ele>366.62945556641</ele>
        <time>2019-03-28T11:26:00+0100</time>
      </trkpt>
      <trkpt lat="47.24949" lon="4.96703">
        <ele>366.10983276367</ele>
        <time>2019-03-28T11:26:03+0100</time>
      </trkpt>
      <trkpt lat="47.24949" lon="4.96707">
        <ele>365.33444213867</ele>
        <time>2019-03-28T11:26:06+0100</time>
      </trkpt>
      <trkpt lat="47.2495" lon="4.96711">
        <ele>364.63803100586</ele>
        <time>2019-03-28T11:26:09+0100</time>
      </trkpt>
      <trkpt lat="47.2495" lon="4.96718">
        <ele>364.37609863281</ele>
        <time>2019-03-28T11:26:12+0100</time>
      </trkpt>
      <trkpt lat="47.2495" lon="4.96728">
        <ele>363.74606323242</ele>
        <time>2019-03-28T11:26:15+0100</time>
      </trkpt>
      <trkpt lat="47.24952" lon="4.96732">
        <ele>363.29891967773</ele>
        <time>2019-03-28T11:26:18+0100</time>
      </trkpt>
      <trkpt lat="47.24954" lon="4.96737">
        <ele>362.61114501953</ele>
        <time>2019-03-28T11:26:21+0100</time>
      </trkpt>
      <trkpt lat="47.24956" lon="4.96743">
        <ele>361.87133789062</ele>
        <time>2019-03-28T11:26:24+0100</time>
      </trkpt>
      <trkpt lat="47.24958" lon="4.96746">
        <ele>361.05941772461</ele>
        <time>2019-03-28T11:26:27+0100</time>
      </trkpt>
      <trkpt lat="47.24959" lon="4.96747">
        <ele>360.56558227539</ele>
        <time>2019-03-28T11:26:30+0100</time>
      </trkpt>
      <trkpt lat="47.24961" lon="4.9675">
        <ele>359.90710449219</ele>
        <time>2019-03-28T11:26:33+0100</time>
      </trkpt>
      <trkpt lat="47.24962" lon="4.96753">
        <ele>359.23211669922</ele>
        <time>2019-03-28T11:26:36+0100</time>
      </trkpt>
      <trkpt lat="47.24962" lon="4.96754">
        <ele>358.60388183594</ele>
        <time>2019-03-28T11:26:39+0100</time>
      </trkpt>
      <trkpt lat="47.24964" lon="4.96756">
        <ele>358.21423339844</ele>
        <time>2019-03-28T11:26:42+0100</time>
      </trkpt>
      <trkpt lat="47.24967" lon="4.9676">
        <ele>357.59518432617</ele>
        <time>2019-03-28T11:26:45+0100</time>
      </trkpt>
      <trkpt lat="47.2497" lon="4.96761">
        <ele>356.98849487305</ele>
        <time>2019-03-28T11:26:48+0100</time>
      </trkpt>
      <trkpt lat="47.24972" lon="4.96766">
        <ele>356.57745361328</ele>
        <time>2019-03-28T11:26:51+0100</time>
      </trkpt>
      <trkpt lat="47.24974" lon="4.96772">
        <ele>355.98867797852</ele>
        <time>2019-03-28T11:26:54+0100</time>
      </trkpt>
      <trkpt lat="47.24976" lon="4.96778">
        <ele>355.59423828125</ele>
        <time>2019-03-28T11:26:57+0100</time>
      </trkpt>
      <trkpt lat="47.24977" lon="4.96779">
        <ele>355.01651000977</ele>
        <time>2019-03-28T11:27:00+0100</time>
      </trkpt>
      <trkpt lat="47.24979" lon="4.96782">
        <ele>354.70172119141</ele>
        <time>2019-03-28T11:27:03+0100</time>
      </trkpt>
      <trkpt lat="47.2498" lon="4.96783">
        <ele>354.05783081055</ele>
        <time>2019-03-28T11:27:06+0100</time>
      </trkpt>
      <trkpt lat="47.24982" lon="4.96785">
        <ele>353.57437133789</ele>
        <time>2019-03-28T11:27:09+0100</time>
      </trkpt>
      <trkpt lat="47.24983" lon="4.96786">
        <ele>353.25109863281</ele>
        <time>2019-03-28T11:27:12+0100</time>
      </trkpt>
      <trkpt lat="47.24984" lon="4.9679">
        <ele>352.82278442383</ele>
        <time>2019-03-28T11:27:15+0100</time>
      </trkpt>
      <trkpt lat="47.24986" lon="4.96793">
        <ele>352.42477416992</ele>
        <time>2019-03-28T11:27:18+0100</time>
      </trkpt>
      <trkpt lat="47.2499" lon="4.96797">
        <ele>351.96170043945</ele>
        <time>2019-03-28T11:27:21+0100</time>
      </trkpt>
      <trkpt lat="47.24991" lon="4.96799">
        <ele>351.45938110352</ele>
        <time>2019-03-28T11:27:24+0100</time>
      </trkpt>
      <trkpt lat="47.24993" lon="4.96804">
        <ele>350.95947265625</ele>
        <time>2019-03-28T11:27:27+0100</time>
      </trkpt>
      <trkpt lat="47.24995" lon="4.96808">
        <ele>350.46478271484</ele>
        <time>2019-03-28T11:27:30+0100</time>
      </trkpt>
      <trkpt lat="47.24997" lon="4.96813">
        <ele>349.85949707031</ele>
        <time>2019-03-28T11:27:33+0100</time>
      </trkpt>
      <trkpt lat="47.24998" lon="4.96816">
        <ele>349.17098999023</ele>
        <time>2019-03-28T11:27:36+0100</time>
      </trkpt>
      <trkpt lat="47.24998" lon="4.96818">
        <ele>348.55798339844</ele>
        <time>2019-03-28T11:27:39+0100</time>
      </trkpt>
      <trkpt lat="47.24998" lon="4.96819">
        <ele>348.05740356445</ele>
        <time>2019-03-28T11:27:42+0100</time>
      </trkpt>
      <trkpt lat="47.24999" lon="4.9682">
        <ele>347.48937988281</ele>
        <time>2019-03-28T11:27:45+0100</time>
      </trkpt>
      <trkpt lat="47.25" lon="4.9682">
        <ele>346.89559936523</ele>
        <time>2019-03-28T11:27:48+0100</time>
      </trkpt>
      <trkpt lat="47.25001" lon="4.96826">
        <ele>346.21975708008</ele>
        <time>2019-03-28T11:27:51+0100</time>
      </trkpt>
      <trkpt lat="47.25" lon="4.9683">
        <ele>345.57302856445</ele>
        <time>2019-03-28T11:27:54+0100</time>
      </trkpt>
      <trkpt lat="47.25" lon="4.96833">
        <ele>345.00106811523</ele>
        <time>2019-03-28T11:27:57+0100</time>
      </trkpt>
      <trkpt lat="47.25001" lon="4.96838">
        <ele>344.40335083008</ele>
        <time>2019-03-28T11:28:00+0100</time>
      </trkpt>
      <trkpt lat="47.25001" lon="4.96842">
        <ele>343.77676391602</ele>
        <time>2019-03-28T11:28:03+0100</time>
      </trkpt>
      <trkpt lat="47.25001" lon="4.96844">
        <ele>343.13714599609</ele>
        <time>2019-03-28T11:28:06+0100</time>
      </trkpt>
      <trkpt lat="47.25" lon="4.96847">
        <ele>342.53033447266</ele>
        <time>2019-03-28T11:28:09+0100</time>
      </trkpt>
      <trkpt lat="47.25" lon="4.96848">
        <ele>341.95599365234</ele>
        <time>2019-03-28T11:28:12+0100</time>
      </trkpt>
      <trkpt lat="47.24999" lon="4.96852">
        <ele>341.44372558594</ele>
        <time>2019-03-28T11:28:15+0100</time>
      </trkpt>
      <trkpt lat="47.24999" lon="4.96855">
        <ele>340.95767211914</ele>
        <time>2019-03-28T11:28:18+0100</time>
      </trkpt>
      <trkpt lat="47.24998" lon="4.96858">
        <ele>340.52896118164</ele>
        <time>2019-03-28T11:28:21+0100</time>
      </trkpt>
      <trkpt lat="47.24996" lon="4.96868">
        <ele>340.08367919922</ele>
        <time>2019-03-28T11:28:24+0100</time>
      </trkpt>
      <trkpt lat="47.24997" lon="4.96877">
        <ele>339.47326660156</ele>
        <time>2019-03-28T11:28:27+0100</time>
      </trkpt>
      <trkpt lat="47.24996" lon="4.96875">
        <ele>338.8186340332</ele>
        <time>2019-03-28T11:28:30+0100</time>
      </trkpt>
      <trkpt lat="47.24996" lon="4.96879">
        <ele>338.37976074219</ele>
        <time>2019-03-28T11:28:33+0100</time>
      </trkpt>
      <trkpt lat="47.24995" lon="4.96884">
        <ele>337.88034057617</ele>
        <time>2019-03-28T11:28:36+0100</time>
      </trkpt>
      <trkpt lat="47.24995" lon="4.96884">
        <ele>337.80532836914</ele>
        <time>2019-03-28T11:28:39+0100</time>
      </trkpt>
      <trkpt lat="47.24995" lon="4.96892">
        <ele>337.75155639648</ele>
        <time>2019-03-28T11:28:42+0100</time>
      </trkpt>
      <trkpt lat="47.24995" lon="4.96892">
        <ele>337.57608032227</ele>
        <time>2019-03-28T11:28:45+0100</time>
      </trkpt>
      <trkpt lat="47.24997" lon="4.96886">
        <ele>337.35491943359</ele>
        <time>2019-03-28T11:28:48+0100</time>
      </trkpt>
      <trkpt lat="47.24997" lon="4.96886">
        <ele>337.30401611328</ele>
        <time>2019-03-28T11:28:51+0100</time>
      </trkpt>
      <trkpt lat="47.24997" lon="4.96886">
        <ele>337.2649230957</ele>
        <time>2019-03-28T11:28:54+0100</time>
      </trkpt>
      <trkpt lat="47.24997" lon="4.96886">
        <ele>337.22601318359</ele>
        <time>2019-03-28T11:28:57+0100</time>
      </trkpt>
      <trkpt lat="47.24997" lon="4.96886">
        <ele>337.18597412109</ele>
        <time>2019-03-28T11:29:00+0100</time>
      </trkpt>
      <trkpt lat="47.24998" lon="4.96886">
        <ele>337.04067993164</ele>
        <time>2019-03-28T11:29:03+0100</time>
      </trkpt>
    </trkseg>
  </trk>
</gpx>